<?xml version='1.0' encoding='UTF-8'?><gpx version="1.1" creator="JPX - https://github.com/jenetics/jpx" xmlns="http://www.topografix.com/GPX/1/1"><trk><trkseg><trkpt lat="45.415139985141685" lon="9.375404949541531"><ele>97.99999999999999</ele><time>2026-04-12T12:51:22.002Z</time></trkpt><trkpt lat="45.415302276368145" lon="9.375426671404004"><ele>98.0</ele><time>2026-04-12T12:51:38.001Z</time></trkpt><trkpt lat="45.41536300695022" lon="9.375395089905124"><ele>98.0</ele><time>2026-04-12T12:51:42.001Z</time></trkpt><trkpt lat="45.415406115395655" lon="9.375314936050563"><ele>98.0</ele><time>2026-04-12T12:51:46Z</time></trkpt><trkpt lat="45.415409174790305" lon="9.375405628242879"><ele>97.99999999999999</ele><time>2026-04-12T12:51:52Z</time></trkpt><trkpt lat="45.4154088706704" lon="9.37528501980151"><ele>98.0</ele><time>2026-04-12T12:58:10Z</time></trkpt><trkpt lat="45.41540700115815" lon="9.375394233171084"><ele>97.33333333333333</ele><time>2026-04-12T12:58:38Z</time></trkpt><trkpt lat="45.41539485838922" lon="9.375700607163404"><ele>96.66666666666666</ele><time>2026-04-12T13:02:01Z</time></trkpt><trkpt lat="45.41533095777351" lon="9.37585025782738"><ele>96.0</ele><time>2026-04-12T13:02:02Z</time></trkpt><trkpt lat="45.41543292119656" lon="9.375953766626765"><ele>96.0</ele><time>2026-04-12T13:02:03Z</time></trkpt><trkpt lat="45.415424480061084" lon="9.376075987070402"><ele>96.0</ele><time>2026-04-12T13:02:05Z</time></trkpt><trkpt lat="45.415516749297936" lon="9.376231638381203"><ele>96.0</ele><time>2026-04-12T13:02:07Z</time></trkpt><trkpt lat="45.41562800328935" lon="9.376365736763114"><ele>96.0</ele><time>2026-04-12T13:02:09Z</time></trkpt><trkpt lat="45.41570898591326" lon="9.37644092531874"><ele>96.5</ele><time>2026-04-12T13:02:10Z</time></trkpt><trkpt lat="45.415800688236686" lon="9.376561881925038"><ele>97.0</ele><time>2026-04-12T13:02:11Z</time></trkpt><trkpt lat="45.415817886651496" lon="9.376717478003844"><ele>97.5</ele><time>2026-04-12T13:02:12Z</time></trkpt><trkpt lat="45.41583649484179" lon="9.376905365130748"><ele>98.0</ele><time>2026-04-12T13:02:13Z</time></trkpt><trkpt lat="45.41579973095157" lon="9.377113131559968"><ele>98.0</ele><time>2026-04-12T13:02:14Z</time></trkpt><trkpt lat="45.41581009716072" lon="9.377310041903959"><ele>98.0</ele><time>2026-04-12T13:02:15Z</time></trkpt><trkpt lat="45.415845454424" lon="9.37752359786984"><ele>98.0</ele><time>2026-04-12T13:02:16Z</time></trkpt><trkpt lat="45.41586728049405" lon="9.377743412492244"><ele>98.0</ele><time>2026-04-12T13:02:17Z</time></trkpt><trkpt lat="45.415888287397536" lon="9.377959982193447"><ele>98.0</ele><time>2026-04-12T13:02:18Z</time></trkpt><trkpt lat="45.415902587548906" lon="9.378203065913295"><ele>98.0</ele><time>2026-04-12T13:02:19Z</time></trkpt><trkpt lat="45.41593225782708" lon="9.378466193200412"><ele>98.0</ele><time>2026-04-12T13:02:20Z</time></trkpt><trkpt lat="45.41595574128038" lon="9.378716340600848"><ele>98.0</ele><time>2026-04-12T13:02:21Z</time></trkpt><trkpt lat="45.41597796248733" lon="9.378964936017022"><ele>98.0</ele><time>2026-04-12T13:02:22Z</time></trkpt><trkpt lat="45.41599003076646" lon="9.37919646027295"><ele>98.0</ele><time>2026-04-12T13:02:23Z</time></trkpt><trkpt lat="45.416006374595185" lon="9.379436062759092"><ele>98.0</ele><time>2026-04-12T13:02:24Z</time></trkpt><trkpt lat="45.416031539515686" lon="9.37968123434113"><ele>98.0</ele><time>2026-04-12T13:02:25Z</time></trkpt><trkpt lat="45.41607269962739" lon="9.379913994526621"><ele>98.0</ele><time>2026-04-12T13:02:26Z</time></trkpt><trkpt lat="45.41611462636503" lon="9.380139872368314"><ele>98.0</ele><time>2026-04-12T13:02:27Z</time></trkpt><trkpt lat="45.416152751185045" lon="9.38033467842817"><ele>98.0</ele><time>2026-04-12T13:02:28Z</time></trkpt><trkpt lat="45.416180104312076" lon="9.380520449496172"><ele>98.0</ele><time>2026-04-12T13:02:29Z</time></trkpt><trkpt lat="45.416208415816875" lon="9.380714178981473"><ele>98.0</ele><time>2026-04-12T13:02:30Z</time></trkpt><trkpt lat="45.41623473185482" lon="9.38088901188652"><ele>98.0</ele><time>2026-04-12T13:02:31Z</time></trkpt><trkpt lat="45.41623814168333" lon="9.38102510069311"><ele>98.0</ele><time>2026-04-12T13:02:32Z</time></trkpt><trkpt lat="45.41623273346105" lon="9.381188529477866"><ele>98.0</ele><time>2026-04-12T13:02:33Z</time></trkpt><trkpt lat="45.41624672228315" lon="9.381360342536146"><ele>98.0</ele><time>2026-04-12T13:02:34Z</time></trkpt><trkpt lat="45.41631572402316" lon="9.38156467204298"><ele>98.0</ele><time>2026-04-12T13:02:35Z</time></trkpt><trkpt lat="45.41638861206648" lon="9.38172249444116"><ele>98.0</ele><time>2026-04-12T13:02:36Z</time></trkpt><trkpt lat="45.41643054743953" lon="9.381925944792737"><ele>98.0</ele><time>2026-04-12T13:02:37Z</time></trkpt><trkpt lat="45.416462988467956" lon="9.38214129359284"><ele>98.0</ele><time>2026-04-12T13:02:38Z</time></trkpt><trkpt lat="45.41649891692772" lon="9.382355861468534"><ele>98.0</ele><time>2026-04-12T13:02:39Z</time></trkpt><trkpt lat="45.416539445460046" lon="9.382564880176368"><ele>98.0</ele><time>2026-04-12T13:02:40Z</time></trkpt><trkpt lat="45.41659516461038" lon="9.382779878301276"><ele>98.0</ele><time>2026-04-12T13:02:41Z</time></trkpt><trkpt lat="45.41666344702097" lon="9.382968093558642"><ele>97.33333333333333</ele><time>2026-04-12T13:02:42Z</time></trkpt><trkpt lat="45.41674906705269" lon="9.383167262764772"><ele>96.66666666666666</ele><time>2026-04-12T13:02:43Z</time></trkpt><trkpt lat="45.41683448069769" lon="9.383347543158278"><ele>96.0</ele><time>2026-04-12T13:02:44Z</time></trkpt><trkpt lat="45.41692914207332" lon="9.383525855815009"><ele>96.0</ele><time>2026-04-12T13:02:45Z</time></trkpt><trkpt lat="45.41702996950072" lon="9.383703306084897"><ele>96.0</ele><time>2026-04-12T13:02:46Z</time></trkpt><trkpt lat="45.417145668930665" lon="9.383870228527178"><ele>96.0</ele><time>2026-04-12T13:02:47Z</time></trkpt><trkpt lat="45.41726087174017" lon="9.384014498653356"><ele>96.0</ele><time>2026-04-12T13:02:48Z</time></trkpt><trkpt lat="45.417396099314026" lon="9.384138752082341"><ele>96.0</ele><time>2026-04-12T13:02:49Z</time></trkpt><trkpt lat="45.41754055812065" lon="9.384214412629602"><ele>96.0</ele><time>2026-04-12T13:02:50Z</time></trkpt><trkpt lat="45.41768233844289" lon="9.384325574309472"><ele>96.0</ele><time>2026-04-12T13:02:51Z</time></trkpt><trkpt lat="45.417827505650955" lon="9.384428003908733"><ele>96.0</ele><time>2026-04-12T13:02:52Z</time></trkpt><trkpt lat="45.4179624913981" lon="9.384521345392217"><ele>96.0</ele><time>2026-04-12T13:02:53Z</time></trkpt><trkpt lat="45.41810566885552" lon="9.38461781669127"><ele>95.66666666666667</ele><time>2026-04-12T13:02:54Z</time></trkpt><trkpt lat="45.41824607392667" lon="9.384719840988824"><ele>95.33333333333334</ele><time>2026-04-12T13:02:55Z</time></trkpt><trkpt lat="45.41839412757428" lon="9.384835364600221"><ele>95.0</ele><time>2026-04-12T13:02:56Z</time></trkpt><trkpt lat="45.41854523901874" lon="9.384947677203291"><ele>95.0</ele><time>2026-04-12T13:02:57Z</time></trkpt><trkpt lat="45.41867485570704" lon="9.385044624123562"><ele>95.0</ele><time>2026-04-12T13:02:58Z</time></trkpt><trkpt lat="45.4188000863503" lon="9.38514437818276"><ele>95.0</ele><time>2026-04-12T13:02:59Z</time></trkpt><trkpt lat="45.41892599846943" lon="9.385236595394117"><ele>95.0</ele><time>2026-04-12T13:03:00Z</time></trkpt><trkpt lat="45.4190315259632" lon="9.385327275444345"><ele>95.0</ele><time>2026-04-12T13:03:01Z</time></trkpt><trkpt lat="45.41913563964708" lon="9.385392808255986"><ele>95.0</ele><time>2026-04-12T13:03:01.999Z</time></trkpt><trkpt lat="45.41923895758124" lon="9.385491250514647"><ele>95.0</ele><time>2026-04-12T13:03:02.999Z</time></trkpt><trkpt lat="45.419339148319914" lon="9.38555001005703"><ele>95.0</ele><time>2026-04-12T13:03:03.999Z</time></trkpt><trkpt lat="45.41938823364087" lon="9.385714842783274"><ele>95.0</ele><time>2026-04-12T13:03:04.999Z</time></trkpt><trkpt lat="45.41943405939975" lon="9.385847034735935"><ele>95.0</ele><time>2026-04-12T13:03:05.999Z</time></trkpt><trkpt lat="45.4194951247967" lon="9.38594249608851"><ele>95.0</ele><time>2026-04-12T13:03:06.999Z</time></trkpt><trkpt lat="45.419355413209956" lon="9.38613987270439"><ele>95.0</ele><time>2026-04-12T13:03:07.999Z</time></trkpt><trkpt lat="45.419300205534164" lon="9.386287317699656"><ele>94.25</ele><time>2026-04-12T13:03:08.999Z</time></trkpt><trkpt lat="45.41924597381934" lon="9.386443326248596"><ele>93.5</ele><time>2026-04-12T13:03:09.999Z</time></trkpt><trkpt lat="45.41918280764011" lon="9.38657754780305"><ele>92.75</ele><time>2026-04-12T13:03:10.999Z</time></trkpt><trkpt lat="45.41912638906627" lon="9.386722358342956"><ele>92.0</ele><time>2026-04-12T13:03:11.999Z</time></trkpt><trkpt lat="45.41906648339232" lon="9.386870140430286"><ele>92.0</ele><time>2026-04-12T13:03:12.999Z</time></trkpt><trkpt lat="45.4190074687021" lon="9.38702704600026"><ele>92.0</ele><time>2026-04-12T13:03:13.999Z</time></trkpt><trkpt lat="45.41894666019626" lon="9.387164736906522"><ele>92.0</ele><time>2026-04-12T13:03:14.999Z</time></trkpt><trkpt lat="45.41888827264563" lon="9.387317049552736"><ele>92.0</ele><time>2026-04-12T13:03:15.999Z</time></trkpt><trkpt lat="45.418834403556616" lon="9.387451287755528"><ele>92.8</ele><time>2026-04-12T13:03:16.999Z</time></trkpt><trkpt lat="45.41878039219964" lon="9.38758112163665"><ele>93.6</ele><time>2026-04-12T13:03:17.999Z</time></trkpt><trkpt lat="45.41873767994163" lon="9.387707952195823"><ele>94.39999999999999</ele><time>2026-04-12T13:03:18.999Z</time></trkpt><trkpt lat="45.418689337500794" lon="9.387830341115738"><ele>95.19999999999999</ele><time>2026-04-12T13:03:19.999Z</time></trkpt><trkpt lat="45.41863807934835" lon="9.387961664518727"><ele>96.0</ele><time>2026-04-12T13:03:20.999Z</time></trkpt><trkpt lat="45.41858897901901" lon="9.388091391985663"><ele>96.0</ele><time>2026-04-12T13:03:21.999Z</time></trkpt><trkpt lat="45.4185368901298" lon="9.388225644075742"><ele>96.0</ele><time>2026-04-12T13:03:22.999Z</time></trkpt><trkpt lat="45.418494638500306" lon="9.388328544103604"><ele>96.0</ele><time>2026-04-12T13:03:23.999Z</time></trkpt><trkpt lat="45.41844579666209" lon="9.388454121395451"><ele>96.0</ele><time>2026-04-12T13:03:24.999Z</time></trkpt><trkpt lat="45.41841160230355" lon="9.388583227927995"><ele>96.0</ele><time>2026-04-12T13:03:25.999Z</time></trkpt><trkpt lat="45.418366174763186" lon="9.388686681101541"><ele>96.0</ele><time>2026-04-12T13:03:26.999Z</time></trkpt><trkpt lat="45.418329715732035" lon="9.388760828772547"><ele>96.0</ele><time>2026-04-12T13:03:27.999Z</time></trkpt><trkpt lat="45.418304218266265" lon="9.388859207014406"><ele>96.0</ele><time>2026-04-12T13:03:29.999Z</time></trkpt><trkpt lat="45.41837869665618" lon="9.388949355830897"><ele>96.0</ele><time>2026-04-12T13:03:31.999Z</time></trkpt><trkpt lat="45.41841569766381" lon="9.388875819968703"><ele>96.0</ele><time>2026-04-12T13:03:34.999Z</time></trkpt><trkpt lat="45.418440511743015" lon="9.388754505891624"><ele>96.0</ele><time>2026-04-12T13:08:31Z</time></trkpt><trkpt lat="45.41844357406328" lon="9.388627326770695"><ele>96.0</ele><time>2026-04-12T13:08:33Z</time></trkpt><trkpt lat="45.41846317727058" lon="9.388467642280325"><ele>96.0</ele><time>2026-04-12T13:08:36Z</time></trkpt><trkpt lat="45.418492828352534" lon="9.388384280219869"><ele>96.0</ele><time>2026-04-12T13:08:37Z</time></trkpt><trkpt lat="45.41852901582446" lon="9.388303843934647"><ele>96.0</ele><time>2026-04-12T13:08:38Z</time></trkpt><trkpt lat="45.41857610328827" lon="9.38817912555171"><ele>96.0</ele><time>2026-04-12T13:08:39Z</time></trkpt><trkpt lat="45.418638131931566" lon="9.388054737524836"><ele>96.0</ele><time>2026-04-12T13:08:40Z</time></trkpt><trkpt lat="45.41868605476509" lon="9.387924561811623"><ele>96.0</ele><time>2026-04-12T13:08:41Z</time></trkpt><trkpt lat="45.41873608355228" lon="9.387782942635432"><ele>96.0</ele><time>2026-04-12T13:08:42Z</time></trkpt><trkpt lat="45.418807193347085" lon="9.38764817807979"><ele>96.0</ele><time>2026-04-12T13:08:43Z</time></trkpt><trkpt lat="45.4188396319642" lon="9.38751811971932"><ele>96.0</ele><time>2026-04-12T13:08:44Z</time></trkpt><trkpt lat="45.41887599470134" lon="9.387426355553377"><ele>95.19999999999999</ele><time>2026-04-12T13:08:45Z</time></trkpt><trkpt lat="45.41890736236188" lon="9.387337593570095"><ele>94.39999999999999</ele><time>2026-04-12T13:08:46Z</time></trkpt><trkpt lat="45.4189402518833" lon="9.387259452644432"><ele>93.6</ele><time>2026-04-12T13:08:47Z</time></trkpt><trkpt lat="45.41899640739445" lon="9.387212100012729"><ele>92.8</ele><time>2026-04-12T13:08:49Z</time></trkpt><trkpt lat="45.419019869490654" lon="9.387323693719747"><ele>92.0</ele><time>2026-04-12T13:08:52Z</time></trkpt><trkpt lat="45.419235583822214" lon="9.387523487496816"><ele>92.0</ele><time>2026-04-12T13:08:53Z</time></trkpt><trkpt lat="45.41936608164786" lon="9.387637289996844"><ele>92.0</ele><time>2026-04-12T13:08:54Z</time></trkpt><trkpt lat="45.41944148946333" lon="9.387791420779726"><ele>92.0</ele><time>2026-04-12T13:08:55Z</time></trkpt><trkpt lat="45.41951378887578" lon="9.38796546045015"><ele>92.0</ele><time>2026-04-12T13:08:56Z</time></trkpt><trkpt lat="45.41959326487011" lon="9.388146153256141"><ele>92.25</ele><time>2026-04-12T13:08:57Z</time></trkpt><trkpt lat="45.4196764454393" lon="9.388327804528906"><ele>92.5</ele><time>2026-04-12T13:08:58Z</time></trkpt><trkpt lat="45.41975748733871" lon="9.388506188801667"><ele>92.75</ele><time>2026-04-12T13:08:59Z</time></trkpt><trkpt lat="45.419828828496115" lon="9.388664579937384"><ele>93.0</ele><time>2026-04-12T13:09:00Z</time></trkpt><trkpt lat="45.419900177218196" lon="9.388826281664262"><ele>93.25</ele><time>2026-04-12T13:09:01Z</time></trkpt><trkpt lat="45.419975278325495" lon="9.388975665377956"><ele>93.5</ele><time>2026-04-12T13:09:02Z</time></trkpt><trkpt lat="45.42004472535836" lon="9.389114693801988"><ele>93.75</ele><time>2026-04-12T13:09:03Z</time></trkpt><trkpt lat="45.42011854172156" lon="9.389232655425586"><ele>94.0</ele><time>2026-04-12T13:09:04Z</time></trkpt><trkpt lat="45.42019771720871" lon="9.389329302532804"><ele>94.0</ele><time>2026-04-12T13:09:05Z</time></trkpt><trkpt lat="45.42027371324375" lon="9.38944963050528"><ele>94.0</ele><time>2026-04-12T13:09:06Z</time></trkpt><trkpt lat="45.42038848200078" lon="9.389574483548698"><ele>94.0</ele><time>2026-04-12T13:09:07Z</time></trkpt><trkpt lat="45.42052639956405" lon="9.389705768032563"><ele>94.0</ele><time>2026-04-12T13:09:08Z</time></trkpt><trkpt lat="45.420642991821616" lon="9.389847544501299"><ele>93.75</ele><time>2026-04-12T13:09:09Z</time></trkpt><trkpt lat="45.42075396874978" lon="9.389996049989469"><ele>93.5</ele><time>2026-04-12T13:09:10Z</time></trkpt><trkpt lat="45.42085304347919" lon="9.390146220362393"><ele>93.25</ele><time>2026-04-12T13:09:11Z</time></trkpt><trkpt lat="45.42093442730842" lon="9.390312321602202"><ele>93.0</ele><time>2026-04-12T13:09:12Z</time></trkpt><trkpt lat="45.42102979876837" lon="9.390472443395396"><ele>93.0</ele><time>2026-04-12T13:09:13Z</time></trkpt><trkpt lat="45.421125728066" lon="9.390612186522533"><ele>93.0</ele><time>2026-04-12T13:09:14Z</time></trkpt><trkpt lat="45.42120059177964" lon="9.39072553573028"><ele>93.0</ele><time>2026-04-12T13:09:15Z</time></trkpt><trkpt lat="45.421273293210504" lon="9.390830606372056"><ele>93.0</ele><time>2026-04-12T13:09:16Z</time></trkpt><trkpt lat="45.421341048686976" lon="9.390950613485977"><ele>93.25</ele><time>2026-04-12T13:09:17Z</time></trkpt><trkpt lat="45.421419066369786" lon="9.391082106687056"><ele>93.5</ele><time>2026-04-12T13:09:18Z</time></trkpt><trkpt lat="45.42150497438371" lon="9.391214671203281"><ele>93.75</ele><time>2026-04-12T13:09:19Z</time></trkpt><trkpt lat="45.421619299761694" lon="9.391346401257467"><ele>94.0</ele><time>2026-04-12T13:09:20Z</time></trkpt><trkpt lat="45.42173697893304" lon="9.391488741072761"><ele>94.0</ele><time>2026-04-12T13:09:21Z</time></trkpt><trkpt lat="45.42185532608494" lon="9.391651774050924"><ele>94.0</ele><time>2026-04-12T13:09:22Z</time></trkpt><trkpt lat="45.42199172496003" lon="9.391794547936072"><ele>94.0</ele><time>2026-04-12T13:09:23Z</time></trkpt><trkpt lat="45.42211356397103" lon="9.39194209157302"><ele>93.66666666666666</ele><time>2026-04-12T13:09:24Z</time></trkpt><trkpt lat="45.42223629152402" lon="9.392082927157038"><ele>93.33333333333333</ele><time>2026-04-12T13:09:25Z</time></trkpt><trkpt lat="45.422361360163954" lon="9.392230439121427"><ele>93.0</ele><time>2026-04-12T13:09:26Z</time></trkpt><trkpt lat="45.422470099535" lon="9.392373549784907"><ele>93.75</ele><time>2026-04-12T13:09:27Z</time></trkpt><trkpt lat="45.42257004309899" lon="9.392503728974763"><ele>94.5</ele><time>2026-04-12T13:09:28Z</time></trkpt><trkpt lat="45.42268801871762" lon="9.392629106755953"><ele>95.25</ele><time>2026-04-12T13:09:29Z</time></trkpt><trkpt lat="45.42280795165738" lon="9.392756307220928"><ele>96.0</ele><time>2026-04-12T13:09:30Z</time></trkpt><trkpt lat="45.42291596015252" lon="9.392901140929832"><ele>97.66666666666666</ele><time>2026-04-12T13:09:31Z</time></trkpt><trkpt lat="45.42301988604314" lon="9.393066342353634"><ele>99.33333333333333</ele><time>2026-04-12T13:09:32Z</time></trkpt><trkpt lat="45.42311153388236" lon="9.393269299835955"><ele>101.0</ele><time>2026-04-12T13:09:33Z</time></trkpt><trkpt lat="45.42319409837241" lon="9.39348030470406"><ele>101.0</ele><time>2026-04-12T13:09:34Z</time></trkpt><trkpt lat="45.42327000799549" lon="9.393664998466749"><ele>101.0</ele><time>2026-04-12T13:09:35Z</time></trkpt><trkpt lat="45.42333614089501" lon="9.393809510959246"><ele>101.0</ele><time>2026-04-12T13:09:36Z</time></trkpt><trkpt lat="45.42339717358781" lon="9.3939418373167"><ele>101.0</ele><time>2026-04-12T13:09:37Z</time></trkpt><trkpt lat="45.423436866761065" lon="9.394031212113484"><ele>101.0</ele><time>2026-04-12T13:09:38Z</time></trkpt><trkpt lat="45.42348580534068" lon="9.394112489971501"><ele>101.0</ele><time>2026-04-12T13:09:39Z</time></trkpt><trkpt lat="45.423396428254165" lon="9.393940621961493"><ele>101.0</ele><time>2026-04-12T13:09:47.999Z</time></trkpt><trkpt lat="45.42334611727044" lon="9.393866461098906"><ele>101.0</ele><time>2026-04-12T13:09:48.999Z</time></trkpt><trkpt lat="45.42329803600985" lon="9.393732533543506"><ele>101.0</ele><time>2026-04-12T13:09:50.999Z</time></trkpt><trkpt lat="45.42325714278739" lon="9.393652158060393"><ele>101.0</ele><time>2026-04-12T13:09:51.999Z</time></trkpt><trkpt lat="45.42321586259623" lon="9.39354596825112"><ele>101.0</ele><time>2026-04-12T13:09:52.999Z</time></trkpt><trkpt lat="45.42318080606557" lon="9.393457719806939"><ele>101.0</ele><time>2026-04-12T13:09:53.999Z</time></trkpt><trkpt lat="45.423166343643906" lon="9.393348116348553"><ele>101.0</ele><time>2026-04-12T13:09:55.999Z</time></trkpt><trkpt lat="45.42301862250805" lon="9.393094155422027"><ele>100.0</ele><time>2026-04-12T13:13:54.999Z</time></trkpt><trkpt lat="45.42295533483601" lon="9.392991233263533"><ele>99.0</ele><time>2026-04-12T13:13:55.999Z</time></trkpt><trkpt lat="45.42288291812813" lon="9.392906893463419"><ele>98.0</ele><time>2026-04-12T13:13:56.999Z</time></trkpt><trkpt lat="45.422814709638075" lon="9.392810845339525"><ele>97.0</ele><time>2026-04-12T13:13:57.999Z</time></trkpt><trkpt lat="45.422748954025494" lon="9.392719001052809"><ele>96.0</ele><time>2026-04-12T13:13:58.999Z</time></trkpt><trkpt lat="45.422663032275985" lon="9.39262755649788"><ele>96.0</ele><time>2026-04-12T13:13:59.999Z</time></trkpt><trkpt lat="45.42257544447436" lon="9.39251573710528"><ele>96.0</ele><time>2026-04-12T13:14:00.999Z</time></trkpt><trkpt lat="45.42248949064921" lon="9.392410250854581"><ele>96.0</ele><time>2026-04-12T13:14:01.999Z</time></trkpt><trkpt lat="45.422399610123385" lon="9.392298685697698"><ele>96.0</ele><time>2026-04-12T13:14:02.999Z</time></trkpt><trkpt lat="45.42230745250968" lon="9.392181555431556"><ele>95.6</ele><time>2026-04-12T13:14:03.999Z</time></trkpt><trkpt lat="45.422226683338394" lon="9.392078041846723"><ele>95.19999999999999</ele><time>2026-04-12T13:14:04.999Z</time></trkpt><trkpt lat="45.422148681039765" lon="9.391975914303229"><ele>94.80000000000001</ele><time>2026-04-12T13:14:05.999Z</time></trkpt><trkpt lat="45.422066931150994" lon="9.391877649102334"><ele>94.4</ele><time>2026-04-12T13:14:06.999Z</time></trkpt><trkpt lat="45.42198763028131" lon="9.391783375230123"><ele>94.0</ele><time>2026-04-12T13:14:07.999Z</time></trkpt><trkpt lat="45.421904912886816" lon="9.391686888538276"><ele>94.0</ele><time>2026-04-12T13:14:08.999Z</time></trkpt><trkpt lat="45.42182386421203" lon="9.391586944577616"><ele>94.0</ele><time>2026-04-12T13:14:09.999Z</time></trkpt><trkpt lat="45.421746556597135" lon="9.391493561326586"><ele>94.0</ele><time>2026-04-12T13:14:10.999Z</time></trkpt><trkpt lat="45.42167126397451" lon="9.391394318429603"><ele>94.0</ele><time>2026-04-12T13:14:11.999Z</time></trkpt><trkpt lat="45.42157766348318" lon="9.391309589885584"><ele>94.0</ele><time>2026-04-12T13:14:12.999Z</time></trkpt><trkpt lat="45.42148886874162" lon="9.391217866242558"><ele>93.75</ele><time>2026-04-12T13:14:13.999Z</time></trkpt><trkpt lat="45.421396060146684" lon="9.391120649640202"><ele>93.5</ele><time>2026-04-12T13:14:14.999Z</time></trkpt><trkpt lat="45.42131484778626" lon="9.390973490453518"><ele>93.25</ele><time>2026-04-12T13:14:15.999Z</time></trkpt><trkpt lat="45.42120747883923" lon="9.390792820795328"><ele>93.0</ele><time>2026-04-12T13:14:16.999Z</time></trkpt><trkpt lat="45.42111414272221" lon="9.390617123331483"><ele>93.0</ele><time>2026-04-12T13:14:17.999Z</time></trkpt><trkpt lat="45.42102879549788" lon="9.390472826524723"><ele>93.0</ele><time>2026-04-12T13:14:18.999Z</time></trkpt><trkpt lat="45.42093033298561" lon="9.390341273506918"><ele>93.0</ele><time>2026-04-12T13:14:19.999Z</time></trkpt><trkpt lat="45.42086452607552" lon="9.390204218344094"><ele>93.0</ele><time>2026-04-12T13:14:20.999Z</time></trkpt><trkpt lat="45.42078122800611" lon="9.390059474216525"><ele>93.0</ele><time>2026-04-12T13:14:21.999Z</time></trkpt><trkpt lat="45.42069336004032" lon="9.389936464881934"><ele>93.0</ele><time>2026-04-12T13:14:22.999Z</time></trkpt><trkpt lat="45.420600431894584" lon="9.389827967711607"><ele>93.0</ele><time>2026-04-12T13:14:23.999Z</time></trkpt><trkpt lat="45.42050743014978" lon="9.389714241409354"><ele>93.0</ele><time>2026-04-12T13:14:25Z</time></trkpt><trkpt lat="45.42040948372462" lon="9.38960073625397"><ele>93.25</ele><time>2026-04-12T13:14:26Z</time></trkpt><trkpt lat="45.420315619739505" lon="9.389507456661267"><ele>93.5</ele><time>2026-04-12T13:14:27Z</time></trkpt><trkpt lat="45.420231646755624" lon="9.389414427895737"><ele>93.75</ele><time>2026-04-12T13:14:28Z</time></trkpt><trkpt lat="45.42014702244815" lon="9.389296678648199"><ele>94.0</ele><time>2026-04-12T13:14:29Z</time></trkpt><trkpt lat="45.42006859058707" lon="9.389142167261951"><ele>94.0</ele><time>2026-04-12T13:14:30Z</time></trkpt><trkpt lat="45.41998200814895" lon="9.389002539916442"><ele>94.0</ele><time>2026-04-12T13:14:31Z</time></trkpt><trkpt lat="45.41992016996895" lon="9.388863907980179"><ele>94.0</ele><time>2026-04-12T13:14:32Z</time></trkpt><trkpt lat="45.419868099364166" lon="9.38873504287233"><ele>94.0</ele><time>2026-04-12T13:14:33Z</time></trkpt><trkpt lat="45.41981181152103" lon="9.388618105369483"><ele>94.0</ele><time>2026-04-12T13:14:34Z</time></trkpt><trkpt lat="45.4197605118256" lon="9.388508356526968"><ele>94.0</ele><time>2026-04-12T13:14:35Z</time></trkpt><trkpt lat="45.41972285845442" lon="9.38842822476237"><ele>94.0</ele><time>2026-04-12T13:14:36Z</time></trkpt><trkpt lat="45.419676993653596" lon="9.388333233651597"><ele>94.0</ele><time>2026-04-12T13:14:38Z</time></trkpt><trkpt lat="45.41963763504939" lon="9.388252939760802"><ele>94.0</ele><time>2026-04-12T13:14:42Z</time></trkpt><trkpt lat="45.4195447442958" lon="9.388111141315752"><ele>94.0</ele><time>2026-04-12T13:14:44Z</time></trkpt><trkpt lat="45.419504449529796" lon="9.388001987783452"><ele>93.6</ele><time>2026-04-12T13:14:45Z</time></trkpt><trkpt lat="45.41945368146596" lon="9.387898054235952"><ele>93.2</ele><time>2026-04-12T13:14:46Z</time></trkpt><trkpt lat="45.41938991377898" lon="9.387763495672752"><ele>92.8</ele><time>2026-04-12T13:14:47Z</time></trkpt><trkpt lat="45.41930395858704" lon="9.387607194565586"><ele>92.39999999999999</ele><time>2026-04-12T13:14:49Z</time></trkpt><trkpt lat="45.4192452439381" lon="9.387530201220557"><ele>92.0</ele><time>2026-04-12T13:14:50Z</time></trkpt><trkpt lat="45.4191957566313" lon="9.387473888473792"><ele>92.0</ele><time>2026-04-12T13:14:51Z</time></trkpt><trkpt lat="45.41910992487226" lon="9.387377815043815"><ele>92.0</ele><time>2026-04-12T13:14:53Z</time></trkpt><trkpt lat="45.41905616549726" lon="9.38731551485536"><ele>92.0</ele><time>2026-04-12T13:14:54Z</time></trkpt><trkpt lat="45.41899380104379" lon="9.38722671949543"><ele>92.0</ele><time>2026-04-12T13:14:56Z</time></trkpt><trkpt lat="45.41900708826118" lon="9.38709509680186"><ele>92.0</ele><time>2026-04-12T13:15:00Z</time></trkpt><trkpt lat="45.419028635654335" lon="9.386996789248366"><ele>92.0</ele><time>2026-04-12T13:15:01Z</time></trkpt><trkpt lat="45.41906896512585" lon="9.386890109079834"><ele>92.0</ele><time>2026-04-12T13:15:02Z</time></trkpt><trkpt lat="45.41912949031137" lon="9.386751050661823"><ele>92.0</ele><time>2026-04-12T13:15:03Z</time></trkpt><trkpt lat="45.41920471521738" lon="9.386610851715329"><ele>92.0</ele><time>2026-04-12T13:15:04Z</time></trkpt><trkpt lat="45.41925101972414" lon="9.386459832431397"><ele>92.0</ele><time>2026-04-12T13:15:05Z</time></trkpt><trkpt lat="45.41929516848344" lon="9.386330194032485"><ele>92.5</ele><time>2026-04-12T13:15:06Z</time></trkpt><trkpt lat="45.41935314992067" lon="9.386217226146702"><ele>93.0</ele><time>2026-04-12T13:15:07Z</time></trkpt><trkpt lat="45.41940135703033" lon="9.38611219641247"><ele>93.5</ele><time>2026-04-12T13:15:08Z</time></trkpt><trkpt lat="45.4194384865244" lon="9.38600920865948"><ele>94.0</ele><time>2026-04-12T13:15:09Z</time></trkpt><trkpt lat="45.41949096813944" lon="9.385922263247924"><ele>94.5</ele><time>2026-04-12T13:15:10Z</time></trkpt><trkpt lat="45.419566517521176" lon="9.385867812539153"><ele>95.0</ele><time>2026-04-12T13:15:11Z</time></trkpt><trkpt lat="45.419679894751305" lon="9.385884142214769"><ele>95.0</ele><time>2026-04-12T13:15:12Z</time></trkpt><trkpt lat="45.419762587715255" lon="9.38593736215602"><ele>95.0</ele><time>2026-04-12T13:15:13Z</time></trkpt><trkpt lat="45.41984061090332" lon="9.386098062312053"><ele>95.0</ele><time>2026-04-12T13:15:14Z</time></trkpt><trkpt lat="45.41990611718946" lon="9.38625937566262"><ele>95.0</ele><time>2026-04-12T13:15:15Z</time></trkpt><trkpt lat="45.41996252029458" lon="9.386413554190206"><ele>94.5</ele><time>2026-04-12T13:15:16Z</time></trkpt><trkpt lat="45.42002999102543" lon="9.38656398338707"><ele>94.0</ele><time>2026-04-12T13:15:17Z</time></trkpt><trkpt lat="45.420100317763236" lon="9.386730029739526"><ele>93.5</ele><time>2026-04-12T13:15:18Z</time></trkpt><trkpt lat="45.420152355148524" lon="9.386915354162275"><ele>93.0</ele><time>2026-04-12T13:15:19Z</time></trkpt><trkpt lat="45.42021817060248" lon="9.387043430265805"><ele>92.75</ele><time>2026-04-12T13:15:20Z</time></trkpt><trkpt lat="45.42028353362132" lon="9.387195408786038"><ele>92.5</ele><time>2026-04-12T13:15:21Z</time></trkpt><trkpt lat="45.42035597831749" lon="9.38734343199016"><ele>92.25</ele><time>2026-04-12T13:15:22Z</time></trkpt><trkpt lat="45.420421005920566" lon="9.387499909466186"><ele>92.0</ele><time>2026-04-12T13:15:23Z</time></trkpt><trkpt lat="45.42048824161417" lon="9.387658431375716"><ele>92.0</ele><time>2026-04-12T13:15:24Z</time></trkpt><trkpt lat="45.42054633304867" lon="9.387812102838781"><ele>92.0</ele><time>2026-04-12T13:15:25Z</time></trkpt><trkpt lat="45.420618306504345" lon="9.387964210753063"><ele>92.0</ele><time>2026-04-12T13:15:26Z</time></trkpt><trkpt lat="45.4206813474367" lon="9.388119937381912"><ele>92.0</ele><time>2026-04-12T13:15:27Z</time></trkpt><trkpt lat="45.42075744125608" lon="9.388274871851754"><ele>91.75</ele><time>2026-04-12T13:15:28Z</time></trkpt><trkpt lat="45.420814475945036" lon="9.388444122684266"><ele>91.5</ele><time>2026-04-12T13:15:29Z</time></trkpt><trkpt lat="45.420879316032035" lon="9.388606841002009"><ele>91.25</ele><time>2026-04-12T13:15:30Z</time></trkpt><trkpt lat="45.420940002837256" lon="9.388772866367761"><ele>91.0</ele><time>2026-04-12T13:15:31Z</time></trkpt><trkpt lat="45.42100670558989" lon="9.388929692197905"><ele>91.5</ele><time>2026-04-12T13:15:32Z</time></trkpt><trkpt lat="45.42107245030193" lon="9.389096306366874"><ele>92.0</ele><time>2026-04-12T13:15:33Z</time></trkpt><trkpt lat="45.42113543165649" lon="9.389269609653276"><ele>92.5</ele><time>2026-04-12T13:15:34Z</time></trkpt><trkpt lat="45.42119627082119" lon="9.389439412756053"><ele>93.0</ele><time>2026-04-12T13:15:35Z</time></trkpt><trkpt lat="45.42125857282272" lon="9.389606956918586"><ele>92.75</ele><time>2026-04-12T13:15:36Z</time></trkpt><trkpt lat="45.421324793777984" lon="9.389775986421146"><ele>92.5</ele><time>2026-04-12T13:15:37Z</time></trkpt><trkpt lat="45.42138903845677" lon="9.389945400365724"><ele>92.25</ele><time>2026-04-12T13:15:38Z</time></trkpt><trkpt lat="45.42144503541897" lon="9.3901153056702"><ele>92.0</ele><time>2026-04-12T13:15:39Z</time></trkpt><trkpt lat="45.421500512241515" lon="9.390279568003702"><ele>92.0</ele><time>2026-04-12T13:15:40Z</time></trkpt><trkpt lat="45.42154328674665" lon="9.390457090081396"><ele>92.0</ele><time>2026-04-12T13:15:41Z</time></trkpt><trkpt lat="45.421563425605946" lon="9.39063867784895"><ele>92.0</ele><time>2026-04-12T13:15:42Z</time></trkpt><trkpt lat="45.42157998793683" lon="9.390824235846463"><ele>92.0</ele><time>2026-04-12T13:15:43Z</time></trkpt><trkpt lat="45.42159373598076" lon="9.39099971635194"><ele>91.75</ele><time>2026-04-12T13:15:44Z</time></trkpt><trkpt lat="45.421592577686226" lon="9.391178363078595"><ele>91.5</ele><time>2026-04-12T13:15:45Z</time></trkpt><trkpt lat="45.42158979436755" lon="9.391347392300847"><ele>91.25</ele><time>2026-04-12T13:15:46Z</time></trkpt><trkpt lat="45.42157393724923" lon="9.391517867042982"><ele>91.0</ele><time>2026-04-12T13:15:47Z</time></trkpt><trkpt lat="45.42156666807651" lon="9.391685418064469"><ele>91.75</ele><time>2026-04-12T13:15:48Z</time></trkpt><trkpt lat="45.42155819401802" lon="9.391857963438655"><ele>92.5</ele><time>2026-04-12T13:15:49Z</time></trkpt><trkpt lat="45.421551005368684" lon="9.392030572379783"><ele>93.25</ele><time>2026-04-12T13:15:49.999Z</time></trkpt><trkpt lat="45.421541150447" lon="9.392185889292039"><ele>94.0</ele><time>2026-04-12T13:15:50.999Z</time></trkpt><trkpt lat="45.42153042842676" lon="9.392349308448102"><ele>94.75</ele><time>2026-04-12T13:15:51.999Z</time></trkpt><trkpt lat="45.421533546653045" lon="9.392522613011291"><ele>95.5</ele><time>2026-04-12T13:15:52.999Z</time></trkpt><trkpt lat="45.421546152748576" lon="9.392694428101791"><ele>96.25</ele><time>2026-04-12T13:15:53.999Z</time></trkpt><trkpt lat="45.421548442027834" lon="9.392858187142295"><ele>97.0</ele><time>2026-04-12T13:15:54.999Z</time></trkpt><trkpt lat="45.42157111842568" lon="9.393034403913411"><ele>97.0</ele><time>2026-04-12T13:15:55.999Z</time></trkpt><trkpt lat="45.42160352619626" lon="9.39319187550872"><ele>97.0</ele><time>2026-04-12T13:15:56.999Z</time></trkpt><trkpt lat="45.42164876774017" lon="9.393342942270747"><ele>97.0</ele><time>2026-04-12T13:15:57.999Z</time></trkpt><trkpt lat="45.42169119580487" lon="9.393513862000308"><ele>97.0</ele><time>2026-04-12T13:15:58.999Z</time></trkpt><trkpt lat="45.421727925616906" lon="9.393677208274678"><ele>97.75</ele><time>2026-04-12T13:15:59.999Z</time></trkpt><trkpt lat="45.42177195819969" lon="9.393849200963679"><ele>98.5</ele><time>2026-04-12T13:16:00.999Z</time></trkpt><trkpt lat="45.42181332654893" lon="9.39401178794988"><ele>99.25</ele><time>2026-04-12T13:16:01.999Z</time></trkpt><trkpt lat="45.42185979651475" lon="9.394168762437065"><ele>100.0</ele><time>2026-04-12T13:16:02.999Z</time></trkpt><trkpt lat="45.42190818447329" lon="9.394328754525825"><ele>100.0</ele><time>2026-04-12T13:16:03.999Z</time></trkpt><trkpt lat="45.42195878607731" lon="9.39449179296866"><ele>100.0</ele><time>2026-04-12T13:16:04.999Z</time></trkpt><trkpt lat="45.42200672496995" lon="9.394653341682597"><ele>100.0</ele><time>2026-04-12T13:16:05.999Z</time></trkpt><trkpt lat="45.42205297704876" lon="9.394813213786964"><ele>100.0</ele><time>2026-04-12T13:16:06.999Z</time></trkpt><trkpt lat="45.42209321537564" lon="9.394961717361697"><ele>100.0</ele><time>2026-04-12T13:16:07.999Z</time></trkpt><trkpt lat="45.42211660306139" lon="9.395100663380646"><ele>100.0</ele><time>2026-04-12T13:16:08.999Z</time></trkpt><trkpt lat="45.42213415631715" lon="9.395246249890002"><ele>100.0</ele><time>2026-04-12T13:16:09.999Z</time></trkpt><trkpt lat="45.422125079173654" lon="9.39539476056842"><ele>100.0</ele><time>2026-04-12T13:16:10.999Z</time></trkpt><trkpt lat="45.42211954661703" lon="9.395551682395098"><ele>100.0</ele><time>2026-04-12T13:16:11.999Z</time></trkpt><trkpt lat="45.422119743649404" lon="9.395709724815156"><ele>100.5</ele><time>2026-04-12T13:16:12.999Z</time></trkpt><trkpt lat="45.422204297996515" lon="9.395850394346082"><ele>101.0</ele><time>2026-04-12T13:16:13.999Z</time></trkpt><trkpt lat="45.42225985366808" lon="9.395999760517245"><ele>101.5</ele><time>2026-04-12T13:16:14.999Z</time></trkpt><trkpt lat="45.4223261787989" lon="9.396120587118274"><ele>102.0</ele><time>2026-04-12T13:16:15.999Z</time></trkpt><trkpt lat="45.422304081966324" lon="9.396302316249095"><ele>101.39999999999999</ele><time>2026-04-12T13:16:16.999Z</time></trkpt><trkpt lat="45.42231597926922" lon="9.396459920239677"><ele>100.8</ele><time>2026-04-12T13:16:17.999Z</time></trkpt><trkpt lat="45.422332101610735" lon="9.396616569628764"><ele>100.2</ele><time>2026-04-12T13:16:18.999Z</time></trkpt><trkpt lat="45.422337977344185" lon="9.396754803741239"><ele>99.6</ele><time>2026-04-12T13:16:19.999Z</time></trkpt><trkpt lat="45.42234728052718" lon="9.39690857257591"><ele>99.0</ele><time>2026-04-12T13:16:20.999Z</time></trkpt><trkpt lat="45.42236051501486" lon="9.397065248774783"><ele>98.75</ele><time>2026-04-12T13:16:21.999Z</time></trkpt><trkpt lat="45.42237815873096" lon="9.397227446454016"><ele>98.5</ele><time>2026-04-12T13:16:22.999Z</time></trkpt><trkpt lat="45.42239037326824" lon="9.397397494831724"><ele>98.25</ele><time>2026-04-12T13:16:23.999Z</time></trkpt><trkpt lat="45.422401231060064" lon="9.39756971102989"><ele>98.0</ele><time>2026-04-12T13:16:24.999Z</time></trkpt><trkpt lat="45.42241200174548" lon="9.397742387754677"><ele>98.0</ele><time>2026-04-12T13:16:25.999Z</time></trkpt><trkpt lat="45.42243207633553" lon="9.397914432887399"><ele>98.0</ele><time>2026-04-12T13:16:26.999Z</time></trkpt><trkpt lat="45.42244793828191" lon="9.398087602752335"><ele>98.0</ele><time>2026-04-12T13:16:27.999Z</time></trkpt><trkpt lat="45.422458576591055" lon="9.39826182597041"><ele>98.0</ele><time>2026-04-12T13:16:28.999Z</time></trkpt><trkpt lat="45.42247111942392" lon="9.398443226588094"><ele>98.0</ele><time>2026-04-12T13:16:29.999Z</time></trkpt><trkpt lat="45.42248689270247" lon="9.3986196835718"><ele>98.0</ele><time>2026-04-12T13:16:31Z</time></trkpt><trkpt lat="45.42250101773467" lon="9.398798460788969"><ele>98.0</ele><time>2026-04-12T13:16:32Z</time></trkpt><trkpt lat="45.42250976775652" lon="9.398973736344617"><ele>98.0</ele><time>2026-04-12T13:16:33Z</time></trkpt><trkpt lat="45.42252589093912" lon="9.399147154213706"><ele>98.4</ele><time>2026-04-12T13:16:34Z</time></trkpt><trkpt lat="45.422542557201965" lon="9.399313142110628"><ele>98.80000000000001</ele><time>2026-04-12T13:16:35Z</time></trkpt><trkpt lat="45.42255162991032" lon="9.399459455634863"><ele>99.2</ele><time>2026-04-12T13:16:36Z</time></trkpt><trkpt lat="45.42254955457781" lon="9.399617716938986"><ele>99.6</ele><time>2026-04-12T13:16:37Z</time></trkpt><trkpt lat="45.42253365068808" lon="9.399768953824811"><ele>100.0</ele><time>2026-04-12T13:16:38Z</time></trkpt><trkpt lat="45.422658755914874" lon="9.399941654151835"><ele>100.0</ele><time>2026-04-12T13:16:39Z</time></trkpt><trkpt lat="45.42271032053207" lon="9.400110868124507"><ele>100.0</ele><time>2026-04-12T13:16:40Z</time></trkpt><trkpt lat="45.4227633613847" lon="9.40028417018654"><ele>100.0</ele><time>2026-04-12T13:16:41Z</time></trkpt><trkpt lat="45.422801828837365" lon="9.400466596073883"><ele>100.0</ele><time>2026-04-12T13:16:42Z</time></trkpt><trkpt lat="45.42283675750028" lon="9.400647158846917"><ele>99.75</ele><time>2026-04-12T13:16:43Z</time></trkpt><trkpt lat="45.42286971795182" lon="9.400833991453961"><ele>99.5</ele><time>2026-04-12T13:16:44Z</time></trkpt><trkpt lat="45.422905032473444" lon="9.401024999953957"><ele>99.25</ele><time>2026-04-12T13:16:45Z</time></trkpt><trkpt lat="45.42293630017151" lon="9.401209663981547"><ele>99.0</ele><time>2026-04-12T13:16:46Z</time></trkpt><trkpt lat="45.42295193362084" lon="9.401380860697"><ele>98.80000000000001</ele><time>2026-04-12T13:16:47Z</time></trkpt><trkpt lat="45.42297186290939" lon="9.40156017171753"><ele>98.60000000000001</ele><time>2026-04-12T13:16:48Z</time></trkpt><trkpt lat="45.42299300635393" lon="9.4017164286897"><ele>98.4</ele><time>2026-04-12T13:16:49Z</time></trkpt><trkpt lat="45.42300203812671" lon="9.401860427247723"><ele>98.2</ele><time>2026-04-12T13:16:50Z</time></trkpt><trkpt lat="45.423036401052066" lon="9.40200491255149"><ele>98.0</ele><time>2026-04-12T13:16:51Z</time></trkpt><trkpt lat="45.42308179318618" lon="9.402137874549231"><ele>97.80000000000001</ele><time>2026-04-12T13:16:52Z</time></trkpt><trkpt lat="45.42312690518985" lon="9.402274345789197"><ele>97.6</ele><time>2026-04-12T13:16:53Z</time></trkpt><trkpt lat="45.42314375032158" lon="9.402409596873415"><ele>97.4</ele><time>2026-04-12T13:16:54Z</time></trkpt><trkpt lat="45.423166535237996" lon="9.402530472116421"><ele>97.19999999999999</ele><time>2026-04-12T13:16:55Z</time></trkpt><trkpt lat="45.42320240159651" lon="9.402658251887086"><ele>97.0</ele><time>2026-04-12T13:16:56Z</time></trkpt><trkpt lat="45.42326713407123" lon="9.40274339447251"><ele>97.00000000000001</ele><time>2026-04-12T13:16:57Z</time></trkpt><trkpt lat="45.42333845104702" lon="9.402801769969406"><ele>97.0</ele><time>2026-04-12T13:16:58Z</time></trkpt><trkpt lat="45.42344051466897" lon="9.40275498999381"><ele>97.0</ele><time>2026-04-12T13:16:59Z</time></trkpt><trkpt lat="45.42350544563406" lon="9.40269541267602"><ele>97.0</ele><time>2026-04-12T13:17:00Z</time></trkpt><trkpt lat="45.423540064589545" lon="9.402586395203327"><ele>97.00000000000001</ele><time>2026-04-12T13:17:01Z</time></trkpt><trkpt lat="45.423548724273395" lon="9.4024737258075"><ele>97.0</ele><time>2026-04-12T13:17:02Z</time></trkpt><trkpt lat="45.42349292512814" lon="9.402357077701279"><ele>97.0</ele><time>2026-04-12T13:17:03Z</time></trkpt><trkpt lat="45.423424686122274" lon="9.402297116798493"><ele>97.0</ele><time>2026-04-12T13:17:04Z</time></trkpt><trkpt lat="45.42334881330048" lon="9.402251510845687"><ele>97.0</ele><time>2026-04-12T13:17:05Z</time></trkpt><trkpt lat="45.423263026327916" lon="9.402312937869194"><ele>97.0</ele><time>2026-04-12T13:17:06Z</time></trkpt><trkpt lat="45.423186610711575" lon="9.40237575800848"><ele>97.0</ele><time>2026-04-12T13:17:07Z</time></trkpt><trkpt lat="45.42316591583595" lon="9.402519272805664"><ele>97.0</ele><time>2026-04-12T13:17:08Z</time></trkpt><trkpt lat="45.42316875642034" lon="9.402648703781006"><ele>97.0</ele><time>2026-04-12T13:17:09Z</time></trkpt><trkpt lat="45.42319425095872" lon="9.402777717353356"><ele>97.0</ele><time>2026-04-12T13:17:10Z</time></trkpt><trkpt lat="45.42318966954911" lon="9.402924246398484"><ele>97.0</ele><time>2026-04-12T13:17:11Z</time></trkpt><trkpt lat="45.423179317232815" lon="9.403071371391832"><ele>97.0</ele><time>2026-04-12T13:17:12Z</time></trkpt><trkpt lat="45.423171971162326" lon="9.403230936350624"><ele>97.0</ele><time>2026-04-12T13:17:13Z</time></trkpt><trkpt lat="45.42316820780617" lon="9.40340127012494"><ele>97.0</ele><time>2026-04-12T13:17:14Z</time></trkpt><trkpt lat="45.423189738591795" lon="9.40357938093322"><ele>97.0</ele><time>2026-04-12T13:17:15Z</time></trkpt><trkpt lat="45.42321312775163" lon="9.403753019119451"><ele>97.0</ele><time>2026-04-12T13:17:16Z</time></trkpt><trkpt lat="45.423224401997224" lon="9.403932203750536"><ele>97.19999999999999</ele><time>2026-04-12T13:17:17Z</time></trkpt><trkpt lat="45.42323661988156" lon="9.404111187806414"><ele>97.4</ele><time>2026-04-12T13:17:18Z</time></trkpt><trkpt lat="45.423258119625906" lon="9.404282798849515"><ele>97.6</ele><time>2026-04-12T13:17:19Z</time></trkpt><trkpt lat="45.423276734170734" lon="9.404437748718058"><ele>97.80000000000001</ele><time>2026-04-12T13:17:20Z</time></trkpt><trkpt lat="45.42328805373426" lon="9.404565686293296"><ele>98.0</ele><time>2026-04-12T13:17:21Z</time></trkpt><trkpt lat="45.423286440762816" lon="9.404727377293211"><ele>98.0</ele><time>2026-04-12T13:17:22Z</time></trkpt><trkpt lat="45.423288079114535" lon="9.404878117661962"><ele>98.0</ele><time>2026-04-12T13:17:23Z</time></trkpt><trkpt lat="45.4232052929425" lon="9.405111141733386"><ele>98.0</ele><time>2026-04-12T13:17:25Z</time></trkpt><trkpt lat="45.42315072654448" lon="9.405271905298429"><ele>98.0</ele><time>2026-04-12T13:17:26Z</time></trkpt><trkpt lat="45.42311646423775" lon="9.405424110555211"><ele>98.25</ele><time>2026-04-12T13:17:27Z</time></trkpt><trkpt lat="45.42308101078692" lon="9.405580982990866"><ele>98.5</ele><time>2026-04-12T13:17:28Z</time></trkpt><trkpt lat="45.423017350846806" lon="9.405737414110023"><ele>98.75</ele><time>2026-04-12T13:17:29Z</time></trkpt><trkpt lat="45.42296128117267" lon="9.405898259872188"><ele>99.0</ele><time>2026-04-12T13:17:30Z</time></trkpt><trkpt lat="45.42291135899662" lon="9.406048001490577"><ele>99.0</ele><time>2026-04-12T13:17:31Z</time></trkpt><trkpt lat="45.42284404475448" lon="9.406191171391821"><ele>99.0</ele><time>2026-04-12T13:17:32Z</time></trkpt><trkpt lat="45.42280034303192" lon="9.40634902379196"><ele>99.0</ele><time>2026-04-12T13:17:33Z</time></trkpt><trkpt lat="45.422741704492516" lon="9.406500257170643"><ele>99.0</ele><time>2026-04-12T13:17:34Z</time></trkpt><trkpt lat="45.422697488976965" lon="9.40664808932185"><ele>98.5</ele><time>2026-04-12T13:17:35Z</time></trkpt><trkpt lat="45.422646850851294" lon="9.40681785139918"><ele>98.0</ele><time>2026-04-12T13:17:36Z</time></trkpt><trkpt lat="45.42258082667768" lon="9.407010073715057"><ele>97.5</ele><time>2026-04-12T13:17:37Z</time></trkpt><trkpt lat="45.42255700469651" lon="9.407151063314767"><ele>97.0</ele><time>2026-04-12T13:17:38Z</time></trkpt><trkpt lat="45.42249961635383" lon="9.407299697881669"><ele>96.75</ele><time>2026-04-12T13:17:39Z</time></trkpt><trkpt lat="45.4224361864735" lon="9.407456538841924"><ele>96.5</ele><time>2026-04-12T13:17:40Z</time></trkpt><trkpt lat="45.422415352088805" lon="9.407625033438936"><ele>96.25</ele><time>2026-04-12T13:17:41Z</time></trkpt><trkpt lat="45.42237265649063" lon="9.407763277257517"><ele>96.0</ele><time>2026-04-12T13:17:42Z</time></trkpt><trkpt lat="45.422334168892604" lon="9.407892354443302"><ele>96.0</ele><time>2026-04-12T13:17:43Z</time></trkpt><trkpt lat="45.42228679777811" lon="9.408018955632638"><ele>96.0</ele><time>2026-04-12T13:17:44Z</time></trkpt><trkpt lat="45.42223189750376" lon="9.40813887946757"><ele>96.0</ele><time>2026-04-12T13:17:45Z</time></trkpt><trkpt lat="45.42213251577525" lon="9.408208350114384"><ele>96.0</ele><time>2026-04-12T13:17:46Z</time></trkpt><trkpt lat="45.422025844328616" lon="9.40823088141049"><ele>96.0</ele><time>2026-04-12T13:17:47Z</time></trkpt><trkpt lat="45.421916965242254" lon="9.408272396212036"><ele>96.25</ele><time>2026-04-12T13:17:48Z</time></trkpt><trkpt lat="45.42181975319131" lon="9.408278778523888"><ele>96.5</ele><time>2026-04-12T13:17:49Z</time></trkpt><trkpt lat="45.42167610364606" lon="9.408287884444116"><ele>96.75</ele><time>2026-04-12T13:17:50Z</time></trkpt><trkpt lat="45.421543980774" lon="9.408302325247861"><ele>97.0</ele><time>2026-04-12T13:17:51Z</time></trkpt><trkpt lat="45.42142387827992" lon="9.408304762180727"><ele>97.19999999999999</ele><time>2026-04-12T13:17:52Z</time></trkpt><trkpt lat="45.42129914779334" lon="9.408314037843885"><ele>97.4</ele><time>2026-04-12T13:17:53Z</time></trkpt><trkpt lat="45.421181321252895" lon="9.408325304324952"><ele>97.6</ele><time>2026-04-12T13:17:54Z</time></trkpt><trkpt lat="45.4210953164345" lon="9.408331900767337"><ele>97.80000000000001</ele><time>2026-04-12T13:17:55Z</time></trkpt><trkpt lat="45.42098189957882" lon="9.408363169111"><ele>98.0</ele><time>2026-04-12T13:17:56Z</time></trkpt><trkpt lat="45.420879050771994" lon="9.408384788253324"><ele>97.99999999999999</ele><time>2026-04-12T13:17:57Z</time></trkpt><trkpt lat="45.42077987246779" lon="9.408399908715914"><ele>98.0</ele><time>2026-04-12T13:17:58Z</time></trkpt><trkpt lat="45.42070134233006" lon="9.408409573177632"><ele>98.0</ele><time>2026-04-12T13:17:59Z</time></trkpt><trkpt lat="45.42062450445936" lon="9.408419330370476"><ele>98.0</ele><time>2026-04-12T13:18:00Z</time></trkpt><trkpt lat="45.42054643785591" lon="9.408432312502436"><ele>97.99999999999999</ele><time>2026-04-12T13:18:01Z</time></trkpt><trkpt lat="45.420462045526996" lon="9.408457113505122"><ele>98.0</ele><time>2026-04-12T13:18:02Z</time></trkpt><trkpt lat="45.4203732147824" lon="9.408441979175587"><ele>98.0</ele><time>2026-04-12T13:18:04Z</time></trkpt><trkpt lat="45.42029970747105" lon="9.408444485380498"><ele>98.0</ele><time>2026-04-12T13:18:08.999Z</time></trkpt><trkpt lat="45.42016665517762" lon="9.408471634572576"><ele>98.0</ele><time>2026-04-12T13:18:10.999Z</time></trkpt><trkpt lat="45.420072686028625" lon="9.408496941059681"><ele>98.0</ele><time>2026-04-12T13:18:11.999Z</time></trkpt><trkpt lat="45.41998229926545" lon="9.408514749293783"><ele>98.0</ele><time>2026-04-12T13:18:12.999Z</time></trkpt><trkpt lat="45.419876772097915" lon="9.408537047316381"><ele>98.0</ele><time>2026-04-12T13:18:13.999Z</time></trkpt><trkpt lat="45.41976278862362" lon="9.408559804773816"><ele>98.0</ele><time>2026-04-12T13:18:14.999Z</time></trkpt><trkpt lat="45.41965002805475" lon="9.408574885766305"><ele>98.0</ele><time>2026-04-12T13:18:15.999Z</time></trkpt><trkpt lat="45.419527181242884" lon="9.408587558667849"><ele>98.0</ele><time>2026-04-12T13:18:16.999Z</time></trkpt><trkpt lat="45.419396555630065" lon="9.40861038195555"><ele>98.0</ele><time>2026-04-12T13:18:17.999Z</time></trkpt><trkpt lat="45.4192608638606" lon="9.408625173621553"><ele>98.0</ele><time>2026-04-12T13:18:18.999Z</time></trkpt><trkpt lat="45.41911253748026" lon="9.408636442058059"><ele>98.0</ele><time>2026-04-12T13:18:19.999Z</time></trkpt><trkpt lat="45.41896714768772" lon="9.408649910788071"><ele>98.0</ele><time>2026-04-12T13:18:20.999Z</time></trkpt><trkpt lat="45.41882747407817" lon="9.408657470252315"><ele>98.25</ele><time>2026-04-12T13:18:21.999Z</time></trkpt><trkpt lat="45.41868354262951" lon="9.408674914459386"><ele>98.5</ele><time>2026-04-12T13:18:22.999Z</time></trkpt><trkpt lat="45.41853649480859" lon="9.408693513366444"><ele>98.75</ele><time>2026-04-12T13:18:23.999Z</time></trkpt><trkpt lat="45.41840546533346" lon="9.408704569797884"><ele>99.0</ele><time>2026-04-12T13:18:24.999Z</time></trkpt><trkpt lat="45.41825942249312" lon="9.408722381360473"><ele>99.0</ele><time>2026-04-12T13:18:25.999Z</time></trkpt><trkpt lat="45.418124545441096" lon="9.408700693507901"><ele>99.0</ele><time>2026-04-12T13:18:26.999Z</time></trkpt><trkpt lat="45.417989454439365" lon="9.40870195371908"><ele>99.0</ele><time>2026-04-12T13:18:27.999Z</time></trkpt><trkpt lat="45.4178730373387" lon="9.408671241509882"><ele>99.0</ele><time>2026-04-12T13:18:28.999Z</time></trkpt><trkpt lat="45.417755093866575" lon="9.408677514328621"><ele>98.6</ele><time>2026-04-12T13:18:29.999Z</time></trkpt><trkpt lat="45.41765547837013" lon="9.40864143688054"><ele>98.2</ele><time>2026-04-12T13:18:30.999Z</time></trkpt><trkpt lat="45.41756047979412" lon="9.408625607834226"><ele>97.8</ele><time>2026-04-12T13:18:31.999Z</time></trkpt><trkpt lat="45.41747165413985" lon="9.408614071930975"><ele>97.39999999999999</ele><time>2026-04-12T13:18:32.999Z</time></trkpt><trkpt lat="45.41738662886156" lon="9.408597957072878"><ele>97.0</ele><time>2026-04-12T13:18:33.999Z</time></trkpt><trkpt lat="45.41729927204337" lon="9.408590633304092"><ele>97.00000000000001</ele><time>2026-04-12T13:18:34.999Z</time></trkpt><trkpt lat="45.41721049669176" lon="9.408575942386587"><ele>97.0</ele><time>2026-04-12T13:18:35.999Z</time></trkpt><trkpt lat="45.417119355001546" lon="9.408560694357295"><ele>97.0</ele><time>2026-04-12T13:18:37Z</time></trkpt><trkpt lat="45.41704937010604" lon="9.40852881110501"><ele>97.0</ele><time>2026-04-12T13:18:38Z</time></trkpt><trkpt lat="45.416998543166976" lon="9.408463264304894"><ele>97.00000000000001</ele><time>2026-04-12T13:18:41Z</time></trkpt><trkpt lat="45.4169472491422" lon="9.408390623410195"><ele>97.0</ele><time>2026-04-12T13:18:43Z</time></trkpt><trkpt lat="45.41689719838722" lon="9.40831820459513"><ele>96.66666666666667</ele><time>2026-04-12T13:18:44Z</time></trkpt><trkpt lat="45.41682222763959" lon="9.40829233432364"><ele>96.33333333333334</ele><time>2026-04-12T13:18:45Z</time></trkpt><trkpt lat="45.41675504043463" lon="9.408346091536645"><ele>96.0</ele><time>2026-04-12T13:18:46Z</time></trkpt><trkpt lat="45.41672470085347" lon="9.408458920941769"><ele>95.66666666666667</ele><time>2026-04-12T13:18:47Z</time></trkpt><trkpt lat="45.416749184472955" lon="9.408561799148544"><ele>95.33333333333334</ele><time>2026-04-12T13:18:48Z</time></trkpt><trkpt lat="45.41681353475244" lon="9.40868248271296"><ele>95.0</ele><time>2026-04-12T13:18:49Z</time></trkpt><trkpt lat="45.41688567875201" lon="9.408781959468161"><ele>94.8</ele><time>2026-04-12T13:18:50Z</time></trkpt><trkpt lat="45.41694331867621" lon="9.408913180251844"><ele>94.6</ele><time>2026-04-12T13:18:51Z</time></trkpt><trkpt lat="45.41696663879126" lon="9.409063902453283"><ele>94.4</ele><time>2026-04-12T13:18:52Z</time></trkpt><trkpt lat="45.416989671356994" lon="9.409211389287018"><ele>94.2</ele><time>2026-04-12T13:18:53Z</time></trkpt><trkpt lat="45.417007316466524" lon="9.409361491988461"><ele>94.0</ele><time>2026-04-12T13:18:54Z</time></trkpt><trkpt lat="45.41702817660735" lon="9.409504893879165"><ele>94.0</ele><time>2026-04-12T13:18:55Z</time></trkpt><trkpt lat="45.41705028971598" lon="9.40965449037194"><ele>94.0</ele><time>2026-04-12T13:18:56Z</time></trkpt><trkpt lat="45.417077404897185" lon="9.409821042153744"><ele>94.0</ele><time>2026-04-12T13:18:57Z</time></trkpt><trkpt lat="45.41709368761161" lon="9.40996006050593"><ele>94.0</ele><time>2026-04-12T13:18:58Z</time></trkpt><trkpt lat="45.41710623302554" lon="9.410091052963224"><ele>94.0</ele><time>2026-04-12T13:18:59Z</time></trkpt><trkpt lat="45.41710741446016" lon="9.410224489237914"><ele>94.2</ele><time>2026-04-12T13:19:00Z</time></trkpt><trkpt lat="45.41711939223257" lon="9.410338743389753"><ele>94.4</ele><time>2026-04-12T13:19:01Z</time></trkpt><trkpt lat="45.41710087214615" lon="9.41045738036374"><ele>94.6</ele><time>2026-04-12T13:19:02Z</time></trkpt><trkpt lat="45.4171060037142" lon="9.410624467946665"><ele>94.8</ele><time>2026-04-12T13:19:04Z</time></trkpt><trkpt lat="45.41712597124466" lon="9.4107850542105"><ele>95.0</ele><time>2026-04-12T13:19:06Z</time></trkpt><trkpt lat="45.41710367091525" lon="9.410889065758871"><ele>95.0</ele><time>2026-04-12T13:19:07Z</time></trkpt><trkpt lat="45.417093965765744" lon="9.411002456535458"><ele>95.0</ele><time>2026-04-12T13:19:08Z</time></trkpt><trkpt lat="45.41709445707735" lon="9.411131957128475"><ele>95.0</ele><time>2026-04-12T13:19:09Z</time></trkpt><trkpt lat="45.417122998532236" lon="9.411260741761629"><ele>95.0</ele><time>2026-04-12T13:19:10Z</time></trkpt><trkpt lat="45.417135928696425" lon="9.411404748735519"><ele>95.0</ele><time>2026-04-12T13:19:11Z</time></trkpt><trkpt lat="45.417141800739024" lon="9.411551006756122"><ele>95.25</ele><time>2026-04-12T13:19:12Z</time></trkpt><trkpt lat="45.41715432976814" lon="9.411715167633888"><ele>95.5</ele><time>2026-04-12T13:19:13Z</time></trkpt><trkpt lat="45.41715743388207" lon="9.411882351120095"><ele>95.75</ele><time>2026-04-12T13:19:14Z</time></trkpt><trkpt lat="45.41717046288564" lon="9.412055184849331"><ele>96.0</ele><time>2026-04-12T13:19:15Z</time></trkpt><trkpt lat="45.41716388405254" lon="9.412226232812804"><ele>96.0</ele><time>2026-04-12T13:19:16Z</time></trkpt><trkpt lat="45.41717348380803" lon="9.41240546386573"><ele>96.0</ele><time>2026-04-12T13:19:17Z</time></trkpt><trkpt lat="45.41721279130267" lon="9.41260906107024"><ele>96.0</ele><time>2026-04-12T13:19:18Z</time></trkpt><trkpt lat="45.41724497637072" lon="9.412808303237208"><ele>96.0</ele><time>2026-04-12T13:19:19Z</time></trkpt><trkpt lat="45.417276197728484" lon="9.412971175276985"><ele>96.0</ele><time>2026-04-12T13:19:20Z</time></trkpt><trkpt lat="45.41732231514361" lon="9.413151734655965"><ele>96.0</ele><time>2026-04-12T13:19:21Z</time></trkpt><trkpt lat="45.41737295594399" lon="9.413305510525941"><ele>96.0</ele><time>2026-04-12T13:19:22Z</time></trkpt><trkpt lat="45.41741507349237" lon="9.413460633316632"><ele>96.0</ele><time>2026-04-12T13:19:23Z</time></trkpt><trkpt lat="45.41745727240056" lon="9.413609741328122"><ele>96.0</ele><time>2026-04-12T13:19:24Z</time></trkpt><trkpt lat="45.41749342662929" lon="9.41374392752812"><ele>96.0</ele><time>2026-04-12T13:19:25Z</time></trkpt><trkpt lat="45.41752635406087" lon="9.413871252352877"><ele>96.0</ele><time>2026-04-12T13:19:26Z</time></trkpt><trkpt lat="45.41755595087164" lon="9.413986652860729"><ele>96.0</ele><time>2026-04-12T13:19:27Z</time></trkpt><trkpt lat="45.41756774650152" lon="9.414108213744113"><ele>96.0</ele><time>2026-04-12T13:19:28Z</time></trkpt><trkpt lat="45.417576616492006" lon="9.414213574002742"><ele>96.0</ele><time>2026-04-12T13:19:29Z</time></trkpt><trkpt lat="45.41752338214101" lon="9.41435819481466"><ele>95.6</ele><time>2026-04-12T13:19:30Z</time></trkpt><trkpt lat="45.41752498168931" lon="9.414490931282247"><ele>95.19999999999999</ele><time>2026-04-12T13:19:31Z</time></trkpt><trkpt lat="45.41756757110295" lon="9.414625631078682"><ele>94.80000000000001</ele><time>2026-04-12T13:19:32Z</time></trkpt><trkpt lat="45.41763309865801" lon="9.414736139332469"><ele>94.4</ele><time>2026-04-12T13:19:33Z</time></trkpt><trkpt lat="45.41768254968551" lon="9.414869358703104"><ele>94.0</ele><time>2026-04-12T13:19:34Z</time></trkpt><trkpt lat="45.417703529698244" lon="9.41502425906711"><ele>94.0</ele><time>2026-04-12T13:19:35Z</time></trkpt><trkpt lat="45.41768424296465" lon="9.415180262174957"><ele>94.0</ele><time>2026-04-12T13:19:36Z</time></trkpt><trkpt lat="45.41767931057288" lon="9.415343563480375"><ele>94.0</ele><time>2026-04-12T13:19:37Z</time></trkpt><trkpt lat="45.417672933394655" lon="9.41551316447666"><ele>94.0</ele><time>2026-04-12T13:19:38Z</time></trkpt><trkpt lat="45.4176483225296" lon="9.415688313871984"><ele>94.25</ele><time>2026-04-12T13:19:39Z</time></trkpt><trkpt lat="45.41763734323645" lon="9.415864293594709"><ele>94.5</ele><time>2026-04-12T13:19:40Z</time></trkpt><trkpt lat="45.41761464817694" lon="9.41604897922557"><ele>94.75</ele><time>2026-04-12T13:19:41Z</time></trkpt><trkpt lat="45.417586380924504" lon="9.416239215316955"><ele>95.0</ele><time>2026-04-12T13:19:42Z</time></trkpt><trkpt lat="45.417545512123354" lon="9.416431432672871"><ele>95.0</ele><time>2026-04-12T13:19:43Z</time></trkpt><trkpt lat="45.417505317926775" lon="9.416619868108592"><ele>95.0</ele><time>2026-04-12T13:19:44Z</time></trkpt><trkpt lat="45.417454690738545" lon="9.416804196870576"><ele>95.0</ele><time>2026-04-12T13:19:45Z</time></trkpt><trkpt lat="45.41741584449414" lon="9.416979017089742"><ele>95.0</ele><time>2026-04-12T13:19:46Z</time></trkpt><trkpt lat="45.417366765058524" lon="9.417161298386308"><ele>95.25</ele><time>2026-04-12T13:19:47Z</time></trkpt><trkpt lat="45.4173074020993" lon="9.417348968027301"><ele>95.5</ele><time>2026-04-12T13:19:48Z</time></trkpt><trkpt lat="45.417236762587216" lon="9.41752857968996"><ele>95.75</ele><time>2026-04-12T13:19:49Z</time></trkpt><trkpt lat="45.41717283721948" lon="9.417708718514808"><ele>96.0</ele><time>2026-04-12T13:19:50Z</time></trkpt><trkpt lat="45.41709776704877" lon="9.417884622250474"><ele>95.5</ele><time>2026-04-12T13:19:51Z</time></trkpt><trkpt lat="45.41703209754469" lon="9.418055362300167"><ele>95.0</ele><time>2026-04-12T13:19:52Z</time></trkpt><trkpt lat="45.416973580133096" lon="9.418231592361792"><ele>94.5</ele><time>2026-04-12T13:19:53Z</time></trkpt><trkpt lat="45.41692310191218" lon="9.418404767908124"><ele>94.0</ele><time>2026-04-12T13:19:54Z</time></trkpt><trkpt lat="45.41687249158757" lon="9.41858451441076"><ele>94.0</ele><time>2026-04-12T13:19:55Z</time></trkpt><trkpt lat="45.41679115910371" lon="9.418749229353127"><ele>94.0</ele><time>2026-04-12T13:19:56Z</time></trkpt><trkpt lat="45.41671466410961" lon="9.41892348660769"><ele>94.0</ele><time>2026-04-12T13:19:57Z</time></trkpt><trkpt lat="45.41662001285243" lon="9.41908300120842"><ele>94.0</ele><time>2026-04-12T13:19:58Z</time></trkpt><trkpt lat="45.416520678560175" lon="9.419233237620455"><ele>94.25</ele><time>2026-04-12T13:19:59Z</time></trkpt><trkpt lat="45.41642720229865" lon="9.419396452646891"><ele>94.5</ele><time>2026-04-12T13:20:00Z</time></trkpt><trkpt lat="45.41631880705681" lon="9.41954373853455"><ele>94.75</ele><time>2026-04-12T13:20:01Z</time></trkpt><trkpt lat="45.41621095547092" lon="9.419673069804496"><ele>95.0</ele><time>2026-04-12T13:20:02Z</time></trkpt><trkpt lat="45.416090600614766" lon="9.419788008651171"><ele>95.25</ele><time>2026-04-12T13:20:03Z</time></trkpt><trkpt lat="45.415966160870965" lon="9.41988632579946"><ele>95.5</ele><time>2026-04-12T13:20:04Z</time></trkpt><trkpt lat="45.41583490895926" lon="9.419971546764614"><ele>95.75</ele><time>2026-04-12T13:20:05Z</time></trkpt><trkpt lat="45.415713130480874" lon="9.42006686264518"><ele>96.0</ele><time>2026-04-12T13:20:06Z</time></trkpt><trkpt lat="45.415595917963074" lon="9.420155423674379"><ele>95.5</ele><time>2026-04-12T13:20:07Z</time></trkpt><trkpt lat="45.415477109336294" lon="9.42024993234316"><ele>95.0</ele><time>2026-04-12T13:20:08Z</time></trkpt><trkpt lat="45.415361925044984" lon="9.42035448809886"><ele>94.5</ele><time>2026-04-12T13:20:09Z</time></trkpt><trkpt lat="45.41524978582129" lon="9.420464592796929"><ele>94.0</ele><time>2026-04-12T13:20:10Z</time></trkpt><trkpt lat="45.41513787532461" lon="9.420578735686162"><ele>94.0</ele><time>2026-04-12T13:20:10.999Z</time></trkpt><trkpt lat="45.41502992040757" lon="9.420703728184252"><ele>94.0</ele><time>2026-04-12T13:20:11.999Z</time></trkpt><trkpt lat="45.41492647352832" lon="9.420826729714207"><ele>94.0</ele><time>2026-04-12T13:20:12.999Z</time></trkpt><trkpt lat="45.41483595136441" lon="9.420958303310613"><ele>94.0</ele><time>2026-04-12T13:20:13.999Z</time></trkpt><trkpt lat="45.4147421122258" lon="9.421114173431105"><ele>94.0</ele><time>2026-04-12T13:20:14.999Z</time></trkpt><trkpt lat="45.414658208991014" lon="9.42128147771633"><ele>94.0</ele><time>2026-04-12T13:20:15.999Z</time></trkpt><trkpt lat="45.414579693773895" lon="9.421445804402314"><ele>94.0</ele><time>2026-04-12T13:20:16.999Z</time></trkpt><trkpt lat="45.414509730010714" lon="9.421620702666168"><ele>94.0</ele><time>2026-04-12T13:20:17.999Z</time></trkpt><trkpt lat="45.414449292426326" lon="9.42180309726124"><ele>94.0</ele><time>2026-04-12T13:20:18.999Z</time></trkpt><trkpt lat="45.41438820049231" lon="9.421983013107022"><ele>94.0</ele><time>2026-04-12T13:20:19.999Z</time></trkpt><trkpt lat="45.41432802562037" lon="9.422162112029412"><ele>94.0</ele><time>2026-04-12T13:20:20.999Z</time></trkpt><trkpt lat="45.41426431860158" lon="9.42233814317302"><ele>94.0</ele><time>2026-04-12T13:20:21.999Z</time></trkpt><trkpt lat="45.41420820902631" lon="9.422513195873691"><ele>94.0</ele><time>2026-04-12T13:20:22.999Z</time></trkpt><trkpt lat="45.414150040244316" lon="9.422692268197098"><ele>94.0</ele><time>2026-04-12T13:20:23.999Z</time></trkpt><trkpt lat="45.41409176081237" lon="9.422865260700336"><ele>94.0</ele><time>2026-04-12T13:20:24.999Z</time></trkpt><trkpt lat="45.41403140652545" lon="9.423044653124242"><ele>94.0</ele><time>2026-04-12T13:20:25.999Z</time></trkpt><trkpt lat="45.41396609999072" lon="9.423213388783632"><ele>94.25</ele><time>2026-04-12T13:20:26.999Z</time></trkpt><trkpt lat="45.41391050132768" lon="9.423377439000179"><ele>94.5</ele><time>2026-04-12T13:20:27.999Z</time></trkpt><trkpt lat="45.41386611304609" lon="9.423534514375357"><ele>94.75</ele><time>2026-04-12T13:20:28.999Z</time></trkpt><trkpt lat="45.413812743290855" lon="9.42369345668701"><ele>95.0</ele><time>2026-04-12T13:20:29.999Z</time></trkpt><trkpt lat="45.41377045011274" lon="9.423835166568551"><ele>95.2</ele><time>2026-04-12T13:20:30.999Z</time></trkpt><trkpt lat="45.41371373316064" lon="9.42392434142398"><ele>95.4</ele><time>2026-04-12T13:20:31.999Z</time></trkpt><trkpt lat="45.41367233126237" lon="9.424047358389371"><ele>95.6</ele><time>2026-04-12T13:20:32.999Z</time></trkpt><trkpt lat="45.41361278560191" lon="9.424154964967506"><ele>95.8</ele><time>2026-04-12T13:20:33.999Z</time></trkpt><trkpt lat="45.413541345051556" lon="9.424237963982758"><ele>96.0</ele><time>2026-04-12T13:20:34.999Z</time></trkpt><trkpt lat="45.41346350079905" lon="9.42431284707047"><ele>96.0</ele><time>2026-04-12T13:20:35.999Z</time></trkpt><trkpt lat="45.41339331061063" lon="9.424390591388066"><ele>96.0</ele><time>2026-04-12T13:20:36.999Z</time></trkpt><trkpt lat="45.413380942882036" lon="9.424532378040304"><ele>96.0</ele><time>2026-04-12T13:20:37.999Z</time></trkpt><trkpt lat="45.41339773442146" lon="9.424649267411965"><ele>96.0</ele><time>2026-04-12T13:20:38.999Z</time></trkpt><trkpt lat="45.413475009788854" lon="9.424741108473013"><ele>96.0</ele><time>2026-04-12T13:20:39.999Z</time></trkpt><trkpt lat="45.413574464548" lon="9.424787172169262"><ele>95.75</ele><time>2026-04-12T13:20:40.999Z</time></trkpt><trkpt lat="45.4136775060236" lon="9.424825573720158"><ele>95.5</ele><time>2026-04-12T13:20:41.999Z</time></trkpt><trkpt lat="45.41377625595815" lon="9.42491833053512"><ele>95.25</ele><time>2026-04-12T13:20:43Z</time></trkpt><trkpt lat="45.41384407355662" lon="9.42505037106454"><ele>95.0</ele><time>2026-04-12T13:20:44Z</time></trkpt><trkpt lat="45.413910372434835" lon="9.42518040659688"><ele>95.0</ele><time>2026-04-12T13:20:45Z</time></trkpt><trkpt lat="45.41397567964358" lon="9.42529008887782"><ele>95.0</ele><time>2026-04-12T13:20:46Z</time></trkpt><trkpt lat="45.41403788783055" lon="9.42538468197426"><ele>95.0</ele><time>2026-04-12T13:20:47Z</time></trkpt><trkpt lat="45.414089251711765" lon="9.425494134663161"><ele>95.0</ele><time>2026-04-12T13:20:48Z</time></trkpt><trkpt lat="45.41411432574089" lon="9.42560686532554"><ele>95.0</ele><time>2026-04-12T13:20:49Z</time></trkpt><trkpt lat="45.414157319538454" lon="9.42570942954569"><ele>95.0</ele><time>2026-04-12T13:20:50Z</time></trkpt><trkpt lat="45.41414093153624" lon="9.425855703778836"><ele>95.0</ele><time>2026-04-12T13:20:51Z</time></trkpt><trkpt lat="45.41416353508905" lon="9.425981785305403"><ele>95.0</ele><time>2026-04-12T13:20:52Z</time></trkpt><trkpt lat="45.41423859776486" lon="9.426070063192585"><ele>95.0</ele><time>2026-04-12T13:20:53Z</time></trkpt><trkpt lat="45.41433721062535" lon="9.426119943238103"><ele>95.0</ele><time>2026-04-12T13:20:54Z</time></trkpt><trkpt lat="45.414432889356064" lon="9.426079564877119"><ele>95.0</ele><time>2026-04-12T13:20:55Z</time></trkpt><trkpt lat="45.41457148921483" lon="9.426023182705892"><ele>95.0</ele><time>2026-04-12T13:20:56Z</time></trkpt><trkpt lat="45.41468355978036" lon="9.42602050021178"><ele>95.0</ele><time>2026-04-12T13:20:57Z</time></trkpt><trkpt lat="45.4148027788386" lon="9.426001574596372"><ele>95.0</ele><time>2026-04-12T13:20:58Z</time></trkpt><trkpt lat="45.414924277306916" lon="9.425975468732231"><ele>95.0</ele><time>2026-04-12T13:20:59Z</time></trkpt><trkpt lat="45.415060962311564" lon="9.425940913535047"><ele>95.0</ele><time>2026-04-12T13:21:00Z</time></trkpt><trkpt lat="45.41518095362448" lon="9.425909126396183"><ele>95.0</ele><time>2026-04-12T13:21:01Z</time></trkpt><trkpt lat="45.41531571590166" lon="9.425896007008676"><ele>95.0</ele><time>2026-04-12T13:21:02Z</time></trkpt><trkpt lat="45.41544690488151" lon="9.425881543284818"><ele>95.0</ele><time>2026-04-12T13:21:03Z</time></trkpt><trkpt lat="45.415582410988875" lon="9.425877869276956"><ele>95.0</ele><time>2026-04-12T13:21:04Z</time></trkpt><trkpt lat="45.41571971674744" lon="9.425887774946576"><ele>95.0</ele><time>2026-04-12T13:21:05Z</time></trkpt><trkpt lat="45.41585203868447" lon="9.425908292929698"><ele>95.0</ele><time>2026-04-12T13:21:06Z</time></trkpt><trkpt lat="45.41598043323657" lon="9.42595051525451"><ele>95.0</ele><time>2026-04-12T13:21:07Z</time></trkpt><trkpt lat="45.41610786627736" lon="9.42597553024004"><ele>95.0</ele><time>2026-04-12T13:21:08Z</time></trkpt><trkpt lat="45.41622977050139" lon="9.426030805110631"><ele>95.0</ele><time>2026-04-12T13:21:09Z</time></trkpt><trkpt lat="45.41635159872942" lon="9.42608556815799"><ele>95.0</ele><time>2026-04-12T13:21:10Z</time></trkpt><trkpt lat="45.41646543934304" lon="9.426142489836055"><ele>95.0</ele><time>2026-04-12T13:21:11Z</time></trkpt><trkpt lat="45.41657340475449" lon="9.426209968269415"><ele>95.0</ele><time>2026-04-12T13:21:12Z</time></trkpt><trkpt lat="45.41667420737783" lon="9.426288008828832"><ele>95.0</ele><time>2026-04-12T13:21:13Z</time></trkpt><trkpt lat="45.41676702842001" lon="9.426358897394127"><ele>95.0</ele><time>2026-04-12T13:21:14Z</time></trkpt><trkpt lat="45.41685683076484" lon="9.426420284430595"><ele>95.0</ele><time>2026-04-12T13:21:15Z</time></trkpt><trkpt lat="45.416955674596316" lon="9.426474629355123"><ele>95.2</ele><time>2026-04-12T13:21:16Z</time></trkpt><trkpt lat="45.417062133418064" lon="9.426524193607474"><ele>95.4</ele><time>2026-04-12T13:21:17Z</time></trkpt><trkpt lat="45.41716893477598" lon="9.426558604905031"><ele>95.6</ele><time>2026-04-12T13:21:18Z</time></trkpt><trkpt lat="45.41727638005678" lon="9.42658410416032"><ele>95.8</ele><time>2026-04-12T13:21:19Z</time></trkpt><trkpt lat="45.41738844505044" lon="9.426607439296369"><ele>96.0</ele><time>2026-04-12T13:21:20Z</time></trkpt><trkpt lat="45.41750019311576" lon="9.426624399048384"><ele>96.0</ele><time>2026-04-12T13:21:21Z</time></trkpt><trkpt lat="45.417615761022105" lon="9.42664238911943"><ele>96.0</ele><time>2026-04-12T13:21:22Z</time></trkpt><trkpt lat="45.41772786591388" lon="9.426659198045066"><ele>96.0</ele><time>2026-04-12T13:21:23Z</time></trkpt><trkpt lat="45.417837332308956" lon="9.42667218768217"><ele>96.0</ele><time>2026-04-12T13:21:24Z</time></trkpt><trkpt lat="45.41794062251619" lon="9.426689573997121"><ele>96.0</ele><time>2026-04-12T13:21:25Z</time></trkpt><trkpt lat="45.41804583449479" lon="9.426705470653541"><ele>95.8</ele><time>2026-04-12T13:21:26Z</time></trkpt><trkpt lat="45.418147399659304" lon="9.4267283847128"><ele>95.6</ele><time>2026-04-12T13:21:27Z</time></trkpt><trkpt lat="45.41824231134169" lon="9.42676710674981"><ele>95.4</ele><time>2026-04-12T13:21:28Z</time></trkpt><trkpt lat="45.418321433297834" lon="9.4268486126993"><ele>95.2</ele><time>2026-04-12T13:21:29Z</time></trkpt><trkpt lat="45.418383064448726" lon="9.426960467609414"><ele>95.0</ele><time>2026-04-12T13:21:30Z</time></trkpt><trkpt lat="45.41842792441416" lon="9.42710542882495"><ele>95.0</ele><time>2026-04-12T13:21:31Z</time></trkpt><trkpt lat="45.418460230968805" lon="9.427248926007383"><ele>95.0</ele><time>2026-04-12T13:21:32Z</time></trkpt><trkpt lat="45.41851145866486" lon="9.427353929446594"><ele>95.0</ele><time>2026-04-12T13:21:33Z</time></trkpt><trkpt lat="45.418580879918714" lon="9.427436128175904"><ele>95.0</ele><time>2026-04-12T13:21:34Z</time></trkpt><trkpt lat="45.41866051298228" lon="9.427483275024047"><ele>95.0</ele><time>2026-04-12T13:21:35Z</time></trkpt><trkpt lat="45.4187408723609" lon="9.427491982410217"><ele>95.0</ele><time>2026-04-12T13:21:36Z</time></trkpt><trkpt lat="45.41882313646368" lon="9.427459965630101"><ele>95.0</ele><time>2026-04-12T13:21:37Z</time></trkpt><trkpt lat="45.418902578143204" lon="9.427398373244877"><ele>95.0</ele><time>2026-04-12T13:21:38Z</time></trkpt><trkpt lat="45.41897452938731" lon="9.427317795072824"><ele>95.0</ele><time>2026-04-12T13:21:39Z</time></trkpt><trkpt lat="45.41905211652212" lon="9.427217882182719"><ele>95.0</ele><time>2026-04-12T13:21:40Z</time></trkpt><trkpt lat="45.41914041578298" lon="9.42712132097913"><ele>95.0</ele><time>2026-04-12T13:21:41Z</time></trkpt><trkpt lat="45.41924694070768" lon="9.427050347779613"><ele>95.0</ele><time>2026-04-12T13:21:42Z</time></trkpt><trkpt lat="45.41937056661305" lon="9.42701653328714"><ele>95.0</ele><time>2026-04-12T13:21:43Z</time></trkpt><trkpt lat="45.4194982316916" lon="9.426985361796731"><ele>95.0</ele><time>2026-04-12T13:21:44Z</time></trkpt><trkpt lat="45.41962264646688" lon="9.426919124875614"><ele>95.25</ele><time>2026-04-12T13:21:45Z</time></trkpt><trkpt lat="45.419752404775025" lon="9.42683198733567"><ele>95.5</ele><time>2026-04-12T13:21:46Z</time></trkpt><trkpt lat="45.419860890639875" lon="9.426709265212516"><ele>95.75</ele><time>2026-04-12T13:21:47Z</time></trkpt><trkpt lat="45.41997290181321" lon="9.426582598516207"><ele>96.0</ele><time>2026-04-12T13:21:48Z</time></trkpt><trkpt lat="45.42008880431649" lon="9.426457393509331"><ele>96.0</ele><time>2026-04-12T13:21:49Z</time></trkpt><trkpt lat="45.42021435771197" lon="9.426348854600379"><ele>96.0</ele><time>2026-04-12T13:21:50Z</time></trkpt><trkpt lat="45.42033840525871" lon="9.426252165656457"><ele>96.0</ele><time>2026-04-12T13:21:51Z</time></trkpt><trkpt lat="45.42046127137792" lon="9.42616406499316"><ele>96.0</ele><time>2026-04-12T13:21:52Z</time></trkpt><trkpt lat="45.42058966074576" lon="9.426088789537916"><ele>96.0</ele><time>2026-04-12T13:21:53Z</time></trkpt><trkpt lat="45.4207202516975" lon="9.426034429976296"><ele>96.0</ele><time>2026-04-12T13:21:54Z</time></trkpt><trkpt lat="45.42085256760771" lon="9.425990490743477"><ele>96.0</ele><time>2026-04-12T13:21:55Z</time></trkpt><trkpt lat="45.42098003884202" lon="9.425946951014327"><ele>96.0</ele><time>2026-04-12T13:21:56Z</time></trkpt><trkpt lat="45.42110301275172" lon="9.425890473206419"><ele>96.0</ele><time>2026-04-12T13:21:57Z</time></trkpt><trkpt lat="45.42122401047989" lon="9.425841948025692"><ele>96.0</ele><time>2026-04-12T13:21:58Z</time></trkpt><trkpt lat="45.421324336347595" lon="9.425799991991374"><ele>96.0</ele><time>2026-04-12T13:21:59Z</time></trkpt><trkpt lat="45.42143949871718" lon="9.425768465432931"><ele>96.0</ele><time>2026-04-12T13:22:00Z</time></trkpt><trkpt lat="45.42155496794381" lon="9.42579097641663"><ele>96.0</ele><time>2026-04-12T13:22:01Z</time></trkpt><trkpt lat="45.42167672435917" lon="9.425815767698952"><ele>96.0</ele><time>2026-04-12T13:22:02Z</time></trkpt><trkpt lat="45.42177482052391" lon="9.4258555985213"><ele>96.0</ele><time>2026-04-12T13:22:03Z</time></trkpt><trkpt lat="45.42186844406806" lon="9.425883104081347"><ele>96.0</ele><time>2026-04-12T13:22:04Z</time></trkpt><trkpt lat="45.421954926122545" lon="9.42616979637463"><ele>96.0</ele><time>2026-04-12T13:22:06Z</time></trkpt><trkpt lat="45.42196292189824" lon="9.426327388760873"><ele>96.0</ele><time>2026-04-12T13:22:07Z</time></trkpt><trkpt lat="45.42197559940798" lon="9.426495280872885"><ele>96.0</ele><time>2026-04-12T13:22:08Z</time></trkpt><trkpt lat="45.42199443250624" lon="9.426672895952334"><ele>96.0</ele><time>2026-04-12T13:22:09Z</time></trkpt><trkpt lat="45.422019152655515" lon="9.426860905675108"><ele>96.0</ele><time>2026-04-12T13:22:10Z</time></trkpt><trkpt lat="45.42205314932114" lon="9.427043716039778"><ele>96.0</ele><time>2026-04-12T13:22:11Z</time></trkpt><trkpt lat="45.422091210440236" lon="9.427239625968387"><ele>96.0</ele><time>2026-04-12T13:22:11.999Z</time></trkpt><trkpt lat="45.422127954180006" lon="9.427432059478493"><ele>96.0</ele><time>2026-04-12T13:22:12.999Z</time></trkpt><trkpt lat="45.4221639976346" lon="9.427622336064982"><ele>96.0</ele><time>2026-04-12T13:22:13.999Z</time></trkpt><trkpt lat="45.422208812296994" lon="9.427820618174135"><ele>96.0</ele><time>2026-04-12T13:22:14.999Z</time></trkpt><trkpt lat="45.42224537091941" lon="9.428021345434455"><ele>96.0</ele><time>2026-04-12T13:22:15.999Z</time></trkpt><trkpt lat="45.42228233955405" lon="9.428213677847042"><ele>96.0</ele><time>2026-04-12T13:22:16.999Z</time></trkpt><trkpt lat="45.42230709454958" lon="9.428398678772854"><ele>96.0</ele><time>2026-04-12T13:22:17.999Z</time></trkpt><trkpt lat="45.422340133868104" lon="9.42858755868711"><ele>96.0</ele><time>2026-04-12T13:22:18.999Z</time></trkpt><trkpt lat="45.4223754156438" lon="9.428794053186609"><ele>96.0</ele><time>2026-04-12T13:22:19.999Z</time></trkpt><trkpt lat="45.422401173443404" lon="9.42899350744003"><ele>96.0</ele><time>2026-04-12T13:22:20.999Z</time></trkpt><trkpt lat="45.42243737022708" lon="9.429185388816336"><ele>96.0</ele><time>2026-04-12T13:22:21.999Z</time></trkpt><trkpt lat="45.42247011617023" lon="9.429366067065855"><ele>96.0</ele><time>2026-04-12T13:22:22.999Z</time></trkpt><trkpt lat="45.42250740097201" lon="9.429543490000214"><ele>96.0</ele><time>2026-04-12T13:22:23.999Z</time></trkpt><trkpt lat="45.42254168612239" lon="9.429719714765083"><ele>96.0</ele><time>2026-04-12T13:22:24.999Z</time></trkpt><trkpt lat="45.42257334669446" lon="9.429896292713314"><ele>96.0</ele><time>2026-04-12T13:22:25.999Z</time></trkpt><trkpt lat="45.42259849456557" lon="9.430072668382312"><ele>96.0</ele><time>2026-04-12T13:22:26.999Z</time></trkpt><trkpt lat="45.42262889553788" lon="9.430243456648405"><ele>96.0</ele><time>2026-04-12T13:22:27.999Z</time></trkpt><trkpt lat="45.4226653066431" lon="9.430414634365606"><ele>96.0</ele><time>2026-04-12T13:22:28.999Z</time></trkpt><trkpt lat="45.42269988919264" lon="9.43058734595625"><ele>96.0</ele><time>2026-04-12T13:22:29.999Z</time></trkpt><trkpt lat="45.42273578695491" lon="9.430755301002508"><ele>96.0</ele><time>2026-04-12T13:22:30.999Z</time></trkpt><trkpt lat="45.42276915263051" lon="9.430920269785322"><ele>96.0</ele><time>2026-04-12T13:22:31.999Z</time></trkpt><trkpt lat="45.422803306349685" lon="9.431058614337957"><ele>96.0</ele><time>2026-04-12T13:22:32.999Z</time></trkpt><trkpt lat="45.42283443563935" lon="9.431204143276712"><ele>96.19999999999999</ele><time>2026-04-12T13:22:33.999Z</time></trkpt><trkpt lat="45.42283106268262" lon="9.43135078376623"><ele>96.39999999999999</ele><time>2026-04-12T13:22:34.999Z</time></trkpt><trkpt lat="45.42284943095993" lon="9.4314841948023"><ele>96.6</ele><time>2026-04-12T13:22:35.999Z</time></trkpt><trkpt lat="45.422820339692166" lon="9.431617617946367"><ele>96.8</ele><time>2026-04-12T13:22:36.999Z</time></trkpt><trkpt lat="45.42279337629844" lon="9.431746328996688"><ele>97.0</ele><time>2026-04-12T13:22:37.999Z</time></trkpt><trkpt lat="45.42275328811958" lon="9.431878805329442"><ele>97.0</ele><time>2026-04-12T13:22:38.999Z</time></trkpt><trkpt lat="45.42275535376351" lon="9.432012816090985"><ele>97.0</ele><time>2026-04-12T13:22:39.999Z</time></trkpt><trkpt lat="45.422856256276596" lon="9.432116070363792"><ele>97.0</ele><time>2026-04-12T13:22:40.999Z</time></trkpt><trkpt lat="45.422956791389495" lon="9.432168818234295"><ele>97.0</ele><time>2026-04-12T13:22:41.999Z</time></trkpt><trkpt lat="45.42302810308225" lon="9.432293146096715"><ele>97.0</ele><time>2026-04-12T13:22:42.999Z</time></trkpt><trkpt lat="45.42306970686152" lon="9.432451211888234"><ele>97.0</ele><time>2026-04-12T13:22:43.999Z</time></trkpt><trkpt lat="45.42308994382789" lon="9.432616571113503"><ele>97.0</ele><time>2026-04-12T13:22:44.999Z</time></trkpt><trkpt lat="45.42312363766382" lon="9.432791919498213"><ele>97.0</ele><time>2026-04-12T13:22:45.999Z</time></trkpt><trkpt lat="45.423159460683834" lon="9.432972781948347"><ele>97.0</ele><time>2026-04-12T13:22:46.999Z</time></trkpt><trkpt lat="45.42318830208927" lon="9.433155245561231"><ele>97.0</ele><time>2026-04-12T13:22:47.999Z</time></trkpt><trkpt lat="45.42321836854245" lon="9.433335878441435"><ele>97.0</ele><time>2026-04-12T13:22:49Z</time></trkpt><trkpt lat="45.423251325192204" lon="9.433518556828053"><ele>97.0</ele><time>2026-04-12T13:22:50Z</time></trkpt><trkpt lat="45.42328326768419" lon="9.433705297068554"><ele>97.0</ele><time>2026-04-12T13:22:51Z</time></trkpt><trkpt lat="45.42330625311176" lon="9.433886238397804"><ele>97.0</ele><time>2026-04-12T13:22:52Z</time></trkpt><trkpt lat="45.42334078941887" lon="9.434060379952278"><ele>97.0</ele><time>2026-04-12T13:22:53Z</time></trkpt><trkpt lat="45.42337412954121" lon="9.434235055379713"><ele>97.0</ele><time>2026-04-12T13:22:54Z</time></trkpt><trkpt lat="45.423406785336994" lon="9.434413829248669"><ele>97.0</ele><time>2026-04-12T13:22:55Z</time></trkpt><trkpt lat="45.423440007376016" lon="9.434592131443976"><ele>96.25</ele><time>2026-04-12T13:22:56Z</time></trkpt><trkpt lat="45.423470245861516" lon="9.43476761620093"><ele>95.5</ele><time>2026-04-12T13:22:57Z</time></trkpt><trkpt lat="45.423495550074385" lon="9.434945103103876"><ele>94.75</ele><time>2026-04-12T13:22:58Z</time></trkpt><trkpt lat="45.42352413889099" lon="9.435125455879918"><ele>94.0</ele><time>2026-04-12T13:22:59Z</time></trkpt><trkpt lat="45.42355374810372" lon="9.435306146029648"><ele>94.0</ele><time>2026-04-12T13:23:00Z</time></trkpt><trkpt lat="45.42358161664135" lon="9.43548181397861"><ele>94.0</ele><time>2026-04-12T13:23:01Z</time></trkpt><trkpt lat="45.423613896348094" lon="9.435662320986012"><ele>94.0</ele><time>2026-04-12T13:23:02Z</time></trkpt><trkpt lat="45.423648621218575" lon="9.43583993854016"><ele>94.0</ele><time>2026-04-12T13:23:03Z</time></trkpt><trkpt lat="45.423681439417386" lon="9.436021208295633"><ele>94.0</ele><time>2026-04-12T13:23:04Z</time></trkpt><trkpt lat="45.42370871445376" lon="9.4361972015954"><ele>94.0</ele><time>2026-04-12T13:23:05Z</time></trkpt><trkpt lat="45.42374571138806" lon="9.436376135086787"><ele>94.0</ele><time>2026-04-12T13:23:06Z</time></trkpt><trkpt lat="45.423776917447356" lon="9.436557009857669"><ele>94.0</ele><time>2026-04-12T13:23:07Z</time></trkpt><trkpt lat="45.423806155622806" lon="9.436729097732035"><ele>94.25</ele><time>2026-04-12T13:23:08Z</time></trkpt><trkpt lat="45.423838575792075" lon="9.43690843619499"><ele>94.5</ele><time>2026-04-12T13:23:09Z</time></trkpt><trkpt lat="45.423876398975814" lon="9.437095592257153"><ele>94.75</ele><time>2026-04-12T13:23:10Z</time></trkpt><trkpt lat="45.423906965550586" lon="9.43727338306673"><ele>95.0</ele><time>2026-04-12T13:23:11Z</time></trkpt><trkpt lat="45.4239339144593" lon="9.437447910037669"><ele>95.0</ele><time>2026-04-12T13:23:12Z</time></trkpt><trkpt lat="45.4239619609575" lon="9.437625772615643"><ele>95.0</ele><time>2026-04-12T13:23:13Z</time></trkpt><trkpt lat="45.423983226771924" lon="9.437804210127773"><ele>95.0</ele><time>2026-04-12T13:23:14Z</time></trkpt><trkpt lat="45.42399564087381" lon="9.437982256872836"><ele>95.0</ele><time>2026-04-12T13:23:15Z</time></trkpt><trkpt lat="45.42399398413924" lon="9.438163024811965"><ele>94.75</ele><time>2026-04-12T13:23:16Z</time></trkpt><trkpt lat="45.4239864514828" lon="9.438338957794569"><ele>94.5</ele><time>2026-04-12T13:23:17Z</time></trkpt><trkpt lat="45.423962684100495" lon="9.438505765983583"><ele>94.25</ele><time>2026-04-12T13:23:18Z</time></trkpt><trkpt lat="45.42393958497168" lon="9.43865462110938"><ele>94.0</ele><time>2026-04-12T13:23:19Z</time></trkpt><trkpt lat="45.423898777442766" lon="9.438797345351869"><ele>94.0</ele><time>2026-04-12T13:23:20Z</time></trkpt><trkpt lat="45.42382561686053" lon="9.438913115357225"><ele>94.0</ele><time>2026-04-12T13:23:21Z</time></trkpt><trkpt lat="45.42374647833393" lon="9.439002637956696"><ele>94.0</ele><time>2026-04-12T13:23:22Z</time></trkpt><trkpt lat="45.42370344998474" lon="9.439123983707207"><ele>94.0</ele><time>2026-04-12T13:23:23Z</time></trkpt><trkpt lat="45.423696844448195" lon="9.439263006157097"><ele>94.0</ele><time>2026-04-12T13:23:24Z</time></trkpt><trkpt lat="45.42374213851255" lon="9.439404260308034"><ele>94.0</ele><time>2026-04-12T13:23:25Z</time></trkpt><trkpt lat="45.423694106767414" lon="9.4395802701018"><ele>94.0</ele><time>2026-04-12T13:23:26Z</time></trkpt><trkpt lat="45.42364391608786" lon="9.439744396411733"><ele>94.0</ele><time>2026-04-12T13:23:27Z</time></trkpt><trkpt lat="45.42357554522311" lon="9.439911270093786"><ele>94.0</ele><time>2026-04-12T13:23:28Z</time></trkpt><trkpt lat="45.42352193546618" lon="9.440079963769731"><ele>94.0</ele><time>2026-04-12T13:23:29Z</time></trkpt><trkpt lat="45.4234752321279" lon="9.440252966669533"><ele>94.0</ele><time>2026-04-12T13:23:30Z</time></trkpt><trkpt lat="45.423414344212766" lon="9.440426428923338"><ele>94.0</ele><time>2026-04-12T13:23:31Z</time></trkpt><trkpt lat="45.423364118501745" lon="9.440611355058023"><ele>94.0</ele><time>2026-04-12T13:23:32Z</time></trkpt><trkpt lat="45.42332049216656" lon="9.440792419757901"><ele>94.0</ele><time>2026-04-12T13:23:33Z</time></trkpt><trkpt lat="45.423281978326905" lon="9.440975553905474"><ele>94.0</ele><time>2026-04-12T13:23:34Z</time></trkpt><trkpt lat="45.42324881680815" lon="9.441163475709258"><ele>94.0</ele><time>2026-04-12T13:23:35Z</time></trkpt><trkpt lat="45.42321143907264" lon="9.441343476196774"><ele>94.0</ele><time>2026-04-12T13:23:36Z</time></trkpt><trkpt lat="45.423180695743035" lon="9.44152403060153"><ele>94.0</ele><time>2026-04-12T13:23:37Z</time></trkpt><trkpt lat="45.42316235741661" lon="9.441709937301741"><ele>94.0</ele><time>2026-04-12T13:23:38Z</time></trkpt><trkpt lat="45.423147053985296" lon="9.441894214181948"><ele>94.0</ele><time>2026-04-12T13:23:39Z</time></trkpt><trkpt lat="45.4231333473089" lon="9.44207825201357"><ele>94.0</ele><time>2026-04-12T13:23:40Z</time></trkpt><trkpt lat="45.423122162226306" lon="9.442262119999617"><ele>94.25</ele><time>2026-04-12T13:23:41Z</time></trkpt><trkpt lat="45.42311195631347" lon="9.44244265168553"><ele>94.5</ele><time>2026-04-12T13:23:42Z</time></trkpt><trkpt lat="45.42310759482896" lon="9.442631740987418"><ele>94.75</ele><time>2026-04-12T13:23:43Z</time></trkpt><trkpt lat="45.42310103629813" lon="9.442819877525142"><ele>95.0</ele><time>2026-04-12T13:23:44Z</time></trkpt><trkpt lat="45.42310114969684" lon="9.443010645871967"><ele>95.0</ele><time>2026-04-12T13:23:45Z</time></trkpt><trkpt lat="45.423106197212405" lon="9.443204124922746"><ele>95.0</ele><time>2026-04-12T13:23:46Z</time></trkpt><trkpt lat="45.423117775047224" lon="9.443393067373295"><ele>95.0</ele><time>2026-04-12T13:23:47Z</time></trkpt><trkpt lat="45.42312694244833" lon="9.44358168246885"><ele>95.0</ele><time>2026-04-12T13:23:48Z</time></trkpt><trkpt lat="45.42314037355803" lon="9.443770895070815"><ele>94.5</ele><time>2026-04-12T13:23:49Z</time></trkpt><trkpt lat="45.42316187381068" lon="9.443959563047422"><ele>94.0</ele><time>2026-04-12T13:23:50Z</time></trkpt><trkpt lat="45.42318946354242" lon="9.444144805916919"><ele>93.5</ele><time>2026-04-12T13:23:51Z</time></trkpt><trkpt lat="45.42321591492173" lon="9.444330261540186"><ele>93.0</ele><time>2026-04-12T13:23:52Z</time></trkpt><trkpt lat="45.42324597144854" lon="9.444507736545244"><ele>93.0</ele><time>2026-04-12T13:23:53Z</time></trkpt><trkpt lat="45.42328514905104" lon="9.444685805007547"><ele>93.0</ele><time>2026-04-12T13:23:54Z</time></trkpt><trkpt lat="45.423321492323794" lon="9.444865004541272"><ele>93.0</ele><time>2026-04-12T13:23:55Z</time></trkpt><trkpt lat="45.42336047262068" lon="9.445041643428992"><ele>93.0</ele><time>2026-04-12T13:23:56Z</time></trkpt><trkpt lat="45.423405515605204" lon="9.445212281883254"><ele>93.0</ele><time>2026-04-12T13:23:57Z</time></trkpt><trkpt lat="45.42345509658617" lon="9.445376317886868"><ele>93.0</ele><time>2026-04-12T13:23:58Z</time></trkpt><trkpt lat="45.423506605000284" lon="9.445538461027688"><ele>93.0</ele><time>2026-04-12T13:23:59Z</time></trkpt><trkpt lat="45.423563591637546" lon="9.445696961354665"><ele>93.0</ele><time>2026-04-12T13:24:00Z</time></trkpt><trkpt lat="45.423619647002795" lon="9.445847634887269"><ele>93.0</ele><time>2026-04-12T13:24:01Z</time></trkpt><trkpt lat="45.423681572091226" lon="9.44599754415813"><ele>93.0</ele><time>2026-04-12T13:24:02Z</time></trkpt><trkpt lat="45.42374713484912" lon="9.446146032190079"><ele>93.0</ele><time>2026-04-12T13:24:03Z</time></trkpt><trkpt lat="45.42381760860358" lon="9.44629773896112"><ele>93.0</ele><time>2026-04-12T13:24:04Z</time></trkpt><trkpt lat="45.42388649914008" lon="9.446439721414322"><ele>93.75</ele><time>2026-04-12T13:24:05Z</time></trkpt><trkpt lat="45.423963094928084" lon="9.446578570977918"><ele>94.5</ele><time>2026-04-12T13:24:06Z</time></trkpt><trkpt lat="45.42403823452311" lon="9.446716360978822"><ele>95.25</ele><time>2026-04-12T13:24:07Z</time></trkpt><trkpt lat="45.42411446359619" lon="9.446858957173216"><ele>96.0</ele><time>2026-04-12T13:24:08Z</time></trkpt><trkpt lat="45.42419571438548" lon="9.446995959309229"><ele>96.0</ele><time>2026-04-12T13:24:09Z</time></trkpt><trkpt lat="45.42427515239985" lon="9.447141343547907"><ele>96.0</ele><time>2026-04-12T13:24:10Z</time></trkpt><trkpt lat="45.424342174823906" lon="9.447281506945034"><ele>96.0</ele><time>2026-04-12T13:24:11Z</time></trkpt><trkpt lat="45.42441940463677" lon="9.447422230306476"><ele>96.0</ele><time>2026-04-12T13:24:12Z</time></trkpt><trkpt lat="45.42451271576563" lon="9.447563436296118"><ele>96.0</ele><time>2026-04-12T13:24:13Z</time></trkpt><trkpt lat="45.424588067862864" lon="9.447694501061907"><ele>96.0</ele><time>2026-04-12T13:24:14Z</time></trkpt><trkpt lat="45.42466575658456" lon="9.447814194322198"><ele>96.0</ele><time>2026-04-12T13:24:15Z</time></trkpt><trkpt lat="45.42473087125397" lon="9.447927176776535"><ele>96.0</ele><time>2026-04-12T13:24:16Z</time></trkpt><trkpt lat="45.42480138523352" lon="9.448024939415978"><ele>96.0</ele><time>2026-04-12T13:24:17Z</time></trkpt><trkpt lat="45.42487621330678" lon="9.44810561047181"><ele>96.0</ele><time>2026-04-12T13:24:18Z</time></trkpt><trkpt lat="45.4249537320522" lon="9.448175467317714"><ele>96.0</ele><time>2026-04-12T13:24:19Z</time></trkpt><trkpt lat="45.425026136365425" lon="9.448240913076937"><ele>96.0</ele><time>2026-04-12T13:24:20Z</time></trkpt><trkpt lat="45.42510466256914" lon="9.448295661110619"><ele>96.0</ele><time>2026-04-12T13:24:21Z</time></trkpt><trkpt lat="45.4251891224307" lon="9.44832721156543"><ele>96.0</ele><time>2026-04-12T13:24:22Z</time></trkpt><trkpt lat="45.42527321140777" lon="9.448344492161796"><ele>96.0</ele><time>2026-04-12T13:24:23Z</time></trkpt><trkpt lat="45.425359160569755" lon="9.448351040908573"><ele>96.0</ele><time>2026-04-12T13:24:24Z</time></trkpt><trkpt lat="45.425434005643424" lon="9.448351378045725"><ele>96.0</ele><time>2026-04-12T13:24:25Z</time></trkpt><trkpt lat="45.42553134468771" lon="9.448317699774638"><ele>96.0</ele><time>2026-04-12T13:24:27Z</time></trkpt><trkpt lat="45.42562033678613" lon="9.448330678056037"><ele>96.0</ele><time>2026-04-12T13:24:29Z</time></trkpt><trkpt lat="45.425696746359236" lon="9.448371347664938"><ele>96.0</ele><time>2026-04-12T13:24:31Z</time></trkpt><trkpt lat="45.425752016400835" lon="9.448445301283293"><ele>96.0</ele><time>2026-04-12T13:24:32.999Z</time></trkpt><trkpt lat="45.42580168195448" lon="9.4485207937323"><ele>96.4</ele><time>2026-04-12T13:24:35.999Z</time></trkpt><trkpt lat="45.425736787591745" lon="9.448486318685507"><ele>96.8</ele><time>2026-04-12T13:24:41.999Z</time></trkpt><trkpt lat="45.4258472653657" lon="9.448719220520715"><ele>97.2</ele><time>2026-04-12T13:24:46.999Z</time></trkpt><trkpt lat="45.425876504722545" lon="9.448815687207132"><ele>97.60000000000001</ele><time>2026-04-12T13:24:47.999Z</time></trkpt><trkpt lat="45.42591288993089" lon="9.44889925049083"><ele>98.0</ele><time>2026-04-12T13:24:48.999Z</time></trkpt><trkpt lat="45.42596221034823" lon="9.448982395910662"><ele>98.0</ele><time>2026-04-12T13:24:49.999Z</time></trkpt><trkpt lat="45.42594892379275" lon="9.449228328250362"><ele>98.0</ele><time>2026-04-12T13:24:50.999Z</time></trkpt><trkpt lat="45.42597121031045" lon="9.449347956654151"><ele>98.0</ele><time>2026-04-12T13:24:51.999Z</time></trkpt><trkpt lat="45.42598096061918" lon="9.44947850146542"><ele>98.0</ele><time>2026-04-12T13:24:52.999Z</time></trkpt><trkpt lat="45.42602130380491" lon="9.449612550201053"><ele>97.4</ele><time>2026-04-12T13:24:53.999Z</time></trkpt><trkpt lat="45.4260560188996" lon="9.449755380127263"><ele>96.80000000000001</ele><time>2026-04-12T13:24:55Z</time></trkpt><trkpt lat="45.4260785577438" lon="9.449901657646352"><ele>96.2</ele><time>2026-04-12T13:24:56Z</time></trkpt><trkpt lat="45.42610862925468" lon="9.450059919342095"><ele>95.6</ele><time>2026-04-12T13:24:57Z</time></trkpt><trkpt lat="45.426130139402694" lon="9.450216159118982"><ele>95.0</ele><time>2026-04-12T13:24:58Z</time></trkpt><trkpt lat="45.42615535167448" lon="9.450388933307005"><ele>95.0</ele><time>2026-04-12T13:24:59Z</time></trkpt><trkpt lat="45.426185721611624" lon="9.450566385688415"><ele>95.0</ele><time>2026-04-12T13:25:00Z</time></trkpt><trkpt lat="45.42621542083003" lon="9.450747602298883"><ele>95.0</ele><time>2026-04-12T13:25:01Z</time></trkpt><trkpt lat="45.42624196084834" lon="9.450937191368373"><ele>95.0</ele><time>2026-04-12T13:25:02Z</time></trkpt><trkpt lat="45.42627275850109" lon="9.451128325312101"><ele>95.0</ele><time>2026-04-12T13:25:03Z</time></trkpt><trkpt lat="45.42630070023391" lon="9.451311568435315"><ele>95.0</ele><time>2026-04-12T13:25:04Z</time></trkpt><trkpt lat="45.42633624244364" lon="9.45149998809971"><ele>95.0</ele><time>2026-04-12T13:25:05Z</time></trkpt><trkpt lat="45.426367431093965" lon="9.451683917717348"><ele>95.0</ele><time>2026-04-12T13:25:06Z</time></trkpt><trkpt lat="45.42639573804702" lon="9.451868619103417"><ele>95.0</ele><time>2026-04-12T13:25:07Z</time></trkpt><trkpt lat="45.426424831759526" lon="9.452045940920252"><ele>95.0</ele><time>2026-04-12T13:25:08Z</time></trkpt><trkpt lat="45.426459497091024" lon="9.452231775672095"><ele>95.0</ele><time>2026-04-12T13:25:09Z</time></trkpt><trkpt lat="45.42649048539409" lon="9.452413698816871"><ele>95.0</ele><time>2026-04-12T13:25:10Z</time></trkpt><trkpt lat="45.42651415137292" lon="9.452599301383188"><ele>95.0</ele><time>2026-04-12T13:25:11Z</time></trkpt><trkpt lat="45.426546857589095" lon="9.452781155014481"><ele>95.0</ele><time>2026-04-12T13:25:12Z</time></trkpt><trkpt lat="45.426574407805084" lon="9.452954778905005"><ele>95.0</ele><time>2026-04-12T13:25:13Z</time></trkpt><trkpt lat="45.426609330013015" lon="9.453133021883476"><ele>95.0</ele><time>2026-04-12T13:25:14Z</time></trkpt><trkpt lat="45.42664141687166" lon="9.453319285622495"><ele>95.0</ele><time>2026-04-12T13:25:15Z</time></trkpt><trkpt lat="45.42667039904159" lon="9.453503393513936"><ele>95.0</ele><time>2026-04-12T13:25:16Z</time></trkpt><trkpt lat="45.42669950765273" lon="9.453675068735242"><ele>95.0</ele><time>2026-04-12T13:25:17Z</time></trkpt><trkpt lat="45.426747094332804" lon="9.453829443444336"><ele>95.0</ele><time>2026-04-12T13:25:18Z</time></trkpt><trkpt lat="45.426780277669955" lon="9.45397996336207"><ele>95.0</ele><time>2026-04-12T13:25:19Z</time></trkpt><trkpt lat="45.42680850959221" lon="9.45409459057977"><ele>95.0</ele><time>2026-04-12T13:25:20Z</time></trkpt><trkpt lat="45.42685329671664" lon="9.454228491258236"><ele>95.0</ele><time>2026-04-12T13:25:21Z</time></trkpt><trkpt lat="45.42691389823003" lon="9.454399613846778"><ele>95.0</ele><time>2026-04-12T13:25:22Z</time></trkpt><trkpt lat="45.42696787145917" lon="9.454527927619793"><ele>95.0</ele><time>2026-04-12T13:25:23Z</time></trkpt><trkpt lat="45.427037090725285" lon="9.454661376995313"><ele>95.16666666666667</ele><time>2026-04-12T13:25:24Z</time></trkpt><trkpt lat="45.42707008676358" lon="9.454796304348573"><ele>95.33333333333334</ele><time>2026-04-12T13:25:25Z</time></trkpt><trkpt lat="45.42709979742815" lon="9.45492460059702"><ele>95.5</ele><time>2026-04-12T13:25:26Z</time></trkpt><trkpt lat="45.4270905075457" lon="9.45505413620113"><ele>95.66666666666667</ele><time>2026-04-12T13:25:27Z</time></trkpt><trkpt lat="45.42712768705636" lon="9.455155808222194"><ele>95.83333333333333</ele><time>2026-04-12T13:25:28Z</time></trkpt><trkpt lat="45.42718433777226" lon="9.4552297360845"><ele>96.0</ele><time>2026-04-12T13:25:29Z</time></trkpt><trkpt lat="45.42726186787764" lon="9.45526014650549"><ele>95.6</ele><time>2026-04-12T13:25:30Z</time></trkpt><trkpt lat="45.427347445937286" lon="9.455218359190733"><ele>95.19999999999999</ele><time>2026-04-12T13:25:31Z</time></trkpt><trkpt lat="45.42745924396165" lon="9.455224836767206"><ele>94.80000000000001</ele><time>2026-04-12T13:25:32Z</time></trkpt><trkpt lat="45.42757102666039" lon="9.455215658136595"><ele>94.4</ele><time>2026-04-12T13:25:33Z</time></trkpt><trkpt lat="45.42768656156249" lon="9.455212318386922"><ele>94.0</ele><time>2026-04-12T13:25:34Z</time></trkpt><trkpt lat="45.427807716772655" lon="9.455283453301917"><ele>94.0</ele><time>2026-04-12T13:25:35Z</time></trkpt><trkpt lat="45.427932002834496" lon="9.45529839393389"><ele>94.0</ele><time>2026-04-12T13:25:36Z</time></trkpt><trkpt lat="45.42805906088257" lon="9.455300823379865"><ele>94.0</ele><time>2026-04-12T13:25:37Z</time></trkpt><trkpt lat="45.428191594238136" lon="9.455299162244684"><ele>94.0</ele><time>2026-04-12T13:25:38Z</time></trkpt><trkpt lat="45.4283232249418" lon="9.455290917896885"><ele>94.0</ele><time>2026-04-12T13:25:39Z</time></trkpt><trkpt lat="45.42845170592141" lon="9.455268100712951"><ele>94.0</ele><time>2026-04-12T13:25:40Z</time></trkpt><trkpt lat="45.42857734483384" lon="9.455236046570683"><ele>94.0</ele><time>2026-04-12T13:25:41Z</time></trkpt><trkpt lat="45.42871680647602" lon="9.455196381458107"><ele>94.0</ele><time>2026-04-12T13:25:42Z</time></trkpt><trkpt lat="45.428863894520596" lon="9.455175050062408"><ele>94.25</ele><time>2026-04-12T13:25:43Z</time></trkpt><trkpt lat="45.42900311847064" lon="9.455139276733357"><ele>94.5</ele><time>2026-04-12T13:25:44Z</time></trkpt><trkpt lat="45.42913932238867" lon="9.455109706087578"><ele>94.75</ele><time>2026-04-12T13:25:45Z</time></trkpt><trkpt lat="45.42926838008133" lon="9.455090644080526"><ele>95.0</ele><time>2026-04-12T13:25:46Z</time></trkpt><trkpt lat="45.429394152540176" lon="9.455060446568357"><ele>95.0</ele><time>2026-04-12T13:25:47Z</time></trkpt><trkpt lat="45.4295216160615" lon="9.455026892005124"><ele>95.0</ele><time>2026-04-12T13:25:48Z</time></trkpt><trkpt lat="45.429650128669216" lon="9.454998442131762"><ele>95.0</ele><time>2026-04-12T13:25:49Z</time></trkpt><trkpt lat="45.42977821609153" lon="9.45497072707157"><ele>95.0</ele><time>2026-04-12T13:25:50Z</time></trkpt><trkpt lat="45.42990837878335" lon="9.45493936215336"><ele>95.25</ele><time>2026-04-12T13:25:51Z</time></trkpt><trkpt lat="45.43003233284842" lon="9.454903611785836"><ele>95.5</ele><time>2026-04-12T13:25:52Z</time></trkpt><trkpt lat="45.43015797189448" lon="9.454876552392898"><ele>95.75</ele><time>2026-04-12T13:25:53Z</time></trkpt><trkpt lat="45.430283941637335" lon="9.454845277908035"><ele>96.0</ele><time>2026-04-12T13:25:54Z</time></trkpt><trkpt lat="45.430407372550285" lon="9.454814613684587"><ele>96.25</ele><time>2026-04-12T13:25:55Z</time></trkpt><trkpt lat="45.43053414123199" lon="9.454787139706328"><ele>96.5</ele><time>2026-04-12T13:25:56Z</time></trkpt><trkpt lat="45.43066489455378" lon="9.454754939773897"><ele>96.75</ele><time>2026-04-12T13:25:57Z</time></trkpt><trkpt lat="45.430789046894915" lon="9.454726131009485"><ele>97.0</ele><time>2026-04-12T13:25:58Z</time></trkpt><trkpt lat="45.430910334187324" lon="9.454697363655882"><ele>97.0</ele><time>2026-04-12T13:25:59Z</time></trkpt><trkpt lat="45.43104156469636" lon="9.454661224731053"><ele>97.0</ele><time>2026-04-12T13:26:00Z</time></trkpt><trkpt lat="45.43116580912106" lon="9.454629152929229"><ele>97.0</ele><time>2026-04-12T13:26:01Z</time></trkpt><trkpt lat="45.43128738464856" lon="9.454593030214598"><ele>97.0</ele><time>2026-04-12T13:26:02Z</time></trkpt><trkpt lat="45.43140339044317" lon="9.454529359671586"><ele>96.5</ele><time>2026-04-12T13:26:03Z</time></trkpt><trkpt lat="45.4315137991047" lon="9.454442293013287"><ele>96.0</ele><time>2026-04-12T13:26:04Z</time></trkpt><trkpt lat="45.43162036151802" lon="9.454358330302094"><ele>95.5</ele><time>2026-04-12T13:26:05Z</time></trkpt><trkpt lat="45.43171878064341" lon="9.454297299845276"><ele>95.0</ele><time>2026-04-12T13:26:06Z</time></trkpt><trkpt lat="45.43182670935104" lon="9.454265101936954"><ele>95.0</ele><time>2026-04-12T13:26:07Z</time></trkpt><trkpt lat="45.43193623370434" lon="9.454278348458459"><ele>95.0</ele><time>2026-04-12T13:26:08Z</time></trkpt><trkpt lat="45.432040636730605" lon="9.454320380083557"><ele>95.0</ele><time>2026-04-12T13:26:09Z</time></trkpt><trkpt lat="45.43213720916542" lon="9.45439042124849"><ele>95.0</ele><time>2026-04-12T13:26:10Z</time></trkpt><trkpt lat="45.4322239051717" lon="9.454479394046544"><ele>95.0</ele><time>2026-04-12T13:26:11Z</time></trkpt><trkpt lat="45.432300609149145" lon="9.454620999969784"><ele>95.5</ele><time>2026-04-12T13:26:12Z</time></trkpt><trkpt lat="45.432348482575534" lon="9.454781082450834"><ele>96.0</ele><time>2026-04-12T13:26:13Z</time></trkpt><trkpt lat="45.43239771795641" lon="9.454937004716344"><ele>96.5</ele><time>2026-04-12T13:26:14Z</time></trkpt><trkpt lat="45.432364480591275" lon="9.455132409499761"><ele>97.0</ele><time>2026-04-12T13:26:15Z</time></trkpt><trkpt lat="45.43235562613768" lon="9.455302927843643"><ele>96.5</ele><time>2026-04-12T13:26:16Z</time></trkpt><trkpt lat="45.43233448217968" lon="9.455474559468755"><ele>96.0</ele><time>2026-04-12T13:26:17Z</time></trkpt><trkpt lat="45.43232037728649" lon="9.455646655310312"><ele>95.5</ele><time>2026-04-12T13:26:18Z</time></trkpt><trkpt lat="45.43231719029206" lon="9.455819845882345"><ele>95.0</ele><time>2026-04-12T13:26:19Z</time></trkpt><trkpt lat="45.432325556150715" lon="9.455995646018724"><ele>95.0</ele><time>2026-04-12T13:26:20Z</time></trkpt><trkpt lat="45.432337981002334" lon="9.456171933971191"><ele>95.0</ele><time>2026-04-12T13:26:21Z</time></trkpt><trkpt lat="45.43236122398861" lon="9.456347805991802"><ele>95.0</ele><time>2026-04-12T13:26:22Z</time></trkpt><trkpt lat="45.432396054489594" lon="9.45652193251644"><ele>95.0</ele><time>2026-04-12T13:26:23Z</time></trkpt><trkpt lat="45.43244184803974" lon="9.456692411375053"><ele>94.75</ele><time>2026-04-12T13:26:24Z</time></trkpt><trkpt lat="45.432494713884175" lon="9.456858367996242"><ele>94.5</ele><time>2026-04-12T13:26:25Z</time></trkpt><trkpt lat="45.43255551078481" lon="9.4570198478829"><ele>94.25</ele><time>2026-04-12T13:26:26Z</time></trkpt><trkpt lat="45.432623718058395" lon="9.45717574674897"><ele>94.0</ele><time>2026-04-12T13:26:27Z</time></trkpt><trkpt lat="45.43270344319115" lon="9.457326361186787"><ele>94.25</ele><time>2026-04-12T13:26:28Z</time></trkpt><trkpt lat="45.432779798074414" lon="9.457473568880111"><ele>94.5</ele><time>2026-04-12T13:26:29Z</time></trkpt><trkpt lat="45.432880130240875" lon="9.457603617997636"><ele>94.75</ele><time>2026-04-12T13:26:30Z</time></trkpt><trkpt lat="45.432978050085566" lon="9.457729936409464"><ele>95.0</ele><time>2026-04-12T13:26:31Z</time></trkpt><trkpt lat="45.433083751639806" lon="9.457849481837993"><ele>95.0</ele><time>2026-04-12T13:26:32Z</time></trkpt><trkpt lat="45.43318641182385" lon="9.457970044931784"><ele>95.0</ele><time>2026-04-12T13:26:33Z</time></trkpt><trkpt lat="45.43329065337255" lon="9.458081048628967"><ele>95.0</ele><time>2026-04-12T13:26:34Z</time></trkpt><trkpt lat="45.43339384921544" lon="9.458191082453055"><ele>95.0</ele><time>2026-04-12T13:26:35Z</time></trkpt><trkpt lat="45.43349448824158" lon="9.458299961018568"><ele>95.0</ele><time>2026-04-12T13:26:36Z</time></trkpt><trkpt lat="45.43359356550638" lon="9.458409950710816"><ele>95.0</ele><time>2026-04-12T13:26:37Z</time></trkpt><trkpt lat="45.43369030864327" lon="9.458519340807701"><ele>95.0</ele><time>2026-04-12T13:26:38Z</time></trkpt><trkpt lat="45.433790344220014" lon="9.458630470901698"><ele>95.0</ele><time>2026-04-12T13:26:39Z</time></trkpt><trkpt lat="45.43389168524878" lon="9.458738598306741"><ele>94.0</ele><time>2026-04-12T13:26:39.999Z</time></trkpt><trkpt lat="45.4339947027423" lon="9.458847678936367"><ele>93.0</ele><time>2026-04-12T13:26:40.999Z</time></trkpt><trkpt lat="45.434096229970706" lon="9.4589600874495"><ele>92.0</ele><time>2026-04-12T13:26:41.999Z</time></trkpt><trkpt lat="45.434194977564694" lon="9.459073950064976"><ele>91.0</ele><time>2026-04-12T13:26:42.999Z</time></trkpt><trkpt lat="45.43429339915715" lon="9.459187106036135"><ele>91.0</ele><time>2026-04-12T13:26:43.999Z</time></trkpt><trkpt lat="45.4343910922335" lon="9.459297502949179"><ele>91.0</ele><time>2026-04-12T13:26:44.999Z</time></trkpt><trkpt lat="45.43448591918724" lon="9.459400961622194"><ele>91.0</ele><time>2026-04-12T13:26:45.999Z</time></trkpt><trkpt lat="45.434576978796194" lon="9.459493650963179"><ele>91.0</ele><time>2026-04-12T13:26:46.999Z</time></trkpt><trkpt lat="45.434675810676126" lon="9.459581423642673"><ele>91.5</ele><time>2026-04-12T13:26:47.999Z</time></trkpt><trkpt lat="45.434783770011336" lon="9.459665234483976"><ele>92.0</ele><time>2026-04-12T13:26:48.999Z</time></trkpt><trkpt lat="45.43489647763535" lon="9.459741550370598"><ele>92.5</ele><time>2026-04-12T13:26:49.999Z</time></trkpt><trkpt lat="45.43502062710852" lon="9.45979812314473"><ele>93.0</ele><time>2026-04-12T13:26:50.999Z</time></trkpt><trkpt lat="45.43514935821629" lon="9.459839942655416"><ele>93.0</ele><time>2026-04-12T13:26:51.999Z</time></trkpt><trkpt lat="45.43528462306444" lon="9.4598473342013"><ele>93.0</ele><time>2026-04-12T13:26:52.999Z</time></trkpt><trkpt lat="45.43542291050045" lon="9.459851721362048"><ele>93.0</ele><time>2026-04-12T13:26:53.999Z</time></trkpt><trkpt lat="45.43556059981492" lon="9.459851871762874"><ele>93.0</ele><time>2026-04-12T13:26:54.999Z</time></trkpt><trkpt lat="45.43569751324729" lon="9.459837020771026"><ele>93.25</ele><time>2026-04-12T13:26:55.999Z</time></trkpt><trkpt lat="45.435836820501535" lon="9.459816881551586"><ele>93.5</ele><time>2026-04-12T13:26:56.999Z</time></trkpt><trkpt lat="45.43597563087807" lon="9.459807531577512"><ele>93.75</ele><time>2026-04-12T13:26:57.999Z</time></trkpt><trkpt lat="45.43611694035602" lon="9.459826769330363"><ele>94.0</ele><time>2026-04-12T13:26:58.999Z</time></trkpt><trkpt lat="45.43624138693997" lon="9.45985763223178"><ele>94.25</ele><time>2026-04-12T13:26:59.999Z</time></trkpt><trkpt lat="45.43636409213544" lon="9.4598915836029"><ele>94.5</ele><time>2026-04-12T13:27:01Z</time></trkpt><trkpt lat="45.43648972651621" lon="9.459936019916066"><ele>94.75</ele><time>2026-04-12T13:27:02Z</time></trkpt><trkpt lat="45.43660585906308" lon="9.460003499693736"><ele>95.0</ele><time>2026-04-12T13:27:03Z</time></trkpt><trkpt lat="45.43672706319078" lon="9.46008723965006"><ele>95.0</ele><time>2026-04-12T13:27:04Z</time></trkpt><trkpt lat="45.43684240645107" lon="9.460176516722997"><ele>95.0</ele><time>2026-04-12T13:27:05Z</time></trkpt><trkpt lat="45.43695238072285" lon="9.460267727266784"><ele>95.0</ele><time>2026-04-12T13:27:06Z</time></trkpt><trkpt lat="45.43705729635174" lon="9.460370249497082"><ele>95.0</ele><time>2026-04-12T13:27:07Z</time></trkpt><trkpt lat="45.437156326528154" lon="9.460484756181843"><ele>95.5</ele><time>2026-04-12T13:27:08Z</time></trkpt><trkpt lat="45.437241059492074" lon="9.460619495541435"><ele>96.0</ele><time>2026-04-12T13:27:09Z</time></trkpt><trkpt lat="45.437321191010746" lon="9.460758564672073"><ele>96.5</ele><time>2026-04-12T13:27:10Z</time></trkpt><trkpt lat="45.43739735410983" lon="9.460902711805932"><ele>97.0</ele><time>2026-04-12T13:27:11Z</time></trkpt><trkpt lat="45.437470136630424" lon="9.461052502848855"><ele>97.0</ele><time>2026-04-12T13:27:12Z</time></trkpt><trkpt lat="45.43753692517455" lon="9.461206524301888"><ele>97.0</ele><time>2026-04-12T13:27:13Z</time></trkpt><trkpt lat="45.43760024789128" lon="9.46135865292348"><ele>97.0</ele><time>2026-04-12T13:27:14Z</time></trkpt><trkpt lat="45.43766813197503" lon="9.461510036862686"><ele>97.0</ele><time>2026-04-12T13:27:15Z</time></trkpt><trkpt lat="45.43773919919704" lon="9.461664864565005"><ele>97.25</ele><time>2026-04-12T13:27:16Z</time></trkpt><trkpt lat="45.43781122359074" lon="9.461817868518132"><ele>97.5</ele><time>2026-04-12T13:27:17Z</time></trkpt><trkpt lat="45.43788221526879" lon="9.461968112269355"><ele>97.75</ele><time>2026-04-12T13:27:18Z</time></trkpt><trkpt lat="45.43795626495532" lon="9.462111627828602"><ele>98.0</ele><time>2026-04-12T13:27:19Z</time></trkpt><trkpt lat="45.43802883001692" lon="9.462250478389048"><ele>98.0</ele><time>2026-04-12T13:27:20Z</time></trkpt><trkpt lat="45.43810748787955" lon="9.462379753896139"><ele>98.0</ele><time>2026-04-12T13:27:21Z</time></trkpt><trkpt lat="45.43819656093042" lon="9.462490590431768"><ele>98.0</ele><time>2026-04-12T13:27:22Z</time></trkpt><trkpt lat="45.438281205653546" lon="9.462592936830653"><ele>98.0</ele><time>2026-04-12T13:27:23Z</time></trkpt><trkpt lat="45.43836098973863" lon="9.46269120176289"><ele>98.0</ele><time>2026-04-12T13:27:24Z</time></trkpt><trkpt lat="45.43842824790324" lon="9.462779894779198"><ele>98.0</ele><time>2026-04-12T13:27:25Z</time></trkpt><trkpt lat="45.438495771098474" lon="9.462858655684368"><ele>98.0</ele><time>2026-04-12T13:27:26Z</time></trkpt><trkpt lat="45.43855719329063" lon="9.462930626365155"><ele>98.0</ele><time>2026-04-12T13:27:27Z</time></trkpt><trkpt lat="45.4386131700683" lon="9.4629958050644"><ele>98.0</ele><time>2026-04-12T13:27:28Z</time></trkpt><trkpt lat="45.43869914026835" lon="9.463121296428257"><ele>98.0</ele><time>2026-04-12T13:27:30Z</time></trkpt><trkpt lat="45.43873867757208" lon="9.46320801273143"><ele>98.0</ele><time>2026-04-12T13:27:33Z</time></trkpt><trkpt lat="45.438629346974224" lon="9.463381956084188"><ele>98.0</ele><time>2026-04-12T13:27:35Z</time></trkpt><trkpt lat="45.43854336676024" lon="9.463482517342884"><ele>98.0</ele><time>2026-04-12T13:27:37Z</time></trkpt><trkpt lat="45.43846464763608" lon="9.463500866947024"><ele>98.0</ele><time>2026-04-12T13:27:38Z</time></trkpt><trkpt lat="45.43839610078294" lon="9.463507523653874"><ele>98.0</ele><time>2026-04-12T13:27:39Z</time></trkpt><trkpt lat="45.43831517108469" lon="9.463518971312453"><ele>98.0</ele><time>2026-04-12T13:27:40Z</time></trkpt><trkpt lat="45.43820617067746" lon="9.463575699845181"><ele>98.0</ele><time>2026-04-12T13:27:42Z</time></trkpt><trkpt lat="45.43813315893505" lon="9.463608142636799"><ele>98.0</ele><time>2026-04-12T13:27:45Z</time></trkpt><trkpt lat="45.43820110518731" lon="9.463585990343713"><ele>98.0</ele><time>2026-04-12T13:27:53Z</time></trkpt><trkpt lat="45.43840291916729" lon="9.4635212783098"><ele>98.0</ele><time>2026-04-12T13:27:58Z</time></trkpt><trkpt lat="45.43846827002151" lon="9.463492512260483"><ele>98.0</ele><time>2026-04-12T13:27:59Z</time></trkpt><trkpt lat="45.438569955048905" lon="9.463441719295263"><ele>98.0</ele><time>2026-04-12T13:28:01Z</time></trkpt><trkpt lat="45.43865609799175" lon="9.463362309437686"><ele>98.0</ele><time>2026-04-12T13:28:03Z</time></trkpt><trkpt lat="45.43873833092802" lon="9.46330457893582"><ele>98.0</ele><time>2026-04-12T13:28:05Z</time></trkpt><trkpt lat="45.43890411524097" lon="9.463326874972072"><ele>97.99999999999999</ele><time>2026-04-12T13:28:11Z</time></trkpt><trkpt lat="45.438947102133554" lon="9.463422961405554"><ele>98.0</ele><time>2026-04-12T13:28:12Z</time></trkpt><trkpt lat="45.439013925843994" lon="9.46349378063315"><ele>98.0</ele><time>2026-04-12T13:28:13Z</time></trkpt><trkpt lat="45.439060266894245" lon="9.463567665680579"><ele>98.0</ele><time>2026-04-12T13:28:14Z</time></trkpt><trkpt lat="45.439107024852746" lon="9.463655908195635"><ele>97.99999999999999</ele><time>2026-04-12T13:28:15Z</time></trkpt><trkpt lat="45.43917940939292" lon="9.46373221353875"><ele>98.0</ele><time>2026-04-12T13:28:16Z</time></trkpt><trkpt lat="45.43925355528714" lon="9.463880161840788"><ele>97.99999999999999</ele><time>2026-04-12T13:28:18Z</time></trkpt><trkpt lat="45.43934044237271" lon="9.463928329200442"><ele>98.0</ele><time>2026-04-12T13:28:19Z</time></trkpt><trkpt lat="45.439414027564766" lon="9.463976115627224"><ele>98.0</ele><time>2026-04-12T13:28:20Z</time></trkpt><trkpt lat="45.43947431719237" lon="9.464016284294619"><ele>98.0</ele><time>2026-04-12T13:28:21Z</time></trkpt><trkpt lat="45.439541155368495" lon="9.464067962554513"><ele>97.99999999999999</ele><time>2026-04-12T13:28:22Z</time></trkpt><trkpt lat="45.43960268900628" lon="9.464096199171653"><ele>98.0</ele><time>2026-04-12T13:28:23Z</time></trkpt><trkpt lat="45.439675137856305" lon="9.464107061704686"><ele>97.99999999999999</ele><time>2026-04-12T13:28:24Z</time></trkpt><trkpt lat="45.43974386211174" lon="9.464110960345764"><ele>98.0</ele><time>2026-04-12T13:28:25Z</time></trkpt><trkpt lat="45.43981465156139" lon="9.46410092944316"><ele>98.0</ele><time>2026-04-12T13:28:26Z</time></trkpt><trkpt lat="45.43989198941925" lon="9.464098165833994"><ele>98.0</ele><time>2026-04-12T13:28:27Z</time></trkpt><trkpt lat="45.43995846100253" lon="9.464094885879618"><ele>97.99999999999999</ele><time>2026-04-12T13:28:28Z</time></trkpt><trkpt lat="45.440030537388935" lon="9.46409053331403"><ele>98.0</ele><time>2026-04-12T13:28:29Z</time></trkpt><trkpt lat="45.4401501054158" lon="9.464082604853676"><ele>98.0</ele><time>2026-04-12T13:28:31Z</time></trkpt><trkpt lat="45.44030404515166" lon="9.464151263953738"><ele>98.0</ele><time>2026-04-12T13:28:34Z</time></trkpt><trkpt lat="45.44033686555493" lon="9.464249792542693"><ele>98.0</ele><time>2026-04-12T13:28:35Z</time></trkpt><trkpt lat="45.4404176035226" lon="9.464403783683291"><ele>98.0</ele><time>2026-04-12T13:28:37Z</time></trkpt><trkpt lat="45.44046194970144" lon="9.4644823068151"><ele>98.0</ele><time>2026-04-12T13:28:38Z</time></trkpt><trkpt lat="45.440533961297426" lon="9.464615041259146"><ele>98.0</ele><time>2026-04-12T13:28:40Z</time></trkpt><trkpt lat="45.44061154546039" lon="9.464757220766078"><ele>98.0</ele><time>2026-04-12T13:28:42Z</time></trkpt><trkpt lat="45.440665641646696" lon="9.464823048539023"><ele>98.0</ele><time>2026-04-12T13:28:43Z</time></trkpt><trkpt lat="45.44071781518136" lon="9.464955725239324"><ele>98.0</ele><time>2026-04-12T13:28:45Z</time></trkpt><trkpt lat="45.44081472355706" lon="9.465028446871043"><ele>98.0</ele><time>2026-04-12T13:28:46.999Z</time></trkpt><trkpt lat="45.44090492928238" lon="9.464882166516919"><ele>98.0</ele><time>2026-04-12T13:28:48.999Z</time></trkpt><trkpt lat="45.44103350952838" lon="9.464758673317046"><ele>98.0</ele><time>2026-04-12T13:28:50.999Z</time></trkpt><trkpt lat="45.441089437849826" lon="9.46467191492433"><ele>98.0</ele><time>2026-04-12T13:28:51.999Z</time></trkpt><trkpt lat="45.44117318569848" lon="9.464608608235253"><ele>98.0</ele><time>2026-04-12T13:28:52.999Z</time></trkpt><trkpt lat="45.44125651827912" lon="9.464520746531017"><ele>98.0</ele><time>2026-04-12T13:28:53.999Z</time></trkpt><trkpt lat="45.44134716067099" lon="9.464409784811261"><ele>98.5</ele><time>2026-04-12T13:28:54.999Z</time></trkpt><trkpt lat="45.441461751844095" lon="9.464356541688941"><ele>99.0</ele><time>2026-04-12T13:28:55.999Z</time></trkpt><trkpt lat="45.44157231891689" lon="9.46436028250766"><ele>99.5</ele><time>2026-04-12T13:28:56.999Z</time></trkpt><trkpt lat="45.441694504512604" lon="9.464346362262798"><ele>100.0</ele><time>2026-04-12T13:28:57.999Z</time></trkpt><trkpt lat="45.44181188911076" lon="9.464262777441238"><ele>100.0</ele><time>2026-04-12T13:28:58.999Z</time></trkpt><trkpt lat="45.4419257244415" lon="9.46417541154844"><ele>100.0</ele><time>2026-04-12T13:28:59.999Z</time></trkpt><trkpt lat="45.442020783961034" lon="9.46409587201153"><ele>100.0</ele><time>2026-04-12T13:29:00.999Z</time></trkpt><trkpt lat="45.44210822402398" lon="9.464023145676375"><ele>100.0</ele><time>2026-04-12T13:29:01.999Z</time></trkpt><trkpt lat="45.442191661691716" lon="9.463955094377104"><ele>100.0</ele><time>2026-04-12T13:29:02.999Z</time></trkpt><trkpt lat="45.44225252204656" lon="9.463883101810936"><ele>99.83333333333334</ele><time>2026-04-12T13:29:03.999Z</time></trkpt><trkpt lat="45.44233410499682" lon="9.46384560141931"><ele>99.66666666666667</ele><time>2026-04-12T13:29:04.999Z</time></trkpt><trkpt lat="45.44239751904167" lon="9.463796745782208"><ele>99.5</ele><time>2026-04-12T13:29:05.999Z</time></trkpt><trkpt lat="45.442465716217356" lon="9.46375040742899"><ele>99.33333333333334</ele><time>2026-04-12T13:29:07Z</time></trkpt><trkpt lat="45.44254789836247" lon="9.46370904295104"><ele>99.16666666666667</ele><time>2026-04-12T13:29:08Z</time></trkpt><trkpt lat="45.44264154037199" lon="9.463679305230942"><ele>99.0</ele><time>2026-04-12T13:29:09Z</time></trkpt><trkpt lat="45.44272634948185" lon="9.463665698801744"><ele>99.0</ele><time>2026-04-12T13:29:10Z</time></trkpt><trkpt lat="45.44281541503651" lon="9.463640412420721"><ele>99.0</ele><time>2026-04-12T13:29:11Z</time></trkpt><trkpt lat="45.44290181386493" lon="9.463621522691293"><ele>99.0</ele><time>2026-04-12T13:29:12Z</time></trkpt><trkpt lat="45.442980443444476" lon="9.463598146952004"><ele>99.0</ele><time>2026-04-12T13:29:13Z</time></trkpt><trkpt lat="45.44306466240964" lon="9.463599653313961"><ele>99.0</ele><time>2026-04-12T13:29:14Z</time></trkpt><trkpt lat="45.44314156510434" lon="9.46357706420954"><ele>99.0</ele><time>2026-04-12T13:29:15Z</time></trkpt><trkpt lat="45.44322388122321" lon="9.463550087719087"><ele>98.83333333333333</ele><time>2026-04-12T13:29:16Z</time></trkpt><trkpt lat="45.44330851156303" lon="9.463531495607258"><ele>98.66666666666666</ele><time>2026-04-12T13:29:17Z</time></trkpt><trkpt lat="45.44338926350798" lon="9.463516771773616"><ele>98.5</ele><time>2026-04-12T13:29:18Z</time></trkpt><trkpt lat="45.44347163949507" lon="9.46349279893801"><ele>98.33333333333333</ele><time>2026-04-12T13:29:19Z</time></trkpt><trkpt lat="45.44354417375228" lon="9.463481072041082"><ele>98.16666666666666</ele><time>2026-04-12T13:29:20Z</time></trkpt><trkpt lat="45.443618160115065" lon="9.463455982272228"><ele>98.0</ele><time>2026-04-12T13:29:21Z</time></trkpt><trkpt lat="45.44370313738259" lon="9.4634718859262"><ele>98.0</ele><time>2026-04-12T13:29:22Z</time></trkpt><trkpt lat="45.443781133341766" lon="9.463455341675152"><ele>98.0</ele><time>2026-04-12T13:29:23Z</time></trkpt><trkpt lat="45.44387216690123" lon="9.463461822554935"><ele>98.0</ele><time>2026-04-12T13:29:24Z</time></trkpt><trkpt lat="45.44396771551155" lon="9.463467079562148"><ele>98.0</ele><time>2026-04-12T13:29:25Z</time></trkpt><trkpt lat="45.44406495014297" lon="9.463464722999923"><ele>98.0</ele><time>2026-04-12T13:29:26Z</time></trkpt><trkpt lat="45.444159568528576" lon="9.463454766380703"><ele>97.60000000000001</ele><time>2026-04-12T13:29:27Z</time></trkpt><trkpt lat="45.444262375059935" lon="9.46344915128986"><ele>97.2</ele><time>2026-04-12T13:29:28Z</time></trkpt><trkpt lat="45.444359449137735" lon="9.463446511784467"><ele>96.8</ele><time>2026-04-12T13:29:29Z</time></trkpt><trkpt lat="45.444460462816764" lon="9.46346797869514"><ele>96.4</ele><time>2026-04-12T13:29:30Z</time></trkpt><trkpt lat="45.444568603882956" lon="9.463489290844239"><ele>96.0</ele><time>2026-04-12T13:29:31Z</time></trkpt><trkpt lat="45.4446782701331" lon="9.46349868372424"><ele>96.0</ele><time>2026-04-12T13:29:32Z</time></trkpt><trkpt lat="45.44478697627245" lon="9.463513338636574"><ele>96.0</ele><time>2026-04-12T13:29:33Z</time></trkpt><trkpt lat="45.44490335592308" lon="9.463516718705925"><ele>96.0</ele><time>2026-04-12T13:29:34Z</time></trkpt><trkpt lat="45.445026982151106" lon="9.463511771274554"><ele>96.0</ele><time>2026-04-12T13:29:35Z</time></trkpt><trkpt lat="45.44513961601698" lon="9.46349828203961"><ele>96.0</ele><time>2026-04-12T13:29:36Z</time></trkpt><trkpt lat="45.44524546225958" lon="9.463489520919705"><ele>96.0</ele><time>2026-04-12T13:29:37Z</time></trkpt><trkpt lat="45.44534379732231" lon="9.46347966910893"><ele>96.0</ele><time>2026-04-12T13:29:38Z</time></trkpt><trkpt lat="45.445434902676645" lon="9.463487500867966"><ele>96.0</ele><time>2026-04-12T13:29:39Z</time></trkpt><trkpt lat="45.44552663718584" lon="9.463516682851411"><ele>96.0</ele><time>2026-04-12T13:29:40Z</time></trkpt><trkpt lat="45.445613107370704" lon="9.463553279577818"><ele>96.14285714285714</ele><time>2026-04-12T13:29:41Z</time></trkpt><trkpt lat="45.44567942477485" lon="9.463596723055968"><ele>96.28571428571428</ele><time>2026-04-12T13:29:42Z</time></trkpt><trkpt lat="45.44572158461749" lon="9.463687245236152"><ele>96.42857142857142</ele><time>2026-04-12T13:29:43Z</time></trkpt><trkpt lat="45.44573771445009" lon="9.463804316032318"><ele>96.57142857142857</ele><time>2026-04-12T13:29:44Z</time></trkpt><trkpt lat="45.4457301552636" lon="9.463904844382741"><ele>96.71428571428572</ele><time>2026-04-12T13:29:45Z</time></trkpt><trkpt lat="45.445719948801994" lon="9.463997648712668"><ele>96.85714285714285</ele><time>2026-04-12T13:29:46Z</time></trkpt><trkpt lat="45.445705799010035" lon="9.464090380099519"><ele>97.0</ele><time>2026-04-12T13:29:47Z</time></trkpt><trkpt lat="45.44568925065314" lon="9.464181076997498"><ele>97.0</ele><time>2026-04-12T13:29:48Z</time></trkpt><trkpt lat="45.44567443621989" lon="9.464317021024423"><ele>97.0</ele><time>2026-04-12T13:29:49Z</time></trkpt><trkpt lat="45.44566005237076" lon="9.46446552996692"><ele>97.0</ele><time>2026-04-12T13:29:50Z</time></trkpt><trkpt lat="45.44563420545853" lon="9.464634628260601"><ele>97.0</ele><time>2026-04-12T13:29:51Z</time></trkpt><trkpt lat="45.44561893576922" lon="9.464812709783002"><ele>97.0</ele><time>2026-04-12T13:29:52Z</time></trkpt><trkpt lat="45.44558547864067" lon="9.464972766041463"><ele>97.25</ele><time>2026-04-12T13:29:53Z</time></trkpt><trkpt lat="45.44554539271144" lon="9.465130466984922"><ele>97.5</ele><time>2026-04-12T13:29:54Z</time></trkpt><trkpt lat="45.44550998433682" lon="9.465289838300157"><ele>97.75</ele><time>2026-04-12T13:29:55Z</time></trkpt><trkpt lat="45.44548608632123" lon="9.465451238268239"><ele>98.0</ele><time>2026-04-12T13:29:56Z</time></trkpt><trkpt lat="45.4454713132423" lon="9.46561394896897"><ele>97.5</ele><time>2026-04-12T13:29:57Z</time></trkpt><trkpt lat="45.445480851724064" lon="9.46577253158087"><ele>97.0</ele><time>2026-04-12T13:29:58Z</time></trkpt><trkpt lat="45.44549597475879" lon="9.465932713639585"><ele>96.5</ele><time>2026-04-12T13:29:59Z</time></trkpt><trkpt lat="45.44549823709481" lon="9.46610349953293"><ele>96.0</ele><time>2026-04-12T13:30:00Z</time></trkpt><trkpt lat="45.445481925691475" lon="9.466270065068764"><ele>95.25</ele><time>2026-04-12T13:30:01Z</time></trkpt><trkpt lat="45.44550013971989" lon="9.46643152581152"><ele>94.5</ele><time>2026-04-12T13:30:02Z</time></trkpt><trkpt lat="45.44549915481939" lon="9.46658939350415"><ele>93.75</ele><time>2026-04-12T13:30:03Z</time></trkpt><trkpt lat="45.44556702113595" lon="9.466734945242665"><ele>93.0</ele><time>2026-04-12T13:30:04Z</time></trkpt><trkpt lat="45.44564404963664" lon="9.466893612282279"><ele>93.0</ele><time>2026-04-12T13:30:05Z</time></trkpt><trkpt lat="45.44574917381458" lon="9.466998164080938"><ele>93.0</ele><time>2026-04-12T13:30:06Z</time></trkpt><trkpt lat="45.445832018166236" lon="9.467140457630588"><ele>93.0</ele><time>2026-04-12T13:30:07Z</time></trkpt><trkpt lat="45.44592321791974" lon="9.46727193406642"><ele>93.0</ele><time>2026-04-12T13:30:08Z</time></trkpt><trkpt lat="45.44602330345801" lon="9.467378218173307"><ele>93.0</ele><time>2026-04-12T13:30:09Z</time></trkpt><trkpt lat="45.446121355547305" lon="9.467490295603591"><ele>93.0</ele><time>2026-04-12T13:30:10Z</time></trkpt><trkpt lat="45.446224444200894" lon="9.467573915106232"><ele>93.0</ele><time>2026-04-12T13:30:11Z</time></trkpt><trkpt lat="45.446329637690816" lon="9.4676278453865"><ele>93.0</ele><time>2026-04-12T13:30:12Z</time></trkpt><trkpt lat="45.44644823810629" lon="9.46763138559435"><ele>92.5</ele><time>2026-04-12T13:30:13Z</time></trkpt><trkpt lat="45.44658646064048" lon="9.467619720319812"><ele>92.0</ele><time>2026-04-12T13:30:14Z</time></trkpt><trkpt lat="45.44670072351836" lon="9.467641270796545"><ele>91.5</ele><time>2026-04-12T13:30:15Z</time></trkpt><trkpt lat="45.44681819497313" lon="9.467650662411906"><ele>91.0</ele><time>2026-04-12T13:30:16Z</time></trkpt><trkpt lat="45.44692377631924" lon="9.467657801641776"><ele>91.0</ele><time>2026-04-12T13:30:17Z</time></trkpt><trkpt lat="45.44703988932397" lon="9.46766662079009"><ele>91.0</ele><time>2026-04-12T13:30:18Z</time></trkpt><trkpt lat="45.44714865907161" lon="9.467674754630318"><ele>91.0</ele><time>2026-04-12T13:30:19Z</time></trkpt><trkpt lat="45.44725568965291" lon="9.467669637146251"><ele>91.0</ele><time>2026-04-12T13:30:20Z</time></trkpt><trkpt lat="45.44737191176573" lon="9.467676987420079"><ele>91.0</ele><time>2026-04-12T13:30:21Z</time></trkpt><trkpt lat="45.44749358420258" lon="9.467689538954579"><ele>91.0</ele><time>2026-04-12T13:30:22Z</time></trkpt><trkpt lat="45.44762177015015" lon="9.467700538915564"><ele>91.0</ele><time>2026-04-12T13:30:23Z</time></trkpt><trkpt lat="45.44775047102815" lon="9.467701702671862"><ele>91.0</ele><time>2026-04-12T13:30:24Z</time></trkpt><trkpt lat="45.44787507787691" lon="9.467723365634283"><ele>91.0</ele><time>2026-04-12T13:30:25Z</time></trkpt><trkpt lat="45.4479939657957" lon="9.467727269668325"><ele>91.0</ele><time>2026-04-12T13:30:26Z</time></trkpt><trkpt lat="45.44810878203206" lon="9.467731945477126"><ele>91.0</ele><time>2026-04-12T13:30:27Z</time></trkpt><trkpt lat="45.44822826199491" lon="9.467747998332516"><ele>91.0</ele><time>2026-04-12T13:30:28Z</time></trkpt><trkpt lat="45.44834846388153" lon="9.4677544228995"><ele>91.0</ele><time>2026-04-12T13:30:29Z</time></trkpt><trkpt lat="45.44846220900263" lon="9.467760820172339"><ele>91.0</ele><time>2026-04-12T13:30:30Z</time></trkpt><trkpt lat="45.44858376131002" lon="9.467781082883684"><ele>91.0</ele><time>2026-04-12T13:30:31Z</time></trkpt><trkpt lat="45.44870308775997" lon="9.467784660052146"><ele>91.0</ele><time>2026-04-12T13:30:32Z</time></trkpt><trkpt lat="45.448818015541484" lon="9.467787064636674"><ele>91.0</ele><time>2026-04-12T13:30:33Z</time></trkpt><trkpt lat="45.44893488843431" lon="9.467796218863606"><ele>91.25</ele><time>2026-04-12T13:30:34Z</time></trkpt><trkpt lat="45.44905015280323" lon="9.467811521603181"><ele>91.5</ele><time>2026-04-12T13:30:35Z</time></trkpt><trkpt lat="45.44917069128234" lon="9.467816324034535"><ele>91.75</ele><time>2026-04-12T13:30:36Z</time></trkpt><trkpt lat="45.449286308096276" lon="9.467828566165206"><ele>92.0</ele><time>2026-04-12T13:30:37Z</time></trkpt><trkpt lat="45.44940191497593" lon="9.467830732809347"><ele>92.0</ele><time>2026-04-12T13:30:38Z</time></trkpt><trkpt lat="45.44951273750037" lon="9.46783633723661"><ele>92.0</ele><time>2026-04-12T13:30:39Z</time></trkpt><trkpt lat="45.44962345359298" lon="9.467842129142783"><ele>92.0</ele><time>2026-04-12T13:30:40Z</time></trkpt><trkpt lat="45.449730117743414" lon="9.467850041427702"><ele>92.0</ele><time>2026-04-12T13:30:41Z</time></trkpt><trkpt lat="45.449840056990006" lon="9.467854461779655"><ele>92.0</ele><time>2026-04-12T13:30:42Z</time></trkpt><trkpt lat="45.44994778736976" lon="9.467862003356958"><ele>92.0</ele><time>2026-04-12T13:30:43Z</time></trkpt><trkpt lat="45.45006355338358" lon="9.467877689162176"><ele>92.0</ele><time>2026-04-12T13:30:44Z</time></trkpt><trkpt lat="45.450182101006526" lon="9.46788843952525"><ele>92.0</ele><time>2026-04-12T13:30:45Z</time></trkpt><trkpt lat="45.45029850842471" lon="9.467906474873056"><ele>92.0</ele><time>2026-04-12T13:30:46Z</time></trkpt><trkpt lat="45.45041406675347" lon="9.467917894436471"><ele>92.0</ele><time>2026-04-12T13:30:47Z</time></trkpt><trkpt lat="45.450534396477096" lon="9.467934995652183"><ele>92.0</ele><time>2026-04-12T13:30:48Z</time></trkpt><trkpt lat="45.450655977412005" lon="9.467947797516857"><ele>92.0</ele><time>2026-04-12T13:30:49Z</time></trkpt><trkpt lat="45.45077916515957" lon="9.467955676956898"><ele>92.0</ele><time>2026-04-12T13:30:50Z</time></trkpt><trkpt lat="45.450902669658134" lon="9.467965672127937"><ele>92.0</ele><time>2026-04-12T13:30:51Z</time></trkpt><trkpt lat="45.45102876075393" lon="9.467998796146768"><ele>92.0</ele><time>2026-04-12T13:30:52Z</time></trkpt><trkpt lat="45.451156981807145" lon="9.468013346052022"><ele>92.0</ele><time>2026-04-12T13:30:53Z</time></trkpt><trkpt lat="45.45128305648075" lon="9.468027682797763"><ele>92.0</ele><time>2026-04-12T13:30:54Z</time></trkpt><trkpt lat="45.45140449440008" lon="9.468042906232517"><ele>92.0</ele><time>2026-04-12T13:30:55Z</time></trkpt><trkpt lat="45.451526737475724" lon="9.468058229616739"><ele>92.0</ele><time>2026-04-12T13:30:56Z</time></trkpt><trkpt lat="45.451645983707586" lon="9.468070424325116"><ele>92.0</ele><time>2026-04-12T13:30:57Z</time></trkpt><trkpt lat="45.45176462706419" lon="9.468084503491443"><ele>92.0</ele><time>2026-04-12T13:30:58Z</time></trkpt><trkpt lat="45.45188286179674" lon="9.468101166693415"><ele>92.0</ele><time>2026-04-12T13:30:59Z</time></trkpt><trkpt lat="45.45200083146687" lon="9.468115040048785"><ele>92.0</ele><time>2026-04-12T13:30:59.999Z</time></trkpt><trkpt lat="45.45212239197085" lon="9.468119922557376"><ele>92.0</ele><time>2026-04-12T13:31:00.999Z</time></trkpt><trkpt lat="45.45224003683905" lon="9.468131704113935"><ele>92.0</ele><time>2026-04-12T13:31:01.999Z</time></trkpt><trkpt lat="45.45235243011448" lon="9.468126942297852"><ele>92.25</ele><time>2026-04-12T13:31:02.999Z</time></trkpt><trkpt lat="45.452468685571695" lon="9.468139771269131"><ele>92.5</ele><time>2026-04-12T13:31:03.999Z</time></trkpt><trkpt lat="45.45258328447559" lon="9.46815384740137"><ele>92.75</ele><time>2026-04-12T13:31:04.999Z</time></trkpt><trkpt lat="45.452701404130764" lon="9.468166909069165"><ele>93.0</ele><time>2026-04-12T13:31:05.999Z</time></trkpt><trkpt lat="45.45283238756379" lon="9.468180225878365"><ele>93.0</ele><time>2026-04-12T13:31:06.999Z</time></trkpt><trkpt lat="45.452950155588574" lon="9.468190888072005"><ele>93.0</ele><time>2026-04-12T13:31:07.999Z</time></trkpt><trkpt lat="45.453086620740706" lon="9.468205206938006"><ele>93.0</ele><time>2026-04-12T13:31:08.999Z</time></trkpt><trkpt lat="45.453174767682185" lon="9.468210598273467"><ele>93.0</ele><time>2026-04-12T13:31:09.999Z</time></trkpt><trkpt lat="45.45325837921822" lon="9.468263230239215"><ele>93.0</ele><time>2026-04-12T13:31:10.999Z</time></trkpt><trkpt lat="45.45334169990988" lon="9.468341654033319"><ele>93.25</ele><time>2026-04-12T13:31:11.999Z</time></trkpt><trkpt lat="45.45339204886678" lon="9.468467205995708"><ele>93.5</ele><time>2026-04-12T13:31:13Z</time></trkpt><trkpt lat="45.45339682028923" lon="9.468630885949363"><ele>93.75</ele><time>2026-04-12T13:31:14Z</time></trkpt><trkpt lat="45.45344476603591" lon="9.46879236092617"><ele>94.0</ele><time>2026-04-12T13:31:15Z</time></trkpt><trkpt lat="45.45347691973143" lon="9.468961035131974"><ele>94.75</ele><time>2026-04-12T13:31:16Z</time></trkpt><trkpt lat="45.45351746204601" lon="9.469123718526905"><ele>95.5</ele><time>2026-04-12T13:31:17Z</time></trkpt><trkpt lat="45.45355325263342" lon="9.469294192563218"><ele>96.25</ele><time>2026-04-12T13:31:18Z</time></trkpt><trkpt lat="45.45359261008021" lon="9.469464027810334"><ele>97.0</ele><time>2026-04-12T13:31:19Z</time></trkpt><trkpt lat="45.45363250477347" lon="9.469637390138725"><ele>97.0</ele><time>2026-04-12T13:31:20Z</time></trkpt><trkpt lat="45.45367731195375" lon="9.469814084329345"><ele>97.0</ele><time>2026-04-12T13:31:21Z</time></trkpt><trkpt lat="45.45372119853483" lon="9.46999578884829"><ele>97.0</ele><time>2026-04-12T13:31:22Z</time></trkpt><trkpt lat="45.45376291832101" lon="9.470181004446236"><ele>97.0</ele><time>2026-04-12T13:31:23Z</time></trkpt><trkpt lat="45.45380496013558" lon="9.470367621518909"><ele>97.25</ele><time>2026-04-12T13:31:24Z</time></trkpt><trkpt lat="45.453846455467534" lon="9.470554409072717"><ele>97.5</ele><time>2026-04-12T13:31:25Z</time></trkpt><trkpt lat="45.45388721609041" lon="9.470739665636522"><ele>97.75</ele><time>2026-04-12T13:31:26Z</time></trkpt><trkpt lat="45.45392972874642" lon="9.4709246192288"><ele>98.0</ele><time>2026-04-12T13:31:27Z</time></trkpt><trkpt lat="45.45397326722313" lon="9.471099707689703"><ele>97.99999999999999</ele><time>2026-04-12T13:31:28Z</time></trkpt><trkpt lat="45.45400369376631" lon="9.471240508746586"><ele>98.0</ele><time>2026-04-12T13:31:29Z</time></trkpt><trkpt lat="45.45403578811769" lon="9.471361271262673"><ele>98.0</ele><time>2026-04-12T13:31:30Z</time></trkpt><trkpt lat="45.45406619864041" lon="9.471464684901898"><ele>98.0</ele><time>2026-04-12T13:31:31Z</time></trkpt><trkpt lat="45.45408980658271" lon="9.47156015328457"><ele>97.99999999999999</ele><time>2026-04-12T13:31:32Z</time></trkpt><trkpt lat="45.454105581245194" lon="9.471671457494336"><ele>98.0</ele><time>2026-04-12T13:31:34Z</time></trkpt><trkpt lat="45.45399625201805" lon="9.471761332746565"><ele>98.0</ele><time>2026-04-12T13:31:37Z</time></trkpt><trkpt lat="45.45391344023703" lon="9.471767252495914"><ele>98.0</ele><time>2026-04-12T13:31:38Z</time></trkpt><trkpt lat="45.45379999547132" lon="9.471762497391923"><ele>98.0</ele><time>2026-04-12T13:31:39Z</time></trkpt><trkpt lat="45.453662939679546" lon="9.471775498872175"><ele>98.0</ele><time>2026-04-12T13:31:40Z</time></trkpt><trkpt lat="45.45355895381534" lon="9.471792777355079"><ele>98.0</ele><time>2026-04-12T13:31:41Z</time></trkpt><trkpt lat="45.45348073368908" lon="9.471802449328075"><ele>97.99999999999999</ele><time>2026-04-12T13:31:42Z</time></trkpt><trkpt lat="45.45341165575573" lon="9.471805049176156"><ele>98.0</ele><time>2026-04-12T13:31:43Z</time></trkpt><trkpt lat="45.45327912232013" lon="9.471803497553925"><ele>98.0</ele><time>2026-04-12T13:31:45Z</time></trkpt><trkpt lat="45.453203247155656" lon="9.471810690122268"><ele>98.0</ele><time>2026-04-12T13:31:46Z</time></trkpt><trkpt lat="45.45312448926154" lon="9.47182299466081"><ele>97.99999999999999</ele><time>2026-04-12T13:31:47Z</time></trkpt><trkpt lat="45.45304743040826" lon="9.471831465611716"><ele>98.0</ele><time>2026-04-12T13:31:48Z</time></trkpt><trkpt lat="45.452963562908344" lon="9.47184122657607"><ele>97.60000000000001</ele><time>2026-04-12T13:31:49Z</time></trkpt><trkpt lat="45.452884383721155" lon="9.47184627214857"><ele>97.2</ele><time>2026-04-12T13:31:50Z</time></trkpt><trkpt lat="45.452815943664554" lon="9.471850302301707"><ele>96.8</ele><time>2026-04-12T13:31:51Z</time></trkpt><trkpt lat="45.45269868647283" lon="9.471870207338476"><ele>96.4</ele><time>2026-04-12T13:31:53Z</time></trkpt><trkpt lat="45.45258943730124" lon="9.47184673018755"><ele>96.0</ele><time>2026-04-12T13:31:55Z</time></trkpt><trkpt lat="45.45248873038614" lon="9.471782126249462"><ele>96.0</ele><time>2026-04-12T13:31:57Z</time></trkpt><trkpt lat="45.45238534939247" lon="9.471690225784474"><ele>96.0</ele><time>2026-04-12T13:31:59Z</time></trkpt><trkpt lat="45.45232931678005" lon="9.471635956081084"><ele>96.0</ele><time>2026-04-12T13:32:00Z</time></trkpt><trkpt lat="45.45226597520504" lon="9.471564246352807"><ele>96.0</ele><time>2026-04-12T13:32:01Z</time></trkpt><trkpt lat="45.452191668664355" lon="9.471481724830879"><ele>96.0</ele><time>2026-04-12T13:32:02Z</time></trkpt><trkpt lat="45.45211113412645" lon="9.471402377958155"><ele>95.75</ele><time>2026-04-12T13:32:03Z</time></trkpt><trkpt lat="45.45202725265551" lon="9.47128990986532"><ele>95.5</ele><time>2026-04-12T13:32:04Z</time></trkpt><trkpt lat="45.451925836841944" lon="9.471176259189331"><ele>95.25</ele><time>2026-04-12T13:32:05Z</time></trkpt><trkpt lat="45.45182659254865" lon="9.471073651883291"><ele>95.0</ele><time>2026-04-12T13:32:06Z</time></trkpt><trkpt lat="45.45173416057995" lon="9.470966952055353"><ele>95.0</ele><time>2026-04-12T13:32:07Z</time></trkpt><trkpt lat="45.451645454252656" lon="9.470866386304156"><ele>95.0</ele><time>2026-04-12T13:32:08Z</time></trkpt><trkpt lat="45.451561217303315" lon="9.470794044153848"><ele>95.0</ele><time>2026-04-12T13:32:09Z</time></trkpt><trkpt lat="45.45148913842529" lon="9.4707312713583"><ele>95.0</ele><time>2026-04-12T13:32:10Z</time></trkpt><trkpt lat="45.45141706731476" lon="9.470683812400527"><ele>95.0</ele><time>2026-04-12T13:32:11Z</time></trkpt><trkpt lat="45.45132897075833" lon="9.470679744199899"><ele>94.5</ele><time>2026-04-12T13:32:12Z</time></trkpt><trkpt lat="45.45123429448554" lon="9.47072527271965"><ele>94.0</ele><time>2026-04-12T13:32:13Z</time></trkpt><trkpt lat="45.451138429804" lon="9.470838422265308"><ele>93.5</ele><time>2026-04-12T13:32:14Z</time></trkpt><trkpt lat="45.45103392446637" lon="9.470980299669094"><ele>93.0</ele><time>2026-04-12T13:32:15Z</time></trkpt><trkpt lat="45.45092536737177" lon="9.471095704789434"><ele>93.0</ele><time>2026-04-12T13:32:16Z</time></trkpt><trkpt lat="45.450808809466345" lon="9.47122462492751"><ele>93.0</ele><time>2026-04-12T13:32:17Z</time></trkpt><trkpt lat="45.45068822320961" lon="9.471351920282562"><ele>93.0</ele><time>2026-04-12T13:32:18Z</time></trkpt><trkpt lat="45.450570077702956" lon="9.471476049291201"><ele>93.0</ele><time>2026-04-12T13:32:19Z</time></trkpt><trkpt lat="45.4504498341752" lon="9.471597995846137"><ele>92.5</ele><time>2026-04-12T13:32:20Z</time></trkpt><trkpt lat="45.45033403234984" lon="9.47172347162059"><ele>92.0</ele><time>2026-04-12T13:32:21Z</time></trkpt><trkpt lat="45.450222071096256" lon="9.471847650612176"><ele>91.5</ele><time>2026-04-12T13:32:22Z</time></trkpt><trkpt lat="45.45011741698852" lon="9.47196496048661"><ele>91.0</ele><time>2026-04-12T13:32:23Z</time></trkpt><trkpt lat="45.45003284441015" lon="9.472058378617328"><ele>91.0</ele><time>2026-04-12T13:32:24Z</time></trkpt><trkpt lat="45.449963560311076" lon="9.47212904737125"><ele>91.0</ele><time>2026-04-12T13:32:25Z</time></trkpt><trkpt lat="45.44990513927148" lon="9.472179062976085"><ele>91.0</ele><time>2026-04-12T13:32:26Z</time></trkpt><trkpt lat="45.449812366624045" lon="9.472134333614461"><ele>91.0</ele><time>2026-04-12T13:32:28Z</time></trkpt><trkpt lat="45.44976144042397" lon="9.472025080775467"><ele>91.0</ele><time>2026-04-12T13:32:29Z</time></trkpt><trkpt lat="45.449705195581565" lon="9.471857190336724"><ele>91.0</ele><time>2026-04-12T13:32:30Z</time></trkpt><trkpt lat="45.449636591750604" lon="9.471713561549803"><ele>91.0</ele><time>2026-04-12T13:32:31Z</time></trkpt><trkpt lat="45.44958460495629" lon="9.471590904216928"><ele>91.0</ele><time>2026-04-12T13:32:32Z</time></trkpt><trkpt lat="45.44952893321455" lon="9.471492205654059"><ele>91.0</ele><time>2026-04-12T13:32:33Z</time></trkpt><trkpt lat="45.4494942825566" lon="9.471408471466612"><ele>91.0</ele><time>2026-04-12T13:32:34Z</time></trkpt><trkpt lat="45.449443554943095" lon="9.471346685172072"><ele>91.0</ele><time>2026-04-12T13:32:36Z</time></trkpt><trkpt lat="45.44937054322683" lon="9.471317239463152"><ele>91.19999999999999</ele><time>2026-04-12T13:32:39Z</time></trkpt><trkpt lat="45.44929907431246" lon="9.471333416197352"><ele>91.39999999999999</ele><time>2026-04-12T13:32:41Z</time></trkpt><trkpt lat="45.44925199026631" lon="9.471400170599104"><ele>91.6</ele><time>2026-04-12T13:32:42Z</time></trkpt><trkpt lat="45.44919315453113" lon="9.47156341518382"><ele>91.8</ele><time>2026-04-12T13:32:44Z</time></trkpt><trkpt lat="45.44916087738439" lon="9.47170195926061"><ele>92.0</ele><time>2026-04-12T13:32:46Z</time></trkpt><trkpt lat="45.44914401460662" lon="9.471847111543923"><ele>92.0</ele><time>2026-04-12T13:32:48Z</time></trkpt><trkpt lat="45.449105840065606" lon="9.471987340750985"><ele>92.0</ele><time>2026-04-12T13:32:50Z</time></trkpt><trkpt lat="45.44907992589537" lon="9.472141791474494"><ele>92.0</ele><time>2026-04-12T13:32:52Z</time></trkpt><trkpt lat="45.449072048563295" lon="9.472232779952925"><ele>92.0</ele><time>2026-04-12T13:32:53Z</time></trkpt><trkpt lat="45.44906793479227" lon="9.472395271100565"><ele>92.0</ele><time>2026-04-12T13:32:55Z</time></trkpt><trkpt lat="45.44903716971118" lon="9.472531300229335"><ele>91.83333333333334</ele><time>2026-04-12T13:32:57Z</time></trkpt><trkpt lat="45.44897704633705" lon="9.472656338206301"><ele>91.66666666666667</ele><time>2026-04-12T13:32:59Z</time></trkpt><trkpt lat="45.44892439285925" lon="9.472749415738267"><ele>91.5</ele><time>2026-04-12T13:33:01Z</time></trkpt><trkpt lat="45.44888889885481" lon="9.472830991170719"><ele>91.33333333333333</ele><time>2026-04-12T13:33:03.999Z</time></trkpt><trkpt lat="45.44889970912855" lon="9.47293360632018"><ele>91.16666666666666</ele><time>2026-04-12T13:33:06.999Z</time></trkpt><trkpt lat="45.4488850395935" lon="9.473062046079432"><ele>91.0</ele><time>2026-04-12T13:33:08.999Z</time></trkpt><trkpt lat="45.44890741791183" lon="9.473200978823643"><ele>91.0</ele><time>2026-04-12T13:33:10.999Z</time></trkpt><trkpt lat="45.44892904195457" lon="9.473335788312"><ele>91.0</ele><time>2026-04-12T13:33:12.999Z</time></trkpt><trkpt lat="45.448981508384136" lon="9.473436945741131"><ele>91.0</ele><time>2026-04-12T13:33:14.999Z</time></trkpt><trkpt lat="45.449057586442166" lon="9.47345283347708"><ele>91.0</ele><time>2026-04-12T13:33:15.999Z</time></trkpt><trkpt lat="45.44912248437669" lon="9.473460512750304"><ele>91.0</ele><time>2026-04-12T13:33:16.999Z</time></trkpt><trkpt lat="45.449190751286096" lon="9.47347687322337"><ele>91.0</ele><time>2026-04-12T13:33:19Z</time></trkpt><trkpt lat="45.44927154408897" lon="9.473482127435924"><ele>91.0</ele><time>2026-04-12T13:33:22Z</time></trkpt><trkpt lat="45.44918069797056" lon="9.47341256796405"><ele>91.0</ele><time>2026-04-12T13:33:25Z</time></trkpt><trkpt lat="45.44909516717249" lon="9.47346910808862"><ele>91.0</ele><time>2026-04-12T13:33:27Z</time></trkpt><trkpt lat="45.449104733744626" lon="9.473562758475222"><ele>91.0</ele><time>2026-04-12T13:33:29Z</time></trkpt><trkpt lat="45.449224056841345" lon="9.473597103176317"><ele>91.0</ele><time>2026-04-12T13:33:34Z</time></trkpt><trkpt lat="45.449300860922" lon="9.473604674042846"><ele>91.0</ele><time>2026-04-12T13:33:35Z</time></trkpt><trkpt lat="45.449393531873504" lon="9.473616821918192"><ele>91.0</ele><time>2026-04-12T13:33:36Z</time></trkpt><trkpt lat="45.449489641362845" lon="9.473679113280145"><ele>91.0</ele><time>2026-04-12T13:33:37Z</time></trkpt><trkpt lat="45.44959721966162" lon="9.473780556546973"><ele>91.0</ele><time>2026-04-12T13:33:38Z</time></trkpt><trkpt lat="45.449750776220704" lon="9.473890809106933"><ele>90.75</ele><time>2026-04-12T13:33:39Z</time></trkpt><trkpt lat="45.44987793368246" lon="9.473981341546954"><ele>90.5</ele><time>2026-04-12T13:33:40Z</time></trkpt><trkpt lat="45.45000680761878" lon="9.47407647182741"><ele>90.25</ele><time>2026-04-12T13:33:41Z</time></trkpt><trkpt lat="45.45014167714466" lon="9.474179035056968"><ele>90.0</ele><time>2026-04-12T13:33:42Z</time></trkpt><trkpt lat="45.450248089814096" lon="9.474263009794317"><ele>90.0</ele><time>2026-04-12T13:33:43Z</time></trkpt><trkpt lat="45.450335718003394" lon="9.474330710371575"><ele>90.0</ele><time>2026-04-12T13:33:44Z</time></trkpt><trkpt lat="45.450423435777196" lon="9.47437660372974"><ele>90.0</ele><time>2026-04-12T13:33:45Z</time></trkpt><trkpt lat="45.45049471326928" lon="9.474432665706042"><ele>90.0</ele><time>2026-04-12T13:33:46Z</time></trkpt><trkpt lat="45.4505407545853" lon="9.474509119345758"><ele>90.0</ele><time>2026-04-12T13:33:47Z</time></trkpt><trkpt lat="45.45061970150841" lon="9.47458151143054"><ele>90.0</ele><time>2026-04-12T13:33:49Z</time></trkpt><trkpt lat="45.45070862094505" lon="9.474543286734793"><ele>90.0</ele><time>2026-04-12T13:33:51Z</time></trkpt><trkpt lat="45.45080878466803" lon="9.474491269337381"><ele>90.0</ele><time>2026-04-12T13:33:53Z</time></trkpt><trkpt lat="45.450885389813074" lon="9.474457385574084"><ele>90.0</ele><time>2026-04-12T13:33:54Z</time></trkpt><trkpt lat="45.45097107970087" lon="9.474419676430427"><ele>90.0</ele><time>2026-04-12T13:33:55Z</time></trkpt><trkpt lat="45.45105613801594" lon="9.474380537758536"><ele>90.0</ele><time>2026-04-12T13:33:56Z</time></trkpt><trkpt lat="45.45115035363439" lon="9.474334564432901"><ele>90.0</ele><time>2026-04-12T13:33:57Z</time></trkpt><trkpt lat="45.45124966735561" lon="9.474277092130562"><ele>90.0</ele><time>2026-04-12T13:33:58Z</time></trkpt><trkpt lat="45.45134782703174" lon="9.474229196543602"><ele>90.0</ele><time>2026-04-12T13:33:59Z</time></trkpt><trkpt lat="45.451426064283496" lon="9.47419436634549"><ele>90.0</ele><time>2026-04-12T13:34:00Z</time></trkpt><trkpt lat="45.45149967100669" lon="9.474159592981053"><ele>90.0</ele><time>2026-04-12T13:34:01Z</time></trkpt><trkpt lat="45.45157730187351" lon="9.474124635446337"><ele>90.16666666666667</ele><time>2026-04-12T13:34:02Z</time></trkpt><trkpt lat="45.45164647978965" lon="9.474086748920373"><ele>90.33333333333333</ele><time>2026-04-12T13:34:03Z</time></trkpt><trkpt lat="45.451716017128305" lon="9.474065195245128"><ele>90.5</ele><time>2026-04-12T13:34:05Z</time></trkpt><trkpt lat="45.4517222049839" lon="9.474191005745332"><ele>90.66666666666666</ele><time>2026-04-12T13:34:22Z</time></trkpt><trkpt lat="45.4517689570575" lon="9.474279593019448"><ele>90.83333333333333</ele><time>2026-04-12T13:34:23Z</time></trkpt><trkpt lat="45.451832513595136" lon="9.47444617238358"><ele>91.0</ele><time>2026-04-12T13:34:25Z</time></trkpt><trkpt lat="45.451873567887546" lon="9.474581850159632"><ele>90.83333333333333</ele><time>2026-04-12T13:34:26Z</time></trkpt><trkpt lat="45.451895906018585" lon="9.47470562524606"><ele>90.66666666666666</ele><time>2026-04-12T13:34:27Z</time></trkpt><trkpt lat="45.45192646209293" lon="9.474812663578676"><ele>90.5</ele><time>2026-04-12T13:34:28Z</time></trkpt><trkpt lat="45.45195632281133" lon="9.474912298617278"><ele>90.33333333333333</ele><time>2026-04-12T13:34:29Z</time></trkpt><trkpt lat="45.45199027626095" lon="9.475017272479626"><ele>90.16666666666667</ele><time>2026-04-12T13:34:30Z</time></trkpt><trkpt lat="45.452008537585506" lon="9.475110475200607"><ele>90.0</ele><time>2026-04-12T13:34:31Z</time></trkpt><trkpt lat="45.45205121642325" lon="9.475191888894743"><ele>90.0</ele><time>2026-04-12T13:34:32Z</time></trkpt><trkpt lat="45.45207353241464" lon="9.475280088494618"><ele>90.0</ele><time>2026-04-12T13:34:33Z</time></trkpt><trkpt lat="45.45211631913338" lon="9.475439462492032"><ele>90.0</ele><time>2026-04-12T13:34:35Z</time></trkpt><trkpt lat="45.452152138353576" lon="9.475579001357506"><ele>90.0</ele><time>2026-04-12T13:34:37Z</time></trkpt><trkpt lat="45.4521730093185" lon="9.47568485524023"><ele>90.0</ele><time>2026-04-12T13:34:39Z</time></trkpt><trkpt lat="45.45216940973616" lon="9.475792536098874"><ele>90.0</ele><time>2026-04-12T13:34:42Z</time></trkpt><trkpt lat="45.45211019991656" lon="9.475937941594825"><ele>90.4</ele><time>2026-04-12T13:34:44Z</time></trkpt><trkpt lat="45.45201098269412" lon="9.476020463266947"><ele>90.8</ele><time>2026-04-12T13:34:45Z</time></trkpt><trkpt lat="45.45192499982856" lon="9.476115313616283"><ele>91.19999999999999</ele><time>2026-04-12T13:34:46Z</time></trkpt><trkpt lat="45.45188895431029" lon="9.47620203705337"><ele>91.6</ele><time>2026-04-12T13:34:47Z</time></trkpt><trkpt lat="45.451877624473184" lon="9.476361500236939"><ele>92.0</ele><time>2026-04-12T13:34:49Z</time></trkpt><trkpt lat="45.45190128083823" lon="9.476449936086519"><ele>92.0</ele><time>2026-04-12T13:34:51Z</time></trkpt><trkpt lat="45.45184443569504" lon="9.476524061146065"><ele>92.0</ele><time>2026-04-12T13:34:53Z</time></trkpt><trkpt lat="45.451764843102666" lon="9.476495314413755"><ele>92.0</ele><time>2026-04-12T13:34:54Z</time></trkpt><trkpt lat="45.45165485501115" lon="9.476405752610631"><ele>92.0</ele><time>2026-04-12T13:34:55Z</time></trkpt><trkpt lat="45.45158284923372" lon="9.476323027885282"><ele>92.0</ele><time>2026-04-12T13:34:56Z</time></trkpt><trkpt lat="45.451543681238036" lon="9.476249376334113"><ele>92.0</ele><time>2026-04-12T13:34:57Z</time></trkpt><trkpt lat="45.451534005885804" lon="9.476101151694499"><ele>92.0</ele><time>2026-04-12T13:34:58.999Z</time></trkpt><trkpt lat="45.45162902318295" lon="9.475958194115355"><ele>92.0</ele><time>2026-04-12T13:35:01.999Z</time></trkpt><trkpt lat="45.45169534132482" lon="9.475875337457522"><ele>92.0</ele><time>2026-04-12T13:35:02.999Z</time></trkpt><trkpt lat="45.45175895372582" lon="9.475811144342725"><ele>92.0</ele><time>2026-04-12T13:35:03.999Z</time></trkpt><trkpt lat="45.45182104266063" lon="9.475749955146314"><ele>92.0</ele><time>2026-04-12T13:35:04.999Z</time></trkpt><trkpt lat="45.45187995962589" lon="9.475690682899819"><ele>92.0</ele><time>2026-04-12T13:35:05.999Z</time></trkpt><trkpt lat="45.45192776064218" lon="9.475629748849421"><ele>92.0</ele><time>2026-04-12T13:35:06.999Z</time></trkpt><trkpt lat="45.45197491591068" lon="9.475559531501155"><ele>92.0</ele><time>2026-04-12T13:35:07.999Z</time></trkpt><trkpt lat="45.452019317813225" lon="9.475438524368036"><ele>92.0</ele><time>2026-04-12T13:35:09.999Z</time></trkpt><trkpt lat="45.452036379290455" lon="9.475332955851592"><ele>92.0</ele><time>2026-04-12T13:35:12.999Z</time></trkpt><trkpt lat="45.45203053667953" lon="9.475193899777272"><ele>92.0</ele><time>2026-04-12T13:35:15.999Z</time></trkpt><trkpt lat="45.45196452219847" lon="9.474983703607247"><ele>91.83333333333334</ele><time>2026-04-12T13:35:17.999Z</time></trkpt><trkpt lat="45.45193049560582" lon="9.474880078739554"><ele>91.66666666666667</ele><time>2026-04-12T13:35:18.999Z</time></trkpt><trkpt lat="45.45188908833232" lon="9.474782403328243"><ele>91.5</ele><time>2026-04-12T13:35:19.999Z</time></trkpt><trkpt lat="45.451871667841814" lon="9.474671289443606"><ele>91.33333333333333</ele><time>2026-04-12T13:35:20.999Z</time></trkpt><trkpt lat="45.45184976797836" lon="9.47457568528345"><ele>91.16666666666666</ele><time>2026-04-12T13:35:21.999Z</time></trkpt><trkpt lat="45.45182084398499" lon="9.47449010156205"><ele>91.0</ele><time>2026-04-12T13:35:22.999Z</time></trkpt><trkpt lat="45.451784059641206" lon="9.474385729851031"><ele>91.0</ele><time>2026-04-12T13:35:23.999Z</time></trkpt><trkpt lat="45.45176445962465" lon="9.474284334411166"><ele>91.0</ele><time>2026-04-12T13:35:25Z</time></trkpt><trkpt lat="45.45173062998021" lon="9.474206749116208"><ele>91.0</ele><time>2026-04-12T13:35:26Z</time></trkpt><trkpt lat="45.451680931068594" lon="9.474080967973766"><ele>91.0</ele><time>2026-04-12T13:35:28Z</time></trkpt><trkpt lat="45.4517401556288" lon="9.473966202785626"><ele>91.0</ele><time>2026-04-12T13:35:30Z</time></trkpt><trkpt lat="45.45183114812475" lon="9.473953496930681"><ele>91.0</ele><time>2026-04-12T13:35:31Z</time></trkpt><trkpt lat="45.45196621438022" lon="9.473917437808472"><ele>91.0</ele><time>2026-04-12T13:35:32Z</time></trkpt><trkpt lat="45.45210178049133" lon="9.47387846560553"><ele>91.0</ele><time>2026-04-12T13:35:33Z</time></trkpt><trkpt lat="45.452219992269015" lon="9.47383128363509"><ele>91.0</ele><time>2026-04-12T13:35:34Z</time></trkpt><trkpt lat="45.45234910135247" lon="9.473781853746306"><ele>91.0</ele><time>2026-04-12T13:35:35Z</time></trkpt><trkpt lat="45.45246470650653" lon="9.473732605926209"><ele>90.8</ele><time>2026-04-12T13:35:36Z</time></trkpt><trkpt lat="45.45257595054271" lon="9.473688013237906"><ele>90.6</ele><time>2026-04-12T13:35:37Z</time></trkpt><trkpt lat="45.45269871930179" lon="9.473615560581665"><ele>90.4</ele><time>2026-04-12T13:35:38Z</time></trkpt><trkpt lat="45.45278048221117" lon="9.473595308149376"><ele>90.2</ele><time>2026-04-12T13:35:39Z</time></trkpt><trkpt lat="45.452877189888405" lon="9.473552685397507"><ele>90.0</ele><time>2026-04-12T13:35:40Z</time></trkpt><trkpt lat="45.452977342792636" lon="9.473513035665865"><ele>90.83333333333333</ele><time>2026-04-12T13:35:41Z</time></trkpt><trkpt lat="45.453066832505186" lon="9.473468936115491"><ele>91.66666666666667</ele><time>2026-04-12T13:35:42Z</time></trkpt><trkpt lat="45.45312869354324" lon="9.473432626357308"><ele>92.5</ele><time>2026-04-12T13:35:43Z</time></trkpt><trkpt lat="45.453207715462725" lon="9.47341119391653"><ele>93.33333333333334</ele><time>2026-04-12T13:35:44Z</time></trkpt><trkpt lat="45.45328656905134" lon="9.473374877174964"><ele>94.16666666666667</ele><time>2026-04-12T13:35:45Z</time></trkpt><trkpt lat="45.45336155923058" lon="9.47334234677628"><ele>95.0</ele><time>2026-04-12T13:35:46Z</time></trkpt><trkpt lat="45.45344760741254" lon="9.473315224591328"><ele>95.0</ele><time>2026-04-12T13:35:47Z</time></trkpt><trkpt lat="45.453510528122365" lon="9.473318204355405"><ele>95.0</ele><time>2026-04-12T13:35:48Z</time></trkpt><trkpt lat="45.453620951579744" lon="9.4734677902273"><ele>95.0</ele><time>2026-04-12T13:35:49Z</time></trkpt><trkpt lat="45.453703969146815" lon="9.473580644825432"><ele>95.0</ele><time>2026-04-12T13:35:50Z</time></trkpt><trkpt lat="45.453794294182316" lon="9.47366859046747"><ele>95.0</ele><time>2026-04-12T13:35:51Z</time></trkpt><trkpt lat="45.45388568431" lon="9.473772777107778"><ele>95.0</ele><time>2026-04-12T13:35:52Z</time></trkpt><trkpt lat="45.45400110693764" lon="9.473842925169476"><ele>95.0</ele><time>2026-04-12T13:35:53Z</time></trkpt><trkpt lat="45.45411895634542" lon="9.473933267534095"><ele>95.0</ele><time>2026-04-12T13:35:54Z</time></trkpt><trkpt lat="45.45422278207673" lon="9.47403926734578"><ele>95.0</ele><time>2026-04-12T13:35:55Z</time></trkpt><trkpt lat="45.454305717161446" lon="9.474126642500172"><ele>95.0</ele><time>2026-04-12T13:35:56Z</time></trkpt><trkpt lat="45.454391271800205" lon="9.474193272937129"><ele>95.0</ele><time>2026-04-12T13:35:57Z</time></trkpt><trkpt lat="45.454485811046716" lon="9.4742419535413"><ele>95.0</ele><time>2026-04-12T13:35:58Z</time></trkpt><trkpt lat="45.45459987139741" lon="9.47428768941704"><ele>95.0</ele><time>2026-04-12T13:35:59Z</time></trkpt><trkpt lat="45.4547200859009" lon="9.47431562527162"><ele>95.0</ele><time>2026-04-12T13:36:00Z</time></trkpt><trkpt lat="45.4548235928968" lon="9.47434415352719"><ele>95.2</ele><time>2026-04-12T13:36:01Z</time></trkpt><trkpt lat="45.45492503239049" lon="9.474373967537085"><ele>95.4</ele><time>2026-04-12T13:36:02Z</time></trkpt><trkpt lat="45.45499842359841" lon="9.474389509937048"><ele>95.6</ele><time>2026-04-12T13:36:03Z</time></trkpt><trkpt lat="45.455043919315635" lon="9.474521445749618"><ele>95.8</ele><time>2026-04-12T13:36:05Z</time></trkpt><trkpt lat="45.455045232074745" lon="9.474647059318537"><ele>96.0</ele><time>2026-04-12T13:36:06Z</time></trkpt><trkpt lat="45.45500278064505" lon="9.474764232248656"><ele>95.5</ele><time>2026-04-12T13:36:07Z</time></trkpt><trkpt lat="45.45496891926135" lon="9.47495006295164"><ele>95.0</ele><time>2026-04-12T13:36:08Z</time></trkpt><trkpt lat="45.45493778319284" lon="9.47514095638776"><ele>94.5</ele><time>2026-04-12T13:36:09Z</time></trkpt><trkpt lat="45.454902522057466" lon="9.47534894755235"><ele>94.0</ele><time>2026-04-12T13:36:10Z</time></trkpt><trkpt lat="45.45488246461933" lon="9.475533151720915"><ele>94.0</ele><time>2026-04-12T13:36:11Z</time></trkpt><trkpt lat="45.45486412078361" lon="9.475728408921444"><ele>94.0</ele><time>2026-04-12T13:36:12Z</time></trkpt><trkpt lat="45.454856901311096" lon="9.475929850155206"><ele>94.0</ele><time>2026-04-12T13:36:13Z</time></trkpt><trkpt lat="45.45484511244073" lon="9.476121207332943"><ele>94.0</ele><time>2026-04-12T13:36:14Z</time></trkpt><trkpt lat="45.45482820110949" lon="9.476315944322835"><ele>94.75</ele><time>2026-04-12T13:36:15Z</time></trkpt><trkpt lat="45.45481747793926" lon="9.476536323943197"><ele>95.5</ele><time>2026-04-12T13:36:16Z</time></trkpt><trkpt lat="45.45480670956895" lon="9.47674369699197"><ele>96.25</ele><time>2026-04-12T13:36:17Z</time></trkpt><trkpt lat="45.45479127410721" lon="9.476913569214826"><ele>97.0</ele><time>2026-04-12T13:36:18Z</time></trkpt><trkpt lat="45.45477841779884" lon="9.47706628067907"><ele>96.39999999999999</ele><time>2026-04-12T13:36:19Z</time></trkpt><trkpt lat="45.45476192452417" lon="9.477215458886047"><ele>95.8</ele><time>2026-04-12T13:36:20Z</time></trkpt><trkpt lat="45.45475392035933" lon="9.477317428306984"><ele>95.2</ele><time>2026-04-12T13:36:21Z</time></trkpt><trkpt lat="45.4547616876298" lon="9.47745206784834"><ele>94.6</ele><time>2026-04-12T13:36:23Z</time></trkpt><trkpt lat="45.454917189205524" lon="9.477532908410828"><ele>94.0</ele><time>2026-04-12T13:36:43Z</time></trkpt><trkpt lat="45.455043223947115" lon="9.477485647334838"><ele>94.0</ele><time>2026-04-12T13:36:44Z</time></trkpt><trkpt lat="45.45513732646754" lon="9.477490658629664"><ele>94.0</ele><time>2026-04-12T13:36:45Z</time></trkpt><trkpt lat="45.45524193658135" lon="9.477458931800617"><ele>94.0</ele><time>2026-04-12T13:36:46Z</time></trkpt><trkpt lat="45.455363795364725" lon="9.477457107947224"><ele>94.0</ele><time>2026-04-12T13:36:47Z</time></trkpt><trkpt lat="45.455486470064756" lon="9.477423228366101"><ele>94.0</ele><time>2026-04-12T13:36:48Z</time></trkpt><trkpt lat="45.45563114221215" lon="9.477389719061826"><ele>93.75</ele><time>2026-04-12T13:36:49Z</time></trkpt><trkpt lat="45.4557527009121" lon="9.477345415730436"><ele>93.5</ele><time>2026-04-12T13:36:50Z</time></trkpt><trkpt lat="45.45586545533926" lon="9.477325273885636"><ele>93.25</ele><time>2026-04-12T13:36:51Z</time></trkpt><trkpt lat="45.455997323045274" lon="9.477316653426525"><ele>93.0</ele><time>2026-04-12T13:36:52Z</time></trkpt><trkpt lat="45.456129700380515" lon="9.477289894088742"><ele>93.0</ele><time>2026-04-12T13:36:53Z</time></trkpt><trkpt lat="45.456250816194405" lon="9.477262177567704"><ele>93.0</ele><time>2026-04-12T13:36:54Z</time></trkpt><trkpt lat="45.456359266630265" lon="9.477239218681369"><ele>93.0</ele><time>2026-04-12T13:36:55Z</time></trkpt><trkpt lat="45.456481334777166" lon="9.477192948159555"><ele>93.0</ele><time>2026-04-12T13:36:56Z</time></trkpt><trkpt lat="45.45658100057055" lon="9.477165474843021"><ele>93.0</ele><time>2026-04-12T13:36:57Z</time></trkpt><trkpt lat="45.45668049505226" lon="9.477145269816104"><ele>93.0</ele><time>2026-04-12T13:36:58Z</time></trkpt><trkpt lat="45.45678518637577" lon="9.477123826299158"><ele>93.0</ele><time>2026-04-12T13:36:59Z</time></trkpt><trkpt lat="45.456897526890906" lon="9.477111089551162"><ele>93.0</ele><time>2026-04-12T13:37:00Z</time></trkpt><trkpt lat="45.457009021005966" lon="9.477097908573242"><ele>93.0</ele><time>2026-04-12T13:37:01Z</time></trkpt><trkpt lat="45.457122970663605" lon="9.477078638295005"><ele>92.75</ele><time>2026-04-12T13:37:02Z</time></trkpt><trkpt lat="45.457239241653575" lon="9.477058094855401"><ele>92.5</ele><time>2026-04-12T13:37:03Z</time></trkpt><trkpt lat="45.45736642179962" lon="9.477022971597144"><ele>92.25</ele><time>2026-04-12T13:37:04Z</time></trkpt><trkpt lat="45.45748320270841" lon="9.476995423470845"><ele>92.0</ele><time>2026-04-12T13:37:05Z</time></trkpt><trkpt lat="45.457606184925794" lon="9.47696014060802"><ele>92.0</ele><time>2026-04-12T13:37:06Z</time></trkpt><trkpt lat="45.45772213299989" lon="9.47693421745911"><ele>92.0</ele><time>2026-04-12T13:37:07Z</time></trkpt><trkpt lat="45.45784754935951" lon="9.476908017398882"><ele>92.0</ele><time>2026-04-12T13:37:08Z</time></trkpt><trkpt lat="45.45797304384709" lon="9.476882623239476"><ele>92.0</ele><time>2026-04-12T13:37:09Z</time></trkpt><trkpt lat="45.45809735160319" lon="9.476877564994108"><ele>92.0</ele><time>2026-04-12T13:37:10Z</time></trkpt><trkpt lat="45.45819790739131" lon="9.476860513409973"><ele>92.0</ele><time>2026-04-12T13:37:11Z</time></trkpt><trkpt lat="45.458283022572246" lon="9.476807084064209"><ele>92.0</ele><time>2026-04-12T13:37:12Z</time></trkpt><trkpt lat="45.45838334600161" lon="9.47679413757734"><ele>92.0</ele><time>2026-04-12T13:37:13Z</time></trkpt><trkpt lat="45.45846274817909" lon="9.476790809141397"><ele>92.0</ele><time>2026-04-12T13:37:13.999Z</time></trkpt><trkpt lat="45.45853739551218" lon="9.476801296855529"><ele>92.0</ele><time>2026-04-12T13:37:14.999Z</time></trkpt><trkpt lat="45.458601657241466" lon="9.476951930026594"><ele>92.0</ele><time>2026-04-12T13:37:16.999Z</time></trkpt><trkpt lat="45.45865528706975" lon="9.477046114972643"><ele>92.0</ele><time>2026-04-12T13:37:17.999Z</time></trkpt><trkpt lat="45.458655240442745" lon="9.477228149161835"><ele>92.0</ele><time>2026-04-12T13:37:18.999Z</time></trkpt><trkpt lat="45.458667026279976" lon="9.477431907263972"><ele>92.0</ele><time>2026-04-12T13:37:19.999Z</time></trkpt><trkpt lat="45.458685080747166" lon="9.477579877545098"><ele>92.0</ele><time>2026-04-12T13:37:20.999Z</time></trkpt><trkpt lat="45.458710359772695" lon="9.477712493010142"><ele>92.0</ele><time>2026-04-12T13:37:21.999Z</time></trkpt><trkpt lat="45.4587519036161" lon="9.477832479581672"><ele>92.0</ele><time>2026-04-12T13:37:22.999Z</time></trkpt><trkpt lat="45.45876080084659" lon="9.477952860998434"><ele>92.0</ele><time>2026-04-12T13:37:23.999Z</time></trkpt><trkpt lat="45.45877326935514" lon="9.478076530741932"><ele>92.0</ele><time>2026-04-12T13:37:24.999Z</time></trkpt><trkpt lat="45.45881408262831" lon="9.478182381564473"><ele>92.0</ele><time>2026-04-12T13:37:25.999Z</time></trkpt><trkpt lat="45.458854152243525" lon="9.478315857070221"><ele>92.5</ele><time>2026-04-12T13:37:26.999Z</time></trkpt><trkpt lat="45.45886777898194" lon="9.47841506334044"><ele>93.0</ele><time>2026-04-12T13:37:27.999Z</time></trkpt><trkpt lat="45.458897800518805" lon="9.478536995540527"><ele>93.5</ele><time>2026-04-12T13:37:28.999Z</time></trkpt><trkpt lat="45.45892421786756" lon="9.478646188297477"><ele>94.0</ele><time>2026-04-12T13:37:29.999Z</time></trkpt><trkpt lat="45.458950610397515" lon="9.478752330096112"><ele>94.5</ele><time>2026-04-12T13:37:31Z</time></trkpt><trkpt lat="45.45897049825503" lon="9.47886028666239"><ele>95.0</ele><time>2026-04-12T13:37:32Z</time></trkpt><trkpt lat="45.45899350467407" lon="9.478975475662635"><ele>95.28571428571429</ele><time>2026-04-12T13:37:33Z</time></trkpt><trkpt lat="45.459020358097824" lon="9.479077467145698"><ele>95.57142857142858</ele><time>2026-04-12T13:37:34Z</time></trkpt><trkpt lat="45.459054769171395" lon="9.479182470594456"><ele>95.85714285714286</ele><time>2026-04-12T13:37:35Z</time></trkpt><trkpt lat="45.45907767028724" lon="9.479291753820426"><ele>96.14285714285714</ele><time>2026-04-12T13:37:36Z</time></trkpt><trkpt lat="45.45909315536243" lon="9.479388127833994"><ele>96.42857142857143</ele><time>2026-04-12T13:37:37Z</time></trkpt><trkpt lat="45.459100497782835" lon="9.479480405850637"><ele>96.71428571428571</ele><time>2026-04-12T13:37:38Z</time></trkpt><trkpt lat="45.45912749960823" lon="9.479563711137507"><ele>97.0</ele><time>2026-04-12T13:37:39Z</time></trkpt><trkpt lat="45.45917028074129" lon="9.479731140794632"><ele>97.0</ele><time>2026-04-12T13:37:41Z</time></trkpt><trkpt lat="45.45919354540754" lon="9.479831323626604"><ele>97.0</ele><time>2026-04-12T13:37:42Z</time></trkpt><trkpt lat="45.45920611227258" lon="9.479923664804527"><ele>97.0</ele><time>2026-04-12T13:37:43Z</time></trkpt><trkpt lat="45.45922801753907" lon="9.480013216524059"><ele>97.0</ele><time>2026-04-12T13:37:44Z</time></trkpt><trkpt lat="45.45924882037914" lon="9.480098039266593"><ele>97.0</ele><time>2026-04-12T13:37:45Z</time></trkpt><trkpt lat="45.4592772109248" lon="9.48025709065405"><ele>97.0</ele><time>2026-04-12T13:37:47Z</time></trkpt><trkpt lat="45.45929546167581" lon="9.480343336591938"><ele>97.0</ele><time>2026-04-12T13:37:48Z</time></trkpt><trkpt lat="45.45930972810064" lon="9.480436644339745"><ele>96.39999999999999</ele><time>2026-04-12T13:37:49Z</time></trkpt><trkpt lat="45.459344856009444" lon="9.480591441866768"><ele>95.8</ele><time>2026-04-12T13:37:51Z</time></trkpt><trkpt lat="45.459387786150906" lon="9.480748566413057"><ele>95.2</ele><time>2026-04-12T13:37:53Z</time></trkpt><trkpt lat="45.45941739238914" lon="9.480911299599047"><ele>94.6</ele><time>2026-04-12T13:37:55Z</time></trkpt><trkpt lat="45.45943085054344" lon="9.481006099677032"><ele>94.0</ele><time>2026-04-12T13:37:56Z</time></trkpt><trkpt lat="45.45943129246989" lon="9.481162727896717"><ele>94.0</ele><time>2026-04-12T13:37:58Z</time></trkpt><trkpt lat="45.45941019319115" lon="9.481253893813474"><ele>94.0</ele><time>2026-04-12T13:38:00Z</time></trkpt><trkpt lat="45.45938488030771" lon="9.481337533064517"><ele>94.0</ele><time>2026-04-12T13:38:02Z</time></trkpt><trkpt lat="45.459333641002665" lon="9.481435442164933"><ele>94.0</ele><time>2026-04-12T13:38:04Z</time></trkpt><trkpt lat="45.459280313345594" lon="9.481496432304032"><ele>94.0</ele><time>2026-04-12T13:38:05Z</time></trkpt><trkpt lat="45.45917465950378" lon="9.481578062888723"><ele>94.0</ele><time>2026-04-12T13:38:06Z</time></trkpt><trkpt lat="45.4591085599273" lon="9.481672247269243"><ele>94.25</ele><time>2026-04-12T13:38:07Z</time></trkpt><trkpt lat="45.459008562551084" lon="9.481723300556515"><ele>94.5</ele><time>2026-04-12T13:38:08Z</time></trkpt><trkpt lat="45.45892127777612" lon="9.48183597469891"><ele>94.75</ele><time>2026-04-12T13:38:09Z</time></trkpt><trkpt lat="45.45874191975372" lon="9.481988974652378"><ele>95.0</ele><time>2026-04-12T13:38:10Z</time></trkpt><trkpt lat="45.45866799230233" lon="9.482090203566962"><ele>96.2</ele><time>2026-04-12T13:38:11Z</time></trkpt><trkpt lat="45.45861854286615" lon="9.482200429789042"><ele>97.4</ele><time>2026-04-12T13:38:12Z</time></trkpt><trkpt lat="45.45858827642328" lon="9.48232819430259"><ele>98.6</ele><time>2026-04-12T13:38:13Z</time></trkpt><trkpt lat="45.45858298236047" lon="9.48247132036781"><ele>99.8</ele><time>2026-04-12T13:38:14Z</time></trkpt><trkpt lat="45.45857343013855" lon="9.48259905100617"><ele>101.0</ele><time>2026-04-12T13:38:15Z</time></trkpt><trkpt lat="45.458544630684955" lon="9.482722658360988"><ele>101.0</ele><time>2026-04-12T13:38:16Z</time></trkpt><trkpt lat="45.45848564743815" lon="9.482819446724722"><ele>101.0</ele><time>2026-04-12T13:38:17Z</time></trkpt><trkpt lat="45.45842282756366" lon="9.48290008635216"><ele>101.0</ele><time>2026-04-12T13:38:18Z</time></trkpt><trkpt lat="45.458364759803985" lon="9.483000867954946"><ele>101.0</ele><time>2026-04-12T13:38:19Z</time></trkpt><trkpt lat="45.458304904413986" lon="9.483112767066569"><ele>101.0</ele><time>2026-04-12T13:38:20Z</time></trkpt><trkpt lat="45.45823947068445" lon="9.483218029046624"><ele>100.0</ele><time>2026-04-12T13:38:21Z</time></trkpt><trkpt lat="45.45816926220246" lon="9.483312806413021"><ele>99.0</ele><time>2026-04-12T13:38:22Z</time></trkpt><trkpt lat="45.45807811321802" lon="9.483382281538852"><ele>98.0</ele><time>2026-04-12T13:38:23Z</time></trkpt><trkpt lat="45.45797179524444" lon="9.483398757993536"><ele>97.0</ele><time>2026-04-12T13:38:24Z</time></trkpt><trkpt lat="45.457832322631326" lon="9.483451638115696"><ele>96.75</ele><time>2026-04-12T13:38:25Z</time></trkpt><trkpt lat="45.45770847552381" lon="9.483543643949988"><ele>96.5</ele><time>2026-04-12T13:38:26Z</time></trkpt><trkpt lat="45.45759674937896" lon="9.483652235610625"><ele>96.25</ele><time>2026-04-12T13:38:27Z</time></trkpt><trkpt lat="45.45746874735983" lon="9.483708222222822"><ele>96.0</ele><time>2026-04-12T13:38:28Z</time></trkpt><trkpt lat="45.457346393830015" lon="9.483748195398796"><ele>95.8</ele><time>2026-04-12T13:38:29Z</time></trkpt><trkpt lat="45.45722876233721" lon="9.483818888723807"><ele>95.6</ele><time>2026-04-12T13:38:30Z</time></trkpt><trkpt lat="45.45713549913411" lon="9.483910913556162"><ele>95.4</ele><time>2026-04-12T13:38:31Z</time></trkpt><trkpt lat="45.4570594273649" lon="9.484006741178055"><ele>95.2</ele><time>2026-04-12T13:38:32Z</time></trkpt><trkpt lat="45.45699620305313" lon="9.48409548487558"><ele>95.0</ele><time>2026-04-12T13:38:33Z</time></trkpt><trkpt lat="45.45693706591172" lon="9.484172082921866"><ele>95.0</ele><time>2026-04-12T13:38:34Z</time></trkpt><trkpt lat="45.456865064812405" lon="9.484225675863643"><ele>95.0</ele><time>2026-04-12T13:38:35Z</time></trkpt><trkpt lat="45.45679041991704" lon="9.484250215240614"><ele>95.0</ele><time>2026-04-12T13:38:36Z</time></trkpt><trkpt lat="45.456724390605714" lon="9.484253979262125"><ele>95.0</ele><time>2026-04-12T13:38:37Z</time></trkpt><trkpt lat="45.45665781861787" lon="9.484259511605279"><ele>95.0</ele><time>2026-04-12T13:38:38Z</time></trkpt><trkpt lat="45.45659628578917" lon="9.484227047076816"><ele>95.0</ele><time>2026-04-12T13:38:39Z</time></trkpt><trkpt lat="45.45653677703317" lon="9.484187721502026"><ele>95.0</ele><time>2026-04-12T13:38:40Z</time></trkpt><trkpt lat="45.45647788319034" lon="9.48415366556391"><ele>95.0</ele><time>2026-04-12T13:38:41Z</time></trkpt><trkpt lat="45.45640894388992" lon="9.484099382497364"><ele>95.0</ele><time>2026-04-12T13:38:43Z</time></trkpt><trkpt lat="45.45646714347129" lon="9.484171140117772"><ele>95.0</ele><time>2026-04-12T13:38:48Z</time></trkpt><trkpt lat="45.45657587776779" lon="9.484165955483588"><ele>95.0</ele><time>2026-04-12T13:38:49Z</time></trkpt><trkpt lat="45.456673317463725" lon="9.48419063484006"><ele>95.0</ele><time>2026-04-12T13:38:50Z</time></trkpt><trkpt lat="45.45676730903852" lon="9.484230237063445"><ele>95.0</ele><time>2026-04-12T13:38:51Z</time></trkpt><trkpt lat="45.45690778220145" lon="9.484240191556049"><ele>95.0</ele><time>2026-04-12T13:38:52Z</time></trkpt><trkpt lat="45.45699050298133" lon="9.484164373641887"><ele>95.0</ele><time>2026-04-12T13:38:53Z</time></trkpt><trkpt lat="45.45708484588582" lon="9.484048856067059"><ele>95.0</ele><time>2026-04-12T13:38:54Z</time></trkpt><trkpt lat="45.45717643065607" lon="9.483900343947875"><ele>95.25</ele><time>2026-04-12T13:38:55Z</time></trkpt><trkpt lat="45.457291554290826" lon="9.48378348188889"><ele>95.5</ele><time>2026-04-12T13:38:56Z</time></trkpt><trkpt lat="45.457429256546256" lon="9.483705299113643"><ele>95.75</ele><time>2026-04-12T13:38:57Z</time></trkpt><trkpt lat="45.4575719075172" lon="9.483650296262113"><ele>96.0</ele><time>2026-04-12T13:38:58Z</time></trkpt><trkpt lat="45.45770688971535" lon="9.483570293872827"><ele>96.0</ele><time>2026-04-12T13:38:59Z</time></trkpt><trkpt lat="45.457840471877596" lon="9.483457269683644"><ele>96.0</ele><time>2026-04-12T13:39:00Z</time></trkpt><trkpt lat="45.45795867038474" lon="9.48337838902517"><ele>96.0</ele><time>2026-04-12T13:39:01Z</time></trkpt><trkpt lat="45.45805849397589" lon="9.483363044937454"><ele>96.0</ele><time>2026-04-12T13:39:02Z</time></trkpt><trkpt lat="45.45815573011712" lon="9.483313772247344"><ele>96.25</ele><time>2026-04-12T13:39:03Z</time></trkpt><trkpt lat="45.45825273387562" lon="9.483213260209135"><ele>96.5</ele><time>2026-04-12T13:39:04Z</time></trkpt><trkpt lat="45.458352009334575" lon="9.483072514972852"><ele>96.75</ele><time>2026-04-12T13:39:05Z</time></trkpt><trkpt lat="45.45844247083649" lon="9.48293998858992"><ele>97.0</ele><time>2026-04-12T13:39:06Z</time></trkpt><trkpt lat="45.45850106195351" lon="9.482808241168247"><ele>97.0</ele><time>2026-04-12T13:39:07Z</time></trkpt><trkpt lat="45.45853928851912" lon="9.482716802640656"><ele>97.0</ele><time>2026-04-12T13:39:08Z</time></trkpt><trkpt lat="45.45862301225567" lon="9.48275442950561"><ele>97.0</ele><time>2026-04-12T13:39:10Z</time></trkpt><trkpt lat="45.45868632705593" lon="9.48284221797095"><ele>97.0</ele><time>2026-04-12T13:39:11Z</time></trkpt><trkpt lat="45.458774645151514" lon="9.482962013957165"><ele>97.0</ele><time>2026-04-12T13:39:12Z</time></trkpt><trkpt lat="45.45887991247782" lon="9.48306932904394"><ele>96.5</ele><time>2026-04-12T13:39:13Z</time></trkpt><trkpt lat="45.45900819856197" lon="9.483179482420438"><ele>96.0</ele><time>2026-04-12T13:39:14Z</time></trkpt><trkpt lat="45.45913985790266" lon="9.483273260318038"><ele>95.5</ele><time>2026-04-12T13:39:15Z</time></trkpt><trkpt lat="45.459269294912346" lon="9.483352512554191"><ele>95.0</ele><time>2026-04-12T13:39:16Z</time></trkpt><trkpt lat="45.45936594603522" lon="9.483434309533761"><ele>95.0</ele><time>2026-04-12T13:39:16.999Z</time></trkpt><trkpt lat="45.459453391273634" lon="9.483499900652218"><ele>95.0</ele><time>2026-04-12T13:39:17.999Z</time></trkpt><trkpt lat="45.45950751909458" lon="9.48355127250374"><ele>95.0</ele><time>2026-04-12T13:39:18.999Z</time></trkpt><trkpt lat="45.459580776388776" lon="9.483578863595666"><ele>95.0</ele><time>2026-04-12T13:39:20.999Z</time></trkpt><trkpt lat="45.45963137750651" lon="9.48363810932864"><ele>95.0</ele><time>2026-04-12T13:39:22.999Z</time></trkpt><trkpt lat="45.459577286549916" lon="9.483570057432031"><ele>95.0</ele><time>2026-04-12T13:39:30.999Z</time></trkpt><trkpt lat="45.45950650876418" lon="9.483519685523472"><ele>95.0</ele><time>2026-04-12T13:39:32.999Z</time></trkpt><trkpt lat="45.459530650498564" lon="9.483400488367172"><ele>95.0</ele><time>2026-04-12T13:39:35.999Z</time></trkpt><trkpt lat="45.45957389307841" lon="9.483286541829512"><ele>95.0</ele><time>2026-04-12T13:39:38Z</time></trkpt><trkpt lat="45.459653925364954" lon="9.483204562054487"><ele>95.0</ele><time>2026-04-12T13:39:40Z</time></trkpt><trkpt lat="45.459738097272215" lon="9.483175679895403"><ele>95.0</ele><time>2026-04-12T13:39:43Z</time></trkpt><trkpt lat="45.45980907220956" lon="9.48312246370015"><ele>95.0</ele><time>2026-04-12T13:39:47Z</time></trkpt><trkpt lat="45.45986331744323" lon="9.48305774749758"><ele>94.5</ele><time>2026-04-12T13:39:49Z</time></trkpt><trkpt lat="45.459929227715875" lon="9.483049500451363"><ele>94.0</ele><time>2026-04-12T13:39:53Z</time></trkpt><trkpt lat="45.45998800342601" lon="9.48311875714894"><ele>93.5</ele><time>2026-04-12T13:39:56Z</time></trkpt><trkpt lat="45.46006159962006" lon="9.483201261664954"><ele>93.0</ele><time>2026-04-12T13:39:58Z</time></trkpt><trkpt lat="45.46015825304644" lon="9.48325405045162"><ele>92.5</ele><time>2026-04-12T13:40:01Z</time></trkpt><trkpt lat="45.460252505499476" lon="9.48325866638354"><ele>92.0</ele><time>2026-04-12T13:40:03Z</time></trkpt><trkpt lat="45.460294064297614" lon="9.483336922521223"><ele>92.0</ele><time>2026-04-12T13:40:05Z</time></trkpt><trkpt lat="45.460233835122345" lon="9.483470908277674"><ele>92.0</ele><time>2026-04-12T13:40:07Z</time></trkpt><trkpt lat="45.46013959165521" lon="9.483580268667787"><ele>92.0</ele><time>2026-04-12T13:40:08Z</time></trkpt><trkpt lat="45.46007969654167" lon="9.483630269564065"><ele>92.0</ele><time>2026-04-12T13:40:09Z</time></trkpt><trkpt lat="45.45999284011132" lon="9.48372757338473"><ele>92.0</ele><time>2026-04-12T13:40:11Z</time></trkpt><trkpt lat="45.46002517606135" lon="9.483826081707573"><ele>92.25</ele><time>2026-04-12T13:40:13Z</time></trkpt><trkpt lat="45.460199186420056" lon="9.483905385701332"><ele>92.5</ele><time>2026-04-12T13:40:15Z</time></trkpt><trkpt lat="45.46031950760897" lon="9.483938579784915"><ele>92.75</ele><time>2026-04-12T13:40:16Z</time></trkpt><trkpt lat="45.46038672168394" lon="9.483954808434696"><ele>93.0</ele><time>2026-04-12T13:40:18Z</time></trkpt><trkpt lat="45.4602660471084" lon="9.483997620109829"><ele>93.0</ele><time>2026-04-12T13:40:21Z</time></trkpt><trkpt lat="45.460107204695014" lon="9.483974432550564"><ele>93.0</ele><time>2026-04-12T13:40:22Z</time></trkpt><trkpt lat="45.46024109205161" lon="9.484094499820195"><ele>93.0</ele><time>2026-04-12T13:40:26Z</time></trkpt><trkpt lat="45.46033692277393" lon="9.484047089875805"><ele>93.0</ele><time>2026-04-12T13:40:27Z</time></trkpt><trkpt lat="45.46042237998405" lon="9.484065138872728"><ele>92.66666666666667</ele><time>2026-04-12T13:40:28Z</time></trkpt><trkpt lat="45.46072977213127" lon="9.484084353673168"><ele>92.33333333333334</ele><time>2026-04-12T13:40:29Z</time></trkpt><trkpt lat="45.46083825914906" lon="9.484017762138757"><ele>92.0</ele><time>2026-04-12T13:40:30Z</time></trkpt><trkpt lat="45.460964655821414" lon="9.484014823381383"><ele>92.0</ele><time>2026-04-12T13:40:31Z</time></trkpt><trkpt lat="45.46102851891398" lon="9.48400503856011"><ele>92.0</ele><time>2026-04-12T13:40:33Z</time></trkpt><trkpt lat="45.461072371173074" lon="9.483886614220934"><ele>92.0</ele><time>2026-04-12T13:40:35Z</time></trkpt><trkpt lat="45.461043749783244" lon="9.483737377499281"><ele>92.0</ele><time>2026-04-12T13:40:37Z</time></trkpt><trkpt lat="45.46098437495382" lon="9.483656019341849"><ele>92.0</ele><time>2026-04-12T13:40:38Z</time></trkpt><trkpt lat="45.460903777808994" lon="9.483619866792784"><ele>92.0</ele><time>2026-04-12T13:40:39Z</time></trkpt><trkpt lat="45.460805236484035" lon="9.48359731163632"><ele>92.0</ele><time>2026-04-12T13:40:40Z</time></trkpt><trkpt lat="45.46071984082402" lon="9.483576662610067"><ele>92.0</ele><time>2026-04-12T13:40:41Z</time></trkpt><trkpt lat="45.46062234027697" lon="9.483565668838297"><ele>92.0</ele><time>2026-04-12T13:40:42Z</time></trkpt><trkpt lat="45.460500992935586" lon="9.483489122512903"><ele>92.0</ele><time>2026-04-12T13:40:44Z</time></trkpt><trkpt lat="45.46045034179001" lon="9.483422285669498"><ele>92.0</ele><time>2026-04-12T13:40:45Z</time></trkpt><trkpt lat="45.46036270589884" lon="9.483304409776714"><ele>92.0</ele><time>2026-04-12T13:40:47Z</time></trkpt><trkpt lat="45.460294188352066" lon="9.483293713661514"><ele>92.0</ele><time>2026-04-12T13:40:48Z</time></trkpt><trkpt lat="45.46021032006232" lon="9.483304142094688"><ele>92.0</ele><time>2026-04-12T13:40:49Z</time></trkpt><trkpt lat="45.46012253694015" lon="9.483338965631194"><ele>92.0</ele><time>2026-04-12T13:40:50Z</time></trkpt><trkpt lat="45.46002925598313" lon="9.48336797385489"><ele>92.0</ele><time>2026-04-12T13:40:51Z</time></trkpt><trkpt lat="45.45995016127641" lon="9.483384449746215"><ele>92.0</ele><time>2026-04-12T13:40:52Z</time></trkpt><trkpt lat="45.459859560375385" lon="9.483385324896783"><ele>92.0</ele><time>2026-04-12T13:40:53Z</time></trkpt><trkpt lat="45.45977297549274" lon="9.483380498925241"><ele>92.0</ele><time>2026-04-12T13:40:54Z</time></trkpt><trkpt lat="45.45970201500761" lon="9.483403880807915"><ele>92.0</ele><time>2026-04-12T13:40:55Z</time></trkpt><trkpt lat="45.459639577607106" lon="9.483430113364586"><ele>92.0</ele><time>2026-04-12T13:40:56Z</time></trkpt><trkpt lat="45.45955152923662" lon="9.483438912919086"><ele>92.0</ele><time>2026-04-12T13:40:58Z</time></trkpt><trkpt lat="45.45950171612724" lon="9.483530324820144"><ele>92.0</ele><time>2026-04-12T13:41:01Z</time></trkpt><trkpt lat="45.45960437897812" lon="9.48366235438132"><ele>92.0</ele><time>2026-04-12T13:41:03Z</time></trkpt><trkpt lat="45.45969506907986" lon="9.483705215124592"><ele>92.0</ele><time>2026-04-12T13:41:04Z</time></trkpt><trkpt lat="45.45976488414924" lon="9.48376654881613"><ele>92.0</ele><time>2026-04-12T13:41:05Z</time></trkpt><trkpt lat="45.45984019239856" lon="9.483872813417568"><ele>92.0</ele><time>2026-04-12T13:41:06Z</time></trkpt><trkpt lat="45.45987526791872" lon="9.484014544811366"><ele>92.0</ele><time>2026-04-12T13:41:07Z</time></trkpt><trkpt lat="45.45985658204492" lon="9.48424325879822"><ele>92.19999999999999</ele><time>2026-04-12T13:41:08Z</time></trkpt><trkpt lat="45.45988004074478" lon="9.4844192145669"><ele>92.4</ele><time>2026-04-12T13:41:09Z</time></trkpt><trkpt lat="45.45989400725975" lon="9.48452332900484"><ele>92.6</ele><time>2026-04-12T13:41:10Z</time></trkpt><trkpt lat="45.459887217942395" lon="9.484649943364095"><ele>92.80000000000001</ele><time>2026-04-12T13:41:12Z</time></trkpt><trkpt lat="45.45988150863209" lon="9.484749301354016"><ele>93.0</ele><time>2026-04-12T13:41:13Z</time></trkpt><trkpt lat="45.45984396364651" lon="9.48487510562926"><ele>93.66666666666667</ele><time>2026-04-12T13:41:13.999Z</time></trkpt><trkpt lat="45.45979849132559" lon="9.484970609503053"><ele>94.33333333333334</ele><time>2026-04-12T13:41:14.999Z</time></trkpt><trkpt lat="45.45976508003506" lon="9.485113096271617"><ele>95.0</ele><time>2026-04-12T13:41:16.999Z</time></trkpt><trkpt lat="45.45971631182105" lon="9.48518243467244"><ele>95.66666666666667</ele><time>2026-04-12T13:41:18.999Z</time></trkpt><trkpt lat="45.45977413439255" lon="9.485226673388292"><ele>96.33333333333334</ele><time>2026-04-12T13:41:22.999Z</time></trkpt><trkpt lat="45.45984387527959" lon="9.48533551476163"><ele>97.0</ele><time>2026-04-12T13:41:25.999Z</time></trkpt><trkpt lat="45.46017845206251" lon="9.485445843056791"><ele>97.33333333333334</ele><time>2026-04-12T13:41:26.999Z</time></trkpt><trkpt lat="45.46035957204432" lon="9.485563523765132"><ele>97.66666666666666</ele><time>2026-04-12T13:41:27.999Z</time></trkpt><trkpt lat="45.460505948225325" lon="9.485633922077586"><ele>98.0</ele><time>2026-04-12T13:41:28.999Z</time></trkpt><trkpt lat="45.46062065047266" lon="9.485684281081403"><ele>98.0</ele><time>2026-04-12T13:41:29.999Z</time></trkpt><trkpt lat="45.46073260642896" lon="9.485710425358063"><ele>98.0</ele><time>2026-04-12T13:41:30.999Z</time></trkpt><trkpt lat="45.460818901065686" lon="9.485776115885287"><ele>98.0</ele><time>2026-04-12T13:41:31.999Z</time></trkpt><trkpt lat="45.46091590919199" lon="9.48586112328164"><ele>98.0</ele><time>2026-04-12T13:41:32.999Z</time></trkpt><trkpt lat="45.46098522361702" lon="9.485977515413524"><ele>98.0</ele><time>2026-04-12T13:41:33.999Z</time></trkpt><trkpt lat="45.46104261627484" lon="9.48610832660798"><ele>98.0</ele><time>2026-04-12T13:41:34.999Z</time></trkpt><trkpt lat="45.461081176238196" lon="9.486270104157551"><ele>98.0</ele><time>2026-04-12T13:41:35.999Z</time></trkpt><trkpt lat="45.46111043823832" lon="9.486434368184218"><ele>98.0</ele><time>2026-04-12T13:41:36.999Z</time></trkpt><trkpt lat="45.46115881123016" lon="9.48659327152462"><ele>98.0</ele><time>2026-04-12T13:41:37.999Z</time></trkpt><trkpt lat="45.46121814714152" lon="9.486720472512891"><ele>97.99999999999999</ele><time>2026-04-12T13:41:38.999Z</time></trkpt><trkpt lat="45.461300053567285" lon="9.486815079082675"><ele>98.0</ele><time>2026-04-12T13:41:39.999Z</time></trkpt><trkpt lat="45.461372588326995" lon="9.486904882605115"><ele>98.0</ele><time>2026-04-12T13:41:40.999Z</time></trkpt><trkpt lat="45.46143649068102" lon="9.486986488279594"><ele>98.0</ele><time>2026-04-12T13:41:41.999Z</time></trkpt><trkpt lat="45.46149643928743" lon="9.487056201843373"><ele>97.99999999999999</ele><time>2026-04-12T13:41:43Z</time></trkpt><trkpt lat="45.4615399981029" lon="9.48713014636538"><ele>98.0</ele><time>2026-04-12T13:41:44Z</time></trkpt><trkpt lat="45.46160275886232" lon="9.487293566923709"><ele>97.99999999999999</ele><time>2026-04-12T13:41:46Z</time></trkpt><trkpt lat="45.461656813036804" lon="9.487378913320974"><ele>98.0</ele><time>2026-04-12T13:41:48Z</time></trkpt><trkpt lat="45.46157733166986" lon="9.487517494188085"><ele>98.0</ele><time>2026-04-12T13:41:50Z</time></trkpt><trkpt lat="45.461548428905274" lon="9.487612651980001"><ele>98.0</ele><time>2026-04-12T13:41:52Z</time></trkpt><trkpt lat="45.461573686096884" lon="9.487737716013239"><ele>97.99999999999999</ele><time>2026-04-12T13:41:54Z</time></trkpt><trkpt lat="45.461623150303055" lon="9.487820668296726"><ele>98.0</ele><time>2026-04-12T13:41:55Z</time></trkpt><trkpt lat="45.46167228788484" lon="9.487907756805562"><ele>98.0</ele><time>2026-04-12T13:41:56Z</time></trkpt><trkpt lat="45.461728588043876" lon="9.48800671627748"><ele>98.0</ele><time>2026-04-12T13:41:57Z</time></trkpt><trkpt lat="45.461803419220246" lon="9.488107642028712"><ele>98.0</ele><time>2026-04-12T13:41:58Z</time></trkpt><trkpt lat="45.46189458772598" lon="9.488224157192613"><ele>98.0</ele><time>2026-04-12T13:41:59Z</time></trkpt><trkpt lat="45.46197329600407" lon="9.488319558080764"><ele>98.0</ele><time>2026-04-12T13:42:00Z</time></trkpt><trkpt lat="45.46204125995648" lon="9.488389057324364"><ele>97.99999999999999</ele><time>2026-04-12T13:42:01Z</time></trkpt><trkpt lat="45.46210586438164" lon="9.488467847435794"><ele>98.0</ele><time>2026-04-12T13:42:02Z</time></trkpt><trkpt lat="45.46215434844292" lon="9.488571488060293"><ele>98.0</ele><time>2026-04-12T13:42:03Z</time></trkpt><trkpt lat="45.46222256480189" lon="9.48863943626871"><ele>98.0</ele><time>2026-04-12T13:42:04Z</time></trkpt><trkpt lat="45.462235675453556" lon="9.488728115197624"><ele>97.99999999999999</ele><time>2026-04-12T13:42:06Z</time></trkpt><trkpt lat="45.46222485623105" lon="9.48884316713895"><ele>98.0</ele><time>2026-04-12T13:42:08Z</time></trkpt><trkpt lat="45.46218785397045" lon="9.489020533051729"><ele>97.83333333333333</ele><time>2026-04-12T13:42:10Z</time></trkpt><trkpt lat="45.4621562204522" lon="9.489117705402384"><ele>97.66666666666666</ele><time>2026-04-12T13:42:11Z</time></trkpt><trkpt lat="45.46207337074211" lon="9.489193027396148"><ele>97.5</ele><time>2026-04-12T13:42:12Z</time></trkpt><trkpt lat="45.462040099245776" lon="9.489276776238672"><ele>97.33333333333334</ele><time>2026-04-12T13:42:13Z</time></trkpt><trkpt lat="45.462010518694115" lon="9.489404563731693"><ele>97.16666666666667</ele><time>2026-04-12T13:42:14Z</time></trkpt><trkpt lat="45.46196699468766" lon="9.489516165154752"><ele>97.0</ele><time>2026-04-12T13:42:15Z</time></trkpt><trkpt lat="45.461904072419244" lon="9.489636238290982"><ele>96.6</ele><time>2026-04-12T13:42:16Z</time></trkpt><trkpt lat="45.46186303633272" lon="9.489806377162024"><ele>96.19999999999999</ele><time>2026-04-12T13:42:17Z</time></trkpt><trkpt lat="45.46182617336266" lon="9.489937134706006"><ele>95.8</ele><time>2026-04-12T13:42:18Z</time></trkpt><trkpt lat="45.46178929475867" lon="9.49007175916706"><ele>95.4</ele><time>2026-04-12T13:42:19Z</time></trkpt><trkpt lat="45.4617696030692" lon="9.490200144923802"><ele>95.0</ele><time>2026-04-12T13:42:20Z</time></trkpt><trkpt lat="45.46173443578154" lon="9.490371739472058"><ele>94.66666666666667</ele><time>2026-04-12T13:42:22Z</time></trkpt><trkpt lat="45.461692693517975" lon="9.490450254192453"><ele>94.33333333333334</ele><time>2026-04-12T13:42:23Z</time></trkpt><trkpt lat="45.46163826221617" lon="9.49052410403604"><ele>94.0</ele><time>2026-04-12T13:42:24Z</time></trkpt><trkpt lat="45.4615562909306" lon="9.490659372810862"><ele>93.66666666666667</ele><time>2026-04-12T13:42:26Z</time></trkpt><trkpt lat="45.46152496565786" lon="9.490754039650344"><ele>93.33333333333333</ele><time>2026-04-12T13:42:27Z</time></trkpt><trkpt lat="45.46149085410844" lon="9.490848129923027"><ele>93.0</ele><time>2026-04-12T13:42:28Z</time></trkpt><trkpt lat="45.46141824074464" lon="9.491003103394227"><ele>93.0</ele><time>2026-04-12T13:42:30Z</time></trkpt><trkpt lat="45.46140366759997" lon="9.491107576928771"><ele>93.0</ele><time>2026-04-12T13:42:31Z</time></trkpt><trkpt lat="45.46139993091557" lon="9.491246754962525"><ele>93.0</ele><time>2026-04-12T13:42:33Z</time></trkpt><trkpt lat="45.46137197043225" lon="9.491357952586291"><ele>93.0</ele><time>2026-04-12T13:42:35Z</time></trkpt><trkpt lat="45.46131129027159" lon="9.49143478379781"><ele>93.0</ele><time>2026-04-12T13:42:37Z</time></trkpt><trkpt lat="45.46125535088806" lon="9.491479768405071"><ele>93.0</ele><time>2026-04-12T13:42:38Z</time></trkpt><trkpt lat="45.4611888200397" lon="9.49151159561017"><ele>93.5</ele><time>2026-04-12T13:42:39Z</time></trkpt><trkpt lat="45.46112403006638" lon="9.49156772172489"><ele>94.0</ele><time>2026-04-12T13:42:40Z</time></trkpt><trkpt lat="45.46106807935503" lon="9.491626446008516"><ele>94.5</ele><time>2026-04-12T13:42:41Z</time></trkpt><trkpt lat="45.46100667432399" lon="9.491705211820234"><ele>95.0</ele><time>2026-04-12T13:42:42Z</time></trkpt><trkpt lat="45.46091104695485" lon="9.49178908010434"><ele>95.5</ele><time>2026-04-12T13:42:43Z</time></trkpt><trkpt lat="45.460841977860824" lon="9.491862697421308"><ele>96.0</ele><time>2026-04-12T13:42:44Z</time></trkpt><trkpt lat="45.46075188001048" lon="9.491884087617281"><ele>96.0</ele><time>2026-04-12T13:42:45Z</time></trkpt><trkpt lat="45.46066974345439" lon="9.491901499445596"><ele>96.0</ele><time>2026-04-12T13:42:46Z</time></trkpt><trkpt lat="45.46060885810266" lon="9.491925377622316"><ele>96.0</ele><time>2026-04-12T13:42:47Z</time></trkpt><trkpt lat="45.4604752141111" lon="9.49202696141623"><ele>96.0</ele><time>2026-04-12T13:42:49Z</time></trkpt><trkpt lat="45.46042483291037" lon="9.492135214734343"><ele>96.0</ele><time>2026-04-12T13:42:50Z</time></trkpt><trkpt lat="45.46038691186692" lon="9.492254792632984"><ele>95.6</ele><time>2026-04-12T13:42:51Z</time></trkpt><trkpt lat="45.460248458386786" lon="9.492339063032107"><ele>95.19999999999999</ele><time>2026-04-12T13:42:53Z</time></trkpt><trkpt lat="45.46016511872099" lon="9.492351581819145"><ele>94.80000000000001</ele><time>2026-04-12T13:42:54Z</time></trkpt><trkpt lat="45.46005920526834" lon="9.492343361798284"><ele>94.4</ele><time>2026-04-12T13:42:55Z</time></trkpt><trkpt lat="45.45995485067854" lon="9.492350034568313"><ele>94.0</ele><time>2026-04-12T13:42:57Z</time></trkpt><trkpt lat="45.459831595832455" lon="9.49233645284259"><ele>94.0</ele><time>2026-04-12T13:42:59Z</time></trkpt><trkpt lat="45.45974962305153" lon="9.49228022809178"><ele>94.0</ele><time>2026-04-12T13:43:00Z</time></trkpt><trkpt lat="45.45963955008138" lon="9.492258542804743"><ele>94.0</ele><time>2026-04-12T13:43:01Z</time></trkpt><trkpt lat="45.45953896727753" lon="9.492262623987422"><ele>94.0</ele><time>2026-04-12T13:43:02Z</time></trkpt><trkpt lat="45.45945619780592" lon="9.492225274889943"><ele>94.0</ele><time>2026-04-12T13:43:03Z</time></trkpt><trkpt lat="45.45939488975636" lon="9.49215066480395"><ele>94.16666666666666</ele><time>2026-04-12T13:43:05Z</time></trkpt><trkpt lat="45.45942672780777" lon="9.492025091031604"><ele>94.33333333333333</ele><time>2026-04-12T13:43:07Z</time></trkpt><trkpt lat="45.45947547191328" lon="9.491961186197244"><ele>94.5</ele><time>2026-04-12T13:43:08Z</time></trkpt><trkpt lat="45.45952785199735" lon="9.491892790308723"><ele>94.66666666666667</ele><time>2026-04-12T13:43:09Z</time></trkpt><trkpt lat="45.45957250539211" lon="9.491794755608746"><ele>94.83333333333334</ele><time>2026-04-12T13:43:10Z</time></trkpt><trkpt lat="45.45955198492991" lon="9.49167134991969"><ele>95.0</ele><time>2026-04-12T13:43:11Z</time></trkpt><trkpt lat="45.45950981279542" lon="9.491567965979542"><ele>95.0</ele><time>2026-04-12T13:43:12Z</time></trkpt><trkpt lat="45.45945361171465" lon="9.49145915028966"><ele>95.0</ele><time>2026-04-12T13:43:13Z</time></trkpt><trkpt lat="45.45942497287753" lon="9.491369917798767"><ele>95.0</ele><time>2026-04-12T13:43:14Z</time></trkpt><trkpt lat="45.459403460986074" lon="9.491244900272186"><ele>95.0</ele><time>2026-04-12T13:43:15Z</time></trkpt><trkpt lat="45.459360454509536" lon="9.491102023550319"><ele>95.0</ele><time>2026-04-12T13:43:16Z</time></trkpt><trkpt lat="45.45933611197754" lon="9.4909753224914"><ele>95.0</ele><time>2026-04-12T13:43:17Z</time></trkpt><trkpt lat="45.45933929849854" lon="9.490883643775069"><ele>95.0</ele><time>2026-04-12T13:43:18Z</time></trkpt><trkpt lat="45.4593085317956" lon="9.490804436372123"><ele>95.0</ele><time>2026-04-12T13:43:19Z</time></trkpt><trkpt lat="45.45929219261226" lon="9.490671457902922"><ele>95.0</ele><time>2026-04-12T13:43:21Z</time></trkpt><trkpt lat="45.45934912058189" lon="9.490549714793996"><ele>95.0</ele><time>2026-04-12T13:43:23Z</time></trkpt><trkpt lat="45.45936622533725" lon="9.490457438660828"><ele>95.0</ele><time>2026-04-12T13:43:25Z</time></trkpt><trkpt lat="45.45931185293782" lon="9.490515812090521"><ele>95.0</ele><time>2026-04-12T13:43:30Z</time></trkpt><trkpt lat="45.45933079691729" lon="9.490605712258237"><ele>95.0</ele><time>2026-04-12T13:43:31Z</time></trkpt><trkpt lat="45.459317723759014" lon="9.49076668209767"><ele>95.0</ele><time>2026-04-12T13:43:33Z</time></trkpt><trkpt lat="45.45926893551086" lon="9.490855381767117"><ele>95.0</ele><time>2026-04-12T13:43:34Z</time></trkpt><trkpt lat="45.45918498151839" lon="9.490977129243772"><ele>95.0</ele><time>2026-04-12T13:43:36Z</time></trkpt><trkpt lat="45.459117774669274" lon="9.490975945541994"><ele>95.0</ele><time>2026-04-12T13:43:37Z</time></trkpt><trkpt lat="45.459029424828394" lon="9.490951100132426"><ele>95.0</ele><time>2026-04-12T13:43:38Z</time></trkpt><trkpt lat="45.45897411617633" lon="9.490904445496248"><ele>95.0</ele><time>2026-04-12T13:43:39Z</time></trkpt><trkpt lat="45.45890924544899" lon="9.490844233595531"><ele>95.0</ele><time>2026-04-12T13:43:40Z</time></trkpt><trkpt lat="45.45884192065991" lon="9.49074779579377"><ele>95.0</ele><time>2026-04-12T13:43:40.999Z</time></trkpt><trkpt lat="45.45874742345617" lon="9.490650633614406"><ele>95.0</ele><time>2026-04-12T13:43:42.999Z</time></trkpt><trkpt lat="45.4586731708361" lon="9.490569988368048"><ele>95.0</ele><time>2026-04-12T13:43:44.999Z</time></trkpt><trkpt lat="45.4586223936605" lon="9.490515659180293"><ele>94.8</ele><time>2026-04-12T13:43:45.999Z</time></trkpt><trkpt lat="45.458538327781014" lon="9.490396977630667"><ele>94.6</ele><time>2026-04-12T13:43:47.999Z</time></trkpt><trkpt lat="45.45848307966199" lon="9.490317236448892"><ele>94.4</ele><time>2026-04-12T13:43:49Z</time></trkpt><trkpt lat="45.4584197346049" lon="9.490169317470274"><ele>94.2</ele><time>2026-04-12T13:43:51Z</time></trkpt><trkpt lat="45.458373878349484" lon="9.490096802481053"><ele>94.0</ele><time>2026-04-12T13:43:52Z</time></trkpt><trkpt lat="45.45832325475013" lon="9.490033899406754"><ele>94.0</ele><time>2026-04-12T13:43:53Z</time></trkpt><trkpt lat="45.458239605081644" lon="9.4899412641408"><ele>94.0</ele><time>2026-04-12T13:43:55Z</time></trkpt><trkpt lat="45.458145948694565" lon="9.489877480745818"><ele>94.0</ele><time>2026-04-12T13:43:57Z</time></trkpt><trkpt lat="45.458097866439076" lon="9.489808472209582"><ele>94.0</ele><time>2026-04-12T13:43:58Z</time></trkpt><trkpt lat="45.45808037023563" lon="9.489689950215531"><ele>94.0</ele><time>2026-04-12T13:43:59Z</time></trkpt><trkpt lat="45.45803671786272" lon="9.489555894975089"><ele>93.80000000000001</ele><time>2026-04-12T13:44:00Z</time></trkpt><trkpt lat="45.457988823377036" lon="9.489399359930864"><ele>93.60000000000001</ele><time>2026-04-12T13:44:01Z</time></trkpt><trkpt lat="45.4579622848495" lon="9.489254601104413"><ele>93.4</ele><time>2026-04-12T13:44:02Z</time></trkpt><trkpt lat="45.45791307052442" lon="9.489143934855264"><ele>93.2</ele><time>2026-04-12T13:44:03Z</time></trkpt><trkpt lat="45.45786364744238" lon="9.489020128027427"><ele>93.0</ele><time>2026-04-12T13:44:04Z</time></trkpt><trkpt lat="45.457832538864096" lon="9.488896433624266"><ele>93.0</ele><time>2026-04-12T13:44:05Z</time></trkpt><trkpt lat="45.45781887762868" lon="9.488762829796945"><ele>93.0</ele><time>2026-04-12T13:44:06Z</time></trkpt><trkpt lat="45.45780668842519" lon="9.488628718822842"><ele>93.0</ele><time>2026-04-12T13:44:07Z</time></trkpt><trkpt lat="45.45777263138017" lon="9.488492330420398"><ele>93.0</ele><time>2026-04-12T13:44:08Z</time></trkpt><trkpt lat="45.45773064856883" lon="9.4883596246673"><ele>93.0</ele><time>2026-04-12T13:44:09Z</time></trkpt><trkpt lat="45.45768871893518" lon="9.488220258020762"><ele>93.0</ele><time>2026-04-12T13:44:10Z</time></trkpt><trkpt lat="45.457647253358076" lon="9.488085753478241"><ele>93.0</ele><time>2026-04-12T13:44:11Z</time></trkpt><trkpt lat="45.45760830503611" lon="9.48795323336505"><ele>93.0</ele><time>2026-04-12T13:44:12Z</time></trkpt><trkpt lat="45.45756687725934" lon="9.48784343524302"><ele>93.0</ele><time>2026-04-12T13:44:13Z</time></trkpt><trkpt lat="45.457531024583034" lon="9.487729341149269"><ele>93.0</ele><time>2026-04-12T13:44:14Z</time></trkpt><trkpt lat="45.457506320099256" lon="9.4876221549784"><ele>93.0</ele><time>2026-04-12T13:44:15Z</time></trkpt><trkpt lat="45.45748620879695" lon="9.48752846244951"><ele>93.0</ele><time>2026-04-12T13:44:16Z</time></trkpt><trkpt lat="45.45746028481979" lon="9.487432213253252"><ele>93.0</ele><time>2026-04-12T13:44:17Z</time></trkpt><trkpt lat="45.457421154774124" lon="9.487342444402039"><ele>93.0</ele><time>2026-04-12T13:44:18Z</time></trkpt><trkpt lat="45.457399061709545" lon="9.487208502880472"><ele>93.0</ele><time>2026-04-12T13:44:20Z</time></trkpt><trkpt lat="45.45739516767528" lon="9.487077296768447"><ele>93.0</ele><time>2026-04-12T13:44:22Z</time></trkpt><trkpt lat="45.45736759660211" lon="9.486983958202087"><ele>93.0</ele><time>2026-04-12T13:44:24Z</time></trkpt><trkpt lat="45.457311539155164" lon="9.486925961824848"><ele>93.0</ele><time>2026-04-12T13:44:30Z</time></trkpt><trkpt lat="45.45735721471165" lon="9.487014316333859"><ele>93.0</ele><time>2026-04-12T13:46:04Z</time></trkpt><trkpt lat="45.457416912061454" lon="9.487168647030858"><ele>93.0</ele><time>2026-04-12T13:46:07Z</time></trkpt><trkpt lat="45.4574469846338" lon="9.487378219973438"><ele>93.0</ele><time>2026-04-12T13:46:09Z</time></trkpt><trkpt lat="45.45747132209765" lon="9.487497320201781"><ele>93.0</ele><time>2026-04-12T13:46:10Z</time></trkpt><trkpt lat="45.457507122887876" lon="9.487597382537235"><ele>93.0</ele><time>2026-04-12T13:46:11Z</time></trkpt><trkpt lat="45.45754463667036" lon="9.487719368060217"><ele>93.0</ele><time>2026-04-12T13:46:12Z</time></trkpt><trkpt lat="45.457573861952724" lon="9.48784127753306"><ele>93.0</ele><time>2026-04-12T13:46:13Z</time></trkpt><trkpt lat="45.45760158503931" lon="9.487945517059398"><ele>93.0</ele><time>2026-04-12T13:46:14Z</time></trkpt><trkpt lat="45.45763481406102" lon="9.488067941924793"><ele>93.0</ele><time>2026-04-12T13:46:15Z</time></trkpt><trkpt lat="45.45767422649541" lon="9.488195138313513"><ele>93.0</ele><time>2026-04-12T13:46:16Z</time></trkpt><trkpt lat="45.45771692827599" lon="9.488322050190762"><ele>93.0</ele><time>2026-04-12T13:46:17Z</time></trkpt><trkpt lat="45.45775214469552" lon="9.488407622608939"><ele>93.0</ele><time>2026-04-12T13:46:18Z</time></trkpt><trkpt lat="45.45777913869435" lon="9.488528523073331"><ele>93.0</ele><time>2026-04-12T13:46:19Z</time></trkpt><trkpt lat="45.457810567716045" lon="9.488665022752672"><ele>93.0</ele><time>2026-04-12T13:46:20Z</time></trkpt><trkpt lat="45.457835392136886" lon="9.48879616669013"><ele>93.0</ele><time>2026-04-12T13:46:21Z</time></trkpt><trkpt lat="45.45784636957896" lon="9.488939284483102"><ele>93.0</ele><time>2026-04-12T13:46:22Z</time></trkpt><trkpt lat="45.45786186718557" lon="9.489067397063302"><ele>93.0</ele><time>2026-04-12T13:46:23Z</time></trkpt><trkpt lat="45.45790023808443" lon="9.489184330388214"><ele>93.0</ele><time>2026-04-12T13:46:24Z</time></trkpt><trkpt lat="45.45795786227024" lon="9.489310733199883"><ele>93.0</ele><time>2026-04-12T13:46:25Z</time></trkpt><trkpt lat="45.45798636947317" lon="9.489458608168654"><ele>93.16666666666667</ele><time>2026-04-12T13:46:26Z</time></trkpt><trkpt lat="45.45802872895579" lon="9.489599061939368"><ele>93.33333333333333</ele><time>2026-04-12T13:46:27Z</time></trkpt><trkpt lat="45.45808868678218" lon="9.489718747353013"><ele>93.5</ele><time>2026-04-12T13:46:28Z</time></trkpt><trkpt lat="45.45812368933956" lon="9.489814162114145"><ele>93.66666666666666</ele><time>2026-04-12T13:46:29Z</time></trkpt><trkpt lat="45.458143597235555" lon="9.489915091119332"><ele>93.83333333333333</ele><time>2026-04-12T13:46:30Z</time></trkpt><trkpt lat="45.45817552916838" lon="9.490011779122659"><ele>94.0</ele><time>2026-04-12T13:46:31Z</time></trkpt><trkpt lat="45.45820487208118" lon="9.4900994953127"><ele>94.0</ele><time>2026-04-12T13:46:32Z</time></trkpt><trkpt lat="45.4582385707465" lon="9.49020564399803"><ele>94.0</ele><time>2026-04-12T13:46:33Z</time></trkpt><trkpt lat="45.45827197090513" lon="9.490303652799716"><ele>94.0</ele><time>2026-04-12T13:46:34Z</time></trkpt><trkpt lat="45.45830951339699" lon="9.490378455487111"><ele>94.0</ele><time>2026-04-12T13:46:35Z</time></trkpt><trkpt lat="45.458389539718226" lon="9.490504316965502"><ele>94.0</ele><time>2026-04-12T13:46:37Z</time></trkpt><trkpt lat="45.45842493060157" lon="9.490622132025377"><ele>94.0</ele><time>2026-04-12T13:46:39Z</time></trkpt><trkpt lat="45.45843969235" lon="9.490731058024478"><ele>94.0</ele><time>2026-04-12T13:46:41Z</time></trkpt><trkpt lat="45.458447139354135" lon="9.490841269533805"><ele>94.0</ele><time>2026-04-12T13:46:43Z</time></trkpt><trkpt lat="45.45845422571908" lon="9.490937132326325"><ele>94.0</ele><time>2026-04-12T13:46:46Z</time></trkpt><trkpt lat="45.45847756529167" lon="9.491052057868044"><ele>94.0</ele><time>2026-04-12T13:46:48Z</time></trkpt><trkpt lat="45.45850994990563" lon="9.491156882615856"><ele>94.0</ele><time>2026-04-12T13:46:51Z</time></trkpt><trkpt lat="45.458582731783025" lon="9.4912907077553"><ele>94.0</ele><time>2026-04-12T13:46:53Z</time></trkpt><trkpt lat="45.458633700763045" lon="9.491365976958939"><ele>94.0</ele><time>2026-04-12T13:46:54Z</time></trkpt><trkpt lat="45.45868961321598" lon="9.491435536148062"><ele>94.0</ele><time>2026-04-12T13:46:55Z</time></trkpt><trkpt lat="45.45875519472037" lon="9.49149737786987"><ele>94.0</ele><time>2026-04-12T13:46:56Z</time></trkpt><trkpt lat="45.45881767968764" lon="9.4915555022138"><ele>94.0</ele><time>2026-04-12T13:46:57Z</time></trkpt><trkpt lat="45.458946425286115" lon="9.49160234106942"><ele>94.0</ele><time>2026-04-12T13:46:59Z</time></trkpt><trkpt lat="45.45904670410456" lon="9.491633413225046"><ele>94.14285714285714</ele><time>2026-04-12T13:47:01Z</time></trkpt><trkpt lat="45.45910901786383" lon="9.49165102363404"><ele>94.28571428571428</ele><time>2026-04-12T13:47:02Z</time></trkpt><trkpt lat="45.45917864496862" lon="9.491679240943471"><ele>94.42857142857143</ele><time>2026-04-12T13:47:03Z</time></trkpt><trkpt lat="45.459236703429916" lon="9.491724329354511"><ele>94.57142857142857</ele><time>2026-04-12T13:47:04Z</time></trkpt><trkpt lat="45.45929986602666" lon="9.491742686480137"><ele>94.71428571428572</ele><time>2026-04-12T13:47:05Z</time></trkpt><trkpt lat="45.45936293899237" lon="9.491765522869823"><ele>94.85714285714286</ele><time>2026-04-12T13:47:06Z</time></trkpt><trkpt lat="45.45943751770373" lon="9.491782624014919"><ele>95.0</ele><time>2026-04-12T13:47:07Z</time></trkpt><trkpt lat="45.45952266153578" lon="9.49179021598281"><ele>95.0</ele><time>2026-04-12T13:47:09Z</time></trkpt><trkpt lat="45.459559013079456" lon="9.49171220208503"><ele>95.0</ele><time>2026-04-12T13:47:12Z</time></trkpt><trkpt lat="45.45952154691151" lon="9.491613963668216"><ele>95.0</ele><time>2026-04-12T13:47:15Z</time></trkpt><trkpt lat="45.45952693094967" lon="9.491512076424192"><ele>95.0</ele><time>2026-04-12T13:47:16Z</time></trkpt><trkpt lat="45.459463265479684" lon="9.49138543905599"><ele>95.0</ele><time>2026-04-12T13:47:19Z</time></trkpt><trkpt lat="45.45940555363089" lon="9.491180677146373"><ele>95.0</ele><time>2026-04-12T13:47:21Z</time></trkpt><trkpt lat="45.45935755420866" lon="9.49102300779054"><ele>95.0</ele><time>2026-04-12T13:47:22Z</time></trkpt><trkpt lat="45.45934118554316" lon="9.490915967336422"><ele>95.0</ele><time>2026-04-12T13:47:23Z</time></trkpt><trkpt lat="45.45932778095248" lon="9.490766090136722"><ele>95.0</ele><time>2026-04-12T13:47:25Z</time></trkpt><trkpt lat="45.45932342229441" lon="9.490667186079715"><ele>95.0</ele><time>2026-04-12T13:47:26Z</time></trkpt><trkpt lat="45.459322636212114" lon="9.490555863703781"><ele>95.0</ele><time>2026-04-12T13:47:27Z</time></trkpt><trkpt lat="45.45935151829647" lon="9.490449745836338"><ele>95.0</ele><time>2026-04-12T13:47:29Z</time></trkpt><trkpt lat="45.45933647761601" lon="9.490608608455618"><ele>95.0</ele><time>2026-04-12T13:47:36Z</time></trkpt><trkpt lat="45.459326999454596" lon="9.49074221494205"><ele>95.0</ele><time>2026-04-12T13:47:37Z</time></trkpt><trkpt lat="45.45930103654918" lon="9.49085351198184"><ele>95.0</ele><time>2026-04-12T13:47:38Z</time></trkpt><trkpt lat="45.45928898097213" lon="9.49101206464684"><ele>95.0</ele><time>2026-04-12T13:47:40Z</time></trkpt><trkpt lat="45.45932629488632" lon="9.491122335663192"><ele>95.0</ele><time>2026-04-12T13:47:41Z</time></trkpt><trkpt lat="45.459341239490975" lon="9.49126570397093"><ele>95.0</ele><time>2026-04-12T13:47:42Z</time></trkpt><trkpt lat="45.45937947197145" lon="9.491400113816287"><ele>95.0</ele><time>2026-04-12T13:47:43Z</time></trkpt><trkpt lat="45.45945499361552" lon="9.491541474921839"><ele>95.0</ele><time>2026-04-12T13:47:44Z</time></trkpt><trkpt lat="45.45948845601132" lon="9.491682121000965"><ele>95.0</ele><time>2026-04-12T13:47:45Z</time></trkpt><trkpt lat="45.459532593030495" lon="9.491771645225008"><ele>95.0</ele><time>2026-04-12T13:47:46Z</time></trkpt><trkpt lat="45.459543090579665" lon="9.491942314181836"><ele>95.0</ele><time>2026-04-12T13:47:47.999Z</time></trkpt><trkpt lat="45.45949665426692" lon="9.492037025095867"><ele>95.0</ele><time>2026-04-12T13:47:48.999Z</time></trkpt><trkpt lat="45.45943685314803" lon="9.49211048924728"><ele>95.0</ele><time>2026-04-12T13:47:49.999Z</time></trkpt><trkpt lat="45.45939975577801" lon="9.492200608335748"><ele>95.0</ele><time>2026-04-12T13:47:51.999Z</time></trkpt><trkpt lat="45.45947844819302" lon="9.49231416004909"><ele>94.8</ele><time>2026-04-12T13:47:53.999Z</time></trkpt><trkpt lat="45.4596051782941" lon="9.492331820894126"><ele>94.6</ele><time>2026-04-12T13:47:54.999Z</time></trkpt><trkpt lat="45.45968266308273" lon="9.49234389874537"><ele>94.4</ele><time>2026-04-12T13:47:55.999Z</time></trkpt><trkpt lat="45.45978181409612" lon="9.492317596827634"><ele>94.2</ele><time>2026-04-12T13:47:56.999Z</time></trkpt><trkpt lat="45.4598804381472" lon="9.492351432214143"><ele>94.0</ele><time>2026-04-12T13:47:57.999Z</time></trkpt><trkpt lat="45.459968337891894" lon="9.492396288736153"><ele>94.0</ele><time>2026-04-12T13:47:58.999Z</time></trkpt><trkpt lat="45.46005896098372" lon="9.492395225050084"><ele>94.0</ele><time>2026-04-12T13:47:59.999Z</time></trkpt><trkpt lat="45.460149042763796" lon="9.49236449770634"><ele>94.0</ele><time>2026-04-12T13:48:01Z</time></trkpt><trkpt lat="45.46025790226419" lon="9.4923570165302"><ele>94.0</ele><time>2026-04-12T13:48:02Z</time></trkpt><trkpt lat="45.46045055388628" lon="9.492327497190505"><ele>93.66666666666666</ele><time>2026-04-12T13:48:04Z</time></trkpt><trkpt lat="45.46052312862188" lon="9.492256398413373"><ele>93.33333333333333</ele><time>2026-04-12T13:48:05Z</time></trkpt><trkpt lat="45.46057150932671" lon="9.492171718935461"><ele>93.0</ele><time>2026-04-12T13:48:06Z</time></trkpt><trkpt lat="45.46060932603464" lon="9.492050970773985"><ele>92.66666666666667</ele><time>2026-04-12T13:48:07Z</time></trkpt><trkpt lat="45.460652843667205" lon="9.49190817789093"><ele>92.33333333333334</ele><time>2026-04-12T13:48:08Z</time></trkpt><trkpt lat="45.46071938889855" lon="9.491855837861898"><ele>92.0</ele><time>2026-04-12T13:48:09Z</time></trkpt><trkpt lat="45.46079069066029" lon="9.491826511730007"><ele>92.8</ele><time>2026-04-12T13:48:10Z</time></trkpt><trkpt lat="45.46087188452003" lon="9.491846847220296"><ele>93.6</ele><time>2026-04-12T13:48:11Z</time></trkpt><trkpt lat="45.46096391775718" lon="9.491840872526366"><ele>94.39999999999999</ele><time>2026-04-12T13:48:12Z</time></trkpt><trkpt lat="45.46105950619016" lon="9.491774059046264"><ele>95.19999999999999</ele><time>2026-04-12T13:48:13Z</time></trkpt><trkpt lat="45.46114455968255" lon="9.49167617636827"><ele>96.0</ele><time>2026-04-12T13:48:14Z</time></trkpt><trkpt lat="45.46121596259984" lon="9.491571868532162"><ele>95.4</ele><time>2026-04-12T13:48:15Z</time></trkpt><trkpt lat="45.46129246587217" lon="9.491474281974927"><ele>94.8</ele><time>2026-04-12T13:48:16Z</time></trkpt><trkpt lat="45.46136521979936" lon="9.49139718803772"><ele>94.2</ele><time>2026-04-12T13:48:17Z</time></trkpt><trkpt lat="45.4614338982985" lon="9.491323492634685"><ele>93.60000000000001</ele><time>2026-04-12T13:48:18Z</time></trkpt><trkpt lat="45.46147388513666" lon="9.49117015362666"><ele>93.0</ele><time>2026-04-12T13:48:20Z</time></trkpt><trkpt lat="45.46149569648579" lon="9.491064160883754"><ele>93.0</ele><time>2026-04-12T13:48:21Z</time></trkpt><trkpt lat="45.461504728222785" lon="9.49094252117105"><ele>93.0</ele><time>2026-04-12T13:48:22Z</time></trkpt><trkpt lat="45.461531360556094" lon="9.49083316104992"><ele>93.0</ele><time>2026-04-12T13:48:23Z</time></trkpt><trkpt lat="45.46156570388368" lon="9.490724294291514"><ele>93.0</ele><time>2026-04-12T13:48:24Z</time></trkpt><trkpt lat="45.46159087950957" lon="9.490604353630525"><ele>93.0</ele><time>2026-04-12T13:48:25Z</time></trkpt><trkpt lat="45.46164072153751" lon="9.490495302328863"><ele>93.0</ele><time>2026-04-12T13:48:26Z</time></trkpt><trkpt lat="45.4616808279061" lon="9.490400667244025"><ele>93.33333333333333</ele><time>2026-04-12T13:48:27Z</time></trkpt><trkpt lat="45.46174089688954" lon="9.490349041049424"><ele>93.66666666666667</ele><time>2026-04-12T13:48:28Z</time></trkpt><trkpt lat="45.461794967364106" lon="9.490216855489418"><ele>94.0</ele><time>2026-04-12T13:48:30Z</time></trkpt><trkpt lat="45.461818342142834" lon="9.490129275503332"><ele>94.33333333333334</ele><time>2026-04-12T13:48:31Z</time></trkpt><trkpt lat="45.46183620378126" lon="9.490035859416666"><ele>94.66666666666667</ele><time>2026-04-12T13:48:32Z</time></trkpt><trkpt lat="45.46186057989232" lon="9.489936100762367"><ele>95.0</ele><time>2026-04-12T13:48:33Z</time></trkpt><trkpt lat="45.46187739700192" lon="9.489847428253606"><ele>95.0</ele><time>2026-04-12T13:48:34Z</time></trkpt><trkpt lat="45.461882625298536" lon="9.489743927567925"><ele>95.0</ele><time>2026-04-12T13:48:35Z</time></trkpt><trkpt lat="45.46191320961603" lon="9.489605549776737"><ele>95.0</ele><time>2026-04-12T13:48:37Z</time></trkpt><trkpt lat="45.461963007395724" lon="9.48947301898431"><ele>95.0</ele><time>2026-04-12T13:48:39Z</time></trkpt><trkpt lat="45.46200061385624" lon="9.489399387049744"><ele>95.0</ele><time>2026-04-12T13:48:40Z</time></trkpt><trkpt lat="45.46206282421073" lon="9.489248450849582"><ele>95.0</ele><time>2026-04-12T13:48:42Z</time></trkpt><trkpt lat="45.462085643037376" lon="9.489112845448048"><ele>95.0</ele><time>2026-04-12T13:48:43Z</time></trkpt><trkpt lat="45.462130876736694" lon="9.489004870521603"><ele>95.0</ele><time>2026-04-12T13:48:44Z</time></trkpt><trkpt lat="45.46218771175655" lon="9.488878475277374"><ele>95.0</ele><time>2026-04-12T13:48:45Z</time></trkpt><trkpt lat="45.462222035481716" lon="9.488747127609138"><ele>95.0</ele><time>2026-04-12T13:48:46Z</time></trkpt><trkpt lat="45.462288250642565" lon="9.48866824102932"><ele>95.0</ele><time>2026-04-12T13:48:49Z</time></trkpt><trkpt lat="45.462334239572385" lon="9.488550586183484"><ele>95.0</ele><time>2026-04-12T13:48:52Z</time></trkpt><trkpt lat="45.462362559317555" lon="9.488463449932295"><ele>95.0</ele><time>2026-04-12T13:48:53Z</time></trkpt><trkpt lat="45.462436725808274" lon="9.488342600065488"><ele>95.0</ele><time>2026-04-12T13:48:55Z</time></trkpt><trkpt lat="45.46246795810942" lon="9.488243890530747"><ele>95.0</ele><time>2026-04-12T13:48:56Z</time></trkpt><trkpt lat="45.46249937563767" lon="9.488163723793448"><ele>95.0</ele><time>2026-04-12T13:48:57Z</time></trkpt><trkpt lat="45.462551046730056" lon="9.487994538861729"><ele>95.0</ele><time>2026-04-12T13:48:59Z</time></trkpt><trkpt lat="45.46259717213837" lon="9.487932788995625"><ele>95.0</ele><time>2026-04-12T13:49:00Z</time></trkpt><trkpt lat="45.462635317957236" lon="9.487860643841477"><ele>95.0</ele><time>2026-04-12T13:49:01Z</time></trkpt><trkpt lat="45.46268446551114" lon="9.487680950148984"><ele>95.0</ele><time>2026-04-12T13:49:03Z</time></trkpt><trkpt lat="45.462801253468434" lon="9.487539285807621"><ele>95.0</ele><time>2026-04-12T13:49:05Z</time></trkpt><trkpt lat="45.462877045602454" lon="9.487434401427347"><ele>95.25</ele><time>2026-04-12T13:49:07Z</time></trkpt><trkpt lat="45.462942527594926" lon="9.487340387888585"><ele>95.5</ele><time>2026-04-12T13:49:10Z</time></trkpt><trkpt lat="45.462741541934335" lon="9.487209528184538"><ele>95.75</ele><time>2026-04-12T13:49:19Z</time></trkpt><trkpt lat="45.46264759291338" lon="9.487209118303795"><ele>96.0</ele><time>2026-04-12T13:49:20Z</time></trkpt><trkpt lat="45.46253041477899" lon="9.487233789419689"><ele>96.0</ele><time>2026-04-12T13:49:21Z</time></trkpt><trkpt lat="45.46242685026039" lon="9.487265341689069"><ele>96.0</ele><time>2026-04-12T13:49:22Z</time></trkpt><trkpt lat="45.462354558969324" lon="9.487288423587039"><ele>96.0</ele><time>2026-04-12T13:49:23Z</time></trkpt><trkpt lat="45.46229314471248" lon="9.487335873531507"><ele>96.0</ele><time>2026-04-12T13:49:24Z</time></trkpt><trkpt lat="45.462216721942305" lon="9.487363010996791"><ele>96.0</ele><time>2026-04-12T13:49:25Z</time></trkpt><trkpt lat="45.462132493434" lon="9.487391897919505"><ele>96.0</ele><time>2026-04-12T13:49:26Z</time></trkpt><trkpt lat="45.46201116739965" lon="9.487435470353589"><ele>96.4</ele><time>2026-04-12T13:49:28Z</time></trkpt><trkpt lat="45.46192656088809" lon="9.487494199081798"><ele>96.8</ele><time>2026-04-12T13:49:31Z</time></trkpt><trkpt lat="45.46184407062208" lon="9.48750743830101"><ele>97.2</ele><time>2026-04-12T13:49:35Z</time></trkpt><trkpt lat="45.46173361821347" lon="9.487588304167247"><ele>97.60000000000001</ele><time>2026-04-12T13:49:37Z</time></trkpt><trkpt lat="45.46163992184193" lon="9.487631324744857"><ele>98.0</ele><time>2026-04-12T13:49:39Z</time></trkpt><trkpt lat="45.46157572427587" lon="9.487674641350631"><ele>98.0</ele><time>2026-04-12T13:49:41Z</time></trkpt><trkpt lat="45.46156655249836" lon="9.48756824556652"><ele>98.0</ele><time>2026-04-12T13:49:43Z</time></trkpt><trkpt lat="45.46157220579641" lon="9.48743790959137"><ele>98.0</ele><time>2026-04-12T13:49:44Z</time></trkpt><trkpt lat="45.46160662256364" lon="9.487342611758377"><ele>98.0</ele><time>2026-04-12T13:49:45Z</time></trkpt><trkpt lat="45.46168835278311" lon="9.487242396044289"><ele>98.0</ele><time>2026-04-12T13:49:47Z</time></trkpt><trkpt lat="45.4618105694749" lon="9.48721159926266"><ele>98.0</ele><time>2026-04-12T13:49:49Z</time></trkpt><trkpt lat="45.4618732985024" lon="9.487184221312297"><ele>98.0</ele><time>2026-04-12T13:49:50Z</time></trkpt><trkpt lat="45.46197232415911" lon="9.48714066883906"><ele>98.0</ele><time>2026-04-12T13:49:51.999Z</time></trkpt><trkpt lat="45.46205099194723" lon="9.48710543240783"><ele>98.0</ele><time>2026-04-12T13:49:52.999Z</time></trkpt><trkpt lat="45.46216272529121" lon="9.48710438364914"><ele>98.0</ele><time>2026-04-12T13:49:53.999Z</time></trkpt><trkpt lat="45.46226032518912" lon="9.487097805931386"><ele>98.0</ele><time>2026-04-12T13:49:54.999Z</time></trkpt><trkpt lat="45.462373599422605" lon="9.487070598505635"><ele>98.0</ele><time>2026-04-12T13:49:55.999Z</time></trkpt><trkpt lat="45.46247028417037" lon="9.487035996900028"><ele>98.0</ele><time>2026-04-12T13:49:56.999Z</time></trkpt><trkpt lat="45.46254811664597" lon="9.487031148614783"><ele>98.0</ele><time>2026-04-12T13:49:57.999Z</time></trkpt><trkpt lat="45.46266150044678" lon="9.486975271833426"><ele>98.0</ele><time>2026-04-12T13:49:58.999Z</time></trkpt><trkpt lat="45.462781062551166" lon="9.486918114425857"><ele>98.0</ele><time>2026-04-12T13:49:59.999Z</time></trkpt><trkpt lat="45.46288140283427" lon="9.486860493668916"><ele>98.0</ele><time>2026-04-12T13:50:00.999Z</time></trkpt><trkpt lat="45.462995938896924" lon="9.486834835558277"><ele>98.0</ele><time>2026-04-12T13:50:01.999Z</time></trkpt><trkpt lat="45.46313151061701" lon="9.486767563896843"><ele>98.0</ele><time>2026-04-12T13:50:02.999Z</time></trkpt><trkpt lat="45.463236683990395" lon="9.486699149459527"><ele>97.80000000000001</ele><time>2026-04-12T13:50:03.999Z</time></trkpt><trkpt lat="45.46333161633028" lon="9.486638345527869"><ele>97.6</ele><time>2026-04-12T13:50:04.999Z</time></trkpt><trkpt lat="45.46339186775376" lon="9.486552777202984"><ele>97.4</ele><time>2026-04-12T13:50:05.999Z</time></trkpt><trkpt lat="45.46343647544084" lon="9.486419490252814"><ele>97.19999999999999</ele><time>2026-04-12T13:50:07Z</time></trkpt><trkpt lat="45.46350017253079" lon="9.48633762037147"><ele>97.0</ele><time>2026-04-12T13:50:08Z</time></trkpt><trkpt lat="45.463591720188695" lon="9.4862527150275"><ele>96.8</ele><time>2026-04-12T13:50:10Z</time></trkpt><trkpt lat="45.46366535764899" lon="9.486170541026711"><ele>96.6</ele><time>2026-04-12T13:50:12Z</time></trkpt><trkpt lat="45.46363399030184" lon="9.486066149516848"><ele>96.39999999999999</ele><time>2026-04-12T13:50:14Z</time></trkpt><trkpt lat="45.46356902587866" lon="9.485992176948553"><ele>96.19999999999999</ele><time>2026-04-12T13:50:15Z</time></trkpt><trkpt lat="45.463523924650694" lon="9.485880690645793"><ele>96.0</ele><time>2026-04-12T13:50:17Z</time></trkpt><trkpt lat="45.46345252400474" lon="9.485773982151583"><ele>96.0</ele><time>2026-04-12T13:50:19Z</time></trkpt><trkpt lat="45.46338354036547" lon="9.485711480280095"><ele>96.0</ele><time>2026-04-12T13:50:21Z</time></trkpt><trkpt lat="45.46329873796636" lon="9.48563062509389"><ele>96.0</ele><time>2026-04-12T13:50:23Z</time></trkpt><trkpt lat="45.463212356945405" lon="9.485634447987678"><ele>96.0</ele><time>2026-04-12T13:50:24Z</time></trkpt><trkpt lat="45.46312967022911" lon="9.485590688391316"><ele>96.0</ele><time>2026-04-12T13:50:25Z</time></trkpt><trkpt lat="45.463041082684" lon="9.485557033563444"><ele>96.0</ele><time>2026-04-12T13:50:26Z</time></trkpt><trkpt lat="45.462956146114934" lon="9.485484487681534"><ele>96.0</ele><time>2026-04-12T13:50:27Z</time></trkpt><trkpt lat="45.46285878265895" lon="9.48542092598836"><ele>96.0</ele><time>2026-04-12T13:50:28Z</time></trkpt><trkpt lat="45.462775345835745" lon="9.485359047869391"><ele>96.0</ele><time>2026-04-12T13:50:29Z</time></trkpt><trkpt lat="45.46271451405911" lon="9.485334701187801"><ele>96.0</ele><time>2026-04-12T13:50:30Z</time></trkpt><trkpt lat="45.46264352993712" lon="9.485270905219402"><ele>96.0</ele><time>2026-04-12T13:50:31Z</time></trkpt><trkpt lat="45.46257940518795" lon="9.485200190121711"><ele>95.83333333333333</ele><time>2026-04-12T13:50:32Z</time></trkpt><trkpt lat="45.46251591283628" lon="9.485151734116414"><ele>95.66666666666667</ele><time>2026-04-12T13:50:33Z</time></trkpt><trkpt lat="45.462433495943806" lon="9.485155605864078"><ele>95.5</ele><time>2026-04-12T13:50:34Z</time></trkpt><trkpt lat="45.46236452788281" lon="9.485150294332628"><ele>95.33333333333334</ele><time>2026-04-12T13:50:35Z</time></trkpt><trkpt lat="45.46224400085208" lon="9.485148017756865"><ele>95.16666666666667</ele><time>2026-04-12T13:50:36Z</time></trkpt><trkpt lat="45.46214934965987" lon="9.485136665492481"><ele>95.0</ele><time>2026-04-12T13:50:37Z</time></trkpt><trkpt lat="45.46206869818331" lon="9.485141624809025"><ele>94.83333333333334</ele><time>2026-04-12T13:50:38Z</time></trkpt><trkpt lat="45.46197568402895" lon="9.485167006578147"><ele>94.66666666666667</ele><time>2026-04-12T13:50:39Z</time></trkpt><trkpt lat="45.46190283175953" lon="9.485149838865807"><ele>94.5</ele><time>2026-04-12T13:50:40Z</time></trkpt><trkpt lat="45.461824076614924" lon="9.485149600968306"><ele>94.33333333333333</ele><time>2026-04-12T13:50:41Z</time></trkpt><trkpt lat="45.461745857470056" lon="9.485119055758872"><ele>94.16666666666666</ele><time>2026-04-12T13:50:42Z</time></trkpt><trkpt lat="45.461666857621466" lon="9.48511743060174"><ele>94.0</ele><time>2026-04-12T13:50:43Z</time></trkpt><trkpt lat="45.46160386435773" lon="9.485122928791878"><ele>94.0</ele><time>2026-04-12T13:50:44Z</time></trkpt><trkpt lat="45.461530980101884" lon="9.485073909072177"><ele>94.0</ele><time>2026-04-12T13:50:45Z</time></trkpt><trkpt lat="45.461437557238895" lon="9.48502806829567"><ele>94.0</ele><time>2026-04-12T13:50:46Z</time></trkpt><trkpt lat="45.461352753466606" lon="9.484960167891302"><ele>94.0</ele><time>2026-04-12T13:50:47Z</time></trkpt><trkpt lat="45.46128213886999" lon="9.484938763931927"><ele>94.0</ele><time>2026-04-12T13:50:48Z</time></trkpt><trkpt lat="45.46122103578283" lon="9.48490780401431"><ele>94.0</ele><time>2026-04-12T13:50:49Z</time></trkpt><trkpt lat="45.461155721563124" lon="9.484886076731817"><ele>94.0</ele><time>2026-04-12T13:50:50Z</time></trkpt><trkpt lat="45.461067565220695" lon="9.484823514396524"><ele>94.0</ele><time>2026-04-12T13:50:52Z</time></trkpt><trkpt lat="45.460942514730064" lon="9.484800267398134"><ele>94.0</ele><time>2026-04-12T13:50:54Z</time></trkpt><trkpt lat="45.46082213963741" lon="9.48482170717525"><ele>94.0</ele><time>2026-04-12T13:50:56Z</time></trkpt><trkpt lat="45.46072532149918" lon="9.484834511560372"><ele>94.0</ele><time>2026-04-12T13:50:58Z</time></trkpt><trkpt lat="45.46079885536446" lon="9.48484396706574"><ele>94.0</ele><time>2026-04-12T13:51:08Z</time></trkpt><trkpt lat="45.460888890114525" lon="9.484851214290911"><ele>94.0</ele><time>2026-04-12T13:51:09Z</time></trkpt><trkpt lat="45.46095944348889" lon="9.484845510081403"><ele>94.0</ele><time>2026-04-12T13:51:10Z</time></trkpt><trkpt lat="45.46107278252407" lon="9.484871382552285"><ele>94.0</ele><time>2026-04-12T13:51:11Z</time></trkpt><trkpt lat="45.46118497777106" lon="9.484939388430137"><ele>94.0</ele><time>2026-04-12T13:51:12Z</time></trkpt><trkpt lat="45.46130367484213" lon="9.484993843676438"><ele>94.0</ele><time>2026-04-12T13:51:13Z</time></trkpt><trkpt lat="45.46140618192976" lon="9.485051602877713"><ele>94.0</ele><time>2026-04-12T13:51:14Z</time></trkpt><trkpt lat="45.461484778930746" lon="9.485075669868056"><ele>94.0</ele><time>2026-04-12T13:51:15Z</time></trkpt><trkpt lat="45.46156854248568" lon="9.485114756219497"><ele>94.0</ele><time>2026-04-12T13:51:16Z</time></trkpt><trkpt lat="45.4616848055448" lon="9.485128811220452"><ele>94.0</ele><time>2026-04-12T13:51:17Z</time></trkpt><trkpt lat="45.461786715009026" lon="9.48514293776916"><ele>94.0</ele><time>2026-04-12T13:51:18Z</time></trkpt><trkpt lat="45.46186588015972" lon="9.485158563627131"><ele>94.0</ele><time>2026-04-12T13:51:19Z</time></trkpt><trkpt lat="45.461940659832635" lon="9.485174171353695"><ele>94.0</ele><time>2026-04-12T13:51:20Z</time></trkpt><trkpt lat="45.46201181636944" lon="9.485188338113955"><ele>94.0</ele><time>2026-04-12T13:51:21Z</time></trkpt><trkpt lat="45.46208555439611" lon="9.485203127721016"><ele>94.0</ele><time>2026-04-12T13:51:22Z</time></trkpt><trkpt lat="45.46216129591683" lon="9.485208958614376"><ele>94.0</ele><time>2026-04-12T13:51:23Z</time></trkpt><trkpt lat="45.46222626500466" lon="9.48521016686128"><ele>94.0</ele><time>2026-04-12T13:51:24Z</time></trkpt><trkpt lat="45.462300552122656" lon="9.48520357458079"><ele>94.16666666666666</ele><time>2026-04-12T13:51:25Z</time></trkpt><trkpt lat="45.462367135588366" lon="9.485193155552334"><ele>94.33333333333333</ele><time>2026-04-12T13:51:26Z</time></trkpt><trkpt lat="45.462486006677956" lon="9.485194373269234"><ele>94.5</ele><time>2026-04-12T13:51:28Z</time></trkpt><trkpt lat="45.46254758388341" lon="9.485174947778905"><ele>94.66666666666667</ele><time>2026-04-12T13:51:30Z</time></trkpt><trkpt lat="45.46252843972514" lon="9.485038009798934"><ele>94.83333333333334</ele><time>2026-04-12T13:51:32Z</time></trkpt><trkpt lat="45.46250264849618" lon="9.484948060582738"><ele>95.0</ele><time>2026-04-12T13:51:33Z</time></trkpt><trkpt lat="45.46247217497527" lon="9.484860025785391"><ele>95.0</ele><time>2026-04-12T13:51:34Z</time></trkpt><trkpt lat="45.46237082199138" lon="9.484797799984007"><ele>95.0</ele><time>2026-04-12T13:51:36Z</time></trkpt><trkpt lat="45.46234495262925" lon="9.484644431572352"><ele>95.0</ele><time>2026-04-12T13:51:38Z</time></trkpt><trkpt lat="45.462405547118564" lon="9.484618681355235"><ele>95.0</ele><time>2026-04-12T13:51:41Z</time></trkpt><trkpt lat="45.462379974841404" lon="9.484529746748274"><ele>95.0</ele><time>2026-04-12T13:51:42Z</time></trkpt><trkpt lat="45.462378149605456" lon="9.484439788153722"><ele>95.0</ele><time>2026-04-12T13:51:46Z</time></trkpt><trkpt lat="45.462380135801894" lon="9.484297785647358"><ele>94.8</ele><time>2026-04-12T13:51:48Z</time></trkpt><trkpt lat="45.46229880658516" lon="9.484218294806396"><ele>94.6</ele><time>2026-04-12T13:51:50Z</time></trkpt><trkpt lat="45.46217769291569" lon="9.48417090587925"><ele>94.4</ele><time>2026-04-12T13:51:51.999Z</time></trkpt><trkpt lat="45.462103067808" lon="9.48417563578319"><ele>94.2</ele><time>2026-04-12T13:51:52.999Z</time></trkpt><trkpt lat="45.461957255113475" lon="9.48418811747782"><ele>94.0</ele><time>2026-04-12T13:51:54.999Z</time></trkpt><trkpt lat="45.46186323778283" lon="9.484159233846464"><ele>94.0</ele><time>2026-04-12T13:51:55.999Z</time></trkpt><trkpt lat="45.46179420636403" lon="9.484209267181814"><ele>94.0</ele><time>2026-04-12T13:51:57.999Z</time></trkpt><trkpt lat="45.46178220585788" lon="9.484315768022624"><ele>94.0</ele><time>2026-04-12T13:51:58.999Z</time></trkpt><trkpt lat="45.46179285687294" lon="9.484444296180676"><ele>94.0</ele><time>2026-04-12T13:51:59.999Z</time></trkpt><trkpt lat="45.46178118205694" lon="9.484555399370619"><ele>94.0</ele><time>2026-04-12T13:52:00.999Z</time></trkpt><trkpt lat="45.46175311294458" lon="9.484702116092581"><ele>94.0</ele><time>2026-04-12T13:52:02.999Z</time></trkpt><trkpt lat="45.46167179598471" lon="9.48482297631475"><ele>94.0</ele><time>2026-04-12T13:52:04.999Z</time></trkpt><trkpt lat="45.461583295320004" lon="9.484870393984819"><ele>94.0</ele><time>2026-04-12T13:52:05.999Z</time></trkpt><trkpt lat="45.46145606768544" lon="9.484884861326622"><ele>94.0</ele><time>2026-04-12T13:52:06.999Z</time></trkpt><trkpt lat="45.46137191443434" lon="9.48490839600246"><ele>94.0</ele><time>2026-04-12T13:52:07.999Z</time></trkpt><trkpt lat="45.46129506126954" lon="9.48495302570788"><ele>94.0</ele><time>2026-04-12T13:52:08.999Z</time></trkpt><trkpt lat="45.46118312472918" lon="9.484970774928073"><ele>94.0</ele><time>2026-04-12T13:52:10.999Z</time></trkpt><trkpt lat="45.461107257633316" lon="9.48488543282516"><ele>94.0</ele><time>2026-04-12T13:52:13Z</time></trkpt><trkpt lat="45.4610592199293" lon="9.484823469165281"><ele>94.0</ele><time>2026-04-12T13:52:15Z</time></trkpt><trkpt lat="45.46114349025842" lon="9.484744032621682"><ele>94.0</ele><time>2026-04-12T13:52:18Z</time></trkpt><trkpt lat="45.46113804821504" lon="9.484603328121192"><ele>94.0</ele><time>2026-04-12T13:52:21Z</time></trkpt><trkpt lat="45.46119744752271" lon="9.48444644966439"><ele>93.80000000000001</ele><time>2026-04-12T13:52:22Z</time></trkpt><trkpt lat="45.46119604683345" lon="9.484305357530063"><ele>93.60000000000001</ele><time>2026-04-12T13:52:24Z</time></trkpt><trkpt lat="45.46117020610826" lon="9.484187054977166"><ele>93.4</ele><time>2026-04-12T13:53:05Z</time></trkpt><trkpt lat="45.46128328820642" lon="9.484154978764415"><ele>93.2</ele><time>2026-04-12T13:53:08Z</time></trkpt><trkpt lat="45.46137480138922" lon="9.484111841824843"><ele>93.0</ele><time>2026-04-12T13:53:10Z</time></trkpt><trkpt lat="45.46148705832701" lon="9.484043680000761"><ele>93.0</ele><time>2026-04-12T13:53:12Z</time></trkpt><trkpt lat="45.46155361691538" lon="9.484016992674436"><ele>93.0</ele><time>2026-04-12T13:53:13Z</time></trkpt><trkpt lat="45.46163514032192" lon="9.483996835679465"><ele>93.0</ele><time>2026-04-12T13:53:14Z</time></trkpt><trkpt lat="45.461768980203004" lon="9.484001955593026"><ele>93.0</ele><time>2026-04-12T13:53:15Z</time></trkpt><trkpt lat="45.461874139838265" lon="9.484027037240871"><ele>93.0</ele><time>2026-04-12T13:53:16Z</time></trkpt><trkpt lat="45.461980588270045" lon="9.483999570474897"><ele>93.0</ele><time>2026-04-12T13:53:17Z</time></trkpt><trkpt lat="45.46207662210228" lon="9.483964960070086"><ele>93.0</ele><time>2026-04-12T13:53:18Z</time></trkpt><trkpt lat="45.46216882922264" lon="9.483896860668668"><ele>93.0</ele><time>2026-04-12T13:53:19Z</time></trkpt><trkpt lat="45.46227836717382" lon="9.483890436871748"><ele>93.0</ele><time>2026-04-12T13:53:21Z</time></trkpt><trkpt lat="45.46231099895065" lon="9.483991904124531"><ele>93.0</ele><time>2026-04-12T13:53:23Z</time></trkpt><trkpt lat="45.462328092072" lon="9.484133051247259"><ele>93.25</ele><time>2026-04-12T13:53:25Z</time></trkpt><trkpt lat="45.462332791273134" lon="9.484264621331981"><ele>93.5</ele><time>2026-04-12T13:53:27Z</time></trkpt><trkpt lat="45.46238760013798" lon="9.484398984846248"><ele>93.75</ele><time>2026-04-12T13:53:29Z</time></trkpt><trkpt lat="45.46237474781395" lon="9.484526720441558"><ele>94.0</ele><time>2026-04-12T13:53:31Z</time></trkpt><trkpt lat="45.46234900299992" lon="9.484758174432386"><ele>94.2</ele><time>2026-04-12T13:53:49.999Z</time></trkpt><trkpt lat="45.462395568339204" lon="9.484907311729788"><ele>94.4</ele><time>2026-04-12T13:53:51.999Z</time></trkpt><trkpt lat="45.46246582481885" lon="9.485035645542565"><ele>94.6</ele><time>2026-04-12T13:53:53.999Z</time></trkpt><trkpt lat="45.46253501428445" lon="9.48510574144057"><ele>94.8</ele><time>2026-04-12T13:53:54.999Z</time></trkpt><trkpt lat="45.46260032219032" lon="9.485234950311929"><ele>95.0</ele><time>2026-04-12T13:53:55.999Z</time></trkpt><trkpt lat="45.462712438529124" lon="9.485330287352616"><ele>95.0</ele><time>2026-04-12T13:53:57.999Z</time></trkpt><trkpt lat="45.46280773289272" lon="9.485378792402514"><ele>95.0</ele><time>2026-04-12T13:53:58.999Z</time></trkpt><trkpt lat="45.46290495784242" lon="9.485424159455405"><ele>95.0</ele><time>2026-04-12T13:53:59.999Z</time></trkpt><trkpt lat="45.462971888166244" lon="9.485495663063006"><ele>95.0</ele><time>2026-04-12T13:54:00.999Z</time></trkpt><trkpt lat="45.46305109084198" lon="9.485563505399053"><ele>95.0</ele><time>2026-04-12T13:54:01.999Z</time></trkpt><trkpt lat="45.46315265829368" lon="9.485643354985728"><ele>95.2</ele><time>2026-04-12T13:54:02.999Z</time></trkpt><trkpt lat="45.463261243287" lon="9.485740995624887"><ele>95.4</ele><time>2026-04-12T13:54:04.999Z</time></trkpt><trkpt lat="45.46332721976938" lon="9.485757700966344"><ele>95.6</ele><time>2026-04-12T13:54:05.999Z</time></trkpt><trkpt lat="45.463435920320876" lon="9.485766558224094"><ele>95.8</ele><time>2026-04-12T13:54:07.999Z</time></trkpt><trkpt lat="45.4635042180406" lon="9.485877863237443"><ele>96.0</ele><time>2026-04-12T13:54:09.999Z</time></trkpt><trkpt lat="45.463533088000595" lon="9.485963371023082"><ele>96.0</ele><time>2026-04-12T13:54:10.999Z</time></trkpt><trkpt lat="45.46360564196243" lon="9.486107581777798"><ele>96.0</ele><time>2026-04-12T13:54:12.999Z</time></trkpt><trkpt lat="45.46361444648786" lon="9.486204703865333"><ele>96.0</ele><time>2026-04-12T13:54:14.999Z</time></trkpt><trkpt lat="45.463579149493306" lon="9.48630312190954"><ele>96.0</ele><time>2026-04-12T13:54:16.999Z</time></trkpt><trkpt lat="45.46347509430941" lon="9.486416246029487"><ele>96.0</ele><time>2026-04-12T13:54:19Z</time></trkpt><trkpt lat="45.46337979004765" lon="9.486475163704704"><ele>96.33333333333334</ele><time>2026-04-12T13:54:22Z</time></trkpt><trkpt lat="45.463268408196285" lon="9.486513544232444"><ele>96.66666666666667</ele><time>2026-04-12T13:54:25Z</time></trkpt><trkpt lat="45.46303423276837" lon="9.486622163022313"><ele>97.0</ele><time>2026-04-12T13:54:26Z</time></trkpt><trkpt lat="45.462901738271924" lon="9.486688636352877"><ele>97.25</ele><time>2026-04-12T13:54:27Z</time></trkpt><trkpt lat="45.462746785158146" lon="9.486786701630535"><ele>97.5</ele><time>2026-04-12T13:54:28Z</time></trkpt><trkpt lat="45.462628631992295" lon="9.486881871630063"><ele>97.75</ele><time>2026-04-12T13:54:29Z</time></trkpt><trkpt lat="45.46249308714353" lon="9.486913988226252"><ele>98.0</ele><time>2026-04-12T13:54:30Z</time></trkpt><trkpt lat="45.46235421484854" lon="9.486968752077226"><ele>98.0</ele><time>2026-04-12T13:54:31Z</time></trkpt><trkpt lat="45.462211013167504" lon="9.487029913335316"><ele>98.0</ele><time>2026-04-12T13:54:32Z</time></trkpt><trkpt lat="45.462123100377944" lon="9.487045599342402"><ele>98.0</ele><time>2026-04-12T13:54:33Z</time></trkpt><trkpt lat="45.462022742760965" lon="9.48709177823887"><ele>98.0</ele><time>2026-04-12T13:54:34Z</time></trkpt><trkpt lat="45.46194207280439" lon="9.487134871168378"><ele>98.0</ele><time>2026-04-12T13:54:35Z</time></trkpt><trkpt lat="45.46186022705147" lon="9.487190857221877"><ele>98.0</ele><time>2026-04-12T13:54:36Z</time></trkpt><trkpt lat="45.46178146876057" lon="9.487210068388528"><ele>98.0</ele><time>2026-04-12T13:54:37Z</time></trkpt><trkpt lat="45.4617064079887" lon="9.487231889977771"><ele>98.0</ele><time>2026-04-12T13:54:38Z</time></trkpt><trkpt lat="45.46161742847409" lon="9.487276432301396"><ele>98.0</ele><time>2026-04-12T13:54:40Z</time></trkpt><trkpt lat="45.46155834461949" lon="9.487379710245659"><ele>98.0</ele><time>2026-04-12T13:54:42Z</time></trkpt><trkpt lat="45.46152389165877" lon="9.487534390173364"><ele>98.0</ele><time>2026-04-12T13:54:44Z</time></trkpt><trkpt lat="45.46158730134767" lon="9.48773834388648"><ele>98.0</ele><time>2026-04-12T13:54:46Z</time></trkpt><trkpt lat="45.461644457965676" lon="9.487820292184391"><ele>98.0</ele><time>2026-04-12T13:54:47Z</time></trkpt><trkpt lat="45.46173511190802" lon="9.487981357185868"><ele>98.0</ele><time>2026-04-12T13:54:49Z</time></trkpt><trkpt lat="45.46179487898974" lon="9.488065750347886"><ele>98.0</ele><time>2026-04-12T13:54:50Z</time></trkpt><trkpt lat="45.4618494326451" lon="9.488177730868525"><ele>98.0</ele><time>2026-04-12T13:54:51Z</time></trkpt><trkpt lat="45.461912969909896" lon="9.48826826013704"><ele>98.0</ele><time>2026-04-12T13:54:52Z</time></trkpt><trkpt lat="45.46200042948747" lon="9.488370444805962"><ele>98.0</ele><time>2026-04-12T13:54:53Z</time></trkpt><trkpt lat="45.46211023915908" lon="9.488468691948393"><ele>98.0</ele><time>2026-04-12T13:54:54Z</time></trkpt><trkpt lat="45.46215702105787" lon="9.488568888726066"><ele>97.4</ele><time>2026-04-12T13:54:55Z</time></trkpt><trkpt lat="45.46222079359654" lon="9.488652441420825"><ele>96.80000000000001</ele><time>2026-04-12T13:54:56Z</time></trkpt><trkpt lat="45.46230322703713" lon="9.488693683731519"><ele>96.2</ele><time>2026-04-12T13:54:58Z</time></trkpt><trkpt lat="45.462247939766186" lon="9.48875096579941"><ele>95.6</ele><time>2026-04-12T14:05:48Z</time></trkpt><trkpt lat="45.46218454351378" lon="9.488867233474402"><ele>95.0</ele><time>2026-04-12T14:05:51Z</time></trkpt><trkpt lat="45.462143762451824" lon="9.48903468945093"><ele>95.0</ele><time>2026-04-12T14:05:53Z</time></trkpt><trkpt lat="45.46210065653427" lon="9.489130403402418"><ele>95.0</ele><time>2026-04-12T14:05:54Z</time></trkpt><trkpt lat="45.46204900006936" lon="9.48921293093029"><ele>95.0</ele><time>2026-04-12T14:05:55Z</time></trkpt><trkpt lat="45.46202665586828" lon="9.489315876556423"><ele>95.0</ele><time>2026-04-12T14:05:56Z</time></trkpt><trkpt lat="45.46201337475525" lon="9.489411845772949"><ele>95.0</ele><time>2026-04-12T14:05:57Z</time></trkpt><trkpt lat="45.46196862829397" lon="9.489509736628651"><ele>95.0</ele><time>2026-04-12T14:05:58Z</time></trkpt><trkpt lat="45.46190646751751" lon="9.489603788395144"><ele>95.0</ele><time>2026-04-12T14:05:59Z</time></trkpt><trkpt lat="45.46187991102151" lon="9.489721407872604"><ele>95.0</ele><time>2026-04-12T14:06:00Z</time></trkpt><trkpt lat="45.46184931045158" lon="9.489855382901636"><ele>95.0</ele><time>2026-04-12T14:06:01Z</time></trkpt><trkpt lat="45.46182509176146" lon="9.489965228120427"><ele>95.0</ele><time>2026-04-12T14:06:02Z</time></trkpt><trkpt lat="45.46181411525628" lon="9.4900858329832"><ele>95.0</ele><time>2026-04-12T14:06:03Z</time></trkpt><trkpt lat="45.461783499007986" lon="9.490227440944343"><ele>95.0</ele><time>2026-04-12T14:06:04Z</time></trkpt><trkpt lat="45.46173818958196" lon="9.490354321357929"><ele>95.0</ele><time>2026-04-12T14:06:05Z</time></trkpt><trkpt lat="45.46167836128095" lon="9.490469960711211"><ele>95.0</ele><time>2026-04-12T14:06:06Z</time></trkpt><trkpt lat="45.461618396550115" lon="9.49054815184054"><ele>95.0</ele><time>2026-04-12T14:06:07Z</time></trkpt><trkpt lat="45.46155856919502" lon="9.490643387683155"><ele>95.0</ele><time>2026-04-12T14:06:08Z</time></trkpt><trkpt lat="45.461523806292554" lon="9.490737525856641"><ele>95.0</ele><time>2026-04-12T14:06:09Z</time></trkpt><trkpt lat="45.46148284474911" lon="9.490845308420882"><ele>94.66666666666667</ele><time>2026-04-12T14:06:10Z</time></trkpt><trkpt lat="45.46144734802982" lon="9.490951036473438"><ele>94.33333333333334</ele><time>2026-04-12T14:06:11Z</time></trkpt><trkpt lat="45.46141529888478" lon="9.491081787317533"><ele>94.0</ele><time>2026-04-12T14:06:12Z</time></trkpt><trkpt lat="45.46140083246485" lon="9.491210064271867"><ele>93.66666666666667</ele><time>2026-04-12T14:06:13Z</time></trkpt><trkpt lat="45.461396326860516" lon="9.49132133454343"><ele>93.33333333333333</ele><time>2026-04-12T14:06:14Z</time></trkpt><trkpt lat="45.46135497150252" lon="9.491400463450084"><ele>93.0</ele><time>2026-04-12T14:06:15Z</time></trkpt><trkpt lat="45.46128390201089" lon="9.491461085368549"><ele>93.60000000000001</ele><time>2026-04-12T14:06:16Z</time></trkpt><trkpt lat="45.46120213343917" lon="9.49152596744628"><ele>94.2</ele><time>2026-04-12T14:06:17Z</time></trkpt><trkpt lat="45.46112622165204" lon="9.491579254503705"><ele>94.8</ele><time>2026-04-12T14:06:18Z</time></trkpt><trkpt lat="45.461048222570646" lon="9.49168235632664"><ele>95.4</ele><time>2026-04-12T14:06:19Z</time></trkpt><trkpt lat="45.46098360819126" lon="9.491810931801545"><ele>96.0</ele><time>2026-04-12T14:06:20Z</time></trkpt><trkpt lat="45.46089515577205" lon="9.491882125207393"><ele>96.0</ele><time>2026-04-12T14:06:21Z</time></trkpt><trkpt lat="45.46082966746792" lon="9.491907539936284"><ele>96.0</ele><time>2026-04-12T14:06:22Z</time></trkpt><trkpt lat="45.46075136751071" lon="9.491921542239151"><ele>96.0</ele><time>2026-04-12T14:06:23Z</time></trkpt><trkpt lat="45.46067549706584" lon="9.49190509512077"><ele>96.0</ele><time>2026-04-12T14:06:24Z</time></trkpt><trkpt lat="45.46061036608643" lon="9.491904527420216"><ele>96.0</ele><time>2026-04-12T14:06:25Z</time></trkpt><trkpt lat="45.46053315019487" lon="9.491984429330229"><ele>96.0</ele><time>2026-04-12T14:06:26Z</time></trkpt><trkpt lat="45.460488868310755" lon="9.492128426191023"><ele>95.66666666666667</ele><time>2026-04-12T14:06:27Z</time></trkpt><trkpt lat="45.46044334091323" lon="9.492255626035572"><ele>95.33333333333333</ele><time>2026-04-12T14:06:28Z</time></trkpt><trkpt lat="45.46037660517543" lon="9.492299668691796"><ele>95.0</ele><time>2026-04-12T14:06:29Z</time></trkpt><trkpt lat="45.46030421208399" lon="9.492334191280912"><ele>94.66666666666666</ele><time>2026-04-12T14:06:30Z</time></trkpt><trkpt lat="45.46020951639493" lon="9.492361795284943"><ele>94.33333333333333</ele><time>2026-04-12T14:06:31Z</time></trkpt><trkpt lat="45.46010830584011" lon="9.492343712910785"><ele>94.0</ele><time>2026-04-12T14:06:32Z</time></trkpt><trkpt lat="45.46002604844553" lon="9.492338087746822"><ele>94.0</ele><time>2026-04-12T14:06:33Z</time></trkpt><trkpt lat="45.459949454166384" lon="9.49234483757404"><ele>94.0</ele><time>2026-04-12T14:06:34Z</time></trkpt><trkpt lat="45.459863296092045" lon="9.492350711925445"><ele>94.0</ele><time>2026-04-12T14:06:35Z</time></trkpt><trkpt lat="45.459716107058256" lon="9.492270820441883"><ele>94.0</ele><time>2026-04-12T14:06:37Z</time></trkpt><trkpt lat="45.45961569337052" lon="9.49226267038429"><ele>94.0</ele><time>2026-04-12T14:06:38Z</time></trkpt><trkpt lat="45.45950651016864" lon="9.492274495088907"><ele>93.80000000000001</ele><time>2026-04-12T14:06:39Z</time></trkpt><trkpt lat="45.459413139786605" lon="9.492232848804326"><ele>93.60000000000001</ele><time>2026-04-12T14:06:40Z</time></trkpt><trkpt lat="45.45937100800758" lon="9.492152629102987"><ele>93.4</ele><time>2026-04-12T14:06:42Z</time></trkpt><trkpt lat="45.459443909857114" lon="9.492005455698472"><ele>93.2</ele><time>2026-04-12T14:06:44Z</time></trkpt><trkpt lat="45.45951343146178" lon="9.49194732316552"><ele>93.0</ele><time>2026-04-12T14:06:45Z</time></trkpt><trkpt lat="45.45955290024006" lon="9.491855008130955"><ele>93.4</ele><time>2026-04-12T14:06:46Z</time></trkpt><trkpt lat="45.45955329863445" lon="9.491749495424214"><ele>93.80000000000001</ele><time>2026-04-12T14:06:47Z</time></trkpt><trkpt lat="45.45952089647011" lon="9.491642443403228"><ele>94.2</ele><time>2026-04-12T14:06:48Z</time></trkpt><trkpt lat="45.45947303507006" lon="9.491503625322531"><ele>94.6</ele><time>2026-04-12T14:06:49Z</time></trkpt><trkpt lat="45.459440025266005" lon="9.491365272999754"><ele>95.0</ele><time>2026-04-12T14:06:50Z</time></trkpt><trkpt lat="45.45940659839568" lon="9.491221223596707"><ele>95.0</ele><time>2026-04-12T14:06:51Z</time></trkpt><trkpt lat="45.459371830255684" lon="9.491075194675759"><ele>95.0</ele><time>2026-04-12T14:06:52Z</time></trkpt><trkpt lat="45.45933704215904" lon="9.490943076198683"><ele>95.0</ele><time>2026-04-12T14:06:53Z</time></trkpt><trkpt lat="45.459314874408605" lon="9.490833167474143"><ele>95.0</ele><time>2026-04-12T14:06:54Z</time></trkpt><trkpt lat="45.45931427230828" lon="9.490736380438461"><ele>95.0</ele><time>2026-04-12T14:06:55.001Z</time></trkpt><trkpt lat="45.459347891418005" lon="9.490594225971622"><ele>95.75</ele><time>2026-04-12T14:06:56.001Z</time></trkpt><trkpt lat="45.45936328498749" lon="9.490415951870158"><ele>96.5</ele><time>2026-04-12T14:06:57.001Z</time></trkpt><trkpt lat="45.45937426877517" lon="9.490250156696701"><ele>97.25</ele><time>2026-04-12T14:06:58.001Z</time></trkpt><trkpt lat="45.45940191787084" lon="9.490090102118511"><ele>98.0</ele><time>2026-04-12T14:06:59.001Z</time></trkpt><trkpt lat="45.459441305410245" lon="9.489913885039982"><ele>98.0</ele><time>2026-04-12T14:07:00.001Z</time></trkpt><trkpt lat="45.459504687605374" lon="9.489755519620953"><ele>98.0</ele><time>2026-04-12T14:07:01.001Z</time></trkpt><trkpt lat="45.45954886988142" lon="9.48959013670789"><ele>98.0</ele><time>2026-04-12T14:07:02.001Z</time></trkpt><trkpt lat="45.45958332839421" lon="9.489472884718099"><ele>98.0</ele><time>2026-04-12T14:07:03.001Z</time></trkpt><trkpt lat="45.45959886171845" lon="9.489321874992731"><ele>98.0</ele><time>2026-04-12T14:07:04.001Z</time></trkpt><trkpt lat="45.4596039253763" lon="9.489169494729238"><ele>97.83333333333333</ele><time>2026-04-12T14:07:05.001Z</time></trkpt><trkpt lat="45.459618753269034" lon="9.489063307811799"><ele>97.66666666666666</ele><time>2026-04-12T14:07:06.001Z</time></trkpt><trkpt lat="45.45963384761916" lon="9.488975584563429"><ele>97.5</ele><time>2026-04-12T14:07:07.001Z</time></trkpt><trkpt lat="45.45967991129273" lon="9.488901249963904"><ele>97.33333333333334</ele><time>2026-04-12T14:07:08.001Z</time></trkpt><trkpt lat="45.45974902755997" lon="9.488826009848838"><ele>97.16666666666667</ele><time>2026-04-12T14:07:09.001Z</time></trkpt><trkpt lat="45.45981658263851" lon="9.488741052641055"><ele>97.0</ele><time>2026-04-12T14:07:10.001Z</time></trkpt><trkpt lat="45.459914314878425" lon="9.488677594091115"><ele>97.6</ele><time>2026-04-12T14:07:11.001Z</time></trkpt><trkpt lat="45.46002365523751" lon="9.488613461098202"><ele>98.19999999999999</ele><time>2026-04-12T14:07:12.001Z</time></trkpt><trkpt lat="45.46013431327174" lon="9.488536424294011"><ele>98.8</ele><time>2026-04-12T14:07:13.001Z</time></trkpt><trkpt lat="45.460219597960084" lon="9.488471558570506"><ele>99.4</ele><time>2026-04-12T14:07:14.001Z</time></trkpt><trkpt lat="45.46028905813123" lon="9.488436509166142"><ele>100.0</ele><time>2026-04-12T14:07:15.001Z</time></trkpt><trkpt lat="45.46037472226133" lon="9.488336588444096"><ele>100.0</ele><time>2026-04-12T14:07:16.001Z</time></trkpt><trkpt lat="45.46044156723482" lon="9.488229162868299"><ele>100.0</ele><time>2026-04-12T14:07:17.001Z</time></trkpt><trkpt lat="45.46049373321209" lon="9.488153754627401"><ele>100.0</ele><time>2026-04-12T14:07:18.001Z</time></trkpt><trkpt lat="45.4605682855517" lon="9.488102531542754"><ele>100.0</ele><time>2026-04-12T14:07:19Z</time></trkpt><trkpt lat="45.46067184105583" lon="9.488072040019354"><ele>100.0</ele><time>2026-04-12T14:07:20Z</time></trkpt><trkpt lat="45.460791489130685" lon="9.488042419581127"><ele>99.75</ele><time>2026-04-12T14:07:21Z</time></trkpt><trkpt lat="45.46091090506411" lon="9.488004238532632"><ele>99.5</ele><time>2026-04-12T14:07:22Z</time></trkpt><trkpt lat="45.46102333938003" lon="9.487954592064172"><ele>99.25</ele><time>2026-04-12T14:07:23Z</time></trkpt><trkpt lat="45.46114234033059" lon="9.487885421268238"><ele>99.0</ele><time>2026-04-12T14:07:24Z</time></trkpt><trkpt lat="45.461234960146854" lon="9.487820237917555"><ele>98.80000000000001</ele><time>2026-04-12T14:07:25Z</time></trkpt><trkpt lat="45.46130983796249" lon="9.487768762915701"><ele>98.60000000000001</ele><time>2026-04-12T14:07:26Z</time></trkpt><trkpt lat="45.46137965762915" lon="9.4877344959444"><ele>98.4</ele><time>2026-04-12T14:07:27Z</time></trkpt><trkpt lat="45.461501110738276" lon="9.487674585751943"><ele>98.2</ele><time>2026-04-12T14:07:29Z</time></trkpt><trkpt lat="45.46158342728242" lon="9.48756762115582"><ele>98.0</ele><time>2026-04-12T14:07:31Z</time></trkpt><trkpt lat="45.46161636885503" lon="9.487477077268919"><ele>97.99999999999999</ele><time>2026-04-12T14:07:32Z</time></trkpt><trkpt lat="45.46161786373807" lon="9.48736868994099"><ele>98.0</ele><time>2026-04-12T14:07:33Z</time></trkpt><trkpt lat="45.46161862017507" lon="9.487215821681989"><ele>98.0</ele><time>2026-04-12T14:07:35Z</time></trkpt><trkpt lat="45.4615747132824" lon="9.487141069877344"><ele>98.0</ele><time>2026-04-12T14:07:36Z</time></trkpt><trkpt lat="45.461513455095925" lon="9.487059317572562"><ele>97.99999999999999</ele><time>2026-04-12T14:07:37Z</time></trkpt><trkpt lat="45.461444885684124" lon="9.486959063555378"><ele>98.0</ele><time>2026-04-12T14:07:38Z</time></trkpt><trkpt lat="45.46137737347877" lon="9.486848377155102"><ele>98.0</ele><time>2026-04-12T14:07:39Z</time></trkpt><trkpt lat="45.4612812917451" lon="9.4867455818629"><ele>98.0</ele><time>2026-04-12T14:07:40Z</time></trkpt><trkpt lat="45.4612012457854" lon="9.486633889900146"><ele>98.0</ele><time>2026-04-12T14:07:41Z</time></trkpt><trkpt lat="45.461140994594544" lon="9.48651477707539"><ele>98.0</ele><time>2026-04-12T14:07:42Z</time></trkpt><trkpt lat="45.46108801701603" lon="9.486341335959585"><ele>98.0</ele><time>2026-04-12T14:07:43Z</time></trkpt><trkpt lat="45.461048722063026" lon="9.486138430071378"><ele>98.0</ele><time>2026-04-12T14:07:44Z</time></trkpt><trkpt lat="45.460995878352804" lon="9.485980602580453"><ele>98.0</ele><time>2026-04-12T14:07:45Z</time></trkpt><trkpt lat="45.46095028609012" lon="9.485872286291423"><ele>98.0</ele><time>2026-04-12T14:07:46Z</time></trkpt><trkpt lat="45.46089532534124" lon="9.485744281564603"><ele>98.0</ele><time>2026-04-12T14:07:48Z</time></trkpt><trkpt lat="45.46092724566736" lon="9.485626594375743"><ele>98.0</ele><time>2026-04-12T14:07:50Z</time></trkpt><trkpt lat="45.46101317681739" lon="9.485564825915693"><ele>98.0</ele><time>2026-04-12T14:07:51Z</time></trkpt><trkpt lat="45.46112790618658" lon="9.485523222601467"><ele>98.0</ele><time>2026-04-12T14:07:52Z</time></trkpt><trkpt lat="45.46121284108539" lon="9.485466700868715"><ele>98.0</ele><time>2026-04-12T14:07:53Z</time></trkpt><trkpt lat="45.46127550210303" lon="9.485359620506474"><ele>97.33333333333333</ele><time>2026-04-12T14:07:54Z</time></trkpt><trkpt lat="45.46130485761036" lon="9.485235649300929"><ele>96.66666666666666</ele><time>2026-04-12T14:07:55Z</time></trkpt><trkpt lat="45.46129766228425" lon="9.485094813589026"><ele>96.0</ele><time>2026-04-12T14:07:56Z</time></trkpt><trkpt lat="45.46127573186573" lon="9.485006594485213"><ele>95.33333333333333</ele><time>2026-04-12T14:07:57Z</time></trkpt><trkpt lat="45.46123749371906" lon="9.484920601036002"><ele>94.66666666666666</ele><time>2026-04-12T14:07:58Z</time></trkpt><trkpt lat="45.46116694019612" lon="9.484868326109781"><ele>94.0</ele><time>2026-04-12T14:07:59Z</time></trkpt><trkpt lat="45.46106750283233" lon="9.484825506967438"><ele>94.0</ele><time>2026-04-12T14:08:00Z</time></trkpt><trkpt lat="45.46095290482015" lon="9.484810623054795"><ele>94.0</ele><time>2026-04-12T14:08:01Z</time></trkpt><trkpt lat="45.46082034292656" lon="9.48482131399181"><ele>94.0</ele><time>2026-04-12T14:08:02Z</time></trkpt><trkpt lat="45.46068400942626" lon="9.484828313166927"><ele>94.0</ele><time>2026-04-12T14:08:03Z</time></trkpt><trkpt lat="45.460571975540354" lon="9.484824548074288"><ele>94.0</ele><time>2026-04-12T14:08:04Z</time></trkpt><trkpt lat="45.46046243884871" lon="9.484808157520419"><ele>94.0</ele><time>2026-04-12T14:08:05Z</time></trkpt><trkpt lat="45.460339130455516" lon="9.484781444206389"><ele>94.0</ele><time>2026-04-12T14:08:06Z</time></trkpt><trkpt lat="45.460218702940296" lon="9.484739948659062"><ele>94.0</ele><time>2026-04-12T14:08:07Z</time></trkpt><trkpt lat="45.460105836552486" lon="9.484716092449872"><ele>93.83333333333333</ele><time>2026-04-12T14:08:08Z</time></trkpt><trkpt lat="45.46000382479311" lon="9.484704534029445"><ele>93.66666666666666</ele><time>2026-04-12T14:08:09Z</time></trkpt><trkpt lat="45.45992699836663" lon="9.484679234203908"><ele>93.5</ele><time>2026-04-12T14:08:10Z</time></trkpt><trkpt lat="45.4598704262004" lon="9.484582524692598"><ele>93.33333333333333</ele><time>2026-04-12T14:08:12Z</time></trkpt><trkpt lat="45.45985275675175" lon="9.484483716696866"><ele>93.16666666666667</ele><time>2026-04-12T14:08:13Z</time></trkpt><trkpt lat="45.45985259984637" lon="9.484351267170483"><ele>93.0</ele><time>2026-04-12T14:08:14Z</time></trkpt><trkpt lat="45.45984947512705" lon="9.484204982671676"><ele>93.0</ele><time>2026-04-12T14:08:15Z</time></trkpt><trkpt lat="45.459836243431084" lon="9.484049934910658"><ele>93.0</ele><time>2026-04-12T14:08:16Z</time></trkpt><trkpt lat="45.45982241460136" lon="9.483893377716647"><ele>93.0</ele><time>2026-04-12T14:08:17Z</time></trkpt><trkpt lat="45.459798883404105" lon="9.483764859677887"><ele>93.0</ele><time>2026-04-12T14:08:18Z</time></trkpt><trkpt lat="45.45974833158281" lon="9.483654399333853"><ele>93.0</ele><time>2026-04-12T14:08:19Z</time></trkpt><trkpt lat="45.45967296817814" lon="9.483584146985038"><ele>93.5</ele><time>2026-04-12T14:08:20Z</time></trkpt><trkpt lat="45.459539026862316" lon="9.483525648631531"><ele>94.0</ele><time>2026-04-12T14:08:21Z</time></trkpt><trkpt lat="45.459395135029595" lon="9.483449028807907"><ele>94.5</ele><time>2026-04-12T14:08:22Z</time></trkpt><trkpt lat="45.45926099378792" lon="9.483349485475197"><ele>95.0</ele><time>2026-04-12T14:08:23Z</time></trkpt><trkpt lat="45.45914365789615" lon="9.483254681182315"><ele>95.0</ele><time>2026-04-12T14:08:24Z</time></trkpt><trkpt lat="45.45901940485063" lon="9.483172925943295"><ele>95.0</ele><time>2026-04-12T14:08:25Z</time></trkpt><trkpt lat="45.45892549540088" lon="9.483099749255869"><ele>95.0</ele><time>2026-04-12T14:08:26Z</time></trkpt><trkpt lat="45.45883787439794" lon="9.48302095245403"><ele>95.0</ele><time>2026-04-12T14:08:27Z</time></trkpt><trkpt lat="45.45875546393118" lon="9.482945079715398"><ele>95.0</ele><time>2026-04-12T14:08:28Z</time></trkpt><trkpt lat="45.45869643370779" lon="9.482865011647846"><ele>96.0</ele><time>2026-04-12T14:08:29Z</time></trkpt><trkpt lat="45.458645814164115" lon="9.4827914085148"><ele>97.0</ele><time>2026-04-12T14:08:30Z</time></trkpt><trkpt lat="45.45860518234596" lon="9.482716075082042"><ele>98.0</ele><time>2026-04-12T14:08:31Z</time></trkpt><trkpt lat="45.458573005985585" lon="9.48252721876886"><ele>99.0</ele><time>2026-04-12T14:08:33Z</time></trkpt><trkpt lat="45.45859926247199" lon="9.482412267562713"><ele>99.99999999999999</ele><time>2026-04-12T14:08:34Z</time></trkpt><trkpt lat="45.458618652846646" lon="9.482297656089457"><ele>101.0</ele><time>2026-04-12T14:08:35Z</time></trkpt><trkpt lat="45.45864809131467" lon="9.482191222214672"><ele>100.83333333333333</ele><time>2026-04-12T14:08:36Z</time></trkpt><trkpt lat="45.458682021348594" lon="9.482090528875288"><ele>100.66666666666666</ele><time>2026-04-12T14:08:37Z</time></trkpt><trkpt lat="45.45874072540853" lon="9.482022112839147"><ele>100.5</ele><time>2026-04-12T14:08:38Z</time></trkpt><trkpt lat="45.45881040494889" lon="9.481951337544182"><ele>100.33333333333334</ele><time>2026-04-12T14:08:39Z</time></trkpt><trkpt lat="45.45888923744416" lon="9.481898824240176"><ele>100.16666666666667</ele><time>2026-04-12T14:08:40Z</time></trkpt><trkpt lat="45.45894587176394" lon="9.481846570770372"><ele>100.0</ele><time>2026-04-12T14:08:41Z</time></trkpt><trkpt lat="45.459066765293834" lon="9.481767446558989"><ele>99.16666666666667</ele><time>2026-04-12T14:08:43Z</time></trkpt><trkpt lat="45.45913946827677" lon="9.481705433136563"><ele>98.33333333333334</ele><time>2026-04-12T14:08:44Z</time></trkpt><trkpt lat="45.45920637897562" lon="9.481658151453539"><ele>97.5</ele><time>2026-04-12T14:08:45Z</time></trkpt><trkpt lat="45.45925806273029" lon="9.481601028462276"><ele>96.66666666666667</ele><time>2026-04-12T14:08:46Z</time></trkpt><trkpt lat="45.45932699988002" lon="9.481495805570454"><ele>95.83333333333334</ele><time>2026-04-12T14:08:48Z</time></trkpt><trkpt lat="45.45939768009543" lon="9.481376466628268"><ele>95.0</ele><time>2026-04-12T14:08:50Z</time></trkpt><trkpt lat="45.45944734973089" lon="9.481266772075994"><ele>94.8</ele><time>2026-04-12T14:08:52Z</time></trkpt><trkpt lat="45.45945948307373" lon="9.481135187632656"><ele>94.6</ele><time>2026-04-12T14:08:54Z</time></trkpt><trkpt lat="45.45944501826207" lon="9.480994373965405"><ele>94.4</ele><time>2026-04-12T14:08:56Z</time></trkpt><trkpt lat="45.459424922513755" lon="9.48082765957764"><ele>94.2</ele><time>2026-04-12T14:08:58Z</time></trkpt><trkpt lat="45.4593946916127" lon="9.480666036600716"><ele>94.0</ele><time>2026-04-12T14:09:00Z</time></trkpt><trkpt lat="45.45935573489928" lon="9.480493194143428"><ele>94.5</ele><time>2026-04-12T14:09:02.001Z</time></trkpt><trkpt lat="45.4593237989192" lon="9.480403939353558"><ele>95.0</ele><time>2026-04-12T14:09:03.001Z</time></trkpt><trkpt lat="45.45930325261311" lon="9.48029886330824"><ele>95.5</ele><time>2026-04-12T14:09:04.001Z</time></trkpt><trkpt lat="45.45928164057849" lon="9.480199893859472"><ele>96.0</ele><time>2026-04-12T14:09:05.001Z</time></trkpt><trkpt lat="45.45925607995762" lon="9.48007266772482"><ele>96.50000000000001</ele><time>2026-04-12T14:09:06.001Z</time></trkpt><trkpt lat="45.459222291588546" lon="9.479932954331534"><ele>97.0</ele><time>2026-04-12T14:09:07.001Z</time></trkpt><trkpt lat="45.45919905233866" lon="9.479825827683905"><ele>97.00000000000001</ele><time>2026-04-12T14:09:08.001Z</time></trkpt><trkpt lat="45.45917857096604" lon="9.479728724170975"><ele>97.0</ele><time>2026-04-12T14:09:09.001Z</time></trkpt><trkpt lat="45.45915396034094" lon="9.479634544670708"><ele>97.0</ele><time>2026-04-12T14:09:10.001Z</time></trkpt><trkpt lat="45.4591301398732" lon="9.479543570383187"><ele>97.0</ele><time>2026-04-12T14:09:11.001Z</time></trkpt><trkpt lat="45.45910652886342" lon="9.479453773570047"><ele>97.00000000000001</ele><time>2026-04-12T14:09:12.001Z</time></trkpt><trkpt lat="45.45906100869711" lon="9.479261193564849"><ele>97.0</ele><time>2026-04-12T14:09:14.001Z</time></trkpt><trkpt lat="45.45904013494776" lon="9.479160660815785"><ele>97.19999999999999</ele><time>2026-04-12T14:09:15.001Z</time></trkpt><trkpt lat="45.459001261285195" lon="9.479018294672006"><ele>97.4</ele><time>2026-04-12T14:09:17.001Z</time></trkpt><trkpt lat="45.45895672064774" lon="9.478867899923527"><ele>97.6</ele><time>2026-04-12T14:09:19.001Z</time></trkpt><trkpt lat="45.45893382225921" lon="9.478720120627285"><ele>97.80000000000001</ele><time>2026-04-12T14:09:21.001Z</time></trkpt><trkpt lat="45.458908616916865" lon="9.478601428447856"><ele>98.0</ele><time>2026-04-12T14:09:23.001Z</time></trkpt><trkpt lat="45.458867599059154" lon="9.478433206337417"><ele>97.49999999999999</ele><time>2026-04-12T14:09:25Z</time></trkpt><trkpt lat="45.45884547093847" lon="9.478316221053554"><ele>97.0</ele><time>2026-04-12T14:09:26Z</time></trkpt><trkpt lat="45.458826583511645" lon="9.478208143415651"><ele>96.5</ele><time>2026-04-12T14:09:27Z</time></trkpt><trkpt lat="45.458803847259446" lon="9.478112477336953"><ele>96.0</ele><time>2026-04-12T14:09:28Z</time></trkpt><trkpt lat="45.45878354640485" lon="9.478004876117991"><ele>95.5</ele><time>2026-04-12T14:09:29Z</time></trkpt><trkpt lat="45.45875537946402" lon="9.477891888586514"><ele>95.0</ele><time>2026-04-12T14:09:30Z</time></trkpt><trkpt lat="45.45872672007895" lon="9.477735412712159"><ele>94.25</ele><time>2026-04-12T14:09:31Z</time></trkpt><trkpt lat="45.45869545884728" lon="9.477586242392954"><ele>93.5</ele><time>2026-04-12T14:09:32Z</time></trkpt><trkpt lat="45.45865822121362" lon="9.477428212104218"><ele>92.75</ele><time>2026-04-12T14:09:33Z</time></trkpt><trkpt lat="45.45862257495417" lon="9.47725213385419"><ele>92.0</ele><time>2026-04-12T14:09:34Z</time></trkpt><trkpt lat="45.45858677189002" lon="9.477112890067353"><ele>92.0</ele><time>2026-04-12T14:09:35Z</time></trkpt><trkpt lat="45.45856429233876" lon="9.476999489346753"><ele>92.0</ele><time>2026-04-12T14:09:36Z</time></trkpt><trkpt lat="45.458544688915225" lon="9.476908536027603"><ele>92.0</ele><time>2026-04-12T14:09:37Z</time></trkpt><trkpt lat="45.45847741814405" lon="9.476813215957971"><ele>92.0</ele><time>2026-04-12T14:09:39Z</time></trkpt><trkpt lat="45.45841193042835" lon="9.476804684625893"><ele>92.0</ele><time>2026-04-12T14:09:40Z</time></trkpt><trkpt lat="45.45831220153555" lon="9.476842764892144"><ele>92.0</ele><time>2026-04-12T14:09:41Z</time></trkpt><trkpt lat="45.45819950798825" lon="9.4768672929719"><ele>92.0</ele><time>2026-04-12T14:09:42Z</time></trkpt><trkpt lat="45.45806532520446" lon="9.47690554739132"><ele>92.0</ele><time>2026-04-12T14:09:43Z</time></trkpt><trkpt lat="45.45790268309146" lon="9.476921624059488"><ele>92.0</ele><time>2026-04-12T14:09:44Z</time></trkpt><trkpt lat="45.45771725555126" lon="9.476940453702099"><ele>92.0</ele><time>2026-04-12T14:09:45Z</time></trkpt><trkpt lat="45.45753025626764" lon="9.476986130363162"><ele>92.0</ele><time>2026-04-12T14:09:46Z</time></trkpt><trkpt lat="45.457330256500526" lon="9.477044731270292"><ele>92.0</ele><time>2026-04-12T14:09:47Z</time></trkpt><trkpt lat="45.4571429827089" lon="9.477069061780206"><ele>92.25</ele><time>2026-04-12T14:09:48Z</time></trkpt><trkpt lat="45.456983555097814" lon="9.477096623228382"><ele>92.5</ele><time>2026-04-12T14:09:49Z</time></trkpt><trkpt lat="45.45684399718778" lon="9.477122320820657"><ele>92.75</ele><time>2026-04-12T14:09:50Z</time></trkpt><trkpt lat="45.45670029464326" lon="9.47715068990122"><ele>93.0</ele><time>2026-04-12T14:09:51Z</time></trkpt><trkpt lat="45.45656321560031" lon="9.477166736844827"><ele>93.0</ele><time>2026-04-12T14:09:52Z</time></trkpt><trkpt lat="45.45641824031047" lon="9.477200170650997"><ele>93.0</ele><time>2026-04-12T14:09:53Z</time></trkpt><trkpt lat="45.456256430671736" lon="9.477239557276365"><ele>93.0</ele><time>2026-04-12T14:09:54Z</time></trkpt><trkpt lat="45.4561058656812" lon="9.477274691546102"><ele>93.0</ele><time>2026-04-12T14:09:55Z</time></trkpt><trkpt lat="45.45597503641583" lon="9.477291318334485"><ele>93.0</ele><time>2026-04-12T14:09:56Z</time></trkpt><trkpt lat="45.4558574646207" lon="9.477314333403331"><ele>93.0</ele><time>2026-04-12T14:09:57Z</time></trkpt><trkpt lat="45.45573144692398" lon="9.47732124731345"><ele>93.0</ele><time>2026-04-12T14:09:58Z</time></trkpt><trkpt lat="45.455599053211294" lon="9.477368464943035"><ele>93.0</ele><time>2026-04-12T14:09:59Z</time></trkpt><trkpt lat="45.45545633838956" lon="9.477402899814656"><ele>93.0</ele><time>2026-04-12T14:10:00Z</time></trkpt><trkpt lat="45.45530747004471" lon="9.47743850640389"><ele>93.0</ele><time>2026-04-12T14:10:01Z</time></trkpt><trkpt lat="45.45517300798125" lon="9.477464360859875"><ele>93.0</ele><time>2026-04-12T14:10:02Z</time></trkpt><trkpt lat="45.45505857741229" lon="9.477477721640668"><ele>93.2</ele><time>2026-04-12T14:10:03Z</time></trkpt><trkpt lat="45.45494463448843" lon="9.477502115724418"><ele>93.4</ele><time>2026-04-12T14:10:04Z</time></trkpt><trkpt lat="45.454852002736956" lon="9.477528754373926"><ele>93.60000000000001</ele><time>2026-04-12T14:10:05Z</time></trkpt><trkpt lat="45.45477272063202" lon="9.47753509646955"><ele>93.80000000000001</ele><time>2026-04-12T14:10:07Z</time></trkpt><trkpt lat="45.454753132187555" lon="9.477443033831557"><ele>94.0</ele><time>2026-04-12T14:10:09Z</time></trkpt><trkpt lat="45.45476419208003" lon="9.477309199505124"><ele>94.0</ele><time>2026-04-12T14:10:10Z</time></trkpt><trkpt lat="45.45479506470903" lon="9.47713221918466"><ele>94.0</ele><time>2026-04-12T14:10:11Z</time></trkpt><trkpt lat="45.454806790993" lon="9.47692522371816"><ele>94.0</ele><time>2026-04-12T14:10:12Z</time></trkpt><trkpt lat="45.45481660028227" lon="9.476696417377019"><ele>94.0</ele><time>2026-04-12T14:10:13Z</time></trkpt><trkpt lat="45.454828721569754" lon="9.476473643566615"><ele>94.0</ele><time>2026-04-12T14:10:14Z</time></trkpt><trkpt lat="45.45484312214337" lon="9.476274130663688"><ele>94.0</ele><time>2026-04-12T14:10:15Z</time></trkpt><trkpt lat="45.45485758568184" lon="9.476074318928662"><ele>94.0</ele><time>2026-04-12T14:10:16Z</time></trkpt><trkpt lat="45.45486670658651" lon="9.475887576028947"><ele>94.0</ele><time>2026-04-12T14:10:17Z</time></trkpt><trkpt lat="45.45487932691707" lon="9.47570169747743"><ele>94.0</ele><time>2026-04-12T14:10:18Z</time></trkpt><trkpt lat="45.45489015845946" lon="9.475521284136475"><ele>94.0</ele><time>2026-04-12T14:10:19Z</time></trkpt><trkpt lat="45.45490561402188" lon="9.475344626325699"><ele>94.0</ele><time>2026-04-12T14:10:20Z</time></trkpt><trkpt lat="45.45491634834179" lon="9.475178915074375"><ele>94.0</ele><time>2026-04-12T14:10:21Z</time></trkpt><trkpt lat="45.45492754985328" lon="9.475022545778568"><ele>93.80000000000001</ele><time>2026-04-12T14:10:22Z</time></trkpt><trkpt lat="45.45493816939887" lon="9.474878412977164"><ele>93.60000000000001</ele><time>2026-04-12T14:10:23Z</time></trkpt><trkpt lat="45.45494536943969" lon="9.47473935842579"><ele>93.4</ele><time>2026-04-12T14:10:24Z</time></trkpt><trkpt lat="45.45494953554955" lon="9.474608483438532"><ele>93.2</ele><time>2026-04-12T14:10:25Z</time></trkpt><trkpt lat="45.45497651976054" lon="9.474496903148568"><ele>93.0</ele><time>2026-04-12T14:10:26Z</time></trkpt><trkpt lat="45.45504021725218" lon="9.474416605529573"><ele>93.25</ele><time>2026-04-12T14:10:27Z</time></trkpt><trkpt lat="45.45513004880678" lon="9.474379023254432"><ele>93.5</ele><time>2026-04-12T14:10:28Z</time></trkpt><trkpt lat="45.45524996048907" lon="9.474394152209852"><ele>93.75</ele><time>2026-04-12T14:10:29Z</time></trkpt><trkpt lat="45.455379097915085" lon="9.474350911925162"><ele>94.0</ele><time>2026-04-12T14:10:30Z</time></trkpt><trkpt lat="45.45549705434733" lon="9.474275770052696"><ele>94.0</ele><time>2026-04-12T14:10:31Z</time></trkpt><trkpt lat="45.455604938533014" lon="9.474157513941531"><ele>94.0</ele><time>2026-04-12T14:10:32Z</time></trkpt><trkpt lat="45.455722789544645" lon="9.4740068029344"><ele>94.0</ele><time>2026-04-12T14:10:33Z</time></trkpt><trkpt lat="45.45580785381211" lon="9.473888205922027"><ele>94.0</ele><time>2026-04-12T14:10:34Z</time></trkpt><trkpt lat="45.45587408061247" lon="9.47377334016998"><ele>94.5</ele><time>2026-04-12T14:10:35Z</time></trkpt><trkpt lat="45.45594282705072" lon="9.473687246074329"><ele>95.0</ele><time>2026-04-12T14:10:36Z</time></trkpt><trkpt lat="45.45602258802139" lon="9.47361414168912"><ele>95.5</ele><time>2026-04-12T14:10:37Z</time></trkpt><trkpt lat="45.456075316748326" lon="9.473521552848224"><ele>96.0</ele><time>2026-04-12T14:10:38Z</time></trkpt><trkpt lat="45.456120725404915" lon="9.473441950486079"><ele>96.50000000000001</ele><time>2026-04-12T14:10:39Z</time></trkpt><trkpt lat="45.45615080927681" lon="9.4733541963231"><ele>97.0</ele><time>2026-04-12T14:10:40Z</time></trkpt><trkpt lat="45.45614846534195" lon="9.473243273542153"><ele>97.00000000000001</ele><time>2026-04-12T14:10:41Z</time></trkpt><trkpt lat="45.45613406650641" lon="9.473149746624214"><ele>97.0</ele><time>2026-04-12T14:10:42Z</time></trkpt><trkpt lat="45.45610676535436" lon="9.473007024221186"><ele>97.0</ele><time>2026-04-12T14:10:44Z</time></trkpt><trkpt lat="45.456088615934306" lon="9.472899728350727"><ele>97.0</ele><time>2026-04-12T14:10:46Z</time></trkpt><trkpt lat="45.45607470345938" lon="9.472809599335035"><ele>97.00000000000001</ele><time>2026-04-12T14:10:48Z</time></trkpt><trkpt lat="45.456081523908416" lon="9.472708207838757"><ele>97.0</ele><time>2026-04-12T14:13:18Z</time></trkpt><trkpt lat="45.45596954284387" lon="9.4726788693662"><ele>97.19999999999999</ele><time>2026-04-12T14:13:20Z</time></trkpt><trkpt lat="45.455886263137884" lon="9.47268898844436"><ele>97.4</ele><time>2026-04-12T14:13:21Z</time></trkpt><trkpt lat="45.45579238071668" lon="9.472699992571721"><ele>97.6</ele><time>2026-04-12T14:13:22Z</time></trkpt><trkpt lat="45.455690490004876" lon="9.472694387354977"><ele>97.80000000000001</ele><time>2026-04-12T14:13:23Z</time></trkpt><trkpt lat="45.455582483755016" lon="9.472691871470953"><ele>98.0</ele><time>2026-04-12T14:13:24Z</time></trkpt><trkpt lat="45.455481673110235" lon="9.472686448306439"><ele>97.80000000000001</ele><time>2026-04-12T14:13:25Z</time></trkpt><trkpt lat="45.45538463657053" lon="9.472682937402837"><ele>97.6</ele><time>2026-04-12T14:13:26Z</time></trkpt><trkpt lat="45.45528833840891" lon="9.472678105225302"><ele>97.4</ele><time>2026-04-12T14:13:27Z</time></trkpt><trkpt lat="45.4551946033633" lon="9.472669938922621"><ele>97.19999999999999</ele><time>2026-04-12T14:13:28Z</time></trkpt><trkpt lat="45.455104442097415" lon="9.472664278812456"><ele>97.0</ele><time>2026-04-12T14:13:29Z</time></trkpt><trkpt lat="45.455013520662085" lon="9.472662176017176"><ele>97.00000000000001</ele><time>2026-04-12T14:13:30Z</time></trkpt><trkpt lat="45.45492534250357" lon="9.472660592832101"><ele>97.0</ele><time>2026-04-12T14:13:31Z</time></trkpt><trkpt lat="45.454838735463966" lon="9.472660602468629"><ele>97.0</ele><time>2026-04-12T14:13:32Z</time></trkpt><trkpt lat="45.45475664920161" lon="9.472655651803528"><ele>97.0</ele><time>2026-04-12T14:13:33Z</time></trkpt><trkpt lat="45.454671256258834" lon="9.472647515182393"><ele>97.00000000000001</ele><time>2026-04-12T14:13:34Z</time></trkpt><trkpt lat="45.45457871375147" lon="9.472645479053531"><ele>97.0</ele><time>2026-04-12T14:13:35Z</time></trkpt><trkpt lat="45.45449782916526" lon="9.472647533067766"><ele>97.33333333333334</ele><time>2026-04-12T14:13:36Z</time></trkpt><trkpt lat="45.45442241008785" lon="9.472611714026431"><ele>97.66666666666667</ele><time>2026-04-12T14:13:37Z</time></trkpt><trkpt lat="45.454351586460476" lon="9.472573878134734"><ele>98.0</ele><time>2026-04-12T14:13:38Z</time></trkpt><trkpt lat="45.45429129342257" lon="9.472497867456374"><ele>98.33333333333334</ele><time>2026-04-12T14:13:39Z</time></trkpt><trkpt lat="45.4542727911309" lon="9.472366153861786"><ele>98.66666666666667</ele><time>2026-04-12T14:13:40Z</time></trkpt><trkpt lat="45.454254672971224" lon="9.472233400064638"><ele>99.0</ele><time>2026-04-12T14:13:41Z</time></trkpt><trkpt lat="45.45422865482673" lon="9.472105273287928"><ele>99.0</ele><time>2026-04-12T14:13:42Z</time></trkpt><trkpt lat="45.454184682323756" lon="9.471977784690406"><ele>99.0</ele><time>2026-04-12T14:13:43Z</time></trkpt><trkpt lat="45.45415995928575" lon="9.471844946078637"><ele>99.0</ele><time>2026-04-12T14:13:44Z</time></trkpt><trkpt lat="45.45412982193508" lon="9.471707818920308"><ele>99.0</ele><time>2026-04-12T14:13:45Z</time></trkpt><trkpt lat="45.45409857470391" lon="9.471566625676992"><ele>99.0</ele><time>2026-04-12T14:13:46Z</time></trkpt><trkpt lat="45.454066268168944" lon="9.471425596143218"><ele>99.0</ele><time>2026-04-12T14:13:47Z</time></trkpt><trkpt lat="45.454030097622486" lon="9.471281423387522"><ele>99.0</ele><time>2026-04-12T14:13:48Z</time></trkpt><trkpt lat="45.453990717853216" lon="9.471131994251284"><ele>99.0</ele><time>2026-04-12T14:13:49Z</time></trkpt><trkpt lat="45.453956324689244" lon="9.470980339226957"><ele>99.0</ele><time>2026-04-12T14:13:50Z</time></trkpt><trkpt lat="45.45392560700052" lon="9.470834856054758"><ele>99.0</ele><time>2026-04-12T14:13:51Z</time></trkpt><trkpt lat="45.45389663448742" lon="9.470692609529362"><ele>99.0</ele><time>2026-04-12T14:13:52Z</time></trkpt><trkpt lat="45.453864509921424" lon="9.470553133618093"><ele>99.0</ele><time>2026-04-12T14:13:53Z</time></trkpt><trkpt lat="45.453831365172626" lon="9.47041099078284"><ele>99.0</ele><time>2026-04-12T14:13:54Z</time></trkpt><trkpt lat="45.453794856581894" lon="9.470265618535661"><ele>99.0</ele><time>2026-04-12T14:13:55Z</time></trkpt><trkpt lat="45.453766354369925" lon="9.470125142324626"><ele>99.0</ele><time>2026-04-12T14:13:56Z</time></trkpt><trkpt lat="45.45372954320212" lon="9.469978289127837"><ele>99.0</ele><time>2026-04-12T14:13:57Z</time></trkpt><trkpt lat="45.45369461677531" lon="9.469844756459072"><ele>99.0</ele><time>2026-04-12T14:13:58Z</time></trkpt><trkpt lat="45.45366238270935" lon="9.46970356492077"><ele>99.0</ele><time>2026-04-12T14:13:59Z</time></trkpt><trkpt lat="45.453627500657916" lon="9.469561840253405"><ele>99.0</ele><time>2026-04-12T14:14:00Z</time></trkpt><trkpt lat="45.45359636893643" lon="9.469419050802045"><ele>99.0</ele><time>2026-04-12T14:14:01Z</time></trkpt><trkpt lat="45.453564543769204" lon="9.46926966656815"><ele>98.6</ele><time>2026-04-12T14:14:02Z</time></trkpt><trkpt lat="45.453527807208566" lon="9.469118981154582"><ele>98.2</ele><time>2026-04-12T14:14:03Z</time></trkpt><trkpt lat="45.453499642554206" lon="9.468983530034507"><ele>97.8</ele><time>2026-04-12T14:14:04Z</time></trkpt><trkpt lat="45.45347090935338" lon="9.4688561664477"><ele>97.39999999999999</ele><time>2026-04-12T14:14:05Z</time></trkpt><trkpt lat="45.45344441882086" lon="9.468731523047985"><ele>97.0</ele><time>2026-04-12T14:14:06Z</time></trkpt><trkpt lat="45.45341619740763" lon="9.468606344105106"><ele>96.39999999999999</ele><time>2026-04-12T14:14:07Z</time></trkpt><trkpt lat="45.45338772997551" lon="9.468483976915739"><ele>95.8</ele><time>2026-04-12T14:14:08Z</time></trkpt><trkpt lat="45.45335150283377" lon="9.468365635367919"><ele>95.2</ele><time>2026-04-12T14:14:09Z</time></trkpt><trkpt lat="45.45330816172753" lon="9.468256024116023"><ele>94.6</ele><time>2026-04-12T14:14:10Z</time></trkpt><trkpt lat="45.453214791526264" lon="9.468195651019652"><ele>94.0</ele><time>2026-04-12T14:14:11Z</time></trkpt><trkpt lat="45.45310370627806" lon="9.468177860260992"><ele>94.0</ele><time>2026-04-12T14:14:12Z</time></trkpt><trkpt lat="45.45299528594835" lon="9.468166492327681"><ele>94.0</ele><time>2026-04-12T14:14:13Z</time></trkpt><trkpt lat="45.45289085503721" lon="9.468155304585158"><ele>94.0</ele><time>2026-04-12T14:14:14Z</time></trkpt><trkpt lat="45.45278725725244" lon="9.468143932620078"><ele>94.0</ele><time>2026-04-12T14:14:15Z</time></trkpt><trkpt lat="45.45268295068007" lon="9.468155070272003"><ele>94.0</ele><time>2026-04-12T14:14:16Z</time></trkpt><trkpt lat="45.45258019300753" lon="9.468121203100411"><ele>93.75</ele><time>2026-04-12T14:14:17Z</time></trkpt><trkpt lat="45.45247699744714" lon="9.468109875303075"><ele>93.5</ele><time>2026-04-12T14:14:18Z</time></trkpt><trkpt lat="45.45236761153815" lon="9.468115121352893"><ele>93.25</ele><time>2026-04-12T14:14:19Z</time></trkpt><trkpt lat="45.452250568591914" lon="9.468100308345123"><ele>93.0</ele><time>2026-04-12T14:14:20Z</time></trkpt><trkpt lat="45.45212840400715" lon="9.468071396412855"><ele>92.75</ele><time>2026-04-12T14:14:21Z</time></trkpt><trkpt lat="45.452012510612185" lon="9.46805859140893"><ele>92.5</ele><time>2026-04-12T14:14:22Z</time></trkpt><trkpt lat="45.451902402249914" lon="9.46804642558698"><ele>92.25</ele><time>2026-04-12T14:14:23Z</time></trkpt><trkpt lat="45.451782221620995" lon="9.468033146908581"><ele>92.0</ele><time>2026-04-12T14:14:24Z</time></trkpt><trkpt lat="45.45166853267141" lon="9.46802102334636"><ele>92.0</ele><time>2026-04-12T14:14:25Z</time></trkpt><trkpt lat="45.45155400813834" lon="9.468008811678281"><ele>92.0</ele><time>2026-04-12T14:14:26Z</time></trkpt><trkpt lat="45.451439092209974" lon="9.467996558282618"><ele>92.0</ele><time>2026-04-12T14:14:27Z</time></trkpt><trkpt lat="45.4513228904298" lon="9.46798416776663"><ele>92.0</ele><time>2026-04-12T14:14:28Z</time></trkpt><trkpt lat="45.45120917951579" lon="9.467972042865563"><ele>92.0</ele><time>2026-04-12T14:14:29Z</time></trkpt><trkpt lat="45.45109521943339" lon="9.467959891378737"><ele>92.0</ele><time>2026-04-12T14:14:30Z</time></trkpt><trkpt lat="45.45098009732407" lon="9.467947616004198"><ele>92.0</ele><time>2026-04-12T14:14:31Z</time></trkpt><trkpt lat="45.45086117824468" lon="9.467934525045784"><ele>92.0</ele><time>2026-04-12T14:14:32Z</time></trkpt><trkpt lat="45.45074330815811" lon="9.467921217601793"><ele>92.0</ele><time>2026-04-12T14:14:33Z</time></trkpt><trkpt lat="45.450624587377185" lon="9.467907814149942"><ele>92.0</ele><time>2026-04-12T14:14:34Z</time></trkpt><trkpt lat="45.45051101099135" lon="9.467894796257976"><ele>92.0</ele><time>2026-04-12T14:14:35Z</time></trkpt><trkpt lat="45.45039446911687" lon="9.467880700889959"><ele>92.0</ele><time>2026-04-12T14:14:36Z</time></trkpt><trkpt lat="45.45028441355727" lon="9.46786738998326"><ele>92.0</ele><time>2026-04-12T14:14:37Z</time></trkpt><trkpt lat="45.45017253620246" lon="9.467853858793008"><ele>92.0</ele><time>2026-04-12T14:14:38Z</time></trkpt><trkpt lat="45.45006255686539" lon="9.467840920144447"><ele>92.0</ele><time>2026-04-12T14:14:39Z</time></trkpt><trkpt lat="45.44995090464023" lon="9.467830659557741"><ele>92.0</ele><time>2026-04-12T14:14:40Z</time></trkpt><trkpt lat="45.4498336503686" lon="9.467821231535954"><ele>92.0</ele><time>2026-04-12T14:14:41Z</time></trkpt><trkpt lat="45.44972070671954" lon="9.467813875829739"><ele>92.0</ele><time>2026-04-12T14:14:42Z</time></trkpt><trkpt lat="45.44960986502824" lon="9.46780695327093"><ele>92.0</ele><time>2026-04-12T14:14:43Z</time></trkpt><trkpt lat="45.44949171672897" lon="9.467799574372348"><ele>92.0</ele><time>2026-04-12T14:14:44Z</time></trkpt><trkpt lat="45.44936869274571" lon="9.467791890992284"><ele>92.0</ele><time>2026-04-12T14:14:45Z</time></trkpt><trkpt lat="45.449266326487816" lon="9.467785497746998"><ele>92.0</ele><time>2026-04-12T14:14:46Z</time></trkpt><trkpt lat="45.44913268127254" lon="9.467777190271494"><ele>92.0</ele><time>2026-04-12T14:14:47Z</time></trkpt><trkpt lat="45.44899661492151" lon="9.467766762371213"><ele>92.0</ele><time>2026-04-12T14:14:48Z</time></trkpt><trkpt lat="45.448876484284376" lon="9.467757555789417"><ele>91.75</ele><time>2026-04-12T14:14:49Z</time></trkpt><trkpt lat="45.44875966794345" lon="9.467748774324054"><ele>91.5</ele><time>2026-04-12T14:14:50Z</time></trkpt><trkpt lat="45.44862406858095" lon="9.467739585966832"><ele>91.25</ele><time>2026-04-12T14:14:51Z</time></trkpt><trkpt lat="45.44848851442923" lon="9.467730400690895"><ele>91.0</ele><time>2026-04-12T14:14:52Z</time></trkpt><trkpt lat="45.44834759884656" lon="9.467720852125659"><ele>91.0</ele><time>2026-04-12T14:14:53Z</time></trkpt><trkpt lat="45.448203280521625" lon="9.467710805068846"><ele>91.0</ele><time>2026-04-12T14:14:54Z</time></trkpt><trkpt lat="45.44806323129615" lon="9.467700859118876"><ele>91.0</ele><time>2026-04-12T14:14:55Z</time></trkpt><trkpt lat="45.447927341542645" lon="9.467690352030749"><ele>91.0</ele><time>2026-04-12T14:14:56Z</time></trkpt><trkpt lat="45.44779072156527" lon="9.467679479022548"><ele>91.0</ele><time>2026-04-12T14:14:57Z</time></trkpt><trkpt lat="45.44765728786949" lon="9.467668200082674"><ele>91.0</ele><time>2026-04-12T14:14:58Z</time></trkpt><trkpt lat="45.447519879445224" lon="9.467656585151367"><ele>91.0</ele><time>2026-04-12T14:14:59Z</time></trkpt><trkpt lat="45.447387165074275" lon="9.467645367028712"><ele>91.0</ele><time>2026-04-12T14:15:00Z</time></trkpt><trkpt lat="45.44724844171757" lon="9.467634857403736"><ele>91.0</ele><time>2026-04-12T14:15:01Z</time></trkpt><trkpt lat="45.447114742147015" lon="9.46762485930985"><ele>91.0</ele><time>2026-04-12T14:15:02Z</time></trkpt><trkpt lat="45.446987164421174" lon="9.467615318991657"><ele>91.0</ele><time>2026-04-12T14:15:03Z</time></trkpt><trkpt lat="45.44686864498332" lon="9.467606456191424"><ele>91.0</ele><time>2026-04-12T14:15:04Z</time></trkpt><trkpt lat="45.44675581360763" lon="9.46759909719341"><ele>91.0</ele><time>2026-04-12T14:15:05Z</time></trkpt><trkpt lat="45.44663865487495" lon="9.46759117515388"><ele>91.0</ele><time>2026-04-12T14:15:06Z</time></trkpt><trkpt lat="45.446519473793934" lon="9.467589489045855"><ele>91.0</ele><time>2026-04-12T14:15:07Z</time></trkpt><trkpt lat="45.44641724469485" lon="9.467586961606719"><ele>91.0</ele><time>2026-04-12T14:15:08Z</time></trkpt><trkpt lat="45.44631430878416" lon="9.467577424694188"><ele>91.0</ele><time>2026-04-12T14:15:09Z</time></trkpt><trkpt lat="45.44621756244399" lon="9.467547849375626"><ele>91.4</ele><time>2026-04-12T14:15:10Z</time></trkpt><trkpt lat="45.44613345823361" lon="9.467484947667202"><ele>91.8</ele><time>2026-04-12T14:15:11Z</time></trkpt><trkpt lat="45.446064599237275" lon="9.467392064666292"><ele>92.2</ele><time>2026-04-12T14:15:12Z</time></trkpt><trkpt lat="45.44598542958267" lon="9.467293354530442"><ele>92.60000000000001</ele><time>2026-04-12T14:15:13Z</time></trkpt><trkpt lat="45.44591021532972" lon="9.467185809524253"><ele>93.0</ele><time>2026-04-12T14:15:14Z</time></trkpt><trkpt lat="45.44583405888993" lon="9.467076020222962"><ele>93.0</ele><time>2026-04-12T14:15:15Z</time></trkpt><trkpt lat="45.44575758761569" lon="9.466965958268517"><ele>93.0</ele><time>2026-04-12T14:15:16Z</time></trkpt><trkpt lat="45.44568082724808" lon="9.46685566306706"><ele>93.0</ele><time>2026-04-12T14:15:17Z</time></trkpt><trkpt lat="45.44561454405894" lon="9.466745313300745"><ele>93.0</ele><time>2026-04-12T14:15:18Z</time></trkpt><trkpt lat="45.44555068408794" lon="9.466623642740984"><ele>93.0</ele><time>2026-04-12T14:15:19Z</time></trkpt><trkpt lat="45.44551823317809" lon="9.466487029936664"><ele>93.0</ele><time>2026-04-12T14:15:20Z</time></trkpt><trkpt lat="45.44551300034586" lon="9.466343923660107"><ele>93.0</ele><time>2026-04-12T14:15:21Z</time></trkpt><trkpt lat="45.44551663316944" lon="9.46619215103793"><ele>93.0</ele><time>2026-04-12T14:15:22Z</time></trkpt><trkpt lat="45.44551940617899" lon="9.466038467526564"><ele>93.0</ele><time>2026-04-12T14:15:23Z</time></trkpt><trkpt lat="45.44550911133252" lon="9.465886726558661"><ele>93.0</ele><time>2026-04-12T14:15:24Z</time></trkpt><trkpt lat="45.44550816215805" lon="9.465752435942049"><ele>93.60000000000001</ele><time>2026-04-12T14:15:25Z</time></trkpt><trkpt lat="45.44551345787168" lon="9.465628326661243"><ele>94.2</ele><time>2026-04-12T14:15:26Z</time></trkpt><trkpt lat="45.44551086215239" lon="9.465503204393587"><ele>94.8</ele><time>2026-04-12T14:15:27Z</time></trkpt><trkpt lat="45.44553028614326" lon="9.465369368388844"><ele>95.4</ele><time>2026-04-12T14:15:28Z</time></trkpt><trkpt lat="45.445553210832266" lon="9.465230190541247"><ele>96.0</ele><time>2026-04-12T14:15:29Z</time></trkpt><trkpt lat="45.44558173102129" lon="9.465088867203836"><ele>96.19999999999999</ele><time>2026-04-12T14:15:30Z</time></trkpt><trkpt lat="45.44561267000139" lon="9.46494415443709"><ele>96.39999999999999</ele><time>2026-04-12T14:15:31Z</time></trkpt><trkpt lat="45.44564051226138" lon="9.46479569373192"><ele>96.6</ele><time>2026-04-12T14:15:32Z</time></trkpt><trkpt lat="45.44565285048786" lon="9.46464278316017"><ele>96.8</ele><time>2026-04-12T14:15:33Z</time></trkpt><trkpt lat="45.445682249192615" lon="9.464500900742642"><ele>97.0</ele><time>2026-04-12T14:15:34Z</time></trkpt><trkpt lat="45.44569480929501" lon="9.464356897245302"><ele>97.0</ele><time>2026-04-12T14:15:35Z</time></trkpt><trkpt lat="45.44570663661737" lon="9.464214821809566"><ele>97.0</ele><time>2026-04-12T14:15:36Z</time></trkpt><trkpt lat="45.44573628500412" lon="9.464082218476328"><ele>97.0</ele><time>2026-04-12T14:15:37Z</time></trkpt><trkpt lat="45.4457532317202" lon="9.463952625806982"><ele>97.0</ele><time>2026-04-12T14:15:38Z</time></trkpt><trkpt lat="45.445755183910144" lon="9.463831430464806"><ele>97.0</ele><time>2026-04-12T14:15:39Z</time></trkpt><trkpt lat="45.44575783928132" lon="9.46371692527913"><ele>96.8</ele><time>2026-04-12T14:15:40Z</time></trkpt><trkpt lat="45.445723433818785" lon="9.463609152948163"><ele>96.6</ele><time>2026-04-12T14:15:41Z</time></trkpt><trkpt lat="45.44567684177626" lon="9.463511124304114"><ele>96.39999999999999</ele><time>2026-04-12T14:15:42Z</time></trkpt><trkpt lat="45.44556810237945" lon="9.46349694738403"><ele>96.19999999999999</ele><time>2026-04-12T14:15:43Z</time></trkpt><trkpt lat="45.44547917859503" lon="9.463452087233604"><ele>96.0</ele><time>2026-04-12T14:15:44Z</time></trkpt><trkpt lat="45.445376645525855" lon="9.463441190104904"><ele>96.0</ele><time>2026-04-12T14:15:45Z</time></trkpt><trkpt lat="45.44527756597053" lon="9.46346987386849"><ele>96.0</ele><time>2026-04-12T14:15:46Z</time></trkpt><trkpt lat="45.44517323520699" lon="9.463472087261454"><ele>96.0</ele><time>2026-04-12T14:15:47Z</time></trkpt><trkpt lat="45.44507288054178" lon="9.46346552670622"><ele>96.0</ele><time>2026-04-12T14:15:48Z</time></trkpt><trkpt lat="45.44497012663832" lon="9.463470993744322"><ele>96.0</ele><time>2026-04-12T14:15:49Z</time></trkpt><trkpt lat="45.44487205073357" lon="9.463494157163716"><ele>96.0</ele><time>2026-04-12T14:15:50Z</time></trkpt><trkpt lat="45.44477013644547" lon="9.46348884895354"><ele>96.0</ele><time>2026-04-12T14:15:51Z</time></trkpt><trkpt lat="45.44467329565461" lon="9.46344992870792"><ele>96.0</ele><time>2026-04-12T14:15:52Z</time></trkpt><trkpt lat="45.444568891754955" lon="9.463452182001351"><ele>96.0</ele><time>2026-04-12T14:15:53Z</time></trkpt><trkpt lat="45.44446833655112" lon="9.463417627721656"><ele>96.0</ele><time>2026-04-12T14:15:54Z</time></trkpt><trkpt lat="45.44436344887426" lon="9.463399747734659"><ele>95.8</ele><time>2026-04-12T14:15:55Z</time></trkpt><trkpt lat="45.44426082763268" lon="9.46339554449464"><ele>95.6</ele><time>2026-04-12T14:15:56Z</time></trkpt><trkpt lat="45.444155364490356" lon="9.46340559270421"><ele>95.4</ele><time>2026-04-12T14:15:57Z</time></trkpt><trkpt lat="45.44405162249039" lon="9.46340764816006"><ele>95.2</ele><time>2026-04-12T14:15:58Z</time></trkpt><trkpt lat="45.44394876556573" lon="9.463402921715721"><ele>95.0</ele><time>2026-04-12T14:15:59Z</time></trkpt><trkpt lat="45.44384197581588" lon="9.463418651552377"><ele>95.6</ele><time>2026-04-12T14:16:00Z</time></trkpt><trkpt lat="45.44373606872892" lon="9.463422611514094"><ele>96.2</ele><time>2026-04-12T14:16:01Z</time></trkpt><trkpt lat="45.44363132659487" lon="9.46342567185837"><ele>96.80000000000001</ele><time>2026-04-12T14:16:02Z</time></trkpt><trkpt lat="45.44352944025224" lon="9.46344341313389"><ele>97.4</ele><time>2026-04-12T14:16:03Z</time></trkpt><trkpt lat="45.44342502920178" lon="9.463454229108095"><ele>98.0</ele><time>2026-04-12T14:16:04Z</time></trkpt><trkpt lat="45.44331774185979" lon="9.463489846970607"><ele>98.0</ele><time>2026-04-12T14:16:05Z</time></trkpt><trkpt lat="45.443217118674625" lon="9.463524633872147"><ele>98.0</ele><time>2026-04-12T14:16:06Z</time></trkpt><trkpt lat="45.44311544996305" lon="9.463531752482604"><ele>98.0</ele><time>2026-04-12T14:16:07Z</time></trkpt><trkpt lat="45.443020440845004" lon="9.463578247678514"><ele>98.0</ele><time>2026-04-12T14:16:08Z</time></trkpt><trkpt lat="45.44291940638026" lon="9.463602702769018"><ele>98.0</ele><time>2026-04-12T14:16:09Z</time></trkpt><trkpt lat="45.44281474432236" lon="9.463604255042112"><ele>98.2</ele><time>2026-04-12T14:16:10Z</time></trkpt><trkpt lat="45.44271187755185" lon="9.46362713689922"><ele>98.4</ele><time>2026-04-12T14:16:11Z</time></trkpt><trkpt lat="45.442615956594864" lon="9.463674930352685"><ele>98.60000000000001</ele><time>2026-04-12T14:16:12Z</time></trkpt><trkpt lat="45.442512451952986" lon="9.463682206469908"><ele>98.80000000000001</ele><time>2026-04-12T14:16:13Z</time></trkpt><trkpt lat="45.44241933432351" lon="9.463756122279747"><ele>99.0</ele><time>2026-04-12T14:16:14Z</time></trkpt><trkpt lat="45.4423217942738" lon="9.463795181551053"><ele>99.0</ele><time>2026-04-12T14:16:15Z</time></trkpt><trkpt lat="45.44224169679269" lon="9.463886727626454"><ele>99.0</ele><time>2026-04-12T14:16:16Z</time></trkpt><trkpt lat="45.442138721355064" lon="9.463943216408303"><ele>99.0</ele><time>2026-04-12T14:16:17Z</time></trkpt><trkpt lat="45.44204868000553" lon="9.464017870678555"><ele>99.0</ele><time>2026-04-12T14:16:18Z</time></trkpt><trkpt lat="45.44197038479202" lon="9.46410899109361"><ele>99.0</ele><time>2026-04-12T14:16:19Z</time></trkpt><trkpt lat="45.44186697764936" lon="9.464185951557274"><ele>99.2</ele><time>2026-04-12T14:16:20Z</time></trkpt><trkpt lat="45.44178245416275" lon="9.464258570347525"><ele>99.4</ele><time>2026-04-12T14:16:21Z</time></trkpt><trkpt lat="45.441699039932146" lon="9.46430444381543"><ele>99.6</ele><time>2026-04-12T14:16:22Z</time></trkpt><trkpt lat="45.44160356093293" lon="9.464333152959666"><ele>99.8</ele><time>2026-04-12T14:16:23Z</time></trkpt><trkpt lat="45.441501248758314" lon="9.464332890974505"><ele>100.0</ele><time>2026-04-12T14:16:24Z</time></trkpt><trkpt lat="45.44140578057586" lon="9.464323966592461"><ele>100.0</ele><time>2026-04-12T14:16:25Z</time></trkpt><trkpt lat="45.44129974529096" lon="9.464406061140753"><ele>100.0</ele><time>2026-04-12T14:16:26Z</time></trkpt><trkpt lat="45.44120670085398" lon="9.464518277067029"><ele>100.0</ele><time>2026-04-12T14:16:27Z</time></trkpt><trkpt lat="45.44112538787351" lon="9.464626225095254"><ele>100.0</ele><time>2026-04-12T14:16:28Z</time></trkpt><trkpt lat="45.44104466287731" lon="9.464716669818214"><ele>99.6</ele><time>2026-04-12T14:16:29Z</time></trkpt><trkpt lat="45.44096725254985" lon="9.464793476644237"><ele>99.2</ele><time>2026-04-12T14:16:30Z</time></trkpt><trkpt lat="45.44089022275315" lon="9.46485426106034"><ele>98.80000000000001</ele><time>2026-04-12T14:16:31Z</time></trkpt><trkpt lat="45.44082329027269" lon="9.464910763975352"><ele>98.4</ele><time>2026-04-12T14:16:32Z</time></trkpt><trkpt lat="45.440766694074085" lon="9.464998207762417"><ele>98.0</ele><time>2026-04-12T14:16:33Z</time></trkpt><trkpt lat="45.44074745853113" lon="9.465151931182676"><ele>98.0</ele><time>2026-04-12T14:16:35Z</time></trkpt><trkpt lat="45.44082965889263" lon="9.465270071216153"><ele>98.0</ele><time>2026-04-12T14:16:37Z</time></trkpt><trkpt lat="45.44087604264477" lon="9.465400976524535"><ele>98.0</ele><time>2026-04-12T14:16:39Z</time></trkpt><trkpt lat="45.44090971220348" lon="9.465495999470633"><ele>98.0</ele><time>2026-04-12T14:16:40Z</time></trkpt><trkpt lat="45.44093100417791" lon="9.465602268028249"><ele>98.0</ele><time>2026-04-12T14:16:41Z</time></trkpt><trkpt lat="45.44096891846623" lon="9.465699266264743"><ele>97.99999999999999</ele><time>2026-04-12T14:16:42Z</time></trkpt><trkpt lat="45.44100939784447" lon="9.465796731804708"><ele>98.0</ele><time>2026-04-12T14:16:43Z</time></trkpt><trkpt lat="45.44106001640606" lon="9.46588514018925"><ele>98.0</ele><time>2026-04-12T14:16:44Z</time></trkpt><trkpt lat="45.44110672503371" lon="9.46597546693182"><ele>98.0</ele><time>2026-04-12T14:16:45Z</time></trkpt><trkpt lat="45.44115087661068" lon="9.466042917991011"><ele>97.99999999999999</ele><time>2026-04-12T14:16:46Z</time></trkpt><trkpt lat="45.441223495107245" lon="9.466176633869502"><ele>98.0</ele><time>2026-04-12T14:16:48Z</time></trkpt><trkpt lat="45.44127708146955" lon="9.466283195749613"><ele>98.2</ele><time>2026-04-12T14:16:50Z</time></trkpt><trkpt lat="45.441310097228694" lon="9.466374004639594"><ele>98.4</ele><time>2026-04-12T14:16:51Z</time></trkpt><trkpt lat="45.441340580794204" lon="9.466461797723072"><ele>98.60000000000001</ele><time>2026-04-12T14:16:53Z</time></trkpt><trkpt lat="45.441189100328224" lon="9.466535857983832"><ele>98.80000000000001</ele><time>2026-04-12T14:16:55Z</time></trkpt><trkpt lat="45.44112127849383" lon="9.466476893923108"><ele>99.0</ele><time>2026-04-12T14:16:56Z</time></trkpt><trkpt lat="45.441000270120334" lon="9.466406040055308"><ele>98.80000000000001</ele><time>2026-04-12T14:16:58Z</time></trkpt><trkpt lat="45.44091002463431" lon="9.466353059621015"><ele>98.60000000000001</ele><time>2026-04-12T14:17:00Z</time></trkpt><trkpt lat="45.44079581526535" lon="9.466286011901532"><ele>98.4</ele><time>2026-04-12T14:17:02Z</time></trkpt><trkpt lat="45.440700676185436" lon="9.466222294609562"><ele>98.2</ele><time>2026-04-12T14:17:04Z</time></trkpt><trkpt lat="45.4406076434801" lon="9.466159480120394"><ele>98.0</ele><time>2026-04-12T14:17:06Z</time></trkpt><trkpt lat="45.440488107597986" lon="9.466172892404886"><ele>98.0</ele><time>2026-04-12T14:17:09Z</time></trkpt><trkpt lat="45.440514734759304" lon="9.466371195243232"><ele>98.0</ele><time>2026-04-12T14:17:12Z</time></trkpt><trkpt lat="45.440576837227084" lon="9.466194279102615"><ele>98.0</ele><time>2026-04-12T14:17:19Z</time></trkpt><trkpt lat="45.44054318112757" lon="9.466330860713038"><ele>98.0</ele><time>2026-04-12T14:17:20Z</time></trkpt><trkpt lat="45.44091650182744" lon="9.46635527419585"><ele>97.60000000000001</ele><time>2026-04-12T14:17:23Z</time></trkpt><trkpt lat="45.44098530347814" lon="9.466418966867026"><ele>97.2</ele><time>2026-04-12T14:17:24Z</time></trkpt><trkpt lat="45.441036636448665" lon="9.466472006759615"><ele>96.8</ele><time>2026-04-12T14:17:25Z</time></trkpt><trkpt lat="45.44113543232941" lon="9.466606821308996"><ele>96.4</ele><time>2026-04-12T14:17:27Z</time></trkpt><trkpt lat="45.44120353425678" lon="9.46663617248131"><ele>96.0</ele><time>2026-04-12T14:17:28Z</time></trkpt><trkpt lat="45.441259205741765" lon="9.466497301833801"><ele>96.6</ele><time>2026-04-12T14:17:29Z</time></trkpt><trkpt lat="45.441366266638866" lon="9.466440304121129"><ele>97.19999999999999</ele><time>2026-04-12T14:17:31Z</time></trkpt><trkpt lat="45.44149632712516" lon="9.466438526381763"><ele>97.80000000000001</ele><time>2026-04-12T14:17:33Z</time></trkpt><trkpt lat="45.44158378253378" lon="9.466504240052776"><ele>98.4</ele><time>2026-04-12T14:17:34Z</time></trkpt><trkpt lat="45.44167958520185" lon="9.4665603811255"><ele>99.0</ele><time>2026-04-12T14:17:35Z</time></trkpt><trkpt lat="45.441765155148346" lon="9.466615965105031"><ele>99.0</ele><time>2026-04-12T14:17:36Z</time></trkpt><trkpt lat="45.441832123751006" lon="9.466640303795007"><ele>99.0</ele><time>2026-04-12T14:17:37Z</time></trkpt><trkpt lat="45.44188870970462" lon="9.46658376873519"><ele>99.0</ele><time>2026-04-12T14:17:38Z</time></trkpt><trkpt lat="45.44192014300391" lon="9.466475308033976"><ele>99.0</ele><time>2026-04-12T14:17:39Z</time></trkpt><trkpt lat="45.44193226732585" lon="9.466327790955916"><ele>99.0</ele><time>2026-04-12T14:17:40Z</time></trkpt><trkpt lat="45.441900715397466" lon="9.466147881918811"><ele>99.0</ele><time>2026-04-12T14:17:41Z</time></trkpt><trkpt lat="45.44189493638369" lon="9.46597308283485"><ele>99.0</ele><time>2026-04-12T14:17:42Z</time></trkpt><trkpt lat="45.44188492480267" lon="9.465802239915112"><ele>99.0</ele><time>2026-04-12T14:17:43Z</time></trkpt><trkpt lat="45.44187528815317" lon="9.465655117721502"><ele>99.0</ele><time>2026-04-12T14:17:44Z</time></trkpt><trkpt lat="45.44187765743809" lon="9.465525536510546"><ele>99.0</ele><time>2026-04-12T14:17:45Z</time></trkpt><trkpt lat="45.441881708262564" lon="9.465395111383026"><ele>99.0</ele><time>2026-04-12T14:17:46Z</time></trkpt><trkpt lat="45.44189104194112" lon="9.46526525150404"><ele>99.0</ele><time>2026-04-12T14:17:47Z</time></trkpt><trkpt lat="45.44190878731136" lon="9.465139260294581"><ele>99.0</ele><time>2026-04-12T14:17:48Z</time></trkpt><trkpt lat="45.44191000043022" lon="9.465009296092006"><ele>99.0</ele><time>2026-04-12T14:17:49Z</time></trkpt><trkpt lat="45.44189576083442" lon="9.464880216188892"><ele>99.0</ele><time>2026-04-12T14:17:50Z</time></trkpt><trkpt lat="45.44187944792431" lon="9.464765605685415"><ele>99.0</ele><time>2026-04-12T14:17:51Z</time></trkpt><trkpt lat="45.44186800591194" lon="9.464662569905867"><ele>99.2</ele><time>2026-04-12T14:17:52Z</time></trkpt><trkpt lat="45.441856999146374" lon="9.464558844600509"><ele>99.4</ele><time>2026-04-12T14:17:53Z</time></trkpt><trkpt lat="45.44182388633993" lon="9.464432819563244"><ele>99.6</ele><time>2026-04-12T14:17:55Z</time></trkpt><trkpt lat="45.44180688821046" lon="9.464321052647145"><ele>99.8</ele><time>2026-04-12T14:18:01Z</time></trkpt><trkpt lat="45.441639758676736" lon="9.464329366285048"><ele>100.0</ele><time>2026-04-12T14:18:04Z</time></trkpt><trkpt lat="45.44154584038456" lon="9.464314271629105"><ele>100.0</ele><time>2026-04-12T14:18:05Z</time></trkpt><trkpt lat="45.441426241289804" lon="9.464320791719516"><ele>100.0</ele><time>2026-04-12T14:18:06Z</time></trkpt><trkpt lat="45.441291571321" lon="9.464382995507867"><ele>100.0</ele><time>2026-04-12T14:18:07Z</time></trkpt><trkpt lat="45.44116886278365" lon="9.464557918594581"><ele>100.0</ele><time>2026-04-12T14:18:08Z</time></trkpt><trkpt lat="45.44104476362274" lon="9.46468811640329"><ele>99.66666666666667</ele><time>2026-04-12T14:18:09Z</time></trkpt><trkpt lat="45.44095086352822" lon="9.464786534132656"><ele>99.33333333333334</ele><time>2026-04-12T14:18:10Z</time></trkpt><trkpt lat="45.44087648689218" lon="9.464864371952656"><ele>99.0</ele><time>2026-04-12T14:18:11Z</time></trkpt><trkpt lat="45.440823193324796" lon="9.464918609247489"><ele>98.66666666666666</ele><time>2026-04-12T14:18:12Z</time></trkpt><trkpt lat="45.44077493256688" lon="9.464981219214767"><ele>98.33333333333333</ele><time>2026-04-12T14:18:14Z</time></trkpt><trkpt lat="45.44070961093943" lon="9.464927114352118"><ele>98.0</ele><time>2026-04-12T14:18:16Z</time></trkpt><trkpt lat="45.440651759134724" lon="9.464866599116188"><ele>98.0</ele><time>2026-04-12T14:18:17Z</time></trkpt><trkpt lat="45.44059706616408" lon="9.464744547573156"><ele>98.0</ele><time>2026-04-12T14:18:18Z</time></trkpt><trkpt lat="45.44054792562572" lon="9.464602928151795"><ele>98.0</ele><time>2026-04-12T14:18:19Z</time></trkpt><trkpt lat="45.440482965725316" lon="9.46446067469257"><ele>98.0</ele><time>2026-04-12T14:18:20Z</time></trkpt><trkpt lat="45.440407982544315" lon="9.464328860295184"><ele>98.0</ele><time>2026-04-12T14:18:21Z</time></trkpt><trkpt lat="45.44033827078398" lon="9.464219180725655"><ele>98.0</ele><time>2026-04-12T14:18:22Z</time></trkpt><trkpt lat="45.44027255944261" lon="9.464122246842969"><ele>98.0</ele><time>2026-04-12T14:18:23Z</time></trkpt><trkpt lat="45.44019550863097" lon="9.464045761218685"><ele>98.0</ele><time>2026-04-12T14:18:24Z</time></trkpt><trkpt lat="45.44006345586971" lon="9.46406257131548"><ele>98.0</ele><time>2026-04-12T14:18:25Z</time></trkpt><trkpt lat="45.43992819308466" lon="9.464062755756473"><ele>98.0</ele><time>2026-04-12T14:18:26Z</time></trkpt><trkpt lat="45.439805488985094" lon="9.464066040275759"><ele>98.0</ele><time>2026-04-12T14:18:27Z</time></trkpt><trkpt lat="45.43967331982403" lon="9.46406521357738"><ele>98.0</ele><time>2026-04-12T14:18:28Z</time></trkpt><trkpt lat="45.439553561578506" lon="9.4640319510183"><ele>98.0</ele><time>2026-04-12T14:18:29Z</time></trkpt><trkpt lat="45.43943764359464" lon="9.463961608014136"><ele>98.0</ele><time>2026-04-12T14:18:30Z</time></trkpt><trkpt lat="45.4393397339113" lon="9.463873600646263"><ele>98.0</ele><time>2026-04-12T14:18:31Z</time></trkpt><trkpt lat="45.43923584451458" lon="9.463769727385772"><ele>98.0</ele><time>2026-04-12T14:18:32Z</time></trkpt><trkpt lat="45.43913642735769" lon="9.463646202213406"><ele>98.0</ele><time>2026-04-12T14:18:33Z</time></trkpt><trkpt lat="45.43904960573238" lon="9.4635056306386"><ele>98.0</ele><time>2026-04-12T14:18:34Z</time></trkpt><trkpt lat="45.43895529500141" lon="9.463366944776428"><ele>98.0</ele><time>2026-04-12T14:18:35Z</time></trkpt><trkpt lat="45.438869697664984" lon="9.463241324546269"><ele>98.0</ele><time>2026-04-12T14:18:36Z</time></trkpt><trkpt lat="45.43879397780743" lon="9.463133421886516"><ele>98.0</ele><time>2026-04-12T14:18:37Z</time></trkpt><trkpt lat="45.43872289401648" lon="9.463047759872074"><ele>98.0</ele><time>2026-04-12T14:18:38Z</time></trkpt><trkpt lat="45.43864038770917" lon="9.462951811101924"><ele>98.0</ele><time>2026-04-12T14:18:39Z</time></trkpt><trkpt lat="45.43855502843349" lon="9.46285287506863"><ele>98.0</ele><time>2026-04-12T14:18:40Z</time></trkpt><trkpt lat="45.43846809720249" lon="9.462749339998943"><ele>98.0</ele><time>2026-04-12T14:18:41Z</time></trkpt><trkpt lat="45.438373535765" lon="9.462650831451699"><ele>98.0</ele><time>2026-04-12T14:18:42Z</time></trkpt><trkpt lat="45.43828531025265" lon="9.462540348665229"><ele>98.0</ele><time>2026-04-12T14:18:43Z</time></trkpt><trkpt lat="45.43820006970269" lon="9.462412285144257"><ele>98.0</ele><time>2026-04-12T14:18:44Z</time></trkpt><trkpt lat="45.43810598929936" lon="9.462276475878664"><ele>98.0</ele><time>2026-04-12T14:18:45Z</time></trkpt><trkpt lat="45.438013243705875" lon="9.462121114140762"><ele>98.0</ele><time>2026-04-12T14:18:46Z</time></trkpt><trkpt lat="45.437927434132945" lon="9.461948424703825"><ele>98.0</ele><time>2026-04-12T14:18:47Z</time></trkpt><trkpt lat="45.437835720205605" lon="9.461767732690399"><ele>98.0</ele><time>2026-04-12T14:18:48Z</time></trkpt><trkpt lat="45.43775118681964" lon="9.461577764100198"><ele>98.0</ele><time>2026-04-12T14:18:49Z</time></trkpt><trkpt lat="45.437665758981126" lon="9.461393180677065"><ele>97.66666666666666</ele><time>2026-04-12T14:18:50Z</time></trkpt><trkpt lat="45.43758106137943" lon="9.461204290621101"><ele>97.33333333333334</ele><time>2026-04-12T14:18:51Z</time></trkpt><trkpt lat="45.437494484765196" lon="9.461017418378974"><ele>97.0</ele><time>2026-04-12T14:18:52Z</time></trkpt><trkpt lat="45.43739671192031" lon="9.460832667603269"><ele>97.0</ele><time>2026-04-12T14:18:53Z</time></trkpt><trkpt lat="45.43730715249066" lon="9.460655292599746"><ele>97.0</ele><time>2026-04-12T14:18:54Z</time></trkpt><trkpt lat="45.43720587885405" lon="9.460492436987122"><ele>97.0</ele><time>2026-04-12T14:18:55Z</time></trkpt><trkpt lat="45.43708692501588" lon="9.46034264170271"><ele>96.33333333333334</ele><time>2026-04-12T14:18:56Z</time></trkpt><trkpt lat="45.43694510154207" lon="9.460209591710806"><ele>95.66666666666667</ele><time>2026-04-12T14:18:57Z</time></trkpt><trkpt lat="45.43680110445932" lon="9.460085643603852"><ele>95.0</ele><time>2026-04-12T14:18:58Z</time></trkpt><trkpt lat="45.436668625574455" lon="9.459979640066507"><ele>95.0</ele><time>2026-04-12T14:18:59Z</time></trkpt><trkpt lat="45.436525347303174" lon="9.459901910428984"><ele>95.0</ele><time>2026-04-12T14:19:00Z</time></trkpt><trkpt lat="45.43636164066378" lon="9.459837859549484"><ele>95.0</ele><time>2026-04-12T14:19:01Z</time></trkpt><trkpt lat="45.43618855771946" lon="9.459788445822088"><ele>94.66666666666667</ele><time>2026-04-12T14:19:02Z</time></trkpt><trkpt lat="45.43599982144765" lon="9.459751705835835"><ele>94.33333333333333</ele><time>2026-04-12T14:19:03Z</time></trkpt><trkpt lat="45.435837372975" lon="9.459751761410713"><ele>94.0</ele><time>2026-04-12T14:19:04Z</time></trkpt><trkpt lat="45.43568413184433" lon="9.459787422873864"><ele>94.0</ele><time>2026-04-12T14:19:05Z</time></trkpt><trkpt lat="45.43553344293977" lon="9.459796631000836"><ele>94.0</ele><time>2026-04-12T14:19:06Z</time></trkpt><trkpt lat="45.43538895325857" lon="9.459799138897793"><ele>94.0</ele><time>2026-04-12T14:19:07Z</time></trkpt><trkpt lat="45.43524989067972" lon="9.459765275802289"><ele>94.0</ele><time>2026-04-12T14:19:08Z</time></trkpt><trkpt lat="45.43511442353218" lon="9.459737790838997"><ele>94.0</ele><time>2026-04-12T14:19:09Z</time></trkpt><trkpt lat="45.43498064381989" lon="9.459689990378113"><ele>94.0</ele><time>2026-04-12T14:19:10Z</time></trkpt><trkpt lat="45.43485276092729" lon="9.459623405227484"><ele>94.0</ele><time>2026-04-12T14:19:11Z</time></trkpt><trkpt lat="45.434727084543795" lon="9.459534613901827"><ele>94.0</ele><time>2026-04-12T14:19:12Z</time></trkpt><trkpt lat="45.43460610379504" lon="9.45942219536319"><ele>93.25</ele><time>2026-04-12T14:19:13Z</time></trkpt><trkpt lat="45.43449195077339" lon="9.459304442284335"><ele>92.5</ele><time>2026-04-12T14:19:14Z</time></trkpt><trkpt lat="45.43437416314448" lon="9.459177559131636"><ele>91.75</ele><time>2026-04-12T14:19:15Z</time></trkpt><trkpt lat="45.43425118692488" lon="9.459069405981221"><ele>91.0</ele><time>2026-04-12T14:19:16Z</time></trkpt><trkpt lat="45.434142928267825" lon="9.458943759273525"><ele>91.0</ele><time>2026-04-12T14:19:17Z</time></trkpt><trkpt lat="45.43403054640626" lon="9.458818422200011"><ele>91.0</ele><time>2026-04-12T14:19:18Z</time></trkpt><trkpt lat="45.433912409104956" lon="9.458698539619409"><ele>91.0</ele><time>2026-04-12T14:19:19Z</time></trkpt><trkpt lat="45.433808058275986" lon="9.458552886902243"><ele>91.0</ele><time>2026-04-12T14:19:20Z</time></trkpt><trkpt lat="45.43369134795749" lon="9.458439530155552"><ele>92.0</ele><time>2026-04-12T14:19:20.999Z</time></trkpt><trkpt lat="45.43357894572054" lon="9.458316856346197"><ele>93.0</ele><time>2026-04-12T14:19:21.999Z</time></trkpt><trkpt lat="45.433483337335055" lon="9.458191267504583"><ele>94.0</ele><time>2026-04-12T14:19:22.999Z</time></trkpt><trkpt lat="45.43338175066131" lon="9.458078138540063"><ele>95.0</ele><time>2026-04-12T14:19:23.999Z</time></trkpt><trkpt lat="45.43327873380084" lon="9.457963415504588"><ele>95.0</ele><time>2026-04-12T14:19:24.999Z</time></trkpt><trkpt lat="45.433177968463895" lon="9.457850268083252"><ele>95.0</ele><time>2026-04-12T14:19:25.999Z</time></trkpt><trkpt lat="45.43307955448858" lon="9.457737132154225"><ele>95.0</ele><time>2026-04-12T14:19:26.999Z</time></trkpt><trkpt lat="45.43297945229133" lon="9.457617625199987"><ele>95.0</ele><time>2026-04-12T14:19:27.999Z</time></trkpt><trkpt lat="45.43287868610988" lon="9.45751117635087"><ele>94.75</ele><time>2026-04-12T14:19:28.999Z</time></trkpt><trkpt lat="45.43280157067716" lon="9.457363366117592"><ele>94.5</ele><time>2026-04-12T14:19:29.999Z</time></trkpt><trkpt lat="45.432718180933826" lon="9.457217899848198"><ele>94.25</ele><time>2026-04-12T14:19:31Z</time></trkpt><trkpt lat="45.432641550741366" lon="9.457060990681335"><ele>94.0</ele><time>2026-04-12T14:19:32Z</time></trkpt><trkpt lat="45.43256332926648" lon="9.456912115227283"><ele>94.0</ele><time>2026-04-12T14:19:33Z</time></trkpt><trkpt lat="45.432512544861275" lon="9.456736233058082"><ele>94.0</ele><time>2026-04-12T14:19:34Z</time></trkpt><trkpt lat="45.43246499266933" lon="9.456562730434946"><ele>94.0</ele><time>2026-04-12T14:19:35Z</time></trkpt><trkpt lat="45.432413571314484" lon="9.456381559870351"><ele>94.0</ele><time>2026-04-12T14:19:36Z</time></trkpt><trkpt lat="45.43239960972153" lon="9.456190295763616"><ele>94.25</ele><time>2026-04-12T14:19:37Z</time></trkpt><trkpt lat="45.432369470183886" lon="9.456005512539779"><ele>94.5</ele><time>2026-04-12T14:19:38Z</time></trkpt><trkpt lat="45.43235737533642" lon="9.455822655029312"><ele>94.75</ele><time>2026-04-12T14:19:39Z</time></trkpt><trkpt lat="45.43235194916924" lon="9.45564722616023"><ele>95.0</ele><time>2026-04-12T14:19:40Z</time></trkpt><trkpt lat="45.43236038626647" lon="9.455487657020628"><ele>95.5</ele><time>2026-04-12T14:19:41Z</time></trkpt><trkpt lat="45.43237946141972" lon="9.45530916761333"><ele>96.0</ele><time>2026-04-12T14:19:42Z</time></trkpt><trkpt lat="45.43240085456622" lon="9.455146538018084"><ele>96.5</ele><time>2026-04-12T14:19:43Z</time></trkpt><trkpt lat="45.432407437069344" lon="9.454983408688829"><ele>97.0</ele><time>2026-04-12T14:19:44Z</time></trkpt><trkpt lat="45.43240695746849" lon="9.454818402346374"><ele>97.0</ele><time>2026-04-12T14:19:45Z</time></trkpt><trkpt lat="45.43238381540831" lon="9.454662223673873"><ele>97.0</ele><time>2026-04-12T14:19:46Z</time></trkpt><trkpt lat="45.43234718910509" lon="9.454506441867935"><ele>97.0</ele><time>2026-04-12T14:19:47Z</time></trkpt><trkpt lat="45.43232492477019" lon="9.454353080246667"><ele>97.0</ele><time>2026-04-12T14:19:48Z</time></trkpt><trkpt lat="45.43232332724938" lon="9.45420362239332"><ele>97.0</ele><time>2026-04-12T14:19:49Z</time></trkpt><trkpt lat="45.43231299225118" lon="9.454063322819952"><ele>96.8</ele><time>2026-04-12T14:19:50Z</time></trkpt><trkpt lat="45.43226961298024" lon="9.453947955215854"><ele>96.6</ele><time>2026-04-12T14:19:51Z</time></trkpt><trkpt lat="45.43218481778575" lon="9.453882504636004"><ele>96.39999999999999</ele><time>2026-04-12T14:19:52Z</time></trkpt><trkpt lat="45.432082898415935" lon="9.453884211647171"><ele>96.19999999999999</ele><time>2026-04-12T14:19:53Z</time></trkpt><trkpt lat="45.4319824312105" lon="9.453968811733773"><ele>96.0</ele><time>2026-04-12T14:19:54Z</time></trkpt><trkpt lat="45.43188715792775" lon="9.454079590424639"><ele>95.75</ele><time>2026-04-12T14:19:55Z</time></trkpt><trkpt lat="45.431784580846404" lon="9.454165379924332"><ele>95.5</ele><time>2026-04-12T14:19:56Z</time></trkpt><trkpt lat="45.43167281833247" lon="9.454227817714331"><ele>95.25</ele><time>2026-04-12T14:19:57Z</time></trkpt><trkpt lat="45.431560387992526" lon="9.454301267550706"><ele>95.0</ele><time>2026-04-12T14:19:58Z</time></trkpt><trkpt lat="45.431452122544776" lon="9.454387273873836"><ele>95.0</ele><time>2026-04-12T14:19:59Z</time></trkpt><trkpt lat="45.431344341453716" lon="9.454477128820434"><ele>95.0</ele><time>2026-04-12T14:20:00Z</time></trkpt><trkpt lat="45.431234885324976" lon="9.454548752238985"><ele>95.0</ele><time>2026-04-12T14:20:01Z</time></trkpt><trkpt lat="45.43111316919385" lon="9.45459546095955"><ele>95.0</ele><time>2026-04-12T14:20:02Z</time></trkpt><trkpt lat="45.430983537272574" lon="9.45461823249986"><ele>95.25</ele><time>2026-04-12T14:20:03Z</time></trkpt><trkpt lat="45.430858129877834" lon="9.45464189700681"><ele>95.5</ele><time>2026-04-12T14:20:04Z</time></trkpt><trkpt lat="45.43072799147278" lon="9.454672442544728"><ele>95.75</ele><time>2026-04-12T14:20:05Z</time></trkpt><trkpt lat="45.43059509884616" lon="9.454715006460003"><ele>96.0</ele><time>2026-04-12T14:20:06Z</time></trkpt><trkpt lat="45.43046655417831" lon="9.454748673259973"><ele>96.0</ele><time>2026-04-12T14:20:07Z</time></trkpt><trkpt lat="45.43033636823302" lon="9.454783703973286"><ele>96.0</ele><time>2026-04-12T14:20:08Z</time></trkpt><trkpt lat="45.43020316034328" lon="9.454812916983679"><ele>96.0</ele><time>2026-04-12T14:20:09Z</time></trkpt><trkpt lat="45.43007148201186" lon="9.454836484588714"><ele>96.0</ele><time>2026-04-12T14:20:10Z</time></trkpt><trkpt lat="45.42994275455211" lon="9.454867493286017"><ele>96.0</ele><time>2026-04-12T14:20:11Z</time></trkpt><trkpt lat="45.42981290161548" lon="9.454898860782048"><ele>96.0</ele><time>2026-04-12T14:20:12Z</time></trkpt><trkpt lat="45.42968354074126" lon="9.454926262659528"><ele>96.0</ele><time>2026-04-12T14:20:13Z</time></trkpt><trkpt lat="45.42955540624516" lon="9.454952389921049"><ele>96.0</ele><time>2026-04-12T14:20:14Z</time></trkpt><trkpt lat="45.42942983258865" lon="9.454986647683363"><ele>95.75</ele><time>2026-04-12T14:20:15Z</time></trkpt><trkpt lat="45.429307284556494" lon="9.455018798619271"><ele>95.5</ele><time>2026-04-12T14:20:16Z</time></trkpt><trkpt lat="45.42918343779639" lon="9.455046716758181"><ele>95.25</ele><time>2026-04-12T14:20:17Z</time></trkpt><trkpt lat="45.42905945078196" lon="9.45507411149029"><ele>95.0</ele><time>2026-04-12T14:20:18Z</time></trkpt><trkpt lat="45.42893849691043" lon="9.455100752237465"><ele>95.0</ele><time>2026-04-12T14:20:19Z</time></trkpt><trkpt lat="45.42881848094083" lon="9.455138387907862"><ele>95.0</ele><time>2026-04-12T14:20:20Z</time></trkpt><trkpt lat="45.428695123212265" lon="9.455171370873572"><ele>95.0</ele><time>2026-04-12T14:20:21Z</time></trkpt><trkpt lat="45.42857526695128" lon="9.455196954741503"><ele>95.0</ele><time>2026-04-12T14:20:22Z</time></trkpt><trkpt lat="45.4284525688473" lon="9.455213285307162"><ele>94.75</ele><time>2026-04-12T14:20:23Z</time></trkpt><trkpt lat="45.428331204163825" lon="9.455236371520247"><ele>94.5</ele><time>2026-04-12T14:20:24Z</time></trkpt><trkpt lat="45.42820489797835" lon="9.455251217903335"><ele>94.25</ele><time>2026-04-12T14:20:25Z</time></trkpt><trkpt lat="45.42808003243631" lon="9.455255931803276"><ele>94.0</ele><time>2026-04-12T14:20:26Z</time></trkpt><trkpt lat="45.427958668143425" lon="9.455241488044958"><ele>94.0</ele><time>2026-04-12T14:20:27Z</time></trkpt><trkpt lat="45.42784186782243" lon="9.455223729546779"><ele>94.0</ele><time>2026-04-12T14:20:28Z</time></trkpt><trkpt lat="45.42772733526998" lon="9.455193197893403"><ele>94.0</ele><time>2026-04-12T14:20:29Z</time></trkpt><trkpt lat="45.42763375921118" lon="9.455119270998207"><ele>94.0</ele><time>2026-04-12T14:20:30Z</time></trkpt><trkpt lat="45.42754111475574" lon="9.455091491318964"><ele>94.0</ele><time>2026-04-12T14:20:31Z</time></trkpt><trkpt lat="45.427467241250895" lon="9.455031593486051"><ele>94.0</ele><time>2026-04-12T14:20:32Z</time></trkpt><trkpt lat="45.42740207374972" lon="9.454963846582086"><ele>94.0</ele><time>2026-04-12T14:20:33Z</time></trkpt><trkpt lat="45.42735183598119" lon="9.454878486372605"><ele>94.0</ele><time>2026-04-12T14:20:34Z</time></trkpt><trkpt lat="45.42728573087419" lon="9.45483205877721"><ele>94.0</ele><time>2026-04-12T14:20:35Z</time></trkpt><trkpt lat="45.42722025011726" lon="9.45483376888903"><ele>94.0</ele><time>2026-04-12T14:20:36Z</time></trkpt><trkpt lat="45.42712056309304" lon="9.45488823926782"><ele>94.0</ele><time>2026-04-12T14:20:37Z</time></trkpt><trkpt lat="45.42709431145313" lon="9.45503874333021"><ele>94.2</ele><time>2026-04-12T14:20:38Z</time></trkpt><trkpt lat="45.42710153220711" lon="9.45518148542125"><ele>94.4</ele><time>2026-04-12T14:20:39Z</time></trkpt><trkpt lat="45.427118835836744" lon="9.455324420511362"><ele>94.6</ele><time>2026-04-12T14:20:40Z</time></trkpt><trkpt lat="45.427127731334146" lon="9.455464691479426"><ele>94.8</ele><time>2026-04-12T14:20:41Z</time></trkpt><trkpt lat="45.427142554800504" lon="9.455598644280142"><ele>95.0</ele><time>2026-04-12T14:20:42Z</time></trkpt><trkpt lat="45.427156398887334" lon="9.45574336849376"><ele>95.0</ele><time>2026-04-12T14:20:43Z</time></trkpt><trkpt lat="45.42718239187699" lon="9.45587721381894"><ele>95.0</ele><time>2026-04-12T14:20:44Z</time></trkpt><trkpt lat="45.42720856480003" lon="9.456008760299161"><ele>95.0</ele><time>2026-04-12T14:20:45Z</time></trkpt><trkpt lat="45.42723458397218" lon="9.456135910985234"><ele>95.0</ele><time>2026-04-12T14:20:46Z</time></trkpt><trkpt lat="45.42726090825991" lon="9.456263192956097"><ele>95.0</ele><time>2026-04-12T14:20:47Z</time></trkpt><trkpt lat="45.427296471843434" lon="9.456370450518532"><ele>95.0</ele><time>2026-04-12T14:20:48Z</time></trkpt><trkpt lat="45.42731398052989" lon="9.456484905644803"><ele>95.0</ele><time>2026-04-12T14:20:49Z</time></trkpt><trkpt lat="45.42734296891853" lon="9.456581411726116"><ele>95.0</ele><time>2026-04-12T14:20:50Z</time></trkpt><trkpt lat="45.42734285690683" lon="9.456756085392541"><ele>95.0</ele><time>2026-04-12T14:20:52Z</time></trkpt><trkpt lat="45.42728502666591" lon="9.456803459512958"><ele>95.0</ele><time>2026-04-12T14:20:53Z</time></trkpt><trkpt lat="45.42720395368767" lon="9.456769933945784"><ele>95.0</ele><time>2026-04-12T14:20:54Z</time></trkpt><trkpt lat="45.42712390391165" lon="9.456791085474462"><ele>95.0</ele><time>2026-04-12T14:20:55Z</time></trkpt><trkpt lat="45.427029152682486" lon="9.456842670483017"><ele>95.0</ele><time>2026-04-12T14:20:56Z</time></trkpt><trkpt lat="45.4269321722668" lon="9.456847496537074"><ele>95.0</ele><time>2026-04-12T14:20:57Z</time></trkpt><trkpt lat="45.42683625401492" lon="9.45687504809525"><ele>95.0</ele><time>2026-04-12T14:20:58Z</time></trkpt><trkpt lat="45.42671451618675" lon="9.45690878707587"><ele>95.0</ele><time>2026-04-12T14:20:59Z</time></trkpt><trkpt lat="45.42661153119567" lon="9.456936139474495"><ele>95.0</ele><time>2026-04-12T14:21:00Z</time></trkpt><trkpt lat="45.426527388526786" lon="9.456959250366026"><ele>95.0</ele><time>2026-04-12T14:21:01Z</time></trkpt><trkpt lat="45.42644369958409" lon="9.456982463356518"><ele>95.0</ele><time>2026-04-12T14:21:02Z</time></trkpt><trkpt lat="45.42637179302941" lon="9.457023353006582"><ele>95.0</ele><time>2026-04-12T14:21:03Z</time></trkpt><trkpt lat="45.42629464139522" lon="9.457025434971955"><ele>95.0</ele><time>2026-04-12T14:21:04Z</time></trkpt><trkpt lat="45.42622334731104" lon="9.457066064712604"><ele>95.0</ele><time>2026-04-12T14:21:05Z</time></trkpt><trkpt lat="45.42612431868362" lon="9.457196583010683"><ele>95.4</ele><time>2026-04-12T14:21:07Z</time></trkpt><trkpt lat="45.426151354323146" lon="9.45735512754132"><ele>95.8</ele><time>2026-04-12T14:21:08Z</time></trkpt><trkpt lat="45.4261269643837" lon="9.45747040220301"><ele>96.19999999999999</ele><time>2026-04-12T14:21:09Z</time></trkpt><trkpt lat="45.42607917521389" lon="9.45764750863244"><ele>96.6</ele><time>2026-04-12T14:21:11Z</time></trkpt><trkpt lat="45.425993361929265" lon="9.457733016761923"><ele>97.0</ele><time>2026-04-12T14:21:12Z</time></trkpt><trkpt lat="45.42593578642146" lon="9.457861111435173"><ele>97.0</ele><time>2026-04-12T14:21:13Z</time></trkpt><trkpt lat="45.42587849492848" lon="9.457990043865566"><ele>97.0</ele><time>2026-04-12T14:21:14Z</time></trkpt><trkpt lat="45.42582430438025" lon="9.458118012593983"><ele>97.0</ele><time>2026-04-12T14:21:15Z</time></trkpt><trkpt lat="45.425767584241726" lon="9.45825031667535"><ele>97.0</ele><time>2026-04-12T14:21:16Z</time></trkpt><trkpt lat="45.425713849780024" lon="9.458373367973936"><ele>97.0</ele><time>2026-04-12T14:21:17Z</time></trkpt><trkpt lat="45.42566474610974" lon="9.45848145136948"><ele>97.00000000000001</ele><time>2026-04-12T14:21:18Z</time></trkpt><trkpt lat="45.42561752461229" lon="9.458585391848382"><ele>97.0</ele><time>2026-04-12T14:21:19Z</time></trkpt><trkpt lat="45.42556829196748" lon="9.45869782046549"><ele>97.0</ele><time>2026-04-12T14:21:20Z</time></trkpt><trkpt lat="45.42552111198347" lon="9.458809798509268"><ele>97.0</ele><time>2026-04-12T14:21:21Z</time></trkpt><trkpt lat="45.42547991622483" lon="9.458910762883777"><ele>97.00000000000001</ele><time>2026-04-12T14:21:22Z</time></trkpt><trkpt lat="45.42544402915224" lon="9.458998716508134"><ele>97.0</ele><time>2026-04-12T14:21:22.999Z</time></trkpt><trkpt lat="45.42540100347651" lon="9.459098401353174"><ele>96.39999999999999</ele><time>2026-04-12T14:21:23.999Z</time></trkpt><trkpt lat="45.425363127841784" lon="9.459186857129547"><ele>95.8</ele><time>2026-04-12T14:21:24.999Z</time></trkpt><trkpt lat="45.425324329570245" lon="9.459273234730603"><ele>95.2</ele><time>2026-04-12T14:21:25.999Z</time></trkpt><trkpt lat="45.42524702612158" lon="9.459405260899253"><ele>94.6</ele><time>2026-04-12T14:21:27.999Z</time></trkpt><trkpt lat="45.42514070549115" lon="9.459478399202746"><ele>94.0</ele><time>2026-04-12T14:21:29.999Z</time></trkpt><trkpt lat="45.4250818474085" lon="9.459530657091282"><ele>94.0</ele><time>2026-04-12T14:21:30.999Z</time></trkpt><trkpt lat="45.42502015246883" lon="9.459597464203698"><ele>94.0</ele><time>2026-04-12T14:21:31.999Z</time></trkpt><trkpt lat="45.42492287093944" lon="9.459709389042287"><ele>94.0</ele><time>2026-04-12T14:21:33.999Z</time></trkpt><trkpt lat="45.42488185066158" lon="9.459788683517981"><ele>94.0</ele><time>2026-04-12T14:21:34.999Z</time></trkpt><trkpt lat="45.424787757882015" lon="9.459904739146914"><ele>94.0</ele><time>2026-04-12T14:21:37Z</time></trkpt><trkpt lat="45.42467851831943" lon="9.459951694471247"><ele>92.83333333333333</ele><time>2026-04-12T14:21:39Z</time></trkpt><trkpt lat="45.42461691088819" lon="9.460034762267671"><ele>91.66666666666666</ele><time>2026-04-12T14:21:41Z</time></trkpt><trkpt lat="45.42452528373249" lon="9.460118090350171"><ele>90.5</ele><time>2026-04-12T14:21:43Z</time></trkpt><trkpt lat="45.42443955718202" lon="9.460196200346292"><ele>89.33333333333333</ele><time>2026-04-12T14:21:45Z</time></trkpt><trkpt lat="45.424378032626905" lon="9.460252258626022"><ele>88.16666666666667</ele><time>2026-04-12T14:21:47Z</time></trkpt><trkpt lat="45.42431198906362" lon="9.460239487250908"><ele>87.0</ele><time>2026-04-12T14:21:48Z</time></trkpt><trkpt lat="45.4242484467713" lon="9.460305131166123"><ele>87.0</ele><time>2026-04-12T14:21:49Z</time></trkpt><trkpt lat="45.424169837859914" lon="9.460393080200081"><ele>87.0</ele><time>2026-04-12T14:21:50Z</time></trkpt><trkpt lat="45.42408961760863" lon="9.46046097174041"><ele>87.0</ele><time>2026-04-12T14:21:51Z</time></trkpt><trkpt lat="45.42399807266099" lon="9.46049278474187"><ele>87.0</ele><time>2026-04-12T14:21:52Z</time></trkpt><trkpt lat="45.42387690388744" lon="9.460480333700085"><ele>87.0</ele><time>2026-04-12T14:21:53Z</time></trkpt><trkpt lat="45.42374216377591" lon="9.460435811101517"><ele>86.75</ele><time>2026-04-12T14:21:54Z</time></trkpt><trkpt lat="45.423623598334345" lon="9.460437319128332"><ele>86.5</ele><time>2026-04-12T14:21:55Z</time></trkpt><trkpt lat="45.42351672102359" lon="9.460465745714115"><ele>86.25</ele><time>2026-04-12T14:21:56Z</time></trkpt><trkpt lat="45.423394205061506" lon="9.460486474611965"><ele>86.0</ele><time>2026-04-12T14:21:57Z</time></trkpt><trkpt lat="45.423270198444996" lon="9.460515058652328"><ele>85.0</ele><time>2026-04-12T14:21:58Z</time></trkpt><trkpt lat="45.42313064499729" lon="9.460539165379497"><ele>84.0</ele><time>2026-04-12T14:21:59Z</time></trkpt><trkpt lat="45.42300429013215" lon="9.460577295543109"><ele>83.0</ele><time>2026-04-12T14:22:00Z</time></trkpt><trkpt lat="45.422863191776315" lon="9.460609264627674"><ele>82.0</ele><time>2026-04-12T14:22:01Z</time></trkpt><trkpt lat="45.42271361397337" lon="9.460651108667005"><ele>82.0</ele><time>2026-04-12T14:22:02Z</time></trkpt><trkpt lat="45.422574092365764" lon="9.460710376365682"><ele>82.0</ele><time>2026-04-12T14:22:03Z</time></trkpt><trkpt lat="45.422437654763726" lon="9.460749696186989"><ele>82.0</ele><time>2026-04-12T14:22:04Z</time></trkpt><trkpt lat="45.4223286844737" lon="9.460777253827825"><ele>82.0</ele><time>2026-04-12T14:22:05Z</time></trkpt><trkpt lat="45.42220154786273" lon="9.460818374296672"><ele>82.25</ele><time>2026-04-12T14:22:06Z</time></trkpt><trkpt lat="45.4220782364364" lon="9.46084902426311"><ele>82.5</ele><time>2026-04-12T14:22:07Z</time></trkpt><trkpt lat="45.42193584869081" lon="9.460872686894138"><ele>82.75</ele><time>2026-04-12T14:22:08Z</time></trkpt><trkpt lat="45.42178719785799" lon="9.460886624974439"><ele>83.0</ele><time>2026-04-12T14:22:09Z</time></trkpt><trkpt lat="45.42162291626138" lon="9.460884294393162"><ele>83.0</ele><time>2026-04-12T14:22:10Z</time></trkpt><trkpt lat="45.421469614692626" lon="9.460905234255682"><ele>83.0</ele><time>2026-04-12T14:22:11Z</time></trkpt><trkpt lat="45.42133078240785" lon="9.460882422529265"><ele>83.0</ele><time>2026-04-12T14:22:12Z</time></trkpt><trkpt lat="45.42119594119274" lon="9.460859756319092"><ele>83.0</ele><time>2026-04-12T14:22:13Z</time></trkpt><trkpt lat="45.42106010735861" lon="9.460836302950993"><ele>83.2</ele><time>2026-04-12T14:22:14Z</time></trkpt><trkpt lat="45.42093695480861" lon="9.460823942469663"><ele>83.4</ele><time>2026-04-12T14:22:15Z</time></trkpt><trkpt lat="45.42082713257918" lon="9.4608179631909"><ele>83.60000000000001</ele><time>2026-04-12T14:22:16Z</time></trkpt><trkpt lat="45.420722351882944" lon="9.460804598246252"><ele>83.80000000000001</ele><time>2026-04-12T14:22:17Z</time></trkpt><trkpt lat="45.420630648907235" lon="9.460787249843873"><ele>84.0</ele><time>2026-04-12T14:22:18Z</time></trkpt><trkpt lat="45.4205449250215" lon="9.460784823375302"><ele>83.57142857142857</ele><time>2026-04-12T14:22:19Z</time></trkpt><trkpt lat="45.42046884565694" lon="9.460777277032959"><ele>83.14285714285714</ele><time>2026-04-12T14:22:20Z</time></trkpt><trkpt lat="45.420401425979186" lon="9.460763164898896"><ele>82.71428571428572</ele><time>2026-04-12T14:22:21Z</time></trkpt><trkpt lat="45.42033116686857" lon="9.460738198281597"><ele>82.28571428571428</ele><time>2026-04-12T14:22:22Z</time></trkpt><trkpt lat="45.42026640499829" lon="9.460688055976062"><ele>81.85714285714286</ele><time>2026-04-12T14:22:23Z</time></trkpt><trkpt lat="45.42020937662329" lon="9.460621819552626"><ele>81.42857142857143</ele><time>2026-04-12T14:22:24Z</time></trkpt><trkpt lat="45.42016082304265" lon="9.460546730040642"><ele>81.0</ele><time>2026-04-12T14:22:25Z</time></trkpt><trkpt lat="45.42011578481505" lon="9.460481020254592"><ele>81.33333333333333</ele><time>2026-04-12T14:22:26Z</time></trkpt><trkpt lat="45.42005741869694" lon="9.460431185713224"><ele>81.66666666666667</ele><time>2026-04-12T14:22:27Z</time></trkpt><trkpt lat="45.419999896739064" lon="9.460381240353275"><ele>82.0</ele><time>2026-04-12T14:22:28Z</time></trkpt><trkpt lat="45.41988612529059" lon="9.460285681521249"><ele>82.33333333333334</ele><time>2026-04-12T14:22:30Z</time></trkpt><trkpt lat="45.41981789823479" lon="9.460273141298016"><ele>82.66666666666667</ele><time>2026-04-12T14:22:31Z</time></trkpt><trkpt lat="45.41975136285262" lon="9.460306430969753"><ele>83.0</ele><time>2026-04-12T14:22:32Z</time></trkpt><trkpt lat="45.41969238357787" lon="9.46034627558332"><ele>82.66666666666667</ele><time>2026-04-12T14:22:33Z</time></trkpt><trkpt lat="45.41959822551587" lon="9.460420259524684"><ele>82.33333333333334</ele><time>2026-04-12T14:22:35Z</time></trkpt><trkpt lat="45.419524456358765" lon="9.46041425790846"><ele>82.0</ele><time>2026-04-12T14:22:36Z</time></trkpt><trkpt lat="45.419437749926814" lon="9.460375424171186"><ele>81.66666666666667</ele><time>2026-04-12T14:22:37Z</time></trkpt><trkpt lat="45.419371341944526" lon="9.460340207939415"><ele>81.33333333333333</ele><time>2026-04-12T14:22:38Z</time></trkpt><trkpt lat="45.4192795835702" lon="9.460279398239555"><ele>81.0</ele><time>2026-04-12T14:22:40Z</time></trkpt><trkpt lat="45.419188119922175" lon="9.460247776832139"><ele>81.0</ele><time>2026-04-12T14:22:42Z</time></trkpt><trkpt lat="45.41909488022496" lon="9.460182132847434"><ele>81.0</ele><time>2026-04-12T14:22:44Z</time></trkpt><trkpt lat="45.41899372604723" lon="9.460100868360898"><ele>81.0</ele><time>2026-04-12T14:22:46Z</time></trkpt><trkpt lat="45.41889018419022" lon="9.460054126834468"><ele>81.0</ele><time>2026-04-12T14:22:48Z</time></trkpt><trkpt lat="45.41882818275112" lon="9.459981231307108"><ele>81.0</ele><time>2026-04-12T14:22:51Z</time></trkpt><trkpt lat="45.41888022215581" lon="9.459919990050762"><ele>81.0</ele><time>2026-04-12T14:22:53Z</time></trkpt><trkpt lat="45.41894785317767" lon="9.459925001714577"><ele>81.0</ele><time>2026-04-12T14:22:54Z</time></trkpt><trkpt lat="45.419028345152086" lon="9.45998789901853"><ele>81.0</ele><time>2026-04-12T14:22:55Z</time></trkpt><trkpt lat="45.41906965286032" lon="9.460069657044526"><ele>81.0</ele><time>2026-04-12T14:22:56Z</time></trkpt><trkpt lat="45.419077337088204" lon="9.460168148792489"><ele>81.0</ele><time>2026-04-12T14:22:58Z</time></trkpt><trkpt lat="45.41906089802825" lon="9.4602843106944"><ele>81.0</ele><time>2026-04-12T14:23:02Z</time></trkpt><trkpt lat="45.41900105118573" lon="9.460356870914037"><ele>80.83333333333333</ele><time>2026-04-12T14:23:06Z</time></trkpt><trkpt lat="45.41897927405999" lon="9.460452783986065"><ele>80.66666666666667</ele><time>2026-04-12T14:23:08Z</time></trkpt><trkpt lat="45.41891290410691" lon="9.460512853976567"><ele>80.5</ele><time>2026-04-12T14:23:10Z</time></trkpt><trkpt lat="45.418792280603704" lon="9.460520800673287"><ele>80.33333333333334</ele><time>2026-04-12T14:23:12Z</time></trkpt><trkpt lat="45.41872631548372" lon="9.460513369476944"><ele>80.16666666666667</ele><time>2026-04-12T14:23:13Z</time></trkpt><trkpt lat="45.41866070723799" lon="9.460499116587854"><ele>80.0</ele><time>2026-04-12T14:23:14Z</time></trkpt><trkpt lat="45.418598360820916" lon="9.460479222600233"><ele>80.0</ele><time>2026-04-12T14:23:15Z</time></trkpt><trkpt lat="45.418478207961385" lon="9.46044587820176"><ele>80.0</ele><time>2026-04-12T14:23:17Z</time></trkpt><trkpt lat="45.41835224439418" lon="9.4604323340037"><ele>80.0</ele><time>2026-04-12T14:23:19Z</time></trkpt><trkpt lat="45.41825255010813" lon="9.46038900173507"><ele>80.0</ele><time>2026-04-12T14:23:21Z</time></trkpt><trkpt lat="45.418163535140785" lon="9.46034308195649"><ele>80.0</ele><time>2026-04-12T14:23:22.999Z</time></trkpt><trkpt lat="45.41808842210292" lon="9.460288902329902"><ele>80.0</ele><time>2026-04-12T14:23:24.999Z</time></trkpt><trkpt lat="45.41800748087763" lon="9.460273147732888"><ele>80.0</ele><time>2026-04-12T14:23:26.999Z</time></trkpt><trkpt lat="45.41794200790343" lon="9.460213629346793"><ele>80.0</ele><time>2026-04-12T14:23:28.999Z</time></trkpt><trkpt lat="45.417906218313696" lon="9.460106117607989"><ele>80.0</ele><time>2026-04-12T14:23:30.999Z</time></trkpt><trkpt lat="45.417874715698105" lon="9.459958208966071"><ele>80.0</ele><time>2026-04-12T14:23:32.999Z</time></trkpt><trkpt lat="45.4179090582022" lon="9.459882942267203"><ele>80.0</ele><time>2026-04-12T14:23:39.999Z</time></trkpt><trkpt lat="45.41806659695818" lon="9.459858479981474"><ele>80.0</ele><time>2026-04-12T14:23:46Z</time></trkpt><trkpt lat="45.41814646244053" lon="9.459846854758847"><ele>80.0</ele><time>2026-04-12T14:23:48Z</time></trkpt><trkpt lat="45.41828488637819" lon="9.459833508196109"><ele>80.0</ele><time>2026-04-12T14:23:51Z</time></trkpt><trkpt lat="45.4183644820985" lon="9.459825060742407"><ele>80.0</ele><time>2026-04-12T14:23:53Z</time></trkpt><trkpt lat="45.41844559256671" lon="9.459783276652987"><ele>80.0</ele><time>2026-04-12T14:23:55Z</time></trkpt><trkpt lat="45.41835998269202" lon="9.459651605653956"><ele>80.0</ele><time>2026-04-12T14:23:59Z</time></trkpt><trkpt lat="45.41827292090632" lon="9.459621081481194"><ele>80.0</ele><time>2026-04-12T14:24:00Z</time></trkpt><trkpt lat="45.41817472804278" lon="9.459565733308652"><ele>80.0</ele><time>2026-04-12T14:24:01Z</time></trkpt><trkpt lat="45.41809070468676" lon="9.459514616499492"><ele>80.0</ele><time>2026-04-12T14:24:02Z</time></trkpt><trkpt lat="45.41799236135844" lon="9.45947437119996"><ele>80.0</ele><time>2026-04-12T14:24:03Z</time></trkpt><trkpt lat="45.417933066313154" lon="9.459425302888343"><ele>80.0</ele><time>2026-04-12T14:24:04Z</time></trkpt><trkpt lat="45.41786619432883" lon="9.459386923570534"><ele>80.0</ele><time>2026-04-12T14:24:05Z</time></trkpt><trkpt lat="45.41780652146609" lon="9.459342501861862"><ele>80.0</ele><time>2026-04-12T14:24:06Z</time></trkpt><trkpt lat="45.41774678700615" lon="9.459310728307125"><ele>80.0</ele><time>2026-04-12T14:24:07Z</time></trkpt><trkpt lat="45.417684299056404" lon="9.459275538294882"><ele>80.0</ele><time>2026-04-12T14:24:08Z</time></trkpt><trkpt lat="45.41761428687623" lon="9.459217361392898"><ele>80.0</ele><time>2026-04-12T14:24:09Z</time></trkpt><trkpt lat="45.417553424009306" lon="9.459182661572429"><ele>80.0</ele><time>2026-04-12T14:24:10Z</time></trkpt><trkpt lat="45.417490512073456" lon="9.459146125643274"><ele>80.0</ele><time>2026-04-12T14:24:11Z</time></trkpt><trkpt lat="45.417432388761256" lon="9.459093555582639"><ele>80.0</ele><time>2026-04-12T14:24:12Z</time></trkpt><trkpt lat="45.4173771832056" lon="9.459036874478272"><ele>80.0</ele><time>2026-04-12T14:24:13Z</time></trkpt><trkpt lat="45.41732117887574" lon="9.458982784842688"><ele>80.0</ele><time>2026-04-12T14:24:14Z</time></trkpt><trkpt lat="45.4172573878602" lon="9.4589287484054"><ele>80.0</ele><time>2026-04-12T14:24:15Z</time></trkpt><trkpt lat="45.41719497511618" lon="9.458869783447888"><ele>80.0</ele><time>2026-04-12T14:24:16Z</time></trkpt><trkpt lat="45.41713394081784" lon="9.458796777393559"><ele>80.0</ele><time>2026-04-12T14:24:17Z</time></trkpt><trkpt lat="45.417054970581745" lon="9.458684785589261"><ele>80.2</ele><time>2026-04-12T14:24:19Z</time></trkpt><trkpt lat="45.417039598152826" lon="9.45855604914776"><ele>80.4</ele><time>2026-04-12T14:24:21Z</time></trkpt><trkpt lat="45.41711005725079" lon="9.458471269522422"><ele>80.6</ele><time>2026-04-12T14:24:23Z</time></trkpt><trkpt lat="45.41718873326126" lon="9.458484396862067"><ele>80.8</ele><time>2026-04-12T14:24:24Z</time></trkpt><trkpt lat="45.4172651117576" lon="9.45856782910033"><ele>81.0</ele><time>2026-04-12T14:24:25Z</time></trkpt><trkpt lat="45.417320945396355" lon="9.458680701627047"><ele>81.0</ele><time>2026-04-12T14:24:26Z</time></trkpt><trkpt lat="45.4172826961281" lon="9.45881869535387"><ele>81.0</ele><time>2026-04-12T14:24:28Z</time></trkpt><trkpt lat="45.41723061650542" lon="9.458871130773296"><ele>81.0</ele><time>2026-04-12T14:24:29Z</time></trkpt><trkpt lat="45.41713553497419" lon="9.458933984191937"><ele>81.0</ele><time>2026-04-12T14:24:31Z</time></trkpt><trkpt lat="45.41702148790782" lon="9.45896626192375"><ele>81.0</ele><time>2026-04-12T14:24:33Z</time></trkpt><trkpt lat="45.41698702037962" lon="9.459076320311103"><ele>81.0</ele><time>2026-04-12T14:24:35Z</time></trkpt><trkpt lat="45.41691378254308" lon="9.459139626238427"><ele>81.0</ele><time>2026-04-12T14:24:37Z</time></trkpt><trkpt lat="45.416856969690265" lon="9.459199895820507"><ele>81.0</ele><time>2026-04-12T14:24:39Z</time></trkpt><trkpt lat="45.41685186986147" lon="9.459297370546492"><ele>81.0</ele><time>2026-04-12T14:24:43Z</time></trkpt><trkpt lat="45.41688068006866" lon="9.459193202322265"><ele>81.0</ele><time>2026-04-12T14:24:58Z</time></trkpt><trkpt lat="45.41692487136033" lon="9.459110728718041"><ele>81.0</ele><time>2026-04-12T14:25:01Z</time></trkpt><trkpt lat="45.416865684532034" lon="9.4590227516149"><ele>81.0</ele><time>2026-04-12T14:25:04Z</time></trkpt><trkpt lat="45.41680533347966" lon="9.458960030833403"><ele>81.0</ele><time>2026-04-12T14:25:07Z</time></trkpt><trkpt lat="45.41674677391224" lon="9.458918914468645"><ele>81.0</ele><time>2026-04-12T14:25:10Z</time></trkpt><trkpt lat="45.41665824725247" lon="9.458856655578554"><ele>81.0</ele><time>2026-04-12T14:25:13Z</time></trkpt><trkpt lat="45.41660147387594" lon="9.458776335699122"><ele>81.0</ele><time>2026-04-12T14:25:15Z</time></trkpt><trkpt lat="45.41651988666178" lon="9.45874459112414"><ele>81.0</ele><time>2026-04-12T14:25:17Z</time></trkpt><trkpt lat="45.41644691031751" lon="9.458687063741776"><ele>81.0</ele><time>2026-04-12T14:25:19Z</time></trkpt><trkpt lat="45.41638349582545" lon="9.458659372391496"><ele>81.0</ele><time>2026-04-12T14:25:21Z</time></trkpt><trkpt lat="45.41633852835862" lon="9.458540789918356"><ele>81.0</ele><time>2026-04-12T14:25:24Z</time></trkpt><trkpt lat="45.41632026905039" lon="9.458425999170709"><ele>81.0</ele><time>2026-04-12T14:25:26Z</time></trkpt><trkpt lat="45.41628245259545" lon="9.45833899722653"><ele>81.0</ele><time>2026-04-12T14:25:28Z</time></trkpt><trkpt lat="45.41641252023191" lon="9.458339197700909"><ele>81.0</ele><time>2026-04-12T14:25:39.999Z</time></trkpt><trkpt lat="45.416451646860004" lon="9.458420578354735"><ele>81.0</ele><time>2026-04-12T14:25:41.999Z</time></trkpt><trkpt lat="45.416376966472654" lon="9.458467821605266"><ele>81.0</ele><time>2026-04-12T14:25:43.999Z</time></trkpt><trkpt lat="45.41630418159596" lon="9.45840865993898"><ele>81.0</ele><time>2026-04-12T14:25:45.999Z</time></trkpt><trkpt lat="45.41622638049536" lon="9.458374093941206"><ele>81.0</ele><time>2026-04-12T14:25:47.999Z</time></trkpt><trkpt lat="45.41615954768324" lon="9.45834381609352"><ele>81.0</ele><time>2026-04-12T14:25:51Z</time></trkpt><trkpt lat="45.4161171000916" lon="9.458260591525695"><ele>81.0</ele><time>2026-04-12T14:26:01Z</time></trkpt><trkpt lat="45.41615068997882" lon="9.458169738398974"><ele>81.0</ele><time>2026-04-12T14:26:05Z</time></trkpt><trkpt lat="45.41605508504921" lon="9.458125959791905"><ele>81.0</ele><time>2026-04-12T14:26:07Z</time></trkpt><trkpt lat="45.41598262795004" lon="9.45814615661468"><ele>81.0</ele><time>2026-04-12T14:26:09Z</time></trkpt><trkpt lat="45.415914070467394" lon="9.458050391350403"><ele>81.0</ele><time>2026-04-12T14:26:12Z</time></trkpt><trkpt lat="45.41585134528301" lon="9.458025642749094"><ele>81.0</ele><time>2026-04-12T14:26:14Z</time></trkpt><trkpt lat="45.415771912233716" lon="9.457997274722446"><ele>81.0</ele><time>2026-04-12T14:26:16Z</time></trkpt><trkpt lat="45.415700258610165" lon="9.457928823454273"><ele>81.0</ele><time>2026-04-12T14:26:24Z</time></trkpt><trkpt lat="45.41567913644734" lon="9.457840475476537"><ele>81.0</ele><time>2026-04-12T14:26:29Z</time></trkpt><trkpt lat="45.41573330777239" lon="9.45790949250015"><ele>81.0</ele><time>2026-04-12T14:27:38.999Z</time></trkpt><trkpt lat="45.41580791493129" lon="9.458008654966747"><ele>81.0</ele><time>2026-04-12T14:27:41.999Z</time></trkpt><trkpt lat="45.41587663673124" lon="9.458027388912301"><ele>81.0</ele><time>2026-04-12T14:27:43.999Z</time></trkpt><trkpt lat="45.415940540537854" lon="9.458046723537421"><ele>81.0</ele><time>2026-04-12T14:27:45.999Z</time></trkpt><trkpt lat="45.41597612623938" lon="9.458130048194622"><ele>81.0</ele><time>2026-04-12T14:27:48.999Z</time></trkpt><trkpt lat="45.4159878562415" lon="9.458257868586397"><ele>81.0</ele><time>2026-04-12T14:27:50.999Z</time></trkpt><trkpt lat="45.41603489718741" lon="9.458177597722118"><ele>81.0</ele><time>2026-04-12T14:27:51.999Z</time></trkpt><trkpt lat="45.41617229787835" lon="9.458149145248607"><ele>81.0</ele><time>2026-04-12T14:27:56Z</time></trkpt><trkpt lat="45.41614397520741" lon="9.458275009595503"><ele>81.0</ele><time>2026-04-12T14:28:02Z</time></trkpt><trkpt lat="45.416193977803076" lon="9.458357663660564"><ele>81.0</ele><time>2026-04-12T14:28:05Z</time></trkpt><trkpt lat="45.41636334267543" lon="9.458408626253057"><ele>81.33333333333333</ele><time>2026-04-12T14:28:09Z</time></trkpt><trkpt lat="45.416438528654155" lon="9.458471108569306"><ele>81.66666666666667</ele><time>2026-04-12T14:28:11Z</time></trkpt><trkpt lat="45.4165156532287" lon="9.458456506988378"><ele>82.0</ele><time>2026-04-12T14:28:14Z</time></trkpt><trkpt lat="45.41657450272724" lon="9.458409454729715"><ele>82.33333333333334</ele><time>2026-04-12T14:28:19Z</time></trkpt><trkpt lat="45.416625709739826" lon="9.458357265200235"><ele>82.66666666666667</ele><time>2026-04-12T14:28:27Z</time></trkpt><trkpt lat="45.41665397285315" lon="9.458269932911868"><ele>83.0</ele><time>2026-04-12T14:28:30Z</time></trkpt><trkpt lat="45.416590181613095" lon="9.458144689296203"><ele>83.0</ele><time>2026-04-12T14:28:32Z</time></trkpt><trkpt lat="45.4164901253805" lon="9.45803372638389"><ele>83.0</ele><time>2026-04-12T14:28:33Z</time></trkpt><trkpt lat="45.416360205194415" lon="9.457909285519206"><ele>83.0</ele><time>2026-04-12T14:28:34Z</time></trkpt><trkpt lat="45.416178817318915" lon="9.457739594329674"><ele>83.25</ele><time>2026-04-12T14:28:35Z</time></trkpt><trkpt lat="45.41607920387974" lon="9.457647554023518"><ele>83.5</ele><time>2026-04-12T14:28:36Z</time></trkpt><trkpt lat="45.41597903692108" lon="9.457512765109186"><ele>83.75</ele><time>2026-04-12T14:28:37Z</time></trkpt><trkpt lat="45.41587757240356" lon="9.457428392487568"><ele>84.0</ele><time>2026-04-12T14:28:38Z</time></trkpt><trkpt lat="45.415753388052494" lon="9.457360174252445"><ele>84.0</ele><time>2026-04-12T14:28:39Z</time></trkpt><trkpt lat="45.41563413853783" lon="9.457291178701123"><ele>84.0</ele><time>2026-04-12T14:28:40Z</time></trkpt><trkpt lat="45.41551529368067" lon="9.457197635378686"><ele>84.0</ele><time>2026-04-12T14:28:41Z</time></trkpt><trkpt lat="45.415407094782154" lon="9.457083762453726"><ele>84.0</ele><time>2026-04-12T14:28:42Z</time></trkpt><trkpt lat="45.41529351462114" lon="9.456962135527727"><ele>83.5</ele><time>2026-04-12T14:28:43Z</time></trkpt><trkpt lat="45.41520657061295" lon="9.456823883249879"><ele>83.0</ele><time>2026-04-12T14:28:44Z</time></trkpt><trkpt lat="45.41510679030985" lon="9.456677137817803"><ele>82.5</ele><time>2026-04-12T14:28:45Z</time></trkpt><trkpt lat="45.41500159745407" lon="9.456536908865983"><ele>82.0</ele><time>2026-04-12T14:28:46Z</time></trkpt><trkpt lat="45.41491396458231" lon="9.456401457419613"><ele>82.0</ele><time>2026-04-12T14:28:47Z</time></trkpt><trkpt lat="45.41480667691453" lon="9.456346337025016"><ele>82.0</ele><time>2026-04-12T14:28:48Z</time></trkpt><trkpt lat="45.41472239453175" lon="9.456213092466545"><ele>82.0</ele><time>2026-04-12T14:28:49Z</time></trkpt><trkpt lat="45.41464806332673" lon="9.456076270350383"><ele>82.0</ele><time>2026-04-12T14:28:50Z</time></trkpt><trkpt lat="45.414600762560354" lon="9.455947710474824"><ele>82.0</ele><time>2026-04-12T14:28:51Z</time></trkpt><trkpt lat="45.41459760425175" lon="9.455822130167238"><ele>82.0</ele><time>2026-04-12T14:28:52Z</time></trkpt><trkpt lat="45.414597290377436" lon="9.455666990494098"><ele>82.0</ele><time>2026-04-12T14:28:53Z</time></trkpt><trkpt lat="45.41459073098865" lon="9.455537314819138"><ele>82.0</ele><time>2026-04-12T14:28:54Z</time></trkpt><trkpt lat="45.41462629657747" lon="9.455404264700691"><ele>82.0</ele><time>2026-04-12T14:28:55Z</time></trkpt><trkpt lat="45.41461981012907" lon="9.455302080219818"><ele>82.0</ele><time>2026-04-12T14:28:56Z</time></trkpt><trkpt lat="45.414606375896426" lon="9.455185852045497"><ele>82.0</ele><time>2026-04-12T14:28:57Z</time></trkpt><trkpt lat="45.414585025521305" lon="9.455056333422911"><ele>82.0</ele><time>2026-04-12T14:28:58Z</time></trkpt><trkpt lat="45.414440106516594" lon="9.454990325432204"><ele>82.0</ele><time>2026-04-12T14:28:59Z</time></trkpt><trkpt lat="45.414290461960995" lon="9.454935986142633"><ele>82.0</ele><time>2026-04-12T14:29:00Z</time></trkpt><trkpt lat="45.414129814157896" lon="9.454854163119009"><ele>82.0</ele><time>2026-04-12T14:29:01Z</time></trkpt><trkpt lat="45.413958106485175" lon="9.454791506044836"><ele>82.0</ele><time>2026-04-12T14:29:02Z</time></trkpt><trkpt lat="45.41378062120125" lon="9.454741753666102"><ele>81.66666666666666</ele><time>2026-04-12T14:29:03Z</time></trkpt><trkpt lat="45.41362393181608" lon="9.454658362968"><ele>81.33333333333333</ele><time>2026-04-12T14:29:04Z</time></trkpt><trkpt lat="45.41346995324679" lon="9.45459960774687"><ele>81.0</ele><time>2026-04-12T14:29:05Z</time></trkpt><trkpt lat="45.4133372391509" lon="9.454542868303184"><ele>81.0</ele><time>2026-04-12T14:29:06Z</time></trkpt><trkpt lat="45.41320353661737" lon="9.45449367603941"><ele>81.0</ele><time>2026-04-12T14:29:07Z</time></trkpt><trkpt lat="45.41308213916446" lon="9.454459514111957"><ele>81.0</ele><time>2026-04-12T14:29:08Z</time></trkpt><trkpt lat="45.41300762117405" lon="9.454419994234197"><ele>81.0</ele><time>2026-04-12T14:29:09Z</time></trkpt><trkpt lat="45.41294234105799" lon="9.454373923889989"><ele>81.0</ele><time>2026-04-12T14:29:10Z</time></trkpt><trkpt lat="45.412874248737914" lon="9.454348998437558"><ele>81.5</ele><time>2026-04-12T14:29:11Z</time></trkpt><trkpt lat="45.41279648492725" lon="9.454373580873463"><ele>82.0</ele><time>2026-04-12T14:29:12Z</time></trkpt><trkpt lat="45.41273043776905" lon="9.454364389788177"><ele>82.5</ele><time>2026-04-12T14:29:13Z</time></trkpt><trkpt lat="45.41266621554892" lon="9.454360268888541"><ele>83.0</ele><time>2026-04-12T14:29:13.999Z</time></trkpt><trkpt lat="45.412551833699744" lon="9.45433891857132"><ele>83.5</ele><time>2026-04-12T14:29:15.999Z</time></trkpt><trkpt lat="45.41245536059919" lon="9.454315879983824"><ele>84.0</ele><time>2026-04-12T14:29:17.999Z</time></trkpt><trkpt lat="45.412367451313834" lon="9.454299715554491"><ele>84.0</ele><time>2026-04-12T14:29:19.999Z</time></trkpt><trkpt lat="45.41228152669556" lon="9.454274689789376"><ele>84.0</ele><time>2026-04-12T14:29:21.999Z</time></trkpt><trkpt lat="45.412173042909195" lon="9.454267839378357"><ele>84.0</ele><time>2026-04-12T14:29:23.999Z</time></trkpt><trkpt lat="45.4120466956474" lon="9.45426475414546"><ele>84.0</ele><time>2026-04-12T14:29:25.999Z</time></trkpt><trkpt lat="45.411981601221086" lon="9.454248578364554"><ele>84.0</ele><time>2026-04-12T14:29:26.999Z</time></trkpt><trkpt lat="45.411863022872865" lon="9.45421722867248"><ele>83.83333333333333</ele><time>2026-04-12T14:29:28.999Z</time></trkpt><trkpt lat="45.411755487958814" lon="9.454156035102876"><ele>83.66666666666667</ele><time>2026-04-12T14:29:30.999Z</time></trkpt><trkpt lat="45.4116941781248" lon="9.454126265554713"><ele>83.5</ele><time>2026-04-12T14:29:31.999Z</time></trkpt><trkpt lat="45.41159549031481" lon="9.454068979070522"><ele>83.33333333333334</ele><time>2026-04-12T14:29:33.999Z</time></trkpt><trkpt lat="45.41155500265453" lon="9.453988727151943"><ele>83.16666666666667</ele><time>2026-04-12T14:29:34.999Z</time></trkpt><trkpt lat="45.411532342504664" lon="9.453884000457398"><ele>83.0</ele><time>2026-04-12T14:29:35.999Z</time></trkpt><trkpt lat="45.411530454361" lon="9.453774984551343"><ele>83.0</ele><time>2026-04-12T14:29:36.999Z</time></trkpt><trkpt lat="45.41153438873785" lon="9.45366433793858"><ele>83.0</ele><time>2026-04-12T14:29:37.999Z</time></trkpt><trkpt lat="45.41153161734492" lon="9.45355224406539"><ele>83.0</ele><time>2026-04-12T14:29:38.999Z</time></trkpt><trkpt lat="45.41152577424978" lon="9.45344185226323"><ele>83.0</ele><time>2026-04-12T14:29:39.999Z</time></trkpt><trkpt lat="45.411520290381084" lon="9.453348244489492"><ele>83.0</ele><time>2026-04-12T14:29:40.999Z</time></trkpt><trkpt lat="45.411504038387235" lon="9.453182260988"><ele>83.0</ele><time>2026-04-12T14:29:42.999Z</time></trkpt><trkpt lat="45.41144983260786" lon="9.453035281710497"><ele>83.0</ele><time>2026-04-12T14:29:44.999Z</time></trkpt><trkpt lat="45.411402617421395" lon="9.452965387000305"><ele>83.0</ele><time>2026-04-12T14:29:45.999Z</time></trkpt><trkpt lat="45.41133601117995" lon="9.452907104382602"><ele>83.0</ele><time>2026-04-12T14:29:46.999Z</time></trkpt><trkpt lat="45.41128100823574" lon="9.452849856237924"><ele>83.0</ele><time>2026-04-12T14:29:47.999Z</time></trkpt><trkpt lat="45.41122582506363" lon="9.452794740344673"><ele>83.0</ele><time>2026-04-12T14:29:48.999Z</time></trkpt><trkpt lat="45.41117202468761" lon="9.452738918462035"><ele>83.0</ele><time>2026-04-12T14:29:49.999Z</time></trkpt><trkpt lat="45.4111217664153" lon="9.452684198774783"><ele>83.0</ele><time>2026-04-12T14:29:50.999Z</time></trkpt><trkpt lat="45.411027298266355" lon="9.452578440934857"><ele>83.80000000000001</ele><time>2026-04-12T14:29:52.999Z</time></trkpt><trkpt lat="45.41092107924861" lon="9.452475906467306"><ele>84.6</ele><time>2026-04-12T14:29:54.999Z</time></trkpt><trkpt lat="45.41081558438458" lon="9.452384227102769"><ele>85.4</ele><time>2026-04-12T14:29:56.999Z</time></trkpt><trkpt lat="45.41076557839837" lon="9.452319569657963"><ele>86.19999999999999</ele><time>2026-04-12T14:29:57.999Z</time></trkpt><trkpt lat="45.41071009631623" lon="9.45219228389987"><ele>87.0</ele><time>2026-04-12T14:29:59.999Z</time></trkpt><trkpt lat="45.41062760516673" lon="9.452104499601493"><ele>87.14285714285714</ele><time>2026-04-12T14:30:02Z</time></trkpt><trkpt lat="45.410565563641526" lon="9.452082313825915"><ele>87.28571428571429</ele><time>2026-04-12T14:30:03Z</time></trkpt><trkpt lat="45.41050224576229" lon="9.452094720983796"><ele>87.42857142857143</ele><time>2026-04-12T14:30:04Z</time></trkpt><trkpt lat="45.41044216446067" lon="9.452138564835378"><ele>87.57142857142857</ele><time>2026-04-12T14:30:05Z</time></trkpt><trkpt lat="45.41039963066665" lon="9.452224151186558"><ele>87.71428571428571</ele><time>2026-04-12T14:30:06Z</time></trkpt><trkpt lat="45.410365864381085" lon="9.452316088814408"><ele>87.85714285714286</ele><time>2026-04-12T14:30:07Z</time></trkpt><trkpt lat="45.41033830246091" lon="9.452399732341398"><ele>88.0</ele><time>2026-04-12T14:30:08Z</time></trkpt><trkpt lat="45.41028434064448" lon="9.452544677873208"><ele>88.60000000000001</ele><time>2026-04-12T14:30:10Z</time></trkpt><trkpt lat="45.41022486241121" lon="9.452663648733022"><ele>89.2</ele><time>2026-04-12T14:30:12Z</time></trkpt><trkpt lat="45.410178392597444" lon="9.452777661827986"><ele>89.8</ele><time>2026-04-12T14:30:14Z</time></trkpt><trkpt lat="45.41015824306673" lon="9.452913786953955"><ele>90.4</ele><time>2026-04-12T14:30:16Z</time></trkpt><trkpt lat="45.41012861795758" lon="9.453041647955876"><ele>91.0</ele><time>2026-04-12T14:30:18Z</time></trkpt><trkpt lat="45.41008834583583" lon="9.453141613138948"><ele>91.0</ele><time>2026-04-12T14:30:20Z</time></trkpt><trkpt lat="45.41003556299329" lon="9.453244080208286"><ele>91.0</ele><time>2026-04-12T14:30:22Z</time></trkpt><trkpt lat="45.40996786638514" lon="9.4533250035847"><ele>91.0</ele><time>2026-04-12T14:30:24Z</time></trkpt><trkpt lat="45.40988607844205" lon="9.453419116176569"><ele>91.0</ele><time>2026-04-12T14:30:27Z</time></trkpt><trkpt lat="45.40983663599395" lon="9.453508619889774"><ele>91.0</ele><time>2026-04-12T14:30:29Z</time></trkpt><trkpt lat="45.409815072799155" lon="9.453649198210664"><ele>90.33333333333333</ele><time>2026-04-12T14:30:32Z</time></trkpt><trkpt lat="45.409789531593475" lon="9.453799333017141"><ele>89.66666666666666</ele><time>2026-04-12T14:30:34Z</time></trkpt><trkpt lat="45.40976877804734" lon="9.453886602449304"><ele>89.0</ele><time>2026-04-12T14:30:35Z</time></trkpt><trkpt lat="45.409750954374005" lon="9.453981058079147"><ele>88.33333333333333</ele><time>2026-04-12T14:30:36Z</time></trkpt><trkpt lat="45.409739636851924" lon="9.454069709741235"><ele>87.66666666666667</ele><time>2026-04-12T14:30:37Z</time></trkpt><trkpt lat="45.409738512163905" lon="9.454256215524866"><ele>87.0</ele><time>2026-04-12T14:30:39Z</time></trkpt><trkpt lat="45.409757339134934" lon="9.454343647985255"><ele>87.0</ele><time>2026-04-12T14:30:40Z</time></trkpt><trkpt lat="45.40980634760782" lon="9.454420751067328"><ele>87.0</ele><time>2026-04-12T14:30:41Z</time></trkpt><trkpt lat="45.409799607750166" lon="9.454539346735839"><ele>87.0</ele><time>2026-04-12T14:30:42Z</time></trkpt><trkpt lat="45.40979347684502" lon="9.454652623782598"><ele>87.0</ele><time>2026-04-12T14:30:43Z</time></trkpt><trkpt lat="45.409778340162646" lon="9.454747285421"><ele>87.0</ele><time>2026-04-12T14:30:44Z</time></trkpt><trkpt lat="45.40976030772063" lon="9.454847992119696"><ele>87.0</ele><time>2026-04-12T14:30:45Z</time></trkpt><trkpt lat="45.409743639370696" lon="9.454976949710789"><ele>86.39999999999999</ele><time>2026-04-12T14:30:46Z</time></trkpt><trkpt lat="45.40978154811854" lon="9.455088127997639"><ele>85.8</ele><time>2026-04-12T14:30:47Z</time></trkpt><trkpt lat="45.40984080660444" lon="9.455215778849439"><ele>85.2</ele><time>2026-04-12T14:30:48Z</time></trkpt><trkpt lat="45.40988564063053" lon="9.455333410399534"><ele>84.6</ele><time>2026-04-12T14:30:49Z</time></trkpt><trkpt lat="45.409915592775" lon="9.455417076184562"><ele>84.0</ele><time>2026-04-12T14:30:50Z</time></trkpt><trkpt lat="45.40995163324914" lon="9.455595094901193"><ele>84.0</ele><time>2026-04-12T14:30:52Z</time></trkpt><trkpt lat="45.40994644396295" lon="9.455772485053332"><ele>84.0</ele><time>2026-04-12T14:30:54Z</time></trkpt><trkpt lat="45.409956111609546" lon="9.455874403419653"><ele>84.0</ele><time>2026-04-12T14:30:55Z</time></trkpt><trkpt lat="45.4099556972238" lon="9.455978613658903"><ele>84.0</ele><time>2026-04-12T14:30:56Z</time></trkpt><trkpt lat="45.40996049271368" lon="9.456098879314915"><ele>84.0</ele><time>2026-04-12T14:30:57Z</time></trkpt><trkpt lat="45.409951652154334" lon="9.456217113867122"><ele>84.0</ele><time>2026-04-12T14:30:58Z</time></trkpt><trkpt lat="45.40992969867402" lon="9.456340849655685"><ele>84.0</ele><time>2026-04-12T14:30:59Z</time></trkpt><trkpt lat="45.40990420074111" lon="9.456468822009223"><ele>84.0</ele><time>2026-04-12T14:31:00Z</time></trkpt><trkpt lat="45.40987611378097" lon="9.45659940533039"><ele>84.0</ele><time>2026-04-12T14:31:01Z</time></trkpt><trkpt lat="45.409847805725725" lon="9.456732416424726"><ele>84.0</ele><time>2026-04-12T14:31:02Z</time></trkpt><trkpt lat="45.40981974249076" lon="9.456878777634854"><ele>84.0</ele><time>2026-04-12T14:31:03Z</time></trkpt><trkpt lat="45.409789423405954" lon="9.457027945492754"><ele>83.75</ele><time>2026-04-12T14:31:04Z</time></trkpt><trkpt lat="45.40975866212222" lon="9.457181762932125"><ele>83.5</ele><time>2026-04-12T14:31:05Z</time></trkpt><trkpt lat="45.40973430288369" lon="9.457337200658872"><ele>83.25</ele><time>2026-04-12T14:31:06Z</time></trkpt><trkpt lat="45.40970375841915" lon="9.457497019361893"><ele>83.0</ele><time>2026-04-12T14:31:07Z</time></trkpt><trkpt lat="45.409661521680526" lon="9.457654987278238"><ele>83.0</ele><time>2026-04-12T14:31:08Z</time></trkpt><trkpt lat="45.40961232684942" lon="9.457797449167582"><ele>83.0</ele><time>2026-04-12T14:31:09Z</time></trkpt><trkpt lat="45.409574234990714" lon="9.45793196663286"><ele>83.0</ele><time>2026-04-12T14:31:10Z</time></trkpt><trkpt lat="45.40955297941375" lon="9.458057465809818"><ele>83.0</ele><time>2026-04-12T14:31:11Z</time></trkpt><trkpt lat="45.40953184893441" lon="9.458191962468517"><ele>83.0</ele><time>2026-04-12T14:31:12Z</time></trkpt><trkpt lat="45.40949185496577" lon="9.458322638964171"><ele>83.0</ele><time>2026-04-12T14:31:13Z</time></trkpt><trkpt lat="45.40941098767678" lon="9.458470039484409"><ele>83.0</ele><time>2026-04-12T14:31:14Z</time></trkpt><trkpt lat="45.409329796494575" lon="9.458630381851583"><ele>83.0</ele><time>2026-04-12T14:31:15Z</time></trkpt><trkpt lat="45.40927902349795" lon="9.458781495269614"><ele>83.0</ele><time>2026-04-12T14:31:16Z</time></trkpt><trkpt lat="45.40924171719756" lon="9.458896469204436"><ele>82.83333333333334</ele><time>2026-04-12T14:31:17Z</time></trkpt><trkpt lat="45.40919874450596" lon="9.459009226502202"><ele>82.66666666666667</ele><time>2026-04-12T14:31:18Z</time></trkpt><trkpt lat="45.409163159451296" lon="9.459118423932916"><ele>82.5</ele><time>2026-04-12T14:31:19Z</time></trkpt><trkpt lat="45.40914513772948" lon="9.45922875748169"><ele>82.33333333333333</ele><time>2026-04-12T14:31:20Z</time></trkpt><trkpt lat="45.40917489625244" lon="9.459337248713233"><ele>82.16666666666666</ele><time>2026-04-12T14:31:21Z</time></trkpt><trkpt lat="45.40924098529142" lon="9.459449213760886"><ele>82.0</ele><time>2026-04-12T14:31:22Z</time></trkpt><trkpt lat="45.409303649351536" lon="9.45955469956417"><ele>81.6</ele><time>2026-04-12T14:31:23Z</time></trkpt><trkpt lat="45.40933060891646" lon="9.45963646897364"><ele>81.19999999999999</ele><time>2026-04-12T14:31:24Z</time></trkpt><trkpt lat="45.40930486763929" lon="9.459764412201876"><ele>80.8</ele><time>2026-04-12T14:31:25Z</time></trkpt><trkpt lat="45.40925183418951" lon="9.459870556883587"><ele>80.4</ele><time>2026-04-12T14:31:26Z</time></trkpt><trkpt lat="45.40917250341609" lon="9.459975239180825"><ele>80.0</ele><time>2026-04-12T14:31:27Z</time></trkpt><trkpt lat="45.40909238687357" lon="9.460071990794706"><ele>80.0</ele><time>2026-04-12T14:31:28Z</time></trkpt><trkpt lat="45.40901543619808" lon="9.460151653671439"><ele>80.0</ele><time>2026-04-12T14:31:29Z</time></trkpt><trkpt lat="45.40894090805814" lon="9.460194766083541"><ele>80.0</ele><time>2026-04-12T14:31:30Z</time></trkpt><trkpt lat="45.408855719253815" lon="9.46022269673675"><ele>80.0</ele><time>2026-04-12T14:31:30.999Z</time></trkpt><trkpt lat="45.408761985117636" lon="9.460254642735645"><ele>80.0</ele><time>2026-04-12T14:31:31.999Z</time></trkpt><trkpt lat="45.40865773204062" lon="9.460306358843726"><ele>80.0</ele><time>2026-04-12T14:31:32.999Z</time></trkpt><trkpt lat="45.40856755819111" lon="9.46037624777165"><ele>80.0</ele><time>2026-04-12T14:31:33.999Z</time></trkpt><trkpt lat="45.408488109179025" lon="9.460433742976434"><ele>80.0</ele><time>2026-04-12T14:31:34.999Z</time></trkpt><trkpt lat="45.408409754030146" lon="9.460483386269928"><ele>80.0</ele><time>2026-04-12T14:31:35.999Z</time></trkpt><trkpt lat="45.408326264808466" lon="9.460538356099145"><ele>80.0</ele><time>2026-04-12T14:31:36.999Z</time></trkpt><trkpt lat="45.408226601587934" lon="9.46058699402791"><ele>80.0</ele><time>2026-04-12T14:31:37.999Z</time></trkpt><trkpt lat="45.40809908857943" lon="9.460602776593968"><ele>80.0</ele><time>2026-04-12T14:31:38.999Z</time></trkpt><trkpt lat="45.40796311992088" lon="9.460628450964201"><ele>80.0</ele><time>2026-04-12T14:31:39.999Z</time></trkpt><trkpt lat="45.40782873522144" lon="9.46065088071585"><ele>80.0</ele><time>2026-04-12T14:31:40.999Z</time></trkpt><trkpt lat="45.407714106472014" lon="9.460658647270934"><ele>80.0</ele><time>2026-04-12T14:31:41.999Z</time></trkpt><trkpt lat="45.40761320926649" lon="9.460671990647443"><ele>80.0</ele><time>2026-04-12T14:31:42.999Z</time></trkpt><trkpt lat="45.40750689999413" lon="9.46068071949001"><ele>80.0</ele><time>2026-04-12T14:31:43.999Z</time></trkpt><trkpt lat="45.407407895209495" lon="9.460696008173645"><ele>80.0</ele><time>2026-04-12T14:31:44.999Z</time></trkpt><trkpt lat="45.407316522098" lon="9.46070938997193"><ele>80.0</ele><time>2026-04-12T14:31:45.999Z</time></trkpt><trkpt lat="45.40721749799356" lon="9.460711761155036"><ele>79.83333333333334</ele><time>2026-04-12T14:31:46.999Z</time></trkpt><trkpt lat="45.407119639439074" lon="9.460715708009282"><ele>79.66666666666667</ele><time>2026-04-12T14:31:47.999Z</time></trkpt><trkpt lat="45.4070248312107" lon="9.460729586778873"><ele>79.5</ele><time>2026-04-12T14:31:48.999Z</time></trkpt><trkpt lat="45.40693261542634" lon="9.460752814376699"><ele>79.33333333333333</ele><time>2026-04-12T14:31:49.999Z</time></trkpt><trkpt lat="45.40685264615149" lon="9.460762124802319"><ele>79.16666666666666</ele><time>2026-04-12T14:31:50.999Z</time></trkpt><trkpt lat="45.40677169505006" lon="9.46074205048362"><ele>79.0</ele><time>2026-04-12T14:31:51.999Z</time></trkpt><trkpt lat="45.40669322862533" lon="9.460713374684039"><ele>79.00000000000001</ele><time>2026-04-12T14:31:52.999Z</time></trkpt><trkpt lat="45.4066116842973" lon="9.460679073314571"><ele>79.0</ele><time>2026-04-12T14:31:53.999Z</time></trkpt><trkpt lat="45.4065428981179" lon="9.460625945978212"><ele>79.0</ele><time>2026-04-12T14:31:54.999Z</time></trkpt><trkpt lat="45.40648297793432" lon="9.46057704278203"><ele>79.0</ele><time>2026-04-12T14:31:55.999Z</time></trkpt><trkpt lat="45.406419608606" lon="9.460545816394806"><ele>79.0</ele><time>2026-04-12T14:31:56.999Z</time></trkpt><trkpt lat="45.40635114479726" lon="9.46051323073369"><ele>79.00000000000001</ele><time>2026-04-12T14:31:57.999Z</time></trkpt><trkpt lat="45.406283573109675" lon="9.46046288495014"><ele>79.0</ele><time>2026-04-12T14:31:58.999Z</time></trkpt><trkpt lat="45.40622106666308" lon="9.460401103183104"><ele>79.4</ele><time>2026-04-12T14:31:59.999Z</time></trkpt><trkpt lat="45.40615452062219" lon="9.460366100044785"><ele>79.80000000000001</ele><time>2026-04-12T14:32:00.999Z</time></trkpt><trkpt lat="45.406061248514405" lon="9.46034939550616"><ele>80.19999999999999</ele><time>2026-04-12T14:32:01.999Z</time></trkpt><trkpt lat="45.405962249000595" lon="9.460353681725536"><ele>80.6</ele><time>2026-04-12T14:32:02.999Z</time></trkpt><trkpt lat="45.40586381101528" lon="9.460341414556812"><ele>81.0</ele><time>2026-04-12T14:32:03.999Z</time></trkpt><trkpt lat="45.405776431007574" lon="9.460301873395462"><ele>81.0</ele><time>2026-04-12T14:32:04.999Z</time></trkpt><trkpt lat="45.40569019365725" lon="9.46020976884926"><ele>81.0</ele><time>2026-04-12T14:32:05.999Z</time></trkpt><trkpt lat="45.4055917210868" lon="9.460150914141712"><ele>81.0</ele><time>2026-04-12T14:32:07Z</time></trkpt><trkpt lat="45.40546922980833" lon="9.460134058359456"><ele>81.0</ele><time>2026-04-12T14:32:08Z</time></trkpt><trkpt lat="45.405325361067725" lon="9.46011166439681"><ele>81.0</ele><time>2026-04-12T14:32:09Z</time></trkpt><trkpt lat="45.405211516264366" lon="9.46008616520852"><ele>81.0</ele><time>2026-04-12T14:32:10Z</time></trkpt><trkpt lat="45.40509303507045" lon="9.460053222950538"><ele>81.0</ele><time>2026-04-12T14:32:11Z</time></trkpt><trkpt lat="45.40495908974982" lon="9.46001085487038"><ele>81.0</ele><time>2026-04-12T14:32:12Z</time></trkpt><trkpt lat="45.404833692939235" lon="9.459978278178534"><ele>81.0</ele><time>2026-04-12T14:32:13Z</time></trkpt><trkpt lat="45.40471623744443" lon="9.459951542478692"><ele>81.0</ele><time>2026-04-12T14:32:14Z</time></trkpt><trkpt lat="45.40461311852134" lon="9.459926254871096"><ele>81.0</ele><time>2026-04-12T14:32:15Z</time></trkpt><trkpt lat="45.40453827332093" lon="9.459891465231102"><ele>81.0</ele><time>2026-04-12T14:32:16Z</time></trkpt><trkpt lat="45.40444669947166" lon="9.459873404227348"><ele>81.0</ele><time>2026-04-12T14:32:17Z</time></trkpt><trkpt lat="45.404349220166885" lon="9.45984733591852"><ele>81.16666666666667</ele><time>2026-04-12T14:32:18Z</time></trkpt><trkpt lat="45.40427066460387" lon="9.459793844928202"><ele>81.33333333333333</ele><time>2026-04-12T14:32:19Z</time></trkpt><trkpt lat="45.40420408362499" lon="9.459722766550419"><ele>81.5</ele><time>2026-04-12T14:32:20Z</time></trkpt><trkpt lat="45.40414177288934" lon="9.459643922962067"><ele>81.66666666666666</ele><time>2026-04-12T14:32:21Z</time></trkpt><trkpt lat="45.4040725528617" lon="9.459586838162737"><ele>81.83333333333333</ele><time>2026-04-12T14:32:22Z</time></trkpt><trkpt lat="45.40399635237483" lon="9.459543179855219"><ele>82.0</ele><time>2026-04-12T14:32:23Z</time></trkpt><trkpt lat="45.40387005987104" lon="9.4595175086271"><ele>82.33333333333333</ele><time>2026-04-12T14:32:25Z</time></trkpt><trkpt lat="45.40380528654074" lon="9.459550634430446"><ele>82.66666666666666</ele><time>2026-04-12T14:32:26Z</time></trkpt><trkpt lat="45.40374735550554" lon="9.459672373117026"><ele>83.0</ele><time>2026-04-12T14:32:28Z</time></trkpt><trkpt lat="45.40367862056396" lon="9.459667872295952"><ele>83.33333333333333</ele><time>2026-04-12T14:32:29Z</time></trkpt><trkpt lat="45.40360814043811" lon="9.459691387569503"><ele>83.66666666666667</ele><time>2026-04-12T14:32:30Z</time></trkpt><trkpt lat="45.40353689856997" lon="9.45976560531085"><ele>84.0</ele><time>2026-04-12T14:32:31Z</time></trkpt><trkpt lat="45.40347049615956" lon="9.459859984722073"><ele>84.0</ele><time>2026-04-12T14:32:33Z</time></trkpt><trkpt lat="45.4034321156446" lon="9.459957834030291"><ele>84.0</ele><time>2026-04-12T14:32:35Z</time></trkpt><trkpt lat="45.403319513493926" lon="9.45994150911405"><ele>84.0</ele><time>2026-04-12T14:32:37Z</time></trkpt><trkpt lat="45.40323181868117" lon="9.459945922552574"><ele>84.0</ele><time>2026-04-12T14:32:39Z</time></trkpt><trkpt lat="45.40314631983721" lon="9.459916625637325"><ele>84.0</ele><time>2026-04-12T14:32:40Z</time></trkpt><trkpt lat="45.403101416797604" lon="9.459819194614328"><ele>84.0</ele><time>2026-04-12T14:32:42Z</time></trkpt><trkpt lat="45.40305777017255" lon="9.459700348795014"><ele>83.66666666666667</ele><time>2026-04-12T14:32:44Z</time></trkpt><trkpt lat="45.40306752172662" lon="9.459609732588781"><ele>83.33333333333333</ele><time>2026-04-12T14:32:46Z</time></trkpt><trkpt lat="45.40311139354589" lon="9.459530955018566"><ele>83.0</ele><time>2026-04-12T14:32:50Z</time></trkpt><trkpt lat="45.40303381782099" lon="9.459493941571031"><ele>82.66666666666666</ele><time>2026-04-12T14:32:51Z</time></trkpt><trkpt lat="45.40303082642172" lon="9.459362540406774"><ele>82.33333333333333</ele><time>2026-04-12T14:32:53Z</time></trkpt><trkpt lat="45.40302314284626" lon="9.459258079043222"><ele>82.0</ele><time>2026-04-12T14:32:56Z</time></trkpt><trkpt lat="45.40295299283261" lon="9.45918302906964"><ele>82.0</ele><time>2026-04-12T14:32:58Z</time></trkpt><trkpt lat="45.402918608291664" lon="9.45907527973024"><ele>82.0</ele><time>2026-04-12T14:33:01Z</time></trkpt><trkpt lat="45.40283804227311" lon="9.459008887925005"><ele>82.0</ele><time>2026-04-12T14:33:03Z</time></trkpt><trkpt lat="45.402820488521634" lon="9.458843741996983"><ele>82.0</ele><time>2026-04-12T14:33:05Z</time></trkpt><trkpt lat="45.40283548401619" lon="9.45872865378867"><ele>82.0</ele><time>2026-04-12T14:33:06Z</time></trkpt><trkpt lat="45.40284233002337" lon="9.458581024252515"><ele>82.0</ele><time>2026-04-12T14:33:07Z</time></trkpt><trkpt lat="45.40284752877499" lon="9.458395755761593"><ele>82.0</ele><time>2026-04-12T14:33:08Z</time></trkpt><trkpt lat="45.40285439779475" lon="9.458185237566795"><ele>82.0</ele><time>2026-04-12T14:33:09Z</time></trkpt><trkpt lat="45.402852904371805" lon="9.45801461162259"><ele>82.0</ele><time>2026-04-12T14:33:10Z</time></trkpt><trkpt lat="45.40284977051923" lon="9.45784299371686"><ele>82.0</ele><time>2026-04-12T14:33:11Z</time></trkpt><trkpt lat="45.402865827918134" lon="9.45765682714477"><ele>82.0</ele><time>2026-04-12T14:33:12Z</time></trkpt><trkpt lat="45.40286604129081" lon="9.457454414869721"><ele>82.0</ele><time>2026-04-12T14:33:13Z</time></trkpt><trkpt lat="45.40288875098447" lon="9.457249265412479"><ele>82.0</ele><time>2026-04-12T14:33:14Z</time></trkpt><trkpt lat="45.402894496378075" lon="9.45706196305054"><ele>82.0</ele><time>2026-04-12T14:33:15Z</time></trkpt><trkpt lat="45.40289006282803" lon="9.456881694772429"><ele>82.0</ele><time>2026-04-12T14:33:16Z</time></trkpt><trkpt lat="45.402902688605685" lon="9.456706951637738"><ele>82.0</ele><time>2026-04-12T14:33:17Z</time></trkpt><trkpt lat="45.40291187205809" lon="9.456529593977919"><ele>82.0</ele><time>2026-04-12T14:33:18Z</time></trkpt><trkpt lat="45.40292575386897" lon="9.456357267630263"><ele>82.25</ele><time>2026-04-12T14:33:19Z</time></trkpt><trkpt lat="45.40295791756596" lon="9.456189724181034"><ele>82.5</ele><time>2026-04-12T14:33:20Z</time></trkpt><trkpt lat="45.402979137764945" lon="9.4560089103766"><ele>82.75</ele><time>2026-04-12T14:33:21Z</time></trkpt><trkpt lat="45.40299954784586" lon="9.455834999478332"><ele>83.0</ele><time>2026-04-12T14:33:22Z</time></trkpt><trkpt lat="45.40301981389278" lon="9.455672297109434"><ele>83.5</ele><time>2026-04-12T14:33:23Z</time></trkpt><trkpt lat="45.40303933011715" lon="9.455516054140634"><ele>84.0</ele><time>2026-04-12T14:33:24Z</time></trkpt><trkpt lat="45.403051056231554" lon="9.455347595146185"><ele>84.5</ele><time>2026-04-12T14:33:25Z</time></trkpt><trkpt lat="45.40307081885198" lon="9.455182109435095"><ele>85.0</ele><time>2026-04-12T14:33:26Z</time></trkpt><trkpt lat="45.403092373533546" lon="9.455005244398734"><ele>85.0</ele><time>2026-04-12T14:33:27Z</time></trkpt><trkpt lat="45.4031282404296" lon="9.4548402643567"><ele>85.0</ele><time>2026-04-12T14:33:28Z</time></trkpt><trkpt lat="45.40315353664131" lon="9.454651856108882"><ele>85.0</ele><time>2026-04-12T14:33:29Z</time></trkpt><trkpt lat="45.40317652875239" lon="9.454482974666933"><ele>85.0</ele><time>2026-04-12T14:33:30Z</time></trkpt><trkpt lat="45.40319950520033" lon="9.45432996381466"><ele>84.5</ele><time>2026-04-12T14:33:31Z</time></trkpt><trkpt lat="45.40322960124724" lon="9.454166497803778"><ele>84.0</ele><time>2026-04-12T14:33:32Z</time></trkpt><trkpt lat="45.403265251922654" lon="9.454001941573656"><ele>83.5</ele><time>2026-04-12T14:33:33Z</time></trkpt><trkpt lat="45.40330515982592" lon="9.45382959420459"><ele>83.0</ele><time>2026-04-12T14:33:34Z</time></trkpt><trkpt lat="45.403344256966946" lon="9.453649952853054"><ele>82.75</ele><time>2026-04-12T14:33:35Z</time></trkpt><trkpt lat="45.40338104498909" lon="9.453472535191992"><ele>82.5</ele><time>2026-04-12T14:33:36Z</time></trkpt><trkpt lat="45.403415599964596" lon="9.453305068975085"><ele>82.25</ele><time>2026-04-12T14:33:37Z</time></trkpt><trkpt lat="45.403440535473656" lon="9.453139403066508"><ele>82.0</ele><time>2026-04-12T14:33:38Z</time></trkpt><trkpt lat="45.40348228809021" lon="9.452985050560875"><ele>82.19999999999999</ele><time>2026-04-12T14:33:39Z</time></trkpt><trkpt lat="45.40353952573472" lon="9.452832044897617"><ele>82.4</ele><time>2026-04-12T14:33:40Z</time></trkpt><trkpt lat="45.403564277471766" lon="9.452703160287497"><ele>82.6</ele><time>2026-04-12T14:33:41Z</time></trkpt><trkpt lat="45.40360164273813" lon="9.452590189039174"><ele>82.80000000000001</ele><time>2026-04-12T14:33:42Z</time></trkpt><trkpt lat="45.40364195610999" lon="9.452515280722778"><ele>83.0</ele><time>2026-04-12T14:33:43Z</time></trkpt><trkpt lat="45.403674336810035" lon="9.45237190252551"><ele>83.0</ele><time>2026-04-12T14:33:45Z</time></trkpt><trkpt lat="45.4037115170512" lon="9.452254932558345"><ele>83.0</ele><time>2026-04-12T14:33:47Z</time></trkpt><trkpt lat="45.40375702166098" lon="9.45216440241929"><ele>83.0</ele><time>2026-04-12T14:33:49Z</time></trkpt><trkpt lat="45.403776514424436" lon="9.452046712406007"><ele>83.0</ele><time>2026-04-12T14:34:00.999Z</time></trkpt><trkpt lat="45.403841913201994" lon="9.451960487637876"><ele>83.0</ele><time>2026-04-12T14:34:02.999Z</time></trkpt><trkpt lat="45.40388785076982" lon="9.451840779084803"><ele>83.0</ele><time>2026-04-12T14:34:03.999Z</time></trkpt><trkpt lat="45.40393189487333" lon="9.451669437425977"><ele>84.2</ele><time>2026-04-12T14:34:05.999Z</time></trkpt><trkpt lat="45.403987668252356" lon="9.451582888650002"><ele>85.4</ele><time>2026-04-12T14:34:07.999Z</time></trkpt><trkpt lat="45.4041414464025" lon="9.451495739572609"><ele>86.60000000000001</ele><time>2026-04-12T14:34:34Z</time></trkpt><trkpt lat="45.4041901271784" lon="9.451407737316483"><ele>87.80000000000001</ele><time>2026-04-12T14:34:35Z</time></trkpt><trkpt lat="45.40422459018929" lon="9.45127354563828"><ele>89.0</ele><time>2026-04-12T14:34:36Z</time></trkpt><trkpt lat="45.40426577532096" lon="9.451140607302936"><ele>89.0</ele><time>2026-04-12T14:34:37Z</time></trkpt><trkpt lat="45.40432119769915" lon="9.451021595807665"><ele>89.0</ele><time>2026-04-12T14:34:38Z</time></trkpt><trkpt lat="45.40435796188849" lon="9.450906345659657"><ele>89.0</ele><time>2026-04-12T14:34:39Z</time></trkpt><trkpt lat="45.404382676118466" lon="9.450795881433573"><ele>89.0</ele><time>2026-04-12T14:34:40Z</time></trkpt><trkpt lat="45.404447738550374" lon="9.450669652340915"><ele>89.0</ele><time>2026-04-12T14:34:41Z</time></trkpt><trkpt lat="45.4044997099413" lon="9.450545534546967"><ele>89.5</ele><time>2026-04-12T14:34:42Z</time></trkpt><trkpt lat="45.40455634172239" lon="9.450418337469044"><ele>90.0</ele><time>2026-04-12T14:34:43Z</time></trkpt><trkpt lat="45.404617892493356" lon="9.45028892266409"><ele>90.5</ele><time>2026-04-12T14:34:44Z</time></trkpt><trkpt lat="45.40469250890352" lon="9.450157137173072"><ele>91.0</ele><time>2026-04-12T14:34:45Z</time></trkpt><trkpt lat="45.40475363715978" lon="9.450010314720686"><ele>92.0</ele><time>2026-04-12T14:34:46Z</time></trkpt><trkpt lat="45.40482893088328" lon="9.449867061918933"><ele>93.0</ele><time>2026-04-12T14:34:47Z</time></trkpt><trkpt lat="45.40491549878627" lon="9.449717252052821"><ele>94.0</ele><time>2026-04-12T14:34:48Z</time></trkpt><trkpt lat="45.40499562593478" lon="9.449570392653296"><ele>95.0</ele><time>2026-04-12T14:34:49Z</time></trkpt><trkpt lat="45.405072682349264" lon="9.449429953729924"><ele>95.0</ele><time>2026-04-12T14:34:50Z</time></trkpt><trkpt lat="45.40515678694891" lon="9.449299758474707"><ele>95.0</ele><time>2026-04-12T14:34:51Z</time></trkpt><trkpt lat="45.40523642951266" lon="9.449167151869418"><ele>95.0</ele><time>2026-04-12T14:34:52Z</time></trkpt><trkpt lat="45.405314037852925" lon="9.449038416521253"><ele>95.0</ele><time>2026-04-12T14:34:53Z</time></trkpt><trkpt lat="45.4053947770708" lon="9.44891423175925"><ele>95.0</ele><time>2026-04-12T14:34:54Z</time></trkpt><trkpt lat="45.40547255654557" lon="9.448784714554852"><ele>95.0</ele><time>2026-04-12T14:34:55Z</time></trkpt><trkpt lat="45.40555158288667" lon="9.448657492065466"><ele>95.0</ele><time>2026-04-12T14:34:56Z</time></trkpt><trkpt lat="45.40563623563648" lon="9.448532224363282"><ele>95.0</ele><time>2026-04-12T14:34:57Z</time></trkpt><trkpt lat="45.40571634824115" lon="9.448410986591037"><ele>95.0</ele><time>2026-04-12T14:34:58Z</time></trkpt><trkpt lat="45.405798452396816" lon="9.448289500600444"><ele>95.0</ele><time>2026-04-12T14:34:59Z</time></trkpt><trkpt lat="45.40588350440922" lon="9.448160609363072"><ele>95.0</ele><time>2026-04-12T14:35:00Z</time></trkpt><trkpt lat="45.40596497878802" lon="9.448033456271268"><ele>95.0</ele><time>2026-04-12T14:35:01Z</time></trkpt><trkpt lat="45.40604745145179" lon="9.447903450392461"><ele>95.0</ele><time>2026-04-12T14:35:02Z</time></trkpt><trkpt lat="45.40613152893852" lon="9.44777239983545"><ele>95.0</ele><time>2026-04-12T14:35:03Z</time></trkpt><trkpt lat="45.40621832267442" lon="9.447642313938383"><ele>95.0</ele><time>2026-04-12T14:35:04Z</time></trkpt><trkpt lat="45.40629861779648" lon="9.447510688369762"><ele>95.0</ele><time>2026-04-12T14:35:05Z</time></trkpt><trkpt lat="45.40637440645996" lon="9.447380377038385"><ele>94.25</ele><time>2026-04-12T14:35:06Z</time></trkpt><trkpt lat="45.40645445828402" lon="9.447248821041704"><ele>93.5</ele><time>2026-04-12T14:35:07Z</time></trkpt><trkpt lat="45.40653399696528" lon="9.447119430600354"><ele>92.75</ele><time>2026-04-12T14:35:08Z</time></trkpt><trkpt lat="45.406614363440134" lon="9.446995151072135"><ele>92.0</ele><time>2026-04-12T14:35:09Z</time></trkpt><trkpt lat="45.40669764201412" lon="9.446872242071953"><ele>91.75</ele><time>2026-04-12T14:35:10Z</time></trkpt><trkpt lat="45.406775957757155" lon="9.446750781096341"><ele>91.5</ele><time>2026-04-12T14:35:11Z</time></trkpt><trkpt lat="45.40684945904965" lon="9.446620041982895"><ele>91.25</ele><time>2026-04-12T14:35:12Z</time></trkpt><trkpt lat="45.406923209524216" lon="9.44648828415037"><ele>91.0</ele><time>2026-04-12T14:35:13Z</time></trkpt><trkpt lat="45.40699636370983" lon="9.446361250766788"><ele>91.4</ele><time>2026-04-12T14:35:14Z</time></trkpt><trkpt lat="45.407065321463286" lon="9.446247640459484"><ele>91.8</ele><time>2026-04-12T14:35:15Z</time></trkpt><trkpt lat="45.407129469552274" lon="9.446145434641648"><ele>92.2</ele><time>2026-04-12T14:35:16Z</time></trkpt><trkpt lat="45.407192003740846" lon="9.44604445897249"><ele>92.60000000000001</ele><time>2026-04-12T14:35:17Z</time></trkpt><trkpt lat="45.4072484037156" lon="9.44593252980443"><ele>93.0</ele><time>2026-04-12T14:35:18Z</time></trkpt><trkpt lat="45.40730667578075" lon="9.445833890906584"><ele>93.16666666666667</ele><time>2026-04-12T14:35:19Z</time></trkpt><trkpt lat="45.40736491175789" lon="9.445743025867884"><ele>93.33333333333333</ele><time>2026-04-12T14:35:20Z</time></trkpt><trkpt lat="45.40741642377461" lon="9.445658583390923"><ele>93.5</ele><time>2026-04-12T14:35:21Z</time></trkpt><trkpt lat="45.40746832774448" lon="9.445583199250525"><ele>93.66666666666666</ele><time>2026-04-12T14:35:22Z</time></trkpt><trkpt lat="45.40751396409073" lon="9.445506534629548"><ele>93.83333333333333</ele><time>2026-04-12T14:35:23Z</time></trkpt><trkpt lat="45.40757232475473" lon="9.445441751276418"><ele>94.0</ele><time>2026-04-12T14:35:24Z</time></trkpt><trkpt lat="45.40762074125523" lon="9.445365472448207"><ele>94.25</ele><time>2026-04-12T14:35:25Z</time></trkpt><trkpt lat="45.40750656123865" lon="9.445152887980598"><ele>94.5</ele><time>2026-04-12T14:35:26Z</time></trkpt><trkpt lat="45.40751418601934" lon="9.445008580739254"><ele>94.75</ele><time>2026-04-12T14:35:27Z</time></trkpt><trkpt lat="45.40752984117616" lon="9.4448495284151"><ele>95.0</ele><time>2026-04-12T14:35:28Z</time></trkpt><trkpt lat="45.407506307896796" lon="9.444661765673143"><ele>95.0</ele><time>2026-04-12T14:35:29Z</time></trkpt><trkpt lat="45.40755554675013" lon="9.444461911130226"><ele>95.0</ele><time>2026-04-12T14:35:30Z</time></trkpt><trkpt lat="45.4076009889795" lon="9.444259795719438"><ele>95.0</ele><time>2026-04-12T14:35:31Z</time></trkpt><trkpt lat="45.40766252171377" lon="9.444056038002405"><ele>95.0</ele><time>2026-04-12T14:35:32Z</time></trkpt><trkpt lat="45.4077380559078" lon="9.443864852539232"><ele>95.0</ele><time>2026-04-12T14:35:33Z</time></trkpt><trkpt lat="45.40781465508011" lon="9.443673835123938"><ele>95.0</ele><time>2026-04-12T14:35:34Z</time></trkpt><trkpt lat="45.40787887696828" lon="9.443472348330035"><ele>95.0</ele><time>2026-04-12T14:35:35Z</time></trkpt><trkpt lat="45.407952008480116" lon="9.443268725423968"><ele>95.0</ele><time>2026-04-12T14:35:36Z</time></trkpt><trkpt lat="45.40804010946378" lon="9.443082262002584"><ele>95.0</ele><time>2026-04-12T14:35:37Z</time></trkpt><trkpt lat="45.40812310390581" lon="9.44289736046315"><ele>95.0</ele><time>2026-04-12T14:35:38Z</time></trkpt><trkpt lat="45.408206657434945" lon="9.442718621497695"><ele>95.0</ele><time>2026-04-12T14:35:39Z</time></trkpt><trkpt lat="45.40828719489716" lon="9.442548914415054"><ele>95.0</ele><time>2026-04-12T14:35:40Z</time></trkpt><trkpt lat="45.40835480612555" lon="9.442397289103596"><ele>95.0</ele><time>2026-04-12T14:35:41Z</time></trkpt><trkpt lat="45.40842040722265" lon="9.442252183911826"><ele>95.0</ele><time>2026-04-12T14:35:42Z</time></trkpt><trkpt lat="45.408486670018355" lon="9.44209989830986"><ele>95.0</ele><time>2026-04-12T14:35:43Z</time></trkpt><trkpt lat="45.40855816989598" lon="9.441951034276164"><ele>95.0</ele><time>2026-04-12T14:35:44Z</time></trkpt><trkpt lat="45.40863653776525" lon="9.441806043539495"><ele>95.0</ele><time>2026-04-12T14:35:45Z</time></trkpt><trkpt lat="45.40870300587277" lon="9.441649676488497"><ele>95.0</ele><time>2026-04-12T14:35:46Z</time></trkpt><trkpt lat="45.40877063042031" lon="9.44149343412952"><ele>95.0</ele><time>2026-04-12T14:35:47Z</time></trkpt><trkpt lat="45.408843300725586" lon="9.441341559683744"><ele>95.0</ele><time>2026-04-12T14:35:48Z</time></trkpt><trkpt lat="45.40891233532561" lon="9.441191966940362"><ele>95.0</ele><time>2026-04-12T14:35:49Z</time></trkpt><trkpt lat="45.40897051259058" lon="9.441048830885634"><ele>95.0</ele><time>2026-04-12T14:35:50Z</time></trkpt><trkpt lat="45.40903379368104" lon="9.440903217939367"><ele>95.0</ele><time>2026-04-12T14:35:51Z</time></trkpt><trkpt lat="45.40909903993398" lon="9.440763605252538"><ele>95.0</ele><time>2026-04-12T14:35:52Z</time></trkpt><trkpt lat="45.40916920679954" lon="9.440613447333964"><ele>95.0</ele><time>2026-04-12T14:35:53Z</time></trkpt><trkpt lat="45.409243961068285" lon="9.440462749445015"><ele>94.75</ele><time>2026-04-12T14:35:54Z</time></trkpt><trkpt lat="45.409291818184954" lon="9.440323522182238"><ele>94.5</ele><time>2026-04-12T14:35:55Z</time></trkpt><trkpt lat="45.40935741611078" lon="9.440179845308897"><ele>94.25</ele><time>2026-04-12T14:35:55.999Z</time></trkpt><trkpt lat="45.409417727342024" lon="9.440039659525787"><ele>94.0</ele><time>2026-04-12T14:35:56.999Z</time></trkpt><trkpt lat="45.409476825041374" lon="9.439894889947162"><ele>94.0</ele><time>2026-04-12T14:35:57.999Z</time></trkpt><trkpt lat="45.40954859412977" lon="9.439752261114519"><ele>94.0</ele><time>2026-04-12T14:35:58.999Z</time></trkpt><trkpt lat="45.40961511839138" lon="9.43960655855569"><ele>94.0</ele><time>2026-04-12T14:35:59.999Z</time></trkpt><trkpt lat="45.40968205910592" lon="9.439458770796335"><ele>94.0</ele><time>2026-04-12T14:36:00.999Z</time></trkpt><trkpt lat="45.40974790972222" lon="9.43931378558554"><ele>94.0</ele><time>2026-04-12T14:36:01.999Z</time></trkpt><trkpt lat="45.409817578391085" lon="9.439171704244831"><ele>94.0</ele><time>2026-04-12T14:36:02.999Z</time></trkpt><trkpt lat="45.40988475817139" lon="9.43902758856241"><ele>94.0</ele><time>2026-04-12T14:36:03.999Z</time></trkpt><trkpt lat="45.409949427099896" lon="9.438879290982038"><ele>94.0</ele><time>2026-04-12T14:36:04.999Z</time></trkpt><trkpt lat="45.41001819226735" lon="9.438741015789438"><ele>94.25</ele><time>2026-04-12T14:36:05.999Z</time></trkpt><trkpt lat="45.41008424500038" lon="9.438601316234955"><ele>94.5</ele><time>2026-04-12T14:36:06.999Z</time></trkpt><trkpt lat="45.41014683951623" lon="9.438453334582038"><ele>94.75</ele><time>2026-04-12T14:36:07.999Z</time></trkpt><trkpt lat="45.41021408495892" lon="9.438301863694075"><ele>95.0</ele><time>2026-04-12T14:36:08.999Z</time></trkpt><trkpt lat="45.410281129997486" lon="9.438155184126591"><ele>95.0</ele><time>2026-04-12T14:36:09.999Z</time></trkpt><trkpt lat="45.410351882166665" lon="9.438017404841586"><ele>95.0</ele><time>2026-04-12T14:36:10.999Z</time></trkpt><trkpt lat="45.41041949794919" lon="9.43786903372802"><ele>95.0</ele><time>2026-04-12T14:36:11.999Z</time></trkpt><trkpt lat="45.4104847393705" lon="9.437714509305955"><ele>95.0</ele><time>2026-04-12T14:36:12.999Z</time></trkpt><trkpt lat="45.41054941222406" lon="9.437565153985778"><ele>95.0</ele><time>2026-04-12T14:36:13.999Z</time></trkpt><trkpt lat="45.41061496171376" lon="9.43740426623847"><ele>95.0</ele><time>2026-04-12T14:36:14.999Z</time></trkpt><trkpt lat="45.41068037465042" lon="9.43726514437148"><ele>95.0</ele><time>2026-04-12T14:36:15.999Z</time></trkpt><trkpt lat="45.41075370499882" lon="9.437097025611374"><ele>95.0</ele><time>2026-04-12T14:36:16.999Z</time></trkpt><trkpt lat="45.410824486662314" lon="9.436946653371372"><ele>95.0</ele><time>2026-04-12T14:36:17.999Z</time></trkpt><trkpt lat="45.410888901988734" lon="9.436799755235725"><ele>95.0</ele><time>2026-04-12T14:36:19Z</time></trkpt><trkpt lat="45.41095439717047" lon="9.436654751444712"><ele>95.0</ele><time>2026-04-12T14:36:20Z</time></trkpt><trkpt lat="45.4110232378264" lon="9.436512334767084"><ele>95.0</ele><time>2026-04-12T14:36:21Z</time></trkpt><trkpt lat="45.411080543853195" lon="9.436368906301306"><ele>95.0</ele><time>2026-04-12T14:36:22Z</time></trkpt><trkpt lat="45.41114613697" lon="9.436217164024168"><ele>95.0</ele><time>2026-04-12T14:36:23Z</time></trkpt><trkpt lat="45.41121326749978" lon="9.436096918566015"><ele>95.0</ele><time>2026-04-12T14:36:24Z</time></trkpt><trkpt lat="45.41126978492628" lon="9.435953375408982"><ele>95.0</ele><time>2026-04-12T14:36:25Z</time></trkpt><trkpt lat="45.41132709427247" lon="9.435839080989572"><ele>95.0</ele><time>2026-04-12T14:36:26Z</time></trkpt><trkpt lat="45.41137054702109" lon="9.435729075408716"><ele>95.0</ele><time>2026-04-12T14:36:27Z</time></trkpt><trkpt lat="45.41141048211818" lon="9.435620556440316"><ele>95.0</ele><time>2026-04-12T14:36:28Z</time></trkpt><trkpt lat="45.41145428780068" lon="9.435532103509026"><ele>95.0</ele><time>2026-04-12T14:36:29Z</time></trkpt><trkpt lat="45.41151079243251" lon="9.43548744149761"><ele>95.0</ele><time>2026-04-12T14:36:30Z</time></trkpt><trkpt lat="45.41162452454584" lon="9.43544192947604"><ele>95.0</ele><time>2026-04-12T14:36:32Z</time></trkpt><trkpt lat="45.4117146463484" lon="9.435380821970334"><ele>95.0</ele><time>2026-04-12T14:36:34Z</time></trkpt><trkpt lat="45.41175040573452" lon="9.43530164396427"><ele>95.0</ele><time>2026-04-12T14:36:35Z</time></trkpt><trkpt lat="45.41176365915008" lon="9.435213020465529"><ele>95.0</ele><time>2026-04-12T14:36:36Z</time></trkpt><trkpt lat="45.41175963055943" lon="9.435060289965561"><ele>95.0</ele><time>2026-04-12T14:36:38Z</time></trkpt><trkpt lat="45.411760834641605" lon="9.434898312542595"><ele>95.0</ele><time>2026-04-12T14:36:40Z</time></trkpt><trkpt lat="45.41182494354573" lon="9.434744216622756"><ele>95.0</ele><time>2026-04-12T14:36:42Z</time></trkpt><trkpt lat="45.41186026657503" lon="9.434631413180266"><ele>94.75</ele><time>2026-04-12T14:36:43Z</time></trkpt><trkpt lat="45.41192842232995" lon="9.434514206135697"><ele>94.5</ele><time>2026-04-12T14:36:44Z</time></trkpt><trkpt lat="45.411984782425435" lon="9.434370975610069"><ele>94.25</ele><time>2026-04-12T14:36:45Z</time></trkpt><trkpt lat="45.41202805813501" lon="9.434209787386935"><ele>94.0</ele><time>2026-04-12T14:36:46Z</time></trkpt><trkpt lat="45.412060656525334" lon="9.434049399703554"><ele>94.0</ele><time>2026-04-12T14:36:47Z</time></trkpt><trkpt lat="45.41208157694791" lon="9.433898674204306"><ele>94.0</ele><time>2026-04-12T14:36:48Z</time></trkpt><trkpt lat="45.41207939374164" lon="9.43374651709978"><ele>94.0</ele><time>2026-04-12T14:36:49Z</time></trkpt><trkpt lat="45.41207209657969" lon="9.433610117604141"><ele>94.0</ele><time>2026-04-12T14:36:50Z</time></trkpt><trkpt lat="45.41205351232899" lon="9.433495284772073"><ele>94.0</ele><time>2026-04-12T14:36:51Z</time></trkpt><trkpt lat="45.41204717788534" lon="9.433379468835321"><ele>94.0</ele><time>2026-04-12T14:36:52Z</time></trkpt><trkpt lat="45.41203859564745" lon="9.43326507708734"><ele>94.0</ele><time>2026-04-12T14:36:53Z</time></trkpt><trkpt lat="45.41203218319299" lon="9.433144686988541"><ele>94.0</ele><time>2026-04-12T14:36:54Z</time></trkpt><trkpt lat="45.41202625571476" lon="9.433027145603447"><ele>94.0</ele><time>2026-04-12T14:36:55Z</time></trkpt><trkpt lat="45.41203113105857" lon="9.432905286424855"><ele>94.0</ele><time>2026-04-12T14:36:56Z</time></trkpt><trkpt lat="45.41201528186916" lon="9.43280275637049"><ele>94.0</ele><time>2026-04-12T14:36:57Z</time></trkpt><trkpt lat="45.41200826348831" lon="9.432672536327436"><ele>94.4</ele><time>2026-04-12T14:36:58Z</time></trkpt><trkpt lat="45.41198380304101" lon="9.432549320001295"><ele>94.80000000000001</ele><time>2026-04-12T14:36:59Z</time></trkpt><trkpt lat="45.411988766475915" lon="9.432454750383432"><ele>95.19999999999999</ele><time>2026-04-12T14:37:00Z</time></trkpt><trkpt lat="45.41198037842852" lon="9.432233246675922"><ele>95.6</ele><time>2026-04-12T14:37:02Z</time></trkpt><trkpt lat="45.411999792210096" lon="9.432076722544908"><ele>96.0</ele><time>2026-04-12T14:37:03Z</time></trkpt><trkpt lat="45.412020506463605" lon="9.43191387247722"><ele>96.0</ele><time>2026-04-12T14:37:04Z</time></trkpt><trkpt lat="45.412052377003725" lon="9.431761346132697"><ele>96.0</ele><time>2026-04-12T14:37:05Z</time></trkpt><trkpt lat="45.41209600669334" lon="9.431588393901354"><ele>96.0</ele><time>2026-04-12T14:37:06Z</time></trkpt><trkpt lat="45.41217113524089" lon="9.431433116708725"><ele>96.0</ele><time>2026-04-12T14:37:07Z</time></trkpt><trkpt lat="45.41224098205549" lon="9.431268752330679"><ele>96.0</ele><time>2026-04-12T14:37:08Z</time></trkpt><trkpt lat="45.412313907231535" lon="9.431095513903404"><ele>96.0</ele><time>2026-04-12T14:37:09Z</time></trkpt><trkpt lat="45.412379160459906" lon="9.43090363603714"><ele>96.0</ele><time>2026-04-12T14:37:10Z</time></trkpt><trkpt lat="45.412454823602324" lon="9.430724571753181"><ele>96.0</ele><time>2026-04-12T14:37:11Z</time></trkpt><trkpt lat="45.41253673646316" lon="9.430560802188474"><ele>96.0</ele><time>2026-04-12T14:37:12Z</time></trkpt><trkpt lat="45.412610860197674" lon="9.430381708203367"><ele>96.0</ele><time>2026-04-12T14:37:13Z</time></trkpt><trkpt lat="45.41268016725431" lon="9.430214252021429"><ele>96.0</ele><time>2026-04-12T14:37:14Z</time></trkpt><trkpt lat="45.412733444052236" lon="9.430052576265352"><ele>96.0</ele><time>2026-04-12T14:37:15Z</time></trkpt><trkpt lat="45.412801868746406" lon="9.42989101298065"><ele>96.0</ele><time>2026-04-12T14:37:16Z</time></trkpt><trkpt lat="45.41286792367512" lon="9.429733596778112"><ele>96.0</ele><time>2026-04-12T14:37:17Z</time></trkpt><trkpt lat="45.412931669224605" lon="9.429581935486079"><ele>96.0</ele><time>2026-04-12T14:37:18Z</time></trkpt><trkpt lat="45.41299937849034" lon="9.429420499977809"><ele>96.0</ele><time>2026-04-12T14:37:19Z</time></trkpt><trkpt lat="45.41307094401693" lon="9.42925876923098"><ele>95.75</ele><time>2026-04-12T14:37:20Z</time></trkpt><trkpt lat="45.41314102679176" lon="9.42908110200055"><ele>95.5</ele><time>2026-04-12T14:37:21Z</time></trkpt><trkpt lat="45.4132146494887" lon="9.428908137561155"><ele>95.25</ele><time>2026-04-12T14:37:22Z</time></trkpt><trkpt lat="45.413279446290765" lon="9.428737980829332"><ele>95.0</ele><time>2026-04-12T14:37:23Z</time></trkpt><trkpt lat="45.41335707882731" lon="9.428564618638626"><ele>94.75</ele><time>2026-04-12T14:37:24Z</time></trkpt><trkpt lat="45.413432019664604" lon="9.42838398443968"><ele>94.5</ele><time>2026-04-12T14:37:25Z</time></trkpt><trkpt lat="45.413499714898535" lon="9.428232265973332"><ele>94.25</ele><time>2026-04-12T14:37:26Z</time></trkpt><trkpt lat="45.413565391997736" lon="9.42806635659185"><ele>94.0</ele><time>2026-04-12T14:37:27Z</time></trkpt><trkpt lat="45.41363725805164" lon="9.427896622986477"><ele>94.25</ele><time>2026-04-12T14:37:28Z</time></trkpt><trkpt lat="45.413705809321655" lon="9.427738724176558"><ele>94.5</ele><time>2026-04-12T14:37:29Z</time></trkpt><trkpt lat="45.41377304854321" lon="9.427576562142354"><ele>94.75</ele><time>2026-04-12T14:37:30Z</time></trkpt><trkpt lat="45.41384685916416" lon="9.427441550085739"><ele>95.0</ele><time>2026-04-12T14:37:31Z</time></trkpt><trkpt lat="45.41391532468216" lon="9.427304460942556"><ele>95.25</ele><time>2026-04-12T14:37:32Z</time></trkpt><trkpt lat="45.413970081233785" lon="9.427132111803836"><ele>95.5</ele><time>2026-04-12T14:37:33Z</time></trkpt><trkpt lat="45.41402460310288" lon="9.426979864801403"><ele>95.75</ele><time>2026-04-12T14:37:34Z</time></trkpt><trkpt lat="45.41408588416651" lon="9.42683940544047"><ele>96.0</ele><time>2026-04-12T14:37:35Z</time></trkpt><trkpt lat="45.41414775243914" lon="9.426720978741836"><ele>96.0</ele><time>2026-04-12T14:37:36Z</time></trkpt><trkpt lat="45.41420434636039" lon="9.426588229801776"><ele>96.0</ele><time>2026-04-12T14:37:37Z</time></trkpt><trkpt lat="45.41424805441592" lon="9.426462950694606"><ele>96.0</ele><time>2026-04-12T14:37:38Z</time></trkpt><trkpt lat="45.4142893955855" lon="9.426333342616154"><ele>96.0</ele><time>2026-04-12T14:37:39Z</time></trkpt><trkpt lat="45.41434296302312" lon="9.426223670408694"><ele>96.0</ele><time>2026-04-12T14:37:40Z</time></trkpt><trkpt lat="45.414377233140165" lon="9.426129958258281"><ele>95.83333333333333</ele><time>2026-04-12T14:37:41Z</time></trkpt><trkpt lat="45.41442348969513" lon="9.426000731704145"><ele>95.66666666666667</ele><time>2026-04-12T14:37:42Z</time></trkpt><trkpt lat="45.41449038964654" lon="9.425916379226088"><ele>95.5</ele><time>2026-04-12T14:37:43Z</time></trkpt><trkpt lat="45.41450834869894" lon="9.425807868661446"><ele>95.33333333333334</ele><time>2026-04-12T14:37:44Z</time></trkpt><trkpt lat="45.41449454404352" lon="9.425686856082212"><ele>95.16666666666667</ele><time>2026-04-12T14:37:45Z</time></trkpt><trkpt lat="45.41444870842037" lon="9.425588104681083"><ele>95.0</ele><time>2026-04-12T14:37:46Z</time></trkpt><trkpt lat="45.41436838354713" lon="9.425518358770386"><ele>95.0</ele><time>2026-04-12T14:37:47Z</time></trkpt><trkpt lat="45.41426426198836" lon="9.42548530815519"><ele>95.0</ele><time>2026-04-12T14:37:48Z</time></trkpt><trkpt lat="45.41415053402124" lon="9.42543671984732"><ele>95.0</ele><time>2026-04-12T14:37:49Z</time></trkpt><trkpt lat="45.41406248733362" lon="9.425320778490645"><ele>95.0</ele><time>2026-04-12T14:37:50Z</time></trkpt><trkpt lat="45.41398523913623" lon="9.425174453921736"><ele>95.0</ele><time>2026-04-12T14:37:51Z</time></trkpt><trkpt lat="45.41391278409467" lon="9.42503088127026"><ele>95.0</ele><time>2026-04-12T14:37:52Z</time></trkpt><trkpt lat="45.413841928973895" lon="9.42490075300937"><ele>95.0</ele><time>2026-04-12T14:37:53Z</time></trkpt><trkpt lat="45.41378458044296" lon="9.424787521674281"><ele>95.0</ele><time>2026-04-12T14:37:54Z</time></trkpt><trkpt lat="45.41373966476499" lon="9.424641094023452"><ele>95.25</ele><time>2026-04-12T14:37:55Z</time></trkpt><trkpt lat="45.41372065332477" lon="9.424476865974578"><ele>95.5</ele><time>2026-04-12T14:37:56Z</time></trkpt><trkpt lat="45.41371038174286" lon="9.424307232673044"><ele>95.75</ele><time>2026-04-12T14:37:57Z</time></trkpt><trkpt lat="45.413704699347875" lon="9.424116655796553"><ele>96.0</ele><time>2026-04-12T14:37:58Z</time></trkpt><trkpt lat="45.413750975338125" lon="9.423926944383469"><ele>95.66666666666667</ele><time>2026-04-12T14:37:59Z</time></trkpt><trkpt lat="45.41382554739821" lon="9.42373778490282"><ele>95.33333333333334</ele><time>2026-04-12T14:38:00Z</time></trkpt><trkpt lat="45.41389813764185" lon="9.42354899589858"><ele>95.0</ele><time>2026-04-12T14:38:00.999Z</time></trkpt><trkpt lat="45.41396326344267" lon="9.42335627354985"><ele>95.0</ele><time>2026-04-12T14:38:01.999Z</time></trkpt><trkpt lat="45.4140290558948" lon="9.42317782626958"><ele>95.0</ele><time>2026-04-12T14:38:02.999Z</time></trkpt><trkpt lat="45.41408996528811" lon="9.422996496461048"><ele>95.0</ele><time>2026-04-12T14:38:03.999Z</time></trkpt><trkpt lat="45.41414408479152" lon="9.422818915495702"><ele>95.0</ele><time>2026-04-12T14:38:04.999Z</time></trkpt><trkpt lat="45.414204457698574" lon="9.422645361053616"><ele>94.75</ele><time>2026-04-12T14:38:05.999Z</time></trkpt><trkpt lat="45.41426896076303" lon="9.422464096652805"><ele>94.5</ele><time>2026-04-12T14:38:06.999Z</time></trkpt><trkpt lat="45.41433141253849" lon="9.42227579219081"><ele>94.25</ele><time>2026-04-12T14:38:07.999Z</time></trkpt><trkpt lat="45.41439620407727" lon="9.422087213977262"><ele>94.0</ele><time>2026-04-12T14:38:08.999Z</time></trkpt><trkpt lat="45.41446165569853" lon="9.42190062909406"><ele>94.0</ele><time>2026-04-12T14:38:09.999Z</time></trkpt><trkpt lat="45.41452555709221" lon="9.421712911582713"><ele>94.0</ele><time>2026-04-12T14:38:10.999Z</time></trkpt><trkpt lat="45.414595603092636" lon="9.421528172560187"><ele>94.0</ele><time>2026-04-12T14:38:11.999Z</time></trkpt><trkpt lat="45.414672747895075" lon="9.421342735869784"><ele>94.0</ele><time>2026-04-12T14:38:12.999Z</time></trkpt><trkpt lat="45.414762437166026" lon="9.42116873316368"><ele>94.0</ele><time>2026-04-12T14:38:13.999Z</time></trkpt><trkpt lat="45.41486066840359" lon="9.421006521677215"><ele>94.0</ele><time>2026-04-12T14:38:14.999Z</time></trkpt><trkpt lat="45.41496497087051" lon="9.42084872780647"><ele>94.0</ele><time>2026-04-12T14:38:15.999Z</time></trkpt><trkpt lat="45.41507689128002" lon="9.420698027855067"><ele>94.0</ele><time>2026-04-12T14:38:16.999Z</time></trkpt><trkpt lat="45.415190910135394" lon="9.420554548001856"><ele>94.0</ele><time>2026-04-12T14:38:17.999Z</time></trkpt><trkpt lat="45.41532161247319" lon="9.420437945746947"><ele>94.0</ele><time>2026-04-12T14:38:18.999Z</time></trkpt><trkpt lat="45.415453857167975" lon="9.420321672054762"><ele>94.66666666666666</ele><time>2026-04-12T14:38:19.999Z</time></trkpt><trkpt lat="45.415584088155164" lon="9.420211943268022"><ele>95.33333333333333</ele><time>2026-04-12T14:38:20.999Z</time></trkpt><trkpt lat="45.41571321965373" lon="9.420116096969606"><ele>96.0</ele><time>2026-04-12T14:38:21.999Z</time></trkpt><trkpt lat="45.41585176468002" lon="9.420022061546687"><ele>96.0</ele><time>2026-04-12T14:38:22.999Z</time></trkpt><trkpt lat="45.41598174308064" lon="9.41992549823856"><ele>96.0</ele><time>2026-04-12T14:38:23.999Z</time></trkpt><trkpt lat="45.41611273455348" lon="9.419822612831021"><ele>96.0</ele><time>2026-04-12T14:38:25Z</time></trkpt><trkpt lat="45.41622984837959" lon="9.419706820912221"><ele>96.0</ele><time>2026-04-12T14:38:26Z</time></trkpt><trkpt lat="45.41634951314169" lon="9.419580579340666"><ele>95.75</ele><time>2026-04-12T14:38:27Z</time></trkpt><trkpt lat="45.4164558356614" lon="9.419438103300072"><ele>95.5</ele><time>2026-04-12T14:38:28Z</time></trkpt><trkpt lat="45.41655934117978" lon="9.419289035581238"><ele>95.25</ele><time>2026-04-12T14:38:29Z</time></trkpt><trkpt lat="45.416658617657454" lon="9.419130521078731"><ele>95.0</ele><time>2026-04-12T14:38:30Z</time></trkpt><trkpt lat="45.41674774326507" lon="9.418960915496323"><ele>94.75</ele><time>2026-04-12T14:38:31Z</time></trkpt><trkpt lat="45.41682867592792" lon="9.418781451077471"><ele>94.5</ele><time>2026-04-12T14:38:32Z</time></trkpt><trkpt lat="45.416908250828854" lon="9.418601256022002"><ele>94.25</ele><time>2026-04-12T14:38:33Z</time></trkpt><trkpt lat="45.41697925955865" lon="9.41841848472515"><ele>94.0</ele><time>2026-04-12T14:38:34Z</time></trkpt><trkpt lat="45.417045481100374" lon="9.418231924333503"><ele>94.0</ele><time>2026-04-12T14:38:35Z</time></trkpt><trkpt lat="45.41711233569063" lon="9.418045500999959"><ele>94.0</ele><time>2026-04-12T14:38:36Z</time></trkpt><trkpt lat="45.41718016684565" lon="9.417861086414153"><ele>94.0</ele><time>2026-04-12T14:38:37Z</time></trkpt><trkpt lat="45.4172462214847" lon="9.41767550901368"><ele>94.0</ele><time>2026-04-12T14:38:38Z</time></trkpt><trkpt lat="45.41731419242771" lon="9.41749179412121"><ele>94.25</ele><time>2026-04-12T14:38:39Z</time></trkpt><trkpt lat="45.417382273835074" lon="9.417309881910684"><ele>94.5</ele><time>2026-04-12T14:38:40Z</time></trkpt><trkpt lat="45.417449673171205" lon="9.417126095731565"><ele>94.75</ele><time>2026-04-12T14:38:41Z</time></trkpt><trkpt lat="45.41750776451369" lon="9.416935869911212"><ele>95.0</ele><time>2026-04-12T14:38:42Z</time></trkpt><trkpt lat="45.41755757082096" lon="9.416741332947483"><ele>95.0</ele><time>2026-04-12T14:38:43Z</time></trkpt><trkpt lat="45.417602892978074" lon="9.41654420648384"><ele>95.0</ele><time>2026-04-12T14:38:44Z</time></trkpt><trkpt lat="45.41764063890876" lon="9.416345065971896"><ele>95.0</ele><time>2026-04-12T14:38:45Z</time></trkpt><trkpt lat="45.417676294270734" lon="9.416146190744158"><ele>95.0</ele><time>2026-04-12T14:38:46Z</time></trkpt><trkpt lat="45.41770317260497" lon="9.415944473272333"><ele>95.0</ele><time>2026-04-12T14:38:47Z</time></trkpt><trkpt lat="45.41772204431461" lon="9.415745950479419"><ele>95.0</ele><time>2026-04-12T14:38:48Z</time></trkpt><trkpt lat="45.41773723112763" lon="9.415556795943845"><ele>95.0</ele><time>2026-04-12T14:38:49Z</time></trkpt><trkpt lat="45.417748793468284" lon="9.415382199936577"><ele>95.0</ele><time>2026-04-12T14:38:50Z</time></trkpt><trkpt lat="45.41774840730657" lon="9.415217025149543"><ele>94.8</ele><time>2026-04-12T14:38:51Z</time></trkpt><trkpt lat="45.417739269077444" lon="9.415061625895135"><ele>94.6</ele><time>2026-04-12T14:38:52Z</time></trkpt><trkpt lat="45.41774155845411" lon="9.414905833415864"><ele>94.4</ele><time>2026-04-12T14:38:53Z</time></trkpt><trkpt lat="45.41776744544264" lon="9.41475862628666"><ele>94.2</ele><time>2026-04-12T14:38:54Z</time></trkpt><trkpt lat="45.417817939625365" lon="9.414621564141314"><ele>94.0</ele><time>2026-04-12T14:38:55Z</time></trkpt><trkpt lat="45.41785712211459" lon="9.414489904158007"><ele>94.0</ele><time>2026-04-12T14:38:56Z</time></trkpt><trkpt lat="45.4178477148725" lon="9.414341871142355"><ele>94.0</ele><time>2026-04-12T14:38:57Z</time></trkpt><trkpt lat="45.41778658212895" lon="9.414197835547787"><ele>94.0</ele><time>2026-04-12T14:38:58Z</time></trkpt><trkpt lat="45.417687386592775" lon="9.414089629222136"><ele>94.0</ele><time>2026-04-12T14:38:59Z</time></trkpt><trkpt lat="45.417602862088124" lon="9.413963964043663"><ele>94.4</ele><time>2026-04-12T14:39:00Z</time></trkpt><trkpt lat="45.41755869981377" lon="9.413808971723023"><ele>94.80000000000001</ele><time>2026-04-12T14:39:01Z</time></trkpt><trkpt lat="45.41752566220931" lon="9.41366093447036"><ele>95.19999999999999</ele><time>2026-04-12T14:39:02Z</time></trkpt><trkpt lat="45.41748802534028" lon="9.41352568657479"><ele>95.6</ele><time>2026-04-12T14:39:03Z</time></trkpt><trkpt lat="45.41744853388923" lon="9.413385908143225"><ele>96.0</ele><time>2026-04-12T14:39:04Z</time></trkpt><trkpt lat="45.41740164791337" lon="9.413239535147225"><ele>96.0</ele><time>2026-04-12T14:39:05Z</time></trkpt><trkpt lat="45.41735609030566" lon="9.413089498742332"><ele>96.0</ele><time>2026-04-12T14:39:06Z</time></trkpt><trkpt lat="45.417315383246276" lon="9.412936583152282"><ele>96.0</ele><time>2026-04-12T14:39:07Z</time></trkpt><trkpt lat="45.417280298756104" lon="9.412778146687165"><ele>96.0</ele><time>2026-04-12T14:39:08Z</time></trkpt><trkpt lat="45.41725087898505" lon="9.412622433286689"><ele>96.0</ele><time>2026-04-12T14:39:09Z</time></trkpt><trkpt lat="45.417222837280406" lon="9.41244510071596"><ele>96.0</ele><time>2026-04-12T14:39:10Z</time></trkpt><trkpt lat="45.41720849437166" lon="9.412267679188334"><ele>96.0</ele><time>2026-04-12T14:39:11Z</time></trkpt><trkpt lat="45.417197766594086" lon="9.41210014761899"><ele>96.0</ele><time>2026-04-12T14:39:12Z</time></trkpt><trkpt lat="45.41718787326266" lon="9.41193069364376"><ele>96.0</ele><time>2026-04-12T14:39:13Z</time></trkpt><trkpt lat="45.41718185030916" lon="9.411762164391638"><ele>96.0</ele><time>2026-04-12T14:39:14Z</time></trkpt><trkpt lat="45.41718043326539" lon="9.411600631635773"><ele>96.0</ele><time>2026-04-12T14:39:15Z</time></trkpt><trkpt lat="45.41717511105405" lon="9.411443922093724"><ele>96.0</ele><time>2026-04-12T14:39:16Z</time></trkpt><trkpt lat="45.4171667084643" lon="9.41128051516643"><ele>96.0</ele><time>2026-04-12T14:39:17Z</time></trkpt><trkpt lat="45.41715873891515" lon="9.411126277673933"><ele>96.0</ele><time>2026-04-12T14:39:18Z</time></trkpt><trkpt lat="45.41714999776234" lon="9.410985470418105"><ele>96.0</ele><time>2026-04-12T14:39:19Z</time></trkpt><trkpt lat="45.41716065334537" lon="9.410842057946864"><ele>96.0</ele><time>2026-04-12T14:39:20Z</time></trkpt><trkpt lat="45.41715919462927" lon="9.410697402497618"><ele>96.0</ele><time>2026-04-12T14:39:21Z</time></trkpt><trkpt lat="45.41715594898444" lon="9.410548445142991"><ele>95.8</ele><time>2026-04-12T14:39:22Z</time></trkpt><trkpt lat="45.41713685678951" lon="9.410408202173542"><ele>95.6</ele><time>2026-04-12T14:39:23Z</time></trkpt><trkpt lat="45.417138765607206" lon="9.410272205812765"><ele>95.4</ele><time>2026-04-12T14:39:24Z</time></trkpt><trkpt lat="45.41713184328426" lon="9.410142014860341"><ele>95.2</ele><time>2026-04-12T14:39:25Z</time></trkpt><trkpt lat="45.4171240052816" lon="9.409963878489377"><ele>95.0</ele><time>2026-04-12T14:39:26Z</time></trkpt><trkpt lat="45.41711344406678" lon="9.409846054164113"><ele>95.0</ele><time>2026-04-12T14:39:27Z</time></trkpt><trkpt lat="45.41710143241659" lon="9.409731733533981"><ele>95.0</ele><time>2026-04-12T14:39:28Z</time></trkpt><trkpt lat="45.41708961298232" lon="9.4096321928373"><ele>95.0</ele><time>2026-04-12T14:39:29Z</time></trkpt><trkpt lat="45.41707676453147" lon="9.40953295776042"><ele>95.0</ele><time>2026-04-12T14:39:30Z</time></trkpt><trkpt lat="45.41706151928722" lon="9.409418066395734"><ele>95.0</ele><time>2026-04-12T14:39:31Z</time></trkpt><trkpt lat="45.41704044681619" lon="9.40930575842193"><ele>95.0</ele><time>2026-04-12T14:39:32Z</time></trkpt><trkpt lat="45.41702641143113" lon="9.409159538062509"><ele>95.0</ele><time>2026-04-12T14:39:33Z</time></trkpt><trkpt lat="45.417015267463" lon="9.409044368878705"><ele>95.0</ele><time>2026-04-12T14:39:34Z</time></trkpt><trkpt lat="45.41701261883487" lon="9.408938440276941"><ele>95.0</ele><time>2026-04-12T14:39:35Z</time></trkpt><trkpt lat="45.41698293851183" lon="9.408789379351488"><ele>95.0</ele><time>2026-04-12T14:39:36Z</time></trkpt><trkpt lat="45.416964695440406" lon="9.408659035592414"><ele>95.0</ele><time>2026-04-12T14:39:37Z</time></trkpt><trkpt lat="45.416957939245556" lon="9.408511905351295"><ele>95.0</ele><time>2026-04-12T14:39:38Z</time></trkpt><trkpt lat="45.41693951388014" lon="9.40837373798602"><ele>95.0</ele><time>2026-04-12T14:39:39Z</time></trkpt><trkpt lat="45.41691559467195" lon="9.40824507249521"><ele>95.0</ele><time>2026-04-12T14:39:40Z</time></trkpt><trkpt lat="45.416883677815655" lon="9.408114646592031"><ele>95.0</ele><time>2026-04-12T14:39:41Z</time></trkpt><trkpt lat="45.41686660153363" lon="9.40797688829073"><ele>95.0</ele><time>2026-04-12T14:39:42Z</time></trkpt><trkpt lat="45.41687996468479" lon="9.407833686148853"><ele>95.0</ele><time>2026-04-12T14:39:43Z</time></trkpt><trkpt lat="45.41687931569329" lon="9.407685237544053"><ele>95.0</ele><time>2026-04-12T14:39:44Z</time></trkpt><trkpt lat="45.41686411114451" lon="9.407533160517806"><ele>95.0</ele><time>2026-04-12T14:39:45Z</time></trkpt><trkpt lat="45.41687864544265" lon="9.40737190498362"><ele>95.0</ele><time>2026-04-12T14:39:46Z</time></trkpt><trkpt lat="45.416870762995025" lon="9.407199407850847"><ele>95.0</ele><time>2026-04-12T14:39:47Z</time></trkpt><trkpt lat="45.41687168811576" lon="9.407008390390237"><ele>95.0</ele><time>2026-04-12T14:39:48Z</time></trkpt><trkpt lat="45.416876182492324" lon="9.406835353706441"><ele>95.0</ele><time>2026-04-12T14:39:49Z</time></trkpt><trkpt lat="45.416886429032246" lon="9.406666751718491"><ele>95.0</ele><time>2026-04-12T14:39:50Z</time></trkpt><trkpt lat="45.41689037515649" lon="9.406514200414616"><ele>95.0</ele><time>2026-04-12T14:39:51Z</time></trkpt><trkpt lat="45.416893861179055" lon="9.406370243965116"><ele>95.0</ele><time>2026-04-12T14:39:52Z</time></trkpt><trkpt lat="45.41689078987848" lon="9.406214523369092"><ele>95.0</ele><time>2026-04-12T14:39:53Z</time></trkpt><trkpt lat="45.41688741052041" lon="9.406058341392324"><ele>95.0</ele><time>2026-04-12T14:39:54Z</time></trkpt><trkpt lat="45.41686893637726" lon="9.405915085211557"><ele>95.0</ele><time>2026-04-12T14:39:55Z</time></trkpt><trkpt lat="45.41688313074782" lon="9.40577461597666"><ele>95.0</ele><time>2026-04-12T14:39:56Z</time></trkpt><trkpt lat="45.41688624347944" lon="9.405646974210581"><ele>95.0</ele><time>2026-04-12T14:39:57Z</time></trkpt><trkpt lat="45.41688084712911" lon="9.405512795742167"><ele>95.2</ele><time>2026-04-12T14:39:58Z</time></trkpt><trkpt lat="45.4168724167458" lon="9.405389018620326"><ele>95.4</ele><time>2026-04-12T14:39:59Z</time></trkpt><trkpt lat="45.41688645520125" lon="9.40523757842827"><ele>95.6</ele><time>2026-04-12T14:40:00Z</time></trkpt><trkpt lat="45.41688712600777" lon="9.40508334142256"><ele>95.8</ele><time>2026-04-12T14:40:01Z</time></trkpt><trkpt lat="45.41689198644268" lon="9.404903499067162"><ele>96.0</ele><time>2026-04-12T14:40:02Z</time></trkpt><trkpt lat="45.41689640150656" lon="9.404723231856646"><ele>96.19999999999999</ele><time>2026-04-12T14:40:03Z</time></trkpt><trkpt lat="45.41688990207353" lon="9.404575181495098"><ele>96.39999999999999</ele><time>2026-04-12T14:40:04Z</time></trkpt><trkpt lat="45.4168950860365" lon="9.40442539260396"><ele>96.6</ele><time>2026-04-12T14:40:05Z</time></trkpt><trkpt lat="45.416891845435245" lon="9.404275757120894"><ele>96.8</ele><time>2026-04-12T14:40:05.999Z</time></trkpt><trkpt lat="45.4168768882413" lon="9.404131434931504"><ele>97.0</ele><time>2026-04-12T14:40:06.999Z</time></trkpt><trkpt lat="45.41689421728561" lon="9.403996062808345"><ele>97.0</ele><time>2026-04-12T14:40:07.999Z</time></trkpt><trkpt lat="45.416889712046355" lon="9.403862778483983"><ele>97.0</ele><time>2026-04-12T14:40:08.999Z</time></trkpt><trkpt lat="45.41688151877393" lon="9.40370832027437"><ele>97.0</ele><time>2026-04-12T14:40:09.999Z</time></trkpt><trkpt lat="45.41686788560281" lon="9.403571514320703"><ele>97.0</ele><time>2026-04-12T14:40:10.999Z</time></trkpt><trkpt lat="45.41684616761567" lon="9.403426149251137"><ele>97.0</ele><time>2026-04-12T14:40:11.999Z</time></trkpt><trkpt lat="45.41681829651966" lon="9.403293266158395"><ele>97.16666666666667</ele><time>2026-04-12T14:40:12.999Z</time></trkpt><trkpt lat="45.41679048172228" lon="9.40318208118993"><ele>97.33333333333334</ele><time>2026-04-12T14:40:13.999Z</time></trkpt><trkpt lat="45.41676188242674" lon="9.403084483878981"><ele>97.5</ele><time>2026-04-12T14:40:14.999Z</time></trkpt><trkpt lat="45.4167153000125" lon="9.402989994760302"><ele>97.66666666666666</ele><time>2026-04-12T14:40:15.999Z</time></trkpt><trkpt lat="45.41667294929859" lon="9.402888109135587"><ele>97.83333333333333</ele><time>2026-04-12T14:40:16.999Z</time></trkpt><trkpt lat="45.41663012304604" lon="9.40278194069832"><ele>98.0</ele><time>2026-04-12T14:40:17.999Z</time></trkpt><trkpt lat="45.416576322320026" lon="9.402687067885255"><ele>98.16666666666666</ele><time>2026-04-12T14:40:18.999Z</time></trkpt><trkpt lat="45.41652136636316" lon="9.402593432634337"><ele>98.33333333333333</ele><time>2026-04-12T14:40:19.999Z</time></trkpt><trkpt lat="45.41646081601067" lon="9.402496437863652"><ele>98.5</ele><time>2026-04-12T14:40:20.999Z</time></trkpt><trkpt lat="45.41642678507558" lon="9.402389285011683"><ele>98.66666666666666</ele><time>2026-04-12T14:40:21.999Z</time></trkpt><trkpt lat="45.41638808936917" lon="9.40229381996548"><ele>98.83333333333333</ele><time>2026-04-12T14:40:22.999Z</time></trkpt><trkpt lat="45.4163451583531" lon="9.402203573300916"><ele>99.0</ele><time>2026-04-12T14:40:23.999Z</time></trkpt><trkpt lat="45.41631684275035" lon="9.402090045681284"><ele>99.2</ele><time>2026-04-12T14:40:24.999Z</time></trkpt><trkpt lat="45.4163023670903" lon="9.401964956916482"><ele>99.4</ele><time>2026-04-12T14:40:25.999Z</time></trkpt><trkpt lat="45.416297088186745" lon="9.401849101193472"><ele>99.6</ele><time>2026-04-12T14:40:26.999Z</time></trkpt><trkpt lat="45.41627442119652" lon="9.401721521208083"><ele>99.8</ele><time>2026-04-12T14:40:27.999Z</time></trkpt><trkpt lat="45.416262020145155" lon="9.401564590493377"><ele>100.0</ele><time>2026-04-12T14:40:28.999Z</time></trkpt><trkpt lat="45.416228465143725" lon="9.401371196922936"><ele>99.25</ele><time>2026-04-12T14:40:29.999Z</time></trkpt><trkpt lat="45.41619275248956" lon="9.401186681586506"><ele>98.5</ele><time>2026-04-12T14:40:31Z</time></trkpt><trkpt lat="45.41616122624961" lon="9.401023796027182"><ele>97.75</ele><time>2026-04-12T14:40:32Z</time></trkpt><trkpt lat="45.416135860593165" lon="9.400892740081156"><ele>97.0</ele><time>2026-04-12T14:40:33Z</time></trkpt><trkpt lat="45.416108267981066" lon="9.400746003467233"><ele>97.0</ele><time>2026-04-12T14:40:34Z</time></trkpt><trkpt lat="45.41608543975223" lon="9.400604156331227"><ele>97.0</ele><time>2026-04-12T14:40:35Z</time></trkpt><trkpt lat="45.41607273968772" lon="9.400435224188538"><ele>97.0</ele><time>2026-04-12T14:40:36Z</time></trkpt><trkpt lat="45.41606840262106" lon="9.400254418713956"><ele>97.0</ele><time>2026-04-12T14:40:37Z</time></trkpt><trkpt lat="45.416063012998904" lon="9.400058014170487"><ele>97.25</ele><time>2026-04-12T14:40:38Z</time></trkpt><trkpt lat="45.41605076545222" lon="9.399861678084019"><ele>97.5</ele><time>2026-04-12T14:40:39Z</time></trkpt><trkpt lat="45.4160403581237" lon="9.399679668364904"><ele>97.75</ele><time>2026-04-12T14:40:40Z</time></trkpt><trkpt lat="45.41603686580997" lon="9.39952632435432"><ele>98.0</ele><time>2026-04-12T14:40:41Z</time></trkpt><trkpt lat="45.41603513459715" lon="9.399366119820778"><ele>98.0</ele><time>2026-04-12T14:40:42Z</time></trkpt><trkpt lat="45.416029259726635" lon="9.399215274326863"><ele>98.0</ele><time>2026-04-12T14:40:43Z</time></trkpt><trkpt lat="45.416038468787605" lon="9.39906458520097"><ele>98.0</ele><time>2026-04-12T14:40:44Z</time></trkpt><trkpt lat="45.416055977373595" lon="9.398906861276684"><ele>98.0</ele><time>2026-04-12T14:40:45Z</time></trkpt><trkpt lat="45.41608261811097" lon="9.398749690365953"><ele>98.0</ele><time>2026-04-12T14:40:46Z</time></trkpt><trkpt lat="45.41612013519855" lon="9.398603304018991"><ele>98.0</ele><time>2026-04-12T14:40:47Z</time></trkpt><trkpt lat="45.41617207272163" lon="9.39846035079125"><ele>98.0</ele><time>2026-04-12T14:40:48Z</time></trkpt><trkpt lat="45.416242351018504" lon="9.398362854554152"><ele>98.0</ele><time>2026-04-12T14:40:49Z</time></trkpt><trkpt lat="45.41631065387576" lon="9.398261145073253"><ele>98.0</ele><time>2026-04-12T14:40:50Z</time></trkpt><trkpt lat="45.416375507792246" lon="9.39818109373026"><ele>98.0</ele><time>2026-04-12T14:40:51Z</time></trkpt><trkpt lat="45.41643889855988" lon="9.398110122662006"><ele>97.99999999999999</ele><time>2026-04-12T14:40:52Z</time></trkpt><trkpt lat="45.416499326338304" lon="9.398045685608789"><ele>98.0</ele><time>2026-04-12T14:40:53Z</time></trkpt><trkpt lat="45.416561785241996" lon="9.39796303869769"><ele>98.0</ele><time>2026-04-12T14:40:54Z</time></trkpt><trkpt lat="45.41662183077802" lon="9.39787675090996"><ele>98.0</ele><time>2026-04-12T14:40:55Z</time></trkpt><trkpt lat="45.41669329502619" lon="9.397814901066784"><ele>97.99999999999999</ele><time>2026-04-12T14:40:56Z</time></trkpt><trkpt lat="45.41674656011807" lon="9.39775637139439"><ele>98.0</ele><time>2026-04-12T14:40:57Z</time></trkpt><trkpt lat="45.41683287980888" lon="9.397661520112555"><ele>97.80000000000001</ele><time>2026-04-12T14:40:59Z</time></trkpt><trkpt lat="45.41682128368634" lon="9.397472949043314"><ele>97.6</ele><time>2026-04-12T14:41:02Z</time></trkpt><trkpt lat="45.41679542998574" lon="9.397382428459386"><ele>97.4</ele><time>2026-04-12T14:41:04Z</time></trkpt><trkpt lat="45.41678787132735" lon="9.39728242392022"><ele>97.19999999999999</ele><time>2026-04-12T14:41:06Z</time></trkpt><trkpt lat="45.41677002237185" lon="9.397137363102956"><ele>97.0</ele><time>2026-04-12T14:41:08Z</time></trkpt><trkpt lat="45.41675845295106" lon="9.39702169160972"><ele>97.0</ele><time>2026-04-12T14:41:10Z</time></trkpt><trkpt lat="45.41673859820105" lon="9.396872990404944"><ele>97.0</ele><time>2026-04-12T14:41:12Z</time></trkpt><trkpt lat="45.41672762105856" lon="9.396728895423575"><ele>97.0</ele><time>2026-04-12T14:41:14Z</time></trkpt><trkpt lat="45.41672775648207" lon="9.396580281964043"><ele>97.0</ele><time>2026-04-12T14:41:17Z</time></trkpt><trkpt lat="45.416710460038196" lon="9.396454732458327"><ele>97.0</ele><time>2026-04-12T14:41:19Z</time></trkpt><trkpt lat="45.41669943370571" lon="9.396323832357114"><ele>96.8</ele><time>2026-04-12T14:41:21Z</time></trkpt><trkpt lat="45.41667333375128" lon="9.39620373809068"><ele>96.6</ele><time>2026-04-12T14:41:23Z</time></trkpt><trkpt lat="45.41665478186716" lon="9.396077239341652"><ele>96.39999999999999</ele><time>2026-04-12T14:41:26Z</time></trkpt><trkpt lat="45.416630980999" lon="9.395906289230078"><ele>96.19999999999999</ele><time>2026-04-12T14:41:28Z</time></trkpt><trkpt lat="45.41661884953027" lon="9.395790126104725"><ele>96.0</ele><time>2026-04-12T14:41:29Z</time></trkpt><trkpt lat="45.41659823619082" lon="9.39567750493487"><ele>96.0</ele><time>2026-04-12T14:41:30Z</time></trkpt><trkpt lat="45.416574095398644" lon="9.395549434944638"><ele>96.0</ele><time>2026-04-12T14:41:31Z</time></trkpt><trkpt lat="45.41657435572772" lon="9.395390918492174"><ele>96.0</ele><time>2026-04-12T14:41:32Z</time></trkpt><trkpt lat="45.416571830821404" lon="9.395222983667535"><ele>96.0</ele><time>2026-04-12T14:41:33Z</time></trkpt><trkpt lat="45.41657575310205" lon="9.395044813606894"><ele>96.0</ele><time>2026-04-12T14:41:34Z</time></trkpt><trkpt lat="45.416573525844655" lon="9.39485605969674"><ele>96.25</ele><time>2026-04-12T14:41:35Z</time></trkpt><trkpt lat="45.41656806744747" lon="9.394653274472095"><ele>96.5</ele><time>2026-04-12T14:41:36Z</time></trkpt><trkpt lat="45.41656265876622" lon="9.394451370462694"><ele>96.75</ele><time>2026-04-12T14:41:37Z</time></trkpt><trkpt lat="45.41655954603152" lon="9.394274224843944"><ele>97.0</ele><time>2026-04-12T14:41:38Z</time></trkpt><trkpt lat="45.416556764528735" lon="9.394118755110231"><ele>97.0</ele><time>2026-04-12T14:41:39Z</time></trkpt><trkpt lat="45.41655173082034" lon="9.3939646874303"><ele>97.0</ele><time>2026-04-12T14:41:40Z</time></trkpt><trkpt lat="45.41654767030242" lon="9.393809385249334"><ele>97.0</ele><time>2026-04-12T14:41:41Z</time></trkpt><trkpt lat="45.41654858526047" lon="9.393650323650993"><ele>97.0</ele><time>2026-04-12T14:41:42Z</time></trkpt><trkpt lat="45.4165423929693" lon="9.393483532733717"><ele>97.0</ele><time>2026-04-12T14:41:43Z</time></trkpt><trkpt lat="45.41653772121792" lon="9.393317677739796"><ele>96.75</ele><time>2026-04-12T14:41:44Z</time></trkpt><trkpt lat="45.41653518587396" lon="9.39312358181118"><ele>96.5</ele><time>2026-04-12T14:41:45Z</time></trkpt><trkpt lat="45.41652088275881" lon="9.392926839062017"><ele>96.25</ele><time>2026-04-12T14:41:46Z</time></trkpt><trkpt lat="45.41652862016001" lon="9.392745817482634"><ele>96.0</ele><time>2026-04-12T14:41:47Z</time></trkpt><trkpt lat="45.416534036281014" lon="9.392588850544318"><ele>96.0</ele><time>2026-04-12T14:41:48Z</time></trkpt><trkpt lat="45.41646527893337" lon="9.392470872533414"><ele>96.0</ele><time>2026-04-12T14:41:49Z</time></trkpt><trkpt lat="45.416395232652526" lon="9.392353990071268"><ele>96.0</ele><time>2026-04-12T14:41:50Z</time></trkpt><trkpt lat="45.416320778394955" lon="9.392228143853462"><ele>96.0</ele><time>2026-04-12T14:41:51Z</time></trkpt><trkpt lat="45.41624977955948" lon="9.392100326480435"><ele>96.0</ele><time>2026-04-12T14:41:52Z</time></trkpt><trkpt lat="45.4162081686219" lon="9.391949573734658"><ele>96.0</ele><time>2026-04-12T14:41:53Z</time></trkpt><trkpt lat="45.416204774218706" lon="9.391783910181422"><ele>96.0</ele><time>2026-04-12T14:41:54Z</time></trkpt><trkpt lat="45.41619239308763" lon="9.391623454421554"><ele>96.0</ele><time>2026-04-12T14:41:55Z</time></trkpt><trkpt lat="45.41621108195968" lon="9.39146482933426"><ele>96.0</ele><time>2026-04-12T14:41:56Z</time></trkpt><trkpt lat="45.41621334029504" lon="9.391340440237082"><ele>96.0</ele><time>2026-04-12T14:41:57Z</time></trkpt><trkpt lat="45.416215556108575" lon="9.391218393308426"><ele>96.0</ele><time>2026-04-12T14:41:58Z</time></trkpt><trkpt lat="45.41621763550971" lon="9.391103859871334"><ele>96.0</ele><time>2026-04-12T14:41:59Z</time></trkpt><trkpt lat="45.416219813047455" lon="9.391000458776507"><ele>96.0</ele><time>2026-04-12T14:42:00Z</time></trkpt><trkpt lat="45.416246883332136" lon="9.39091534635776"><ele>96.0</ele><time>2026-04-12T14:42:01Z</time></trkpt><trkpt lat="45.41633890160791" lon="9.390907223605726"><ele>96.0</ele><time>2026-04-12T14:42:02Z</time></trkpt><trkpt lat="45.416440211768666" lon="9.39091291067649"><ele>96.0</ele><time>2026-04-12T14:42:03Z</time></trkpt><trkpt lat="45.41654590520401" lon="9.39091884379756"><ele>96.0</ele><time>2026-04-12T14:42:03.999Z</time></trkpt><trkpt lat="45.41665957541743" lon="9.39091564511329"><ele>96.0</ele><time>2026-04-12T14:42:04.999Z</time></trkpt><trkpt lat="45.41677190574012" lon="9.390919697280147"><ele>96.0</ele><time>2026-04-12T14:42:05.999Z</time></trkpt><trkpt lat="45.41687686225075" lon="9.390924216876874"><ele>96.0</ele><time>2026-04-12T14:42:06.999Z</time></trkpt><trkpt lat="45.41696419285267" lon="9.390934064493807"><ele>96.0</ele><time>2026-04-12T14:42:07.999Z</time></trkpt><trkpt lat="45.417045421236864" lon="9.390949712688982"><ele>96.0</ele><time>2026-04-12T14:42:08.999Z</time></trkpt><trkpt lat="45.41711742088675" lon="9.390919667367188"><ele>96.0</ele><time>2026-04-12T14:42:09.999Z</time></trkpt><trkpt lat="45.41717803095087" lon="9.390844305639835"><ele>96.0</ele><time>2026-04-12T14:42:10.999Z</time></trkpt><trkpt lat="45.417174749189826" lon="9.390674870162254"><ele>96.0</ele><time>2026-04-12T14:42:11.999Z</time></trkpt><trkpt lat="45.41715235006382" lon="9.390515989965568"><ele>96.0</ele><time>2026-04-12T14:42:12.999Z</time></trkpt><trkpt lat="45.417140668342306" lon="9.390361037522776"><ele>96.0</ele><time>2026-04-12T14:42:13.999Z</time></trkpt><trkpt lat="45.41714908281289" lon="9.390219963073298"><ele>96.0</ele><time>2026-04-12T14:42:14.999Z</time></trkpt><trkpt lat="45.417152049598464" lon="9.390103821026864"><ele>96.0</ele><time>2026-04-12T14:42:15.999Z</time></trkpt><trkpt lat="45.417153687253695" lon="9.38998093343551"><ele>96.0</ele><time>2026-04-12T14:42:16.999Z</time></trkpt><trkpt lat="45.41714253721581" lon="9.38986197963945"><ele>96.0</ele><time>2026-04-12T14:42:17.999Z</time></trkpt><trkpt lat="45.41717959163147" lon="9.389714579210425"><ele>96.25</ele><time>2026-04-12T14:42:19.999Z</time></trkpt><trkpt lat="45.417353400364725" lon="9.389731938274723"><ele>96.5</ele><time>2026-04-12T14:42:21.999Z</time></trkpt><trkpt lat="45.4174658802501" lon="9.3897217878837"><ele>96.75</ele><time>2026-04-12T14:42:22.999Z</time></trkpt><trkpt lat="45.41756900770314" lon="9.389726030266566"><ele>97.0</ele><time>2026-04-12T14:42:23.999Z</time></trkpt><trkpt lat="45.4176628568705" lon="9.389757065434695"><ele>97.00000000000001</ele><time>2026-04-12T14:42:24.999Z</time></trkpt><trkpt lat="45.417731333765175" lon="9.389768067262699"><ele>97.0</ele><time>2026-04-12T14:42:25.999Z</time></trkpt><trkpt lat="45.41779394855616" lon="9.389778127257076"><ele>97.0</ele><time>2026-04-12T14:42:26.999Z</time></trkpt><trkpt lat="45.417899622545775" lon="9.389855249028463"><ele>97.0</ele><time>2026-04-12T14:42:28.999Z</time></trkpt><trkpt lat="45.41796400493214" lon="9.389872426101654"><ele>97.00000000000001</ele><time>2026-04-12T14:42:29.999Z</time></trkpt><trkpt lat="45.41806066143557" lon="9.389749204331089"><ele>97.0</ele><time>2026-04-12T14:42:31.999Z</time></trkpt><trkpt lat="45.418088461303746" lon="9.389608758113146"><ele>97.0</ele><time>2026-04-12T14:42:32.999Z</time></trkpt><trkpt lat="45.41812039315218" lon="9.389462493120107"><ele>97.0</ele><time>2026-04-12T14:42:33.999Z</time></trkpt><trkpt lat="45.41816850512983" lon="9.389320902825933"><ele>97.0</ele><time>2026-04-12T14:42:34.999Z</time></trkpt><trkpt lat="45.41821883832558" lon="9.389173935256721"><ele>97.0</ele><time>2026-04-12T14:42:35.999Z</time></trkpt><trkpt lat="45.41827787688409" lon="9.389016928083416"><ele>97.0</ele><time>2026-04-12T14:42:37Z</time></trkpt><trkpt lat="45.418339892398926" lon="9.388852537861725"><ele>97.0</ele><time>2026-04-12T14:42:38Z</time></trkpt><trkpt lat="45.4184055626668" lon="9.388686648096881"><ele>97.0</ele><time>2026-04-12T14:42:39Z</time></trkpt><trkpt lat="45.418471918896884" lon="9.388514269051685"><ele>97.0</ele><time>2026-04-12T14:42:40Z</time></trkpt><trkpt lat="45.418541687502646" lon="9.388344254604041"><ele>96.75</ele><time>2026-04-12T14:42:41Z</time></trkpt><trkpt lat="45.418608327465364" lon="9.3881686551877"><ele>96.5</ele><time>2026-04-12T14:42:42Z</time></trkpt><trkpt lat="45.418677421437785" lon="9.38798689866956"><ele>96.25</ele><time>2026-04-12T14:42:43Z</time></trkpt><trkpt lat="45.41875480688929" lon="9.387791525622642"><ele>96.0</ele><time>2026-04-12T14:42:44Z</time></trkpt><trkpt lat="45.41883015322694" lon="9.387599257789311"><ele>95.0</ele><time>2026-04-12T14:42:45Z</time></trkpt><trkpt lat="45.41890196602546" lon="9.38741430532671"><ele>94.0</ele><time>2026-04-12T14:42:46Z</time></trkpt><trkpt lat="45.41896852178581" lon="9.387235885430778"><ele>93.0</ele><time>2026-04-12T14:42:47Z</time></trkpt><trkpt lat="45.419033353169205" lon="9.387069197608838"><ele>92.0</ele><time>2026-04-12T14:42:48Z</time></trkpt><trkpt lat="45.41909383204828" lon="9.386909647796125"><ele>92.0</ele><time>2026-04-12T14:42:49Z</time></trkpt><trkpt lat="45.419150451826354" lon="9.386753022146234"><ele>92.0</ele><time>2026-04-12T14:42:50Z</time></trkpt><trkpt lat="45.41920902766857" lon="9.386604331997749"><ele>92.0</ele><time>2026-04-12T14:42:51Z</time></trkpt><trkpt lat="45.41926432534327" lon="9.386470391526773"><ele>92.0</ele><time>2026-04-12T14:42:52Z</time></trkpt><trkpt lat="45.41931525583717" lon="9.386344443496583"><ele>92.5</ele><time>2026-04-12T14:42:53Z</time></trkpt><trkpt lat="45.4193587398133" lon="9.38621866267905"><ele>93.0</ele><time>2026-04-12T14:42:54Z</time></trkpt><trkpt lat="45.41939340057575" lon="9.386104397206593"><ele>93.5</ele><time>2026-04-12T14:42:55Z</time></trkpt><trkpt lat="45.41943862644975" lon="9.386001698061076"><ele>94.0</ele><time>2026-04-12T14:42:56Z</time></trkpt><trkpt lat="45.419493173114084" lon="9.38592799519677"><ele>94.5</ele><time>2026-04-12T14:42:57Z</time></trkpt><trkpt lat="45.4195637737039" lon="9.385866859556577"><ele>95.0</ele><time>2026-04-12T14:42:58Z</time></trkpt><trkpt lat="45.41964635575489" lon="9.385808013369108"><ele>95.0</ele><time>2026-04-12T14:42:59Z</time></trkpt><trkpt lat="45.419697212479846" lon="9.385743986310946"><ele>95.0</ele><time>2026-04-12T14:43:00Z</time></trkpt><trkpt lat="45.41972932969488" lon="9.385644935080835"><ele>95.0</ele><time>2026-04-12T14:43:01Z</time></trkpt><trkpt lat="45.41972519794751" lon="9.385534162922347"><ele>95.0</ele><time>2026-04-12T14:43:02Z</time></trkpt><trkpt lat="45.41967390122329" lon="9.385431670498322"><ele>95.0</ele><time>2026-04-12T14:43:03Z</time></trkpt><trkpt lat="45.419577500663294" lon="9.385381631097346"><ele>95.0</ele><time>2026-04-12T14:43:04Z</time></trkpt><trkpt lat="45.41945977022995" lon="9.385385065614233"><ele>95.0</ele><time>2026-04-12T14:43:05Z</time></trkpt><trkpt lat="45.41933697250827" lon="9.385376013089555"><ele>95.0</ele><time>2026-04-12T14:43:06Z</time></trkpt><trkpt lat="45.419206876091636" lon="9.385327816235304"><ele>95.0</ele><time>2026-04-12T14:43:07Z</time></trkpt><trkpt lat="45.41906553901538" lon="9.385262585546895"><ele>95.0</ele><time>2026-04-12T14:43:08Z</time></trkpt><trkpt lat="45.41890929509157" lon="9.385170650489673"><ele>95.0</ele><time>2026-04-12T14:43:09Z</time></trkpt><trkpt lat="45.418767523974545" lon="9.385062473037452"><ele>95.0</ele><time>2026-04-12T14:43:10Z</time></trkpt><trkpt lat="45.418628137050945" lon="9.384951791513375"><ele>95.0</ele><time>2026-04-12T14:43:11Z</time></trkpt><trkpt lat="45.41848649518988" lon="9.384842619818674"><ele>95.0</ele><time>2026-04-12T14:43:12Z</time></trkpt><trkpt lat="45.41834490019511" lon="9.384731497679411"><ele>95.0</ele><time>2026-04-12T14:43:13Z</time></trkpt><trkpt lat="45.41820282551139" lon="9.384628719112007"><ele>95.0</ele><time>2026-04-12T14:43:14Z</time></trkpt><trkpt lat="45.41806457654412" lon="9.384536617648969"><ele>95.25</ele><time>2026-04-12T14:43:15Z</time></trkpt><trkpt lat="45.41793581926578" lon="9.384444141192366"><ele>95.5</ele><time>2026-04-12T14:43:16Z</time></trkpt><trkpt lat="45.41781494452231" lon="9.384350145105566"><ele>95.75</ele><time>2026-04-12T14:43:17Z</time></trkpt><trkpt lat="45.41769715538071" lon="9.384252738042257"><ele>96.0</ele><time>2026-04-12T14:43:18Z</time></trkpt><trkpt lat="45.41757427865709" lon="9.384160035644413"><ele>96.0</ele><time>2026-04-12T14:43:19Z</time></trkpt><trkpt lat="45.41744198051635" lon="9.38408430880951"><ele>96.0</ele><time>2026-04-12T14:43:20Z</time></trkpt><trkpt lat="45.41732440601016" lon="9.38398989484997"><ele>96.0</ele><time>2026-04-12T14:43:21Z</time></trkpt><trkpt lat="45.41723285943887" lon="9.383863042063144"><ele>96.0</ele><time>2026-04-12T14:43:22Z</time></trkpt><trkpt lat="45.41714088631172" lon="9.38374708106621"><ele>96.0</ele><time>2026-04-12T14:43:23Z</time></trkpt><trkpt lat="45.41704945742122" lon="9.383612487707948"><ele>96.0</ele><time>2026-04-12T14:43:24Z</time></trkpt><trkpt lat="45.41695662640879" lon="9.383481155261084"><ele>96.0</ele><time>2026-04-12T14:43:25Z</time></trkpt><trkpt lat="45.416864141437024" lon="9.383316552536543"><ele>96.0</ele><time>2026-04-12T14:43:26Z</time></trkpt><trkpt lat="45.4167828781461" lon="9.383140790648923"><ele>96.66666666666666</ele><time>2026-04-12T14:43:27Z</time></trkpt><trkpt lat="45.416705986635925" lon="9.382960630024321"><ele>97.33333333333333</ele><time>2026-04-12T14:43:28Z</time></trkpt><trkpt lat="45.41663257848363" lon="9.382770734659585"><ele>98.0</ele><time>2026-04-12T14:43:29Z</time></trkpt><trkpt lat="45.416570041168995" lon="9.382576645244146"><ele>98.0</ele><time>2026-04-12T14:43:30Z</time></trkpt><trkpt lat="45.41654834341951" lon="9.38237993883849"><ele>98.0</ele><time>2026-04-12T14:43:31Z</time></trkpt><trkpt lat="45.41651573537097" lon="9.38219500282476"><ele>98.0</ele><time>2026-04-12T14:43:32Z</time></trkpt><trkpt lat="45.41648070177836" lon="9.38202883783851"><ele>98.0</ele><time>2026-04-12T14:43:33Z</time></trkpt><trkpt lat="45.416451781329265" lon="9.381878242322108"><ele>98.0</ele><time>2026-04-12T14:43:34Z</time></trkpt><trkpt lat="45.41641965119181" lon="9.381740983931854"><ele>98.0</ele><time>2026-04-12T14:43:35Z</time></trkpt><trkpt lat="45.41639482983387" lon="9.381596021684762"><ele>98.0</ele><time>2026-04-12T14:43:36Z</time></trkpt><trkpt lat="45.41640413038442" lon="9.38146427306261"><ele>98.0</ele><time>2026-04-12T14:43:37Z</time></trkpt><trkpt lat="45.41642529527843" lon="9.38134336452055"><ele>98.0</ele><time>2026-04-12T14:43:38Z</time></trkpt><trkpt lat="45.41643668737147" lon="9.38122535411806"><ele>97.99999999999999</ele><time>2026-04-12T14:43:39Z</time></trkpt><trkpt lat="45.416414297677754" lon="9.381134712235434"><ele>98.0</ele><time>2026-04-12T14:43:40Z</time></trkpt><trkpt lat="45.41635755562194" lon="9.381086951145786"><ele>98.0</ele><time>2026-04-12T14:43:41Z</time></trkpt><trkpt lat="45.416288219832495" lon="9.381085548938483"><ele>98.0</ele><time>2026-04-12T14:43:42Z</time></trkpt><trkpt lat="45.416177094207626" lon="9.38118057903402"><ele>97.99999999999999</ele><time>2026-04-12T14:43:44Z</time></trkpt><trkpt lat="45.41609333768754" lon="9.381266817997375"><ele>98.0</ele><time>2026-04-12T14:43:45Z</time></trkpt><trkpt lat="45.4159881239594" lon="9.381322903521752"><ele>98.0</ele><time>2026-04-12T14:43:46Z</time></trkpt><trkpt lat="45.415866273029714" lon="9.38131586728051"><ele>98.0</ele><time>2026-04-12T14:43:47Z</time></trkpt><trkpt lat="45.41573180719592" lon="9.38136463279832"><ele>98.0</ele><time>2026-04-12T14:43:48Z</time></trkpt><trkpt lat="45.41557292754463" lon="9.38142225224327"><ele>98.0</ele><time>2026-04-12T14:43:49Z</time></trkpt><trkpt lat="45.415440911954526" lon="9.38147787952118"><ele>97.5</ele><time>2026-04-12T14:43:50Z</time></trkpt><trkpt lat="45.41533204002174" lon="9.381520592956445"><ele>97.0</ele><time>2026-04-12T14:43:51Z</time></trkpt><trkpt lat="45.41522282972592" lon="9.381554727691757"><ele>96.5</ele><time>2026-04-12T14:43:52Z</time></trkpt><trkpt lat="45.41510775274979" lon="9.381540655938286"><ele>96.0</ele><time>2026-04-12T14:43:53Z</time></trkpt><trkpt lat="45.41500717735406" lon="9.381475577525448"><ele>96.0</ele><time>2026-04-12T14:43:54Z</time></trkpt><trkpt lat="45.41493159740737" lon="9.381352341782671"><ele>96.0</ele><time>2026-04-12T14:43:55Z</time></trkpt><trkpt lat="45.41489094978041" lon="9.381212978496908"><ele>96.0</ele><time>2026-04-12T14:43:56Z</time></trkpt><trkpt lat="45.414880651153055" lon="9.381092522730691"><ele>96.0</ele><time>2026-04-12T14:43:57Z</time></trkpt><trkpt lat="45.41487912076053" lon="9.38100007637809"><ele>96.0</ele><time>2026-04-12T14:43:58Z</time></trkpt><trkpt lat="45.41486711676024" lon="9.380893929041688"><ele>96.0</ele><time>2026-04-12T14:44:00Z</time></trkpt><trkpt lat="45.41466960469362" lon="9.38087562628516"><ele>96.33333333333334</ele><time>2026-04-12T14:44:02Z</time></trkpt><trkpt lat="45.414832604545715" lon="9.380634859701091"><ele>96.66666666666667</ele><time>2026-04-12T14:44:04Z</time></trkpt><trkpt lat="45.414809725811814" lon="9.380462735768928"><ele>97.0</ele><time>2026-04-12T14:44:06Z</time></trkpt><trkpt lat="45.414762495440876" lon="9.380298213552448"><ele>97.0</ele><time>2026-04-12T14:44:07.999Z</time></trkpt><trkpt lat="45.414227181228824" lon="9.380331619795037"><ele>97.00000000000001</ele><time>2026-04-12T14:44:08.999Z</time></trkpt><trkpt lat="45.414169758715424" lon="9.380228401122416"><ele>97.0</ele><time>2026-04-12T14:44:09.999Z</time></trkpt><trkpt lat="45.414117686328126" lon="9.380136176889627"><ele>97.0</ele><time>2026-04-12T14:44:10.999Z</time></trkpt><trkpt lat="45.41404142087997" lon="9.379994600896396"><ele>97.0</ele><time>2026-04-12T14:44:12.999Z</time></trkpt><trkpt lat="45.41401011883474" lon="9.379915920544816"><ele>97.00000000000001</ele><time>2026-04-12T14:44:13.999Z</time></trkpt><trkpt lat="45.41398248575418" lon="9.379827696707824"><ele>97.0</ele><time>2026-04-12T14:44:14.999Z</time></trkpt><trkpt lat="45.41393978419446" lon="9.379736625466307"><ele>97.0</ele><time>2026-04-12T14:44:15.999Z</time></trkpt><trkpt lat="45.41387114680793" lon="9.379640928265106"><ele>97.0</ele><time>2026-04-12T14:44:16.999Z</time></trkpt><trkpt lat="45.41378753693919" lon="9.379526877526779"><ele>97.0</ele><time>2026-04-12T14:44:17.999Z</time></trkpt><trkpt lat="45.41370349872167" lon="9.379413176515872"><ele>97.0</ele><time>2026-04-12T14:44:18.999Z</time></trkpt><trkpt lat="45.413615408199036" lon="9.379300489310632"><ele>97.0</ele><time>2026-04-12T14:44:19.999Z</time></trkpt><trkpt lat="45.41352994695394" lon="9.379194838177794"><ele>96.6</ele><time>2026-04-12T14:44:20.999Z</time></trkpt><trkpt lat="45.41345957150332" lon="9.379105857049225"><ele>96.19999999999999</ele><time>2026-04-12T14:44:21.999Z</time></trkpt><trkpt lat="45.4134042020338" lon="9.37902891357537"><ele>95.8</ele><time>2026-04-12T14:44:22.999Z</time></trkpt><trkpt lat="45.41333899345152" lon="9.378981399940912"><ele>95.4</ele><time>2026-04-12T14:44:23.999Z</time></trkpt><trkpt lat="45.4131757925148" lon="9.37903956778324"><ele>95.0</ele><time>2026-04-12T14:44:27.999Z</time></trkpt><trkpt lat="45.41309576134827" lon="9.379117056611292"><ele>95.0</ele><time>2026-04-12T14:44:28.999Z</time></trkpt><trkpt lat="45.413025739126574" lon="9.379179307526602"><ele>95.0</ele><time>2026-04-12T14:44:29.999Z</time></trkpt><trkpt lat="45.412974658016836" lon="9.379261181224386"><ele>95.0</ele><time>2026-04-12T14:44:30.999Z</time></trkpt><trkpt lat="45.41291606945677" lon="9.379303796161246"><ele>95.0</ele><time>2026-04-12T14:44:31.999Z</time></trkpt><trkpt lat="45.41286651670821" lon="9.379386007828339"><ele>95.0</ele><time>2026-04-12T14:44:32.999Z</time></trkpt><trkpt lat="45.41280137087838" lon="9.379450697057012"><ele>95.0</ele><time>2026-04-12T14:44:33.999Z</time></trkpt><trkpt lat="45.4127167171503" lon="9.379503156154133"><ele>95.4</ele><time>2026-04-12T14:44:34.999Z</time></trkpt><trkpt lat="45.41262098814462" lon="9.379550997509613"><ele>95.8</ele><time>2026-04-12T14:44:35.999Z</time></trkpt><trkpt lat="45.412522956559314" lon="9.379595624660018"><ele>96.19999999999999</ele><time>2026-04-12T14:44:36.999Z</time></trkpt><trkpt lat="45.41243898911819" lon="9.379654687334144"><ele>96.6</ele><time>2026-04-12T14:44:37.999Z</time></trkpt><trkpt lat="45.4123888905371" lon="9.379753461833046"><ele>97.0</ele><time>2026-04-12T14:44:38.999Z</time></trkpt><trkpt lat="45.412380561150655" lon="9.379885471719003"><ele>97.00000000000001</ele><time>2026-04-12T14:44:39.999Z</time></trkpt><trkpt lat="45.41239415079139" lon="9.380021415533625"><ele>97.0</ele><time>2026-04-12T14:44:40.999Z</time></trkpt><trkpt lat="45.41240378920571" lon="9.380166610288505"><ele>97.0</ele><time>2026-04-12T14:44:41.999Z</time></trkpt><trkpt lat="45.41241463761382" lon="9.380290880773806"><ele>97.0</ele><time>2026-04-12T14:44:43Z</time></trkpt><trkpt lat="45.41241311720812" lon="9.380392277031989"><ele>97.00000000000001</ele><time>2026-04-12T14:44:44Z</time></trkpt><trkpt lat="45.412406804809876" lon="9.380489884068146"><ele>97.0</ele><time>2026-04-12T14:44:45Z</time></trkpt><trkpt lat="45.412376931902045" lon="9.380587358274642"><ele>97.0</ele><time>2026-04-12T14:44:46Z</time></trkpt><trkpt lat="45.41232920490117" lon="9.380700003407066"><ele>97.0</ele><time>2026-04-12T14:44:47Z</time></trkpt><trkpt lat="45.412271182118204" lon="9.380822273361881"><ele>97.0</ele><time>2026-04-12T14:44:48Z</time></trkpt><trkpt lat="45.41222724000038" lon="9.380986552234242"><ele>97.0</ele><time>2026-04-12T14:44:49Z</time></trkpt><trkpt lat="45.41220556068592" lon="9.381165933859156"><ele>97.0</ele><time>2026-04-12T14:44:50Z</time></trkpt><trkpt lat="45.41218447729659" lon="9.381352486049018"><ele>96.8</ele><time>2026-04-12T14:44:51Z</time></trkpt><trkpt lat="45.41217836506379" lon="9.381534886832961"><ele>96.6</ele><time>2026-04-12T14:44:52Z</time></trkpt><trkpt lat="45.41219131561866" lon="9.381705105981071"><ele>96.39999999999999</ele><time>2026-04-12T14:44:53Z</time></trkpt><trkpt lat="45.41220883932507" lon="9.381849780613575"><ele>96.19999999999999</ele><time>2026-04-12T14:44:54Z</time></trkpt><trkpt lat="45.412224725222316" lon="9.381982451872307"><ele>96.0</ele><time>2026-04-12T14:44:55Z</time></trkpt><trkpt lat="45.41224566730878" lon="9.382118459131359"><ele>95.5</ele><time>2026-04-12T14:44:56Z</time></trkpt><trkpt lat="45.41223378770994" lon="9.382263631860635"><ele>95.0</ele><time>2026-04-12T14:44:57Z</time></trkpt><trkpt lat="45.412204352495955" lon="9.382415039384988"><ele>94.5</ele><time>2026-04-12T14:44:58Z</time></trkpt><trkpt lat="45.412201886212216" lon="9.382574317828139"><ele>94.0</ele><time>2026-04-12T14:44:59Z</time></trkpt><trkpt lat="45.41225347671606" lon="9.382739770386408"><ele>94.0</ele><time>2026-04-12T14:45:00Z</time></trkpt><trkpt lat="45.41231227592977" lon="9.382934041962894"><ele>94.0</ele><time>2026-04-12T14:45:01Z</time></trkpt><trkpt lat="45.4123139304207" lon="9.383153613384321"><ele>94.0</ele><time>2026-04-12T14:45:02Z</time></trkpt><trkpt lat="45.41235386112299" lon="9.383362304379347"><ele>94.0</ele><time>2026-04-12T14:45:03Z</time></trkpt><trkpt lat="45.41239832508732" lon="9.383581343288432"><ele>94.0</ele><time>2026-04-12T14:45:04Z</time></trkpt><trkpt lat="45.412439973035845" lon="9.383793801734189"><ele>94.0</ele><time>2026-04-12T14:45:05Z</time></trkpt><trkpt lat="45.41247737650158" lon="9.383985560162772"><ele>94.5</ele><time>2026-04-12T14:45:06Z</time></trkpt><trkpt lat="45.41251219757778" lon="9.38417168898963"><ele>95.0</ele><time>2026-04-12T14:45:07Z</time></trkpt><trkpt lat="45.41254354607902" lon="9.3843570652778"><ele>95.5</ele><time>2026-04-12T14:45:08Z</time></trkpt><trkpt lat="45.412575306423626" lon="9.384536312447969"><ele>96.0</ele><time>2026-04-12T14:45:09Z</time></trkpt><trkpt lat="45.41260702157415" lon="9.384716157446805"><ele>96.0</ele><time>2026-04-12T14:45:10Z</time></trkpt><trkpt lat="45.4126383517332" lon="9.384891500468344"><ele>96.0</ele><time>2026-04-12T14:45:11Z</time></trkpt><trkpt lat="45.41266942728407" lon="9.385050267101041"><ele>96.0</ele><time>2026-04-12T14:45:12Z</time></trkpt><trkpt lat="45.41270491529175" lon="9.385208306254128"><ele>96.0</ele><time>2026-04-12T14:45:13Z</time></trkpt><trkpt lat="45.41273352281361" lon="9.385331216328169"><ele>96.0</ele><time>2026-04-12T14:45:14Z</time></trkpt><trkpt lat="45.412760940468665" lon="9.38545735609182"><ele>96.0</ele><time>2026-04-12T14:45:15Z</time></trkpt><trkpt lat="45.41278851073787" lon="9.38557434638619"><ele>96.0</ele><time>2026-04-12T14:45:16Z</time></trkpt><trkpt lat="45.412813433712444" lon="9.385685348402323"><ele>96.0</ele><time>2026-04-12T14:45:17Z</time></trkpt><trkpt lat="45.41284007379148" lon="9.385777392681767"><ele>96.0</ele><time>2026-04-12T14:45:18Z</time></trkpt><trkpt lat="45.41286655174108" lon="9.38591092814218"><ele>96.0</ele><time>2026-04-12T14:45:20Z</time></trkpt><trkpt lat="45.412768685371034" lon="9.385883549580361"><ele>96.0</ele><time>2026-04-12T14:45:22Z</time></trkpt><trkpt lat="45.41264944226231" lon="9.385908102680158"><ele>96.0</ele><time>2026-04-12T14:45:24Z</time></trkpt><trkpt lat="45.41258152271796" lon="9.385923195917744"><ele>96.0</ele><time>2026-04-12T14:45:25Z</time></trkpt><trkpt lat="45.41250338577567" lon="9.385939654430816"><ele>96.0</ele><time>2026-04-12T14:45:26Z</time></trkpt><trkpt lat="45.41240257228736" lon="9.385959896989508"><ele>96.0</ele><time>2026-04-12T14:45:27Z</time></trkpt><trkpt lat="45.41229308470626" lon="9.385981440800972"><ele>96.0</ele><time>2026-04-12T14:45:28Z</time></trkpt><trkpt lat="45.41218017394442" lon="9.386002929794916"><ele>96.0</ele><time>2026-04-12T14:45:29Z</time></trkpt><trkpt lat="45.412056744180795" lon="9.386024063787659"><ele>96.0</ele><time>2026-04-12T14:45:30Z</time></trkpt><trkpt lat="45.41192971623412" lon="9.386045136646237"><ele>96.0</ele><time>2026-04-12T14:45:31Z</time></trkpt><trkpt lat="45.41180992897912" lon="9.386062431965874"><ele>96.16666666666667</ele><time>2026-04-12T14:45:32Z</time></trkpt><trkpt lat="45.41170746988616" lon="9.386073102588561"><ele>96.33333333333334</ele><time>2026-04-12T14:45:33Z</time></trkpt><trkpt lat="45.41161437661416" lon="9.386079744769326"><ele>96.5</ele><time>2026-04-12T14:45:34Z</time></trkpt><trkpt lat="45.41153184174834" lon="9.386073033012442"><ele>96.66666666666667</ele><time>2026-04-12T14:45:35Z</time></trkpt><trkpt lat="45.411451505688355" lon="9.386045129003522"><ele>96.83333333333334</ele><time>2026-04-12T14:45:36Z</time></trkpt><trkpt lat="45.411384576442785" lon="9.386000967420447"><ele>97.0</ele><time>2026-04-12T14:45:37Z</time></trkpt><trkpt lat="45.41131789056741" lon="9.385969296445388"><ele>96.25</ele><time>2026-04-12T14:45:38Z</time></trkpt><trkpt lat="45.41124912290028" lon="9.385936636768662"><ele>95.5</ele><time>2026-04-12T14:45:40Z</time></trkpt><trkpt lat="45.41110660825832" lon="9.386314613491201"><ele>94.75</ele><time>2026-04-12T14:45:45Z</time></trkpt><trkpt lat="45.41107704379468" lon="9.38640148061495"><ele>94.0</ele><time>2026-04-12T14:45:57Z</time></trkpt><trkpt lat="45.41108815603541" lon="9.386580827793052"><ele>94.0</ele><time>2026-04-12T14:45:59Z</time></trkpt><trkpt lat="45.411103850024546" lon="9.386685702071361"><ele>94.0</ele><time>2026-04-12T14:46:00Z</time></trkpt><trkpt lat="45.4111152629707" lon="9.386802662938734"><ele>94.0</ele><time>2026-04-12T14:46:01Z</time></trkpt><trkpt lat="45.411125258877476" lon="9.386923015087245"><ele>94.0</ele><time>2026-04-12T14:46:02Z</time></trkpt><trkpt lat="45.41114300005486" lon="9.387051790231473"><ele>94.0</ele><time>2026-04-12T14:46:03Z</time></trkpt><trkpt lat="45.411159116424834" lon="9.38717949373304"><ele>94.0</ele><time>2026-04-12T14:46:04Z</time></trkpt><trkpt lat="45.411172269825364" lon="9.3873135451643"><ele>94.0</ele><time>2026-04-12T14:46:05Z</time></trkpt><trkpt lat="45.41118976039776" lon="9.387452984739536"><ele>94.0</ele><time>2026-04-12T14:46:06Z</time></trkpt><trkpt lat="45.41120510726376" lon="9.387596110201017"><ele>94.0</ele><time>2026-04-12T14:46:07Z</time></trkpt><trkpt lat="45.41121924744198" lon="9.38773836743835"><ele>94.0</ele><time>2026-04-12T14:46:08Z</time></trkpt><trkpt lat="45.41123892125244" lon="9.38788137575778"><ele>94.0</ele><time>2026-04-12T14:46:09Z</time></trkpt><trkpt lat="45.411254040012224" lon="9.388013401714128"><ele>94.16666666666666</ele><time>2026-04-12T14:46:10Z</time></trkpt><trkpt lat="45.411270166047544" lon="9.388140589551591"><ele>94.33333333333333</ele><time>2026-04-12T14:46:11Z</time></trkpt><trkpt lat="45.4112842476412" lon="9.388264333038155"><ele>94.5</ele><time>2026-04-12T14:46:12Z</time></trkpt><trkpt lat="45.411298275861675" lon="9.388376261162666"><ele>94.66666666666667</ele><time>2026-04-12T14:46:12.999Z</time></trkpt><trkpt lat="45.411305722529846" lon="9.388477868070007"><ele>94.83333333333334</ele><time>2026-04-12T14:46:13.999Z</time></trkpt><trkpt lat="45.411321897095384" lon="9.388574011567911"><ele>95.0</ele><time>2026-04-12T14:46:14.999Z</time></trkpt><trkpt lat="45.41132834886462" lon="9.388743978479656"><ele>95.2</ele><time>2026-04-12T14:46:16.999Z</time></trkpt><trkpt lat="45.41128257301691" lon="9.38881986312851"><ele>95.4</ele><time>2026-04-12T14:46:17.999Z</time></trkpt><trkpt lat="45.41120736205718" lon="9.388866926870772"><ele>95.6</ele><time>2026-04-12T14:46:18.999Z</time></trkpt><trkpt lat="45.411116342466414" lon="9.388882471025903"><ele>95.8</ele><time>2026-04-12T14:46:19.999Z</time></trkpt><trkpt lat="45.41099146760279" lon="9.388891059493005"><ele>96.0</ele><time>2026-04-12T14:46:20.999Z</time></trkpt><trkpt lat="45.41085595728168" lon="9.388923957034356"><ele>96.0</ele><time>2026-04-12T14:46:21.999Z</time></trkpt><trkpt lat="45.41071214897543" lon="9.388954220438894"><ele>96.0</ele><time>2026-04-12T14:46:22.999Z</time></trkpt><trkpt lat="45.410577030895176" lon="9.388997446970674"><ele>96.0</ele><time>2026-04-12T14:46:23.999Z</time></trkpt><trkpt lat="45.41046276580651" lon="9.389030303202885"><ele>96.0</ele><time>2026-04-12T14:46:24.999Z</time></trkpt><trkpt lat="45.41034104139274" lon="9.389065571320227"><ele>96.0</ele><time>2026-04-12T14:46:25.999Z</time></trkpt><trkpt lat="45.41022527441217" lon="9.389097314391334"><ele>96.0</ele><time>2026-04-12T14:46:26.999Z</time></trkpt><trkpt lat="45.41012052242477" lon="9.389115415772944"><ele>96.0</ele><time>2026-04-12T14:46:27.999Z</time></trkpt><trkpt lat="45.410024672326216" lon="9.389138278750385"><ele>96.0</ele><time>2026-04-12T14:46:28.999Z</time></trkpt><trkpt lat="45.40994529820022" lon="9.389152797106066"><ele>96.0</ele><time>2026-04-12T14:46:29.999Z</time></trkpt><trkpt lat="45.40988132491684" lon="9.389166606166793"><ele>96.0</ele><time>2026-04-12T14:46:30.999Z</time></trkpt><trkpt lat="45.40982558937204" lon="9.389286637378895"><ele>96.0</ele><time>2026-04-12T14:46:32.999Z</time></trkpt><trkpt lat="45.409808021181945" lon="9.38939362337416"><ele>96.0</ele><time>2026-04-12T14:46:33.999Z</time></trkpt><trkpt lat="45.40985503251451" lon="9.389599236435037"><ele>96.0</ele><time>2026-04-12T14:46:34.999Z</time></trkpt><trkpt lat="45.4098773125323" lon="9.38980202353463"><ele>95.8</ele><time>2026-04-12T14:46:35.999Z</time></trkpt><trkpt lat="45.40990412026988" lon="9.389975492488052"><ele>95.6</ele><time>2026-04-12T14:46:36.999Z</time></trkpt><trkpt lat="45.40991897769419" lon="9.390129100328709"><ele>95.4</ele><time>2026-04-12T14:46:37.999Z</time></trkpt><trkpt lat="45.40992317517319" lon="9.390260192517092"><ele>95.2</ele><time>2026-04-12T14:46:38.999Z</time></trkpt><trkpt lat="45.40991347727964" lon="9.390360901432087"><ele>95.0</ele><time>2026-04-12T14:46:39.999Z</time></trkpt><trkpt lat="45.40988454232549" lon="9.390445846794861"><ele>95.0</ele><time>2026-04-12T14:46:40.999Z</time></trkpt><trkpt lat="45.40982864708702" lon="9.390496610949507"><ele>95.0</ele><time>2026-04-12T14:46:41.999Z</time></trkpt><trkpt lat="45.40973878385928" lon="9.390527224919442"><ele>95.0</ele><time>2026-04-12T14:46:42.999Z</time></trkpt><trkpt lat="45.409625244748526" lon="9.39052295811545"><ele>95.0</ele><time>2026-04-12T14:46:43.999Z</time></trkpt><trkpt lat="45.40948489942631" lon="9.39050854969"><ele>95.0</ele><time>2026-04-12T14:46:44.999Z</time></trkpt><trkpt lat="45.40933730762824" lon="9.39052061239053"><ele>94.75</ele><time>2026-04-12T14:46:45.999Z</time></trkpt><trkpt lat="45.40918879324727" lon="9.39053275375559"><ele>94.5</ele><time>2026-04-12T14:46:46.999Z</time></trkpt><trkpt lat="45.409057504360646" lon="9.390541452313634"><ele>94.25</ele><time>2026-04-12T14:46:47.999Z</time></trkpt><trkpt lat="45.40893327122296" lon="9.390555784896833"><ele>94.0</ele><time>2026-04-12T14:46:49Z</time></trkpt><trkpt lat="45.40880366296422" lon="9.39056051129598"><ele>94.0</ele><time>2026-04-12T14:46:50Z</time></trkpt><trkpt lat="45.4086659064331" lon="9.390561916089936"><ele>94.0</ele><time>2026-04-12T14:46:51Z</time></trkpt><trkpt lat="45.408545446790185" lon="9.390575850445328"><ele>94.0</ele><time>2026-04-12T14:46:52Z</time></trkpt><trkpt lat="45.4084376717413" lon="9.39058627240075"><ele>94.0</ele><time>2026-04-12T14:46:53Z</time></trkpt><trkpt lat="45.40832437207302" lon="9.39059811509542"><ele>94.0</ele><time>2026-04-12T14:46:54Z</time></trkpt><trkpt lat="45.40821949691376" lon="9.390612202295857"><ele>94.0</ele><time>2026-04-12T14:46:55Z</time></trkpt><trkpt lat="45.408126901601776" lon="9.390636435248542"><ele>94.0</ele><time>2026-04-12T14:46:56Z</time></trkpt><trkpt lat="45.40801484232508" lon="9.390599670341448"><ele>94.0</ele><time>2026-04-12T14:46:58Z</time></trkpt><trkpt lat="45.407998373169" lon="9.390499378333994"><ele>94.0</ele><time>2026-04-12T14:46:59Z</time></trkpt><trkpt lat="45.40800178550358" lon="9.39035905828141"><ele>94.0</ele><time>2026-04-12T14:47:00Z</time></trkpt><trkpt lat="45.40799463539217" lon="9.390179481861605"><ele>94.0</ele><time>2026-04-12T14:47:01Z</time></trkpt><trkpt lat="45.407963785958145" lon="9.389946456484832"><ele>94.0</ele><time>2026-04-12T14:47:02Z</time></trkpt><trkpt lat="45.4079217933665" lon="9.38972529856254"><ele>94.0</ele><time>2026-04-12T14:47:03Z</time></trkpt><trkpt lat="45.40788800896203" lon="9.389549709386008"><ele>94.0</ele><time>2026-04-12T14:47:04Z</time></trkpt><trkpt lat="45.40787284248577" lon="9.38941434305752"><ele>94.0</ele><time>2026-04-12T14:47:05Z</time></trkpt><trkpt lat="45.407878504821554" lon="9.389257735303811"><ele>94.0</ele><time>2026-04-12T14:47:06Z</time></trkpt><trkpt lat="45.40790547848876" lon="9.389068713278931"><ele>94.33333333333333</ele><time>2026-04-12T14:47:07Z</time></trkpt><trkpt lat="45.40789542295121" lon="9.388824601487064"><ele>94.66666666666667</ele><time>2026-04-12T14:47:08Z</time></trkpt><trkpt lat="45.40786506042056" lon="9.388592932516515"><ele>95.0</ele><time>2026-04-12T14:47:09Z</time></trkpt><trkpt lat="45.40784385930211" lon="9.388392126741286"><ele>95.0</ele><time>2026-04-12T14:47:10Z</time></trkpt><trkpt lat="45.407826153221826" lon="9.3882082409649"><ele>95.0</ele><time>2026-04-12T14:47:11Z</time></trkpt><trkpt lat="45.40780745866481" lon="9.388027777742943"><ele>95.0</ele><time>2026-04-12T14:47:12Z</time></trkpt><trkpt lat="45.4077882691046" lon="9.387889163598539"><ele>95.0</ele><time>2026-04-12T14:47:13Z</time></trkpt><trkpt lat="45.40775533051448" lon="9.387801572481424"><ele>95.0</ele><time>2026-04-12T14:47:14Z</time></trkpt><trkpt lat="45.40761014641576" lon="9.387779381177435"><ele>95.25</ele><time>2026-04-12T14:47:16Z</time></trkpt><trkpt lat="45.407498018770916" lon="9.387822475983874"><ele>95.5</ele><time>2026-04-12T14:47:17Z</time></trkpt><trkpt lat="45.407361773099126" lon="9.387874069182807"><ele>95.75</ele><time>2026-04-12T14:47:18Z</time></trkpt><trkpt lat="45.40724168280906" lon="9.38790647974489"><ele>96.0</ele><time>2026-04-12T14:47:19Z</time></trkpt><trkpt lat="45.40716580798958" lon="9.387902746998737"><ele>96.0</ele><time>2026-04-12T14:47:20Z</time></trkpt><trkpt lat="45.40710618168658" lon="9.387833885337175"><ele>96.0</ele><time>2026-04-12T14:47:21Z</time></trkpt><trkpt lat="45.40706803246948" lon="9.38770090743197"><ele>96.0</ele><time>2026-04-12T14:47:22Z</time></trkpt><trkpt lat="45.40705416984398" lon="9.387535034798235"><ele>96.0</ele><time>2026-04-12T14:47:23Z</time></trkpt><trkpt lat="45.40703405533536" lon="9.387292432631247"><ele>95.5</ele><time>2026-04-12T14:47:24Z</time></trkpt><trkpt lat="45.40700595393745" lon="9.387052411696468"><ele>95.0</ele><time>2026-04-12T14:47:25Z</time></trkpt><trkpt lat="45.40697887752257" lon="9.38684464138461"><ele>94.5</ele><time>2026-04-12T14:47:26Z</time></trkpt><trkpt lat="45.40695605098894" lon="9.386666473483421"><ele>94.0</ele><time>2026-04-12T14:47:27Z</time></trkpt><trkpt lat="45.40693571356794" lon="9.386498332200071"><ele>94.25</ele><time>2026-04-12T14:47:28Z</time></trkpt><trkpt lat="45.406925409595694" lon="9.386314204386466"><ele>94.5</ele><time>2026-04-12T14:47:29Z</time></trkpt><trkpt lat="45.40692359938429" lon="9.386101250618907"><ele>94.75</ele><time>2026-04-12T14:47:30Z</time></trkpt><trkpt lat="45.40687884053208" lon="9.385983167665616"><ele>95.0</ele><time>2026-04-12T14:47:31Z</time></trkpt><trkpt lat="45.406876568716626" lon="9.38584192548833"><ele>95.0</ele><time>2026-04-12T14:47:32Z</time></trkpt><trkpt lat="45.40688458680826" lon="9.38570862519035"><ele>95.0</ele><time>2026-04-12T14:47:33Z</time></trkpt><trkpt lat="45.40688112284366" lon="9.385567269447474"><ele>95.0</ele><time>2026-04-12T14:47:34Z</time></trkpt><trkpt lat="45.40686585668878" lon="9.385426600718391"><ele>95.0</ele><time>2026-04-12T14:47:35Z</time></trkpt><trkpt lat="45.406842150865685" lon="9.385283920873597"><ele>95.0</ele><time>2026-04-12T14:47:36Z</time></trkpt><trkpt lat="45.40681902997664" lon="9.385140160599498"><ele>95.4</ele><time>2026-04-12T14:47:37Z</time></trkpt><trkpt lat="45.40679526192341" lon="9.384995123849807"><ele>95.8</ele><time>2026-04-12T14:47:38Z</time></trkpt><trkpt lat="45.406772128215444" lon="9.384847764378149"><ele>96.19999999999999</ele><time>2026-04-12T14:47:39Z</time></trkpt><trkpt lat="45.40674832874854" lon="9.384706860132262"><ele>96.6</ele><time>2026-04-12T14:47:40Z</time></trkpt><trkpt lat="45.406731653316776" lon="9.384585655802882"><ele>97.0</ele><time>2026-04-12T14:47:41Z</time></trkpt><trkpt lat="45.40671429986916" lon="9.38446823413007"><ele>97.00000000000001</ele><time>2026-04-12T14:47:42Z</time></trkpt><trkpt lat="45.40670148778294" lon="9.384352927925798"><ele>97.0</ele><time>2026-04-12T14:47:43Z</time></trkpt><trkpt lat="45.40668026676451" lon="9.384230359550266"><ele>97.0</ele><time>2026-04-12T14:47:44Z</time></trkpt><trkpt lat="45.40666017640079" lon="9.384106991997344"><ele>97.0</ele><time>2026-04-12T14:47:45Z</time></trkpt><trkpt lat="45.40664150420141" lon="9.383981776704635"><ele>97.00000000000001</ele><time>2026-04-12T14:47:46Z</time></trkpt><trkpt lat="45.40662663439336" lon="9.38386083369215"><ele>97.0</ele><time>2026-04-12T14:47:47Z</time></trkpt><trkpt lat="45.406618394676265" lon="9.383753399592479"><ele>97.0</ele><time>2026-04-12T14:47:48Z</time></trkpt><trkpt lat="45.40659678384465" lon="9.383624281842069"><ele>97.0</ele><time>2026-04-12T14:47:49Z</time></trkpt><trkpt lat="45.40658276610923" lon="9.383510526140935"><ele>97.0</ele><time>2026-04-12T14:47:50Z</time></trkpt><trkpt lat="45.406568619404894" lon="9.383411290040145"><ele>97.0</ele><time>2026-04-12T14:47:51Z</time></trkpt><trkpt lat="45.406548752160184" lon="9.383314941805263"><ele>97.0</ele><time>2026-04-12T14:47:52Z</time></trkpt><trkpt lat="45.406530767387096" lon="9.38322343802781"><ele>97.0</ele><time>2026-04-12T14:47:53Z</time></trkpt><trkpt lat="45.40651443861579" lon="9.383134945744144"><ele>97.0</ele><time>2026-04-12T14:47:54Z</time></trkpt><trkpt lat="45.4065007273873" lon="9.382994817896641"><ele>97.00000000000001</ele><time>2026-04-12T14:47:56Z</time></trkpt><trkpt lat="45.40648595253017" lon="9.38290025807686"><ele>97.0</ele><time>2026-04-12T14:47:59Z</time></trkpt><trkpt lat="45.4064731428574" lon="9.383029961654177"><ele>97.0</ele><time>2026-04-12T14:48:02Z</time></trkpt><trkpt lat="45.40651705747256" lon="9.383110534670626"><ele>97.0</ele><time>2026-04-12T14:48:03Z</time></trkpt><trkpt lat="45.40654517308962" lon="9.383221496766652"><ele>97.00000000000001</ele><time>2026-04-12T14:48:04Z</time></trkpt><trkpt lat="45.40656043127162" lon="9.383350627831565"><ele>97.0</ele><time>2026-04-12T14:48:05Z</time></trkpt><trkpt lat="45.40657543017888" lon="9.383479220749427"><ele>97.0</ele><time>2026-04-12T14:48:06Z</time></trkpt><trkpt lat="45.4065916518987" lon="9.383607452082105"><ele>97.0</ele><time>2026-04-12T14:48:07Z</time></trkpt><trkpt lat="45.40660792537917" lon="9.383746814485546"><ele>97.0</ele><time>2026-04-12T14:48:08Z</time></trkpt><trkpt lat="45.40662802392823" lon="9.383893490461773"><ele>97.0</ele><time>2026-04-12T14:48:09Z</time></trkpt><trkpt lat="45.40665176775937" lon="9.384044630787766"><ele>97.0</ele><time>2026-04-12T14:48:09.999Z</time></trkpt><trkpt lat="45.40667066680827" lon="9.384198840223826"><ele>97.0</ele><time>2026-04-12T14:48:10.999Z</time></trkpt><trkpt lat="45.406693253493394" lon="9.384354944050726"><ele>97.0</ele><time>2026-04-12T14:48:11.999Z</time></trkpt><trkpt lat="45.406719994101316" lon="9.384514628724574"><ele>97.0</ele><time>2026-04-12T14:48:12.999Z</time></trkpt><trkpt lat="45.406744574859495" lon="9.384674036222334"><ele>97.0</ele><time>2026-04-12T14:48:13.999Z</time></trkpt><trkpt lat="45.40676940956666" lon="9.384834516884833"><ele>97.00000000000001</ele><time>2026-04-12T14:48:14.999Z</time></trkpt><trkpt lat="45.40679009103456" lon="9.384979725051839"><ele>97.0</ele><time>2026-04-12T14:48:15.999Z</time></trkpt><trkpt lat="45.406805406134836" lon="9.38510675181024"><ele>97.0</ele><time>2026-04-12T14:48:16.999Z</time></trkpt><trkpt lat="45.406823722348655" lon="9.385227807402138"><ele>97.0</ele><time>2026-04-12T14:48:17.999Z</time></trkpt><trkpt lat="45.40684243962196" lon="9.385340520936875"><ele>97.00000000000001</ele><time>2026-04-12T14:48:18.999Z</time></trkpt><trkpt lat="45.40685999567621" lon="9.385449952608262"><ele>97.0</ele><time>2026-04-12T14:48:19.999Z</time></trkpt><trkpt lat="45.40687225766235" lon="9.385565773698914"><ele>96.66666666666667</ele><time>2026-04-12T14:48:20.999Z</time></trkpt><trkpt lat="45.40687992186331" lon="9.385681486752341"><ele>96.33333333333334</ele><time>2026-04-12T14:48:21.999Z</time></trkpt><trkpt lat="45.40688386220306" lon="9.385850717493183"><ele>96.0</ele><time>2026-04-12T14:48:23.999Z</time></trkpt><trkpt lat="45.406877435605914" lon="9.385940023930091"><ele>95.66666666666667</ele><time>2026-04-12T14:48:24.999Z</time></trkpt><trkpt lat="45.40687554302765" lon="9.386033949554811"><ele>95.33333333333334</ele><time>2026-04-12T14:48:25.999Z</time></trkpt><trkpt lat="45.40688806018396" lon="9.38614820207647"><ele>95.0</ele><time>2026-04-12T14:48:26.999Z</time></trkpt><trkpt lat="45.40690604575939" lon="9.386270271806545"><ele>94.8</ele><time>2026-04-12T14:48:27.999Z</time></trkpt><trkpt lat="45.40692487037965" lon="9.386398137115677"><ele>94.6</ele><time>2026-04-12T14:48:28.999Z</time></trkpt><trkpt lat="45.40694509875148" lon="9.386528629630844"><ele>94.4</ele><time>2026-04-12T14:48:29.999Z</time></trkpt><trkpt lat="45.406968205256376" lon="9.386677554262045"><ele>94.2</ele><time>2026-04-12T14:48:30.999Z</time></trkpt><trkpt lat="45.40698240796441" lon="9.386832142149748"><ele>94.0</ele><time>2026-04-12T14:48:31.999Z</time></trkpt><trkpt lat="45.40700160925036" lon="9.386979125334825"><ele>94.0</ele><time>2026-04-12T14:48:32.999Z</time></trkpt><trkpt lat="45.40701805329495" lon="9.387107154602862"><ele>94.0</ele><time>2026-04-12T14:48:33.999Z</time></trkpt><trkpt lat="45.40703366317426" lon="9.387223709404415"><ele>94.0</ele><time>2026-04-12T14:48:34.999Z</time></trkpt><trkpt lat="45.407046890623846" lon="9.387340254670363"><ele>94.0</ele><time>2026-04-12T14:48:35.999Z</time></trkpt><trkpt lat="45.40706546049971" lon="9.387454240784646"><ele>94.0</ele><time>2026-04-12T14:48:36.999Z</time></trkpt><trkpt lat="45.40708133736776" lon="9.387558451795122"><ele>94.0</ele><time>2026-04-12T14:48:37.999Z</time></trkpt><trkpt lat="45.40709095183537" lon="9.387666128256651"><ele>94.33333333333333</ele><time>2026-04-12T14:48:38.999Z</time></trkpt><trkpt lat="45.407105001571075" lon="9.387760082950685"><ele>94.66666666666666</ele><time>2026-04-12T14:48:39.999Z</time></trkpt><trkpt lat="45.40713031871487" lon="9.387890610867995"><ele>95.0</ele><time>2026-04-12T14:48:41.999Z</time></trkpt><trkpt lat="45.40706711511436" lon="9.387928083760016"><ele>95.33333333333333</ele><time>2026-04-12T14:48:43.999Z</time></trkpt><trkpt lat="45.40700357295094" lon="9.387779959845178"><ele>95.66666666666667</ele><time>2026-04-12T14:48:45.999Z</time></trkpt><trkpt lat="45.40700555806382" lon="9.387649611674354"><ele>96.0</ele><time>2026-04-12T14:48:46.999Z</time></trkpt><trkpt lat="45.40700221294889" lon="9.387507071431724"><ele>96.0</ele><time>2026-04-12T14:48:47.999Z</time></trkpt><trkpt lat="45.406982660899565" lon="9.387370761583089"><ele>96.0</ele><time>2026-04-12T14:48:48.999Z</time></trkpt><trkpt lat="45.406969703069464" lon="9.387253244059488"><ele>96.0</ele><time>2026-04-12T14:48:49.999Z</time></trkpt><trkpt lat="45.40696253468883" lon="9.387160598199165"><ele>96.0</ele><time>2026-04-12T14:48:50.999Z</time></trkpt><trkpt lat="45.406928454059745" lon="9.38700128683984"><ele>96.0</ele><time>2026-04-12T14:48:52.999Z</time></trkpt><trkpt lat="45.40687351970977" lon="9.386945114522677"><ele>96.0</ele><time>2026-04-12T14:48:53.999Z</time></trkpt><trkpt lat="45.40679592711027" lon="9.386935038784362"><ele>95.5</ele><time>2026-04-12T14:48:55Z</time></trkpt><trkpt lat="45.406694862495705" lon="9.386982725851315"><ele>95.0</ele><time>2026-04-12T14:48:56Z</time></trkpt><trkpt lat="45.40658369125541" lon="9.38702090460171"><ele>94.5</ele><time>2026-04-12T14:48:57Z</time></trkpt><trkpt lat="45.406467791784785" lon="9.387043228628285"><ele>94.0</ele><time>2026-04-12T14:48:58Z</time></trkpt><trkpt lat="45.40633548564184" lon="9.387078111357077"><ele>94.66666666666666</ele><time>2026-04-12T14:48:59Z</time></trkpt><trkpt lat="45.40618415947007" lon="9.387087056394837"><ele>95.33333333333333</ele><time>2026-04-12T14:49:00Z</time></trkpt><trkpt lat="45.40603269747485" lon="9.387110685284824"><ele>96.0</ele><time>2026-04-12T14:49:01Z</time></trkpt><trkpt lat="45.405876448889835" lon="9.387139092049983"><ele>96.0</ele><time>2026-04-12T14:49:02Z</time></trkpt><trkpt lat="45.40572192935336" lon="9.387162290406085"><ele>96.0</ele><time>2026-04-12T14:49:03Z</time></trkpt><trkpt lat="45.40556473303744" lon="9.38718538457753"><ele>96.0</ele><time>2026-04-12T14:49:04Z</time></trkpt><trkpt lat="45.40540591164518" lon="9.387212916489538"><ele>95.0</ele><time>2026-04-12T14:49:05Z</time></trkpt><trkpt lat="45.40525621160602" lon="9.387232692597422"><ele>94.0</ele><time>2026-04-12T14:49:06Z</time></trkpt><trkpt lat="45.405113224325454" lon="9.387255986547796"><ele>93.0</ele><time>2026-04-12T14:49:07Z</time></trkpt><trkpt lat="45.40497865140246" lon="9.387282364975892"><ele>92.0</ele><time>2026-04-12T14:49:08Z</time></trkpt><trkpt lat="45.40485986234803" lon="9.387302236354031"><ele>92.0</ele><time>2026-04-12T14:49:09Z</time></trkpt><trkpt lat="45.40475409543183" lon="9.387320300818123"><ele>92.0</ele><time>2026-04-12T14:49:10Z</time></trkpt><trkpt lat="45.404662156670845" lon="9.38733633043839"><ele>92.0</ele><time>2026-04-12T14:49:11Z</time></trkpt><trkpt lat="45.40455202173878" lon="9.387365012932214"><ele>92.0</ele><time>2026-04-12T14:49:12Z</time></trkpt><trkpt lat="45.40442206113948" lon="9.387401408346614"><ele>92.0</ele><time>2026-04-12T14:49:13Z</time></trkpt><trkpt lat="45.40428343240281" lon="9.38742271671701"><ele>92.25</ele><time>2026-04-12T14:49:14Z</time></trkpt><trkpt lat="45.40414409548146" lon="9.387453150073428"><ele>92.5</ele><time>2026-04-12T14:49:15Z</time></trkpt><trkpt lat="45.40400225314091" lon="9.387484671979534"><ele>92.75</ele><time>2026-04-12T14:49:16Z</time></trkpt><trkpt lat="45.403859809205855" lon="9.387512585266435"><ele>93.0</ele><time>2026-04-12T14:49:17Z</time></trkpt><trkpt lat="45.4037195431291" lon="9.387540253794299"><ele>93.25</ele><time>2026-04-12T14:49:18Z</time></trkpt><trkpt lat="45.403591786368025" lon="9.387566929411191"><ele>93.5</ele><time>2026-04-12T14:49:19Z</time></trkpt><trkpt lat="45.40346657032905" lon="9.387591154934876"><ele>93.75</ele><time>2026-04-12T14:49:20Z</time></trkpt><trkpt lat="45.4033392442331" lon="9.387620451497348"><ele>94.0</ele><time>2026-04-12T14:49:21Z</time></trkpt><trkpt lat="45.403215269048474" lon="9.387644651218723"><ele>94.0</ele><time>2026-04-12T14:49:22Z</time></trkpt><trkpt lat="45.40310252619249" lon="9.387670401055878"><ele>94.0</ele><time>2026-04-12T14:49:23Z</time></trkpt><trkpt lat="45.40300003110334" lon="9.387690499715514"><ele>94.0</ele><time>2026-04-12T14:49:24Z</time></trkpt><trkpt lat="45.40289981883146" lon="9.387708607529374"><ele>94.0</ele><time>2026-04-12T14:49:25Z</time></trkpt><trkpt lat="45.402802673038316" lon="9.387731497546916"><ele>94.0</ele><time>2026-04-12T14:49:26Z</time></trkpt><trkpt lat="45.402714082592084" lon="9.387751047674518"><ele>94.5</ele><time>2026-04-12T14:49:27Z</time></trkpt><trkpt lat="45.40264157178338" lon="9.387759870034463"><ele>95.0</ele><time>2026-04-12T14:49:28Z</time></trkpt><trkpt lat="45.40255858380071" lon="9.38779154599222"><ele>95.5</ele><time>2026-04-12T14:49:30Z</time></trkpt><trkpt lat="45.402494529176465" lon="9.387779721201007"><ele>96.0</ele><time>2026-04-12T14:49:36Z</time></trkpt><trkpt lat="45.40245276935122" lon="9.387601609695686"><ele>96.50000000000001</ele><time>2026-04-12T14:49:38Z</time></trkpt><trkpt lat="45.40245742753807" lon="9.387467633785032"><ele>97.0</ele><time>2026-04-12T14:49:39Z</time></trkpt><trkpt lat="45.40245165314295" lon="9.387331955951337"><ele>97.0</ele><time>2026-04-12T14:49:40Z</time></trkpt><trkpt lat="45.40241606267141" lon="9.387163514423984"><ele>97.0</ele><time>2026-04-12T14:49:42Z</time></trkpt><trkpt lat="45.40234782170408" lon="9.387170295767222"><ele>97.0</ele><time>2026-04-12T14:49:43Z</time></trkpt><trkpt lat="45.40225384072555" lon="9.38717952314699"><ele>97.0</ele><time>2026-04-12T14:49:44Z</time></trkpt><trkpt lat="45.40211899174312" lon="9.387240191258593"><ele>97.0</ele><time>2026-04-12T14:49:45Z</time></trkpt><trkpt lat="45.40196551235583" lon="9.387278181181227"><ele>96.66666666666667</ele><time>2026-04-12T14:49:46Z</time></trkpt><trkpt lat="45.40180925087014" lon="9.387305368480474"><ele>96.33333333333334</ele><time>2026-04-12T14:49:47Z</time></trkpt><trkpt lat="45.401648219088486" lon="9.387335168243519"><ele>96.0</ele><time>2026-04-12T14:49:48Z</time></trkpt><trkpt lat="45.40148498742831" lon="9.38736674173874"><ele>95.66666666666667</ele><time>2026-04-12T14:49:49Z</time></trkpt><trkpt lat="45.40132030532596" lon="9.387401405319736"><ele>95.33333333333334</ele><time>2026-04-12T14:49:50Z</time></trkpt><trkpt lat="45.40115645320901" lon="9.387436421176918"><ele>95.0</ele><time>2026-04-12T14:49:51Z</time></trkpt><trkpt lat="45.40098973473097" lon="9.387461139395484"><ele>95.0</ele><time>2026-04-12T14:49:52Z</time></trkpt><trkpt lat="45.40083117462667" lon="9.387484904439653"><ele>95.0</ele><time>2026-04-12T14:49:53Z</time></trkpt><trkpt lat="45.400683210416986" lon="9.387509156375671"><ele>95.0</ele><time>2026-04-12T14:49:54Z</time></trkpt><trkpt lat="45.40054045525847" lon="9.387525439081697"><ele>94.75</ele><time>2026-04-12T14:49:55Z</time></trkpt><trkpt lat="45.400404980656276" lon="9.387548158559806"><ele>94.5</ele><time>2026-04-12T14:49:56Z</time></trkpt><trkpt lat="45.40027428063295" lon="9.387571126482054"><ele>94.25</ele><time>2026-04-12T14:49:57Z</time></trkpt><trkpt lat="45.40014748995082" lon="9.387603449721183"><ele>94.0</ele><time>2026-04-12T14:49:58Z</time></trkpt><trkpt lat="45.40001833324785" lon="9.3876426447194"><ele>94.0</ele><time>2026-04-12T14:49:59Z</time></trkpt><trkpt lat="45.39990966954624" lon="9.387668679367827"><ele>94.0</ele><time>2026-04-12T14:50:00Z</time></trkpt><trkpt lat="45.39980043655038" lon="9.38768992990574"><ele>94.0</ele><time>2026-04-12T14:50:01Z</time></trkpt><trkpt lat="45.39970334653541" lon="9.38770874503893"><ele>94.0</ele><time>2026-04-12T14:50:02Z</time></trkpt><trkpt lat="45.39961732906397" lon="9.387725741789732"><ele>94.0</ele><time>2026-04-12T14:50:03Z</time></trkpt><trkpt lat="45.39954495662674" lon="9.387750805817966"><ele>94.0</ele><time>2026-04-12T14:50:04Z</time></trkpt><trkpt lat="45.39945487293457" lon="9.387780626926482"><ele>94.0</ele><time>2026-04-12T14:50:06Z</time></trkpt><trkpt lat="45.39943936906377" lon="9.3876587877686"><ele>94.0</ele><time>2026-04-12T14:50:09Z</time></trkpt><trkpt lat="45.399436350546445" lon="9.387481211385836"><ele>94.0</ele><time>2026-04-12T14:50:10.999Z</time></trkpt><trkpt lat="45.39943384105057" lon="9.387373193052275"><ele>94.0</ele><time>2026-04-12T14:50:11.999Z</time></trkpt><trkpt lat="45.399430767714115" lon="9.387266166281078"><ele>94.14285714285714</ele><time>2026-04-12T14:50:12.999Z</time></trkpt><trkpt lat="45.3994301655072" lon="9.387158213984193"><ele>94.28571428571428</ele><time>2026-04-12T14:50:13.999Z</time></trkpt><trkpt lat="45.39943258215522" lon="9.387052265364398"><ele>94.42857142857143</ele><time>2026-04-12T14:50:14.999Z</time></trkpt><trkpt lat="45.39944127193631" lon="9.386951448387194"><ele>94.57142857142857</ele><time>2026-04-12T14:50:15.999Z</time></trkpt><trkpt lat="45.399451296736565" lon="9.38685796302648"><ele>94.71428571428572</ele><time>2026-04-12T14:50:16.999Z</time></trkpt><trkpt lat="45.399466204712034" lon="9.386764425006596"><ele>94.85714285714286</ele><time>2026-04-12T14:50:17.999Z</time></trkpt><trkpt lat="45.39949024696594" lon="9.386664973307875"><ele>95.0</ele><time>2026-04-12T14:50:18.999Z</time></trkpt><trkpt lat="45.399499860453346" lon="9.386567592115396"><ele>95.0</ele><time>2026-04-12T14:50:19.999Z</time></trkpt><trkpt lat="45.39950897650727" lon="9.386455644687011"><ele>95.0</ele><time>2026-04-12T14:50:20.999Z</time></trkpt><trkpt lat="45.39951806367336" lon="9.386339413594861"><ele>95.0</ele><time>2026-04-12T14:50:21.999Z</time></trkpt><trkpt lat="45.39952703109571" lon="9.38620976746362"><ele>95.0</ele><time>2026-04-12T14:50:22.999Z</time></trkpt><trkpt lat="45.39952249971297" lon="9.386048879889525"><ele>95.0</ele><time>2026-04-12T14:50:23.999Z</time></trkpt><trkpt lat="45.39953751556988" lon="9.385866971512112"><ele>95.0</ele><time>2026-04-12T14:50:24.999Z</time></trkpt><trkpt lat="45.39954136327155" lon="9.385671439912677"><ele>95.0</ele><time>2026-04-12T14:50:25.999Z</time></trkpt><trkpt lat="45.3995397261449" lon="9.385509712158722"><ele>95.0</ele><time>2026-04-12T14:50:26.999Z</time></trkpt><trkpt lat="45.39954525463873" lon="9.385376303656892"><ele>95.0</ele><time>2026-04-12T14:50:27.999Z</time></trkpt><trkpt lat="45.399546385501324" lon="9.385253933097811"><ele>95.0</ele><time>2026-04-12T14:50:28.999Z</time></trkpt><trkpt lat="45.399546736478165" lon="9.385147136017087"><ele>94.83333333333334</ele><time>2026-04-12T14:50:29.999Z</time></trkpt><trkpt lat="45.399538136219945" lon="9.38504734573406"><ele>94.66666666666667</ele><time>2026-04-12T14:50:30.999Z</time></trkpt><trkpt lat="45.39952088244427" lon="9.38494885509756"><ele>94.5</ele><time>2026-04-12T14:50:31.999Z</time></trkpt><trkpt lat="45.39949774781938" lon="9.384854750200423"><ele>94.33333333333333</ele><time>2026-04-12T14:50:32.999Z</time></trkpt><trkpt lat="45.3994767906577" lon="9.38476974669612"><ele>94.16666666666666</ele><time>2026-04-12T14:50:33.999Z</time></trkpt><trkpt lat="45.399442985095355" lon="9.384613598180316"><ele>94.0</ele><time>2026-04-12T14:50:35.999Z</time></trkpt><trkpt lat="45.39948187865963" lon="9.384477432484653"><ele>94.0</ele><time>2026-04-12T14:50:37.999Z</time></trkpt><trkpt lat="45.399534677619236" lon="9.384413927913428"><ele>94.0</ele><time>2026-04-12T14:50:38.999Z</time></trkpt><trkpt lat="45.399639104260686" lon="9.38435219880933"><ele>94.0</ele><time>2026-04-12T14:50:40.999Z</time></trkpt><trkpt lat="45.39971266277877" lon="9.3843187661349"><ele>94.0</ele><time>2026-04-12T14:50:42.999Z</time></trkpt><trkpt lat="45.39964234875962" lon="9.3843868084302"><ele>94.0</ele><time>2026-04-12T14:50:50.999Z</time></trkpt><trkpt lat="45.39952574534326" lon="9.3844329180281"><ele>94.0</ele><time>2026-04-12T14:50:52.999Z</time></trkpt><trkpt lat="45.39946262053971" lon="9.384474690805092"><ele>94.0</ele><time>2026-04-12T14:50:54.999Z</time></trkpt><trkpt lat="45.399436524475774" lon="9.38459591630602"><ele>94.0</ele><time>2026-04-12T14:50:58.999Z</time></trkpt><trkpt lat="45.39946619170602" lon="9.384764314915323"><ele>94.0</ele><time>2026-04-12T14:51:01Z</time></trkpt><trkpt lat="45.39951519372073" lon="9.384969585727235"><ele>94.0</ele><time>2026-04-12T14:51:03Z</time></trkpt><trkpt lat="45.39953810530014" lon="9.385090505206687"><ele>94.0</ele><time>2026-04-12T14:51:04Z</time></trkpt><trkpt lat="45.39955419017107" lon="9.385215362431781"><ele>94.0</ele><time>2026-04-12T14:51:05Z</time></trkpt><trkpt lat="45.399556470534456" lon="9.38533675425994"><ele>94.0</ele><time>2026-04-12T14:51:06Z</time></trkpt><trkpt lat="45.39954537436483" lon="9.385455578397849"><ele>94.0</ele><time>2026-04-12T14:51:07Z</time></trkpt><trkpt lat="45.3995391811858" lon="9.385583762377061"><ele>94.0</ele><time>2026-04-12T14:51:08Z</time></trkpt><trkpt lat="45.39953613713915" lon="9.385710018352732"><ele>94.0</ele><time>2026-04-12T14:51:09Z</time></trkpt><trkpt lat="45.39953056454499" lon="9.385847640835122"><ele>94.14285714285714</ele><time>2026-04-12T14:51:10Z</time></trkpt><trkpt lat="45.399531469711725" lon="9.385965779567647"><ele>94.28571428571428</ele><time>2026-04-12T14:51:11Z</time></trkpt><trkpt lat="45.39952598263078" lon="9.386073638498459"><ele>94.42857142857143</ele><time>2026-04-12T14:51:12Z</time></trkpt><trkpt lat="45.39952248142874" lon="9.386178677806058"><ele>94.57142857142857</ele><time>2026-04-12T14:51:13Z</time></trkpt><trkpt lat="45.39952217853011" lon="9.386284081088569"><ele>94.71428571428572</ele><time>2026-04-12T14:51:14Z</time></trkpt><trkpt lat="45.3995230618858" lon="9.386380916578364"><ele>94.85714285714286</ele><time>2026-04-12T14:51:15Z</time></trkpt><trkpt lat="45.3995156889054" lon="9.38648239832338"><ele>95.0</ele><time>2026-04-12T14:51:16Z</time></trkpt><trkpt lat="45.399504386615824" lon="9.38657146735368"><ele>95.0</ele><time>2026-04-12T14:51:17Z</time></trkpt><trkpt lat="45.39948716474488" lon="9.38665845327881"><ele>95.0</ele><time>2026-04-12T14:51:18Z</time></trkpt><trkpt lat="45.399469658681866" lon="9.386751206525568"><ele>95.0</ele><time>2026-04-12T14:51:19Z</time></trkpt><trkpt lat="45.39945141180021" lon="9.386924795708767"><ele>95.0</ele><time>2026-04-12T14:51:21Z</time></trkpt><trkpt lat="45.39944456046972" lon="9.38701954817207"><ele>95.0</ele><time>2026-04-12T14:51:22Z</time></trkpt><trkpt lat="45.399442418944325" lon="9.387115706433145"><ele>95.0</ele><time>2026-04-12T14:51:23Z</time></trkpt><trkpt lat="45.39943943430958" lon="9.387210031008161"><ele>94.83333333333334</ele><time>2026-04-12T14:51:24Z</time></trkpt><trkpt lat="45.39944090185357" lon="9.387307228459887"><ele>94.66666666666667</ele><time>2026-04-12T14:51:25Z</time></trkpt><trkpt lat="45.39944062480573" lon="9.387405333584685"><ele>94.5</ele><time>2026-04-12T14:51:26Z</time></trkpt><trkpt lat="45.39944353793982" lon="9.387561522174908"><ele>94.33333333333333</ele><time>2026-04-12T14:51:28Z</time></trkpt><trkpt lat="45.39945653840851" lon="9.387664545868155"><ele>94.16666666666666</ele><time>2026-04-12T14:51:30Z</time></trkpt><trkpt lat="45.39945849945089" lon="9.387761993641343"><ele>94.0</ele><time>2026-04-12T14:51:32Z</time></trkpt><trkpt lat="45.39949448920683" lon="9.387930694526979"><ele>93.83333333333333</ele><time>2026-04-12T14:51:34Z</time></trkpt><trkpt lat="45.39949692876228" lon="9.388038776487992"><ele>93.66666666666666</ele><time>2026-04-12T14:51:35Z</time></trkpt><trkpt lat="45.39951864553533" lon="9.388215255613959"><ele>93.5</ele><time>2026-04-12T14:51:37Z</time></trkpt><trkpt lat="45.399534241933814" lon="9.388312867605952"><ele>93.33333333333333</ele><time>2026-04-12T14:51:38Z</time></trkpt><trkpt lat="45.39954969230806" lon="9.38841551478226"><ele>93.16666666666667</ele><time>2026-04-12T14:51:39Z</time></trkpt><trkpt lat="45.39955180901395" lon="9.38851172723788"><ele>93.0</ele><time>2026-04-12T14:51:40Z</time></trkpt><trkpt lat="45.399571549529476" lon="9.38866869370099"><ele>93.0</ele><time>2026-04-12T14:51:42Z</time></trkpt><trkpt lat="45.39961439390771" lon="9.388777839404222"><ele>93.0</ele><time>2026-04-12T14:51:44Z</time></trkpt><trkpt lat="45.3996512459916" lon="9.388853017955785"><ele>93.0</ele><time>2026-04-12T14:51:46Z</time></trkpt><trkpt lat="45.39972366177549" lon="9.388895982295743"><ele>93.0</ele><time>2026-04-12T14:51:50Z</time></trkpt><trkpt lat="45.399717838593524" lon="9.3887480901956"><ele>93.0</ele><time>2026-04-12T14:51:54Z</time></trkpt><trkpt lat="45.39966856601415" lon="9.388672629540684"><ele>93.0</ele><time>2026-04-12T14:51:55Z</time></trkpt><trkpt lat="45.399615981500666" lon="9.388581660227922"><ele>93.0</ele><time>2026-04-12T14:51:56Z</time></trkpt><trkpt lat="45.39957704946224" lon="9.388442144034787"><ele>93.0</ele><time>2026-04-12T14:51:57Z</time></trkpt><trkpt lat="45.399550808651924" lon="9.388253455263863"><ele>93.0</ele><time>2026-04-12T14:51:58Z</time></trkpt><trkpt lat="45.39952792951019" lon="9.388034436051992"><ele>93.0</ele><time>2026-04-12T14:51:59Z</time></trkpt><trkpt lat="45.399503145766694" lon="9.38786018549506"><ele>93.16666666666667</ele><time>2026-04-12T14:52:00Z</time></trkpt><trkpt lat="45.39948205215308" lon="9.387765704639401"><ele>93.33333333333333</ele><time>2026-04-12T14:52:01Z</time></trkpt><trkpt lat="45.39945282930808" lon="9.387633268508328"><ele>93.5</ele><time>2026-04-12T14:52:04Z</time></trkpt><trkpt lat="45.39950473971064" lon="9.387545060552025"><ele>93.66666666666666</ele><time>2026-04-12T14:52:06Z</time></trkpt><trkpt lat="45.39947552651122" lon="9.387461616410937"><ele>93.83333333333333</ele><time>2026-04-12T14:52:09Z</time></trkpt><trkpt lat="45.39944152361865" lon="9.387588717842752"><ele>94.0</ele><time>2026-04-12T14:52:11Z</time></trkpt><trkpt lat="45.3994487383721" lon="9.387709530197348"><ele>94.0</ele><time>2026-04-12T14:52:12Z</time></trkpt><trkpt lat="45.39951480481076" lon="9.387789604672133"><ele>94.0</ele><time>2026-04-12T14:52:14Z</time></trkpt><trkpt lat="45.399577183222206" lon="9.38776793903701"><ele>94.0</ele><time>2026-04-12T14:52:15Z</time></trkpt><trkpt lat="45.3996954628311" lon="9.387711007715831"><ele>94.0</ele><time>2026-04-12T14:52:16Z</time></trkpt><trkpt lat="45.39982327124859" lon="9.387671773816116"><ele>94.0</ele><time>2026-04-12T14:52:17Z</time></trkpt><trkpt lat="45.39997264874488" lon="9.387642507129037"><ele>94.0</ele><time>2026-04-12T14:52:18Z</time></trkpt><trkpt lat="45.40011164333884" lon="9.387610860823603"><ele>94.0</ele><time>2026-04-12T14:52:19Z</time></trkpt><trkpt lat="45.400246978117146" lon="9.387577026417022"><ele>94.0</ele><time>2026-04-12T14:52:20Z</time></trkpt><trkpt lat="45.40038888174003" lon="9.387546984736778"><ele>94.0</ele><time>2026-04-12T14:52:21Z</time></trkpt><trkpt lat="45.4005274930757" lon="9.387517270753978"><ele>94.33333333333333</ele><time>2026-04-12T14:52:22Z</time></trkpt><trkpt lat="45.400673708020044" lon="9.387485813825135"><ele>94.66666666666667</ele><time>2026-04-12T14:52:23Z</time></trkpt><trkpt lat="45.40082877695093" lon="9.38746583696383"><ele>95.0</ele><time>2026-04-12T14:52:24Z</time></trkpt><trkpt lat="45.40098169911353" lon="9.387462615341807"><ele>95.0</ele><time>2026-04-12T14:52:25Z</time></trkpt><trkpt lat="45.40112199012158" lon="9.387433769698953"><ele>95.0</ele><time>2026-04-12T14:52:25.999Z</time></trkpt><trkpt lat="45.401261158727074" lon="9.387404224292867"><ele>95.0</ele><time>2026-04-12T14:52:26.999Z</time></trkpt><trkpt lat="45.40140886854325" lon="9.387378392858409"><ele>95.0</ele><time>2026-04-12T14:52:27.999Z</time></trkpt><trkpt lat="45.401559177466666" lon="9.387356061044011"><ele>95.33333333333334</ele><time>2026-04-12T14:52:28.999Z</time></trkpt><trkpt lat="45.40172066283436" lon="9.38731841986632"><ele>95.66666666666667</ele><time>2026-04-12T14:52:29.999Z</time></trkpt><trkpt lat="45.40186843519271" lon="9.387291039477775"><ele>96.0</ele><time>2026-04-12T14:52:30.999Z</time></trkpt><trkpt lat="45.40201654473947" lon="9.387263574172316"><ele>96.25</ele><time>2026-04-12T14:52:31.999Z</time></trkpt><trkpt lat="45.40216706707106" lon="9.387232534388575"><ele>96.5</ele><time>2026-04-12T14:52:32.999Z</time></trkpt><trkpt lat="45.40228759608711" lon="9.387202437507248"><ele>96.75</ele><time>2026-04-12T14:52:33.999Z</time></trkpt><trkpt lat="45.40237650723151" lon="9.387182619765676"><ele>97.0</ele><time>2026-04-12T14:52:34.999Z</time></trkpt><trkpt lat="45.40247125501512" lon="9.387264429211326"><ele>97.0</ele><time>2026-04-12T14:52:36.999Z</time></trkpt><trkpt lat="45.402494045816184" lon="9.387387253587425"><ele>97.0</ele><time>2026-04-12T14:52:37.999Z</time></trkpt><trkpt lat="45.40248292863702" lon="9.387555997926082"><ele>97.0</ele><time>2026-04-12T14:52:38.999Z</time></trkpt><trkpt lat="45.40248629927166" lon="9.387715106424357"><ele>97.0</ele><time>2026-04-12T14:52:39.999Z</time></trkpt><trkpt lat="45.40251085400736" lon="9.387804206050102"><ele>97.0</ele><time>2026-04-12T14:52:40.999Z</time></trkpt><trkpt lat="45.40258432309376" lon="9.38780145847882"><ele>97.0</ele><time>2026-04-12T14:52:42.999Z</time></trkpt><trkpt lat="45.40268145335215" lon="9.387752816882685"><ele>97.0</ele><time>2026-04-12T14:52:43.999Z</time></trkpt><trkpt lat="45.402804886792374" lon="9.387708278552845"><ele>97.0</ele><time>2026-04-12T14:52:44.999Z</time></trkpt><trkpt lat="45.402935450509176" lon="9.38767395191191"><ele>97.0</ele><time>2026-04-12T14:52:45.999Z</time></trkpt><trkpt lat="45.40308466038711" lon="9.387646140008878"><ele>96.0</ele><time>2026-04-12T14:52:46.999Z</time></trkpt><trkpt lat="45.403241152075765" lon="9.387619254161791"><ele>95.0</ele><time>2026-04-12T14:52:47.999Z</time></trkpt><trkpt lat="45.403410352226786" lon="9.38758081013513"><ele>94.0</ele><time>2026-04-12T14:52:48.999Z</time></trkpt><trkpt lat="45.40358221783333" lon="9.387547999588456"><ele>94.0</ele><time>2026-04-12T14:52:49.999Z</time></trkpt><trkpt lat="45.40374838478425" lon="9.387514960503317"><ele>94.0</ele><time>2026-04-12T14:52:50.999Z</time></trkpt><trkpt lat="45.40390867654941" lon="9.387480461305556"><ele>94.0</ele><time>2026-04-12T14:52:51.999Z</time></trkpt><trkpt lat="45.404053990229166" lon="9.387449147674502"><ele>93.80000000000001</ele><time>2026-04-12T14:52:52.999Z</time></trkpt><trkpt lat="45.40417949694763" lon="9.387420674532352"><ele>93.60000000000001</ele><time>2026-04-12T14:52:53.999Z</time></trkpt><trkpt lat="45.404288742022715" lon="9.387397346102167"><ele>93.4</ele><time>2026-04-12T14:52:54.999Z</time></trkpt><trkpt lat="45.404396642559625" lon="9.387376319990723"><ele>93.2</ele><time>2026-04-12T14:52:55.999Z</time></trkpt><trkpt lat="45.404498570874" lon="9.387361523297391"><ele>93.0</ele><time>2026-04-12T14:52:56.999Z</time></trkpt><trkpt lat="45.40458725266579" lon="9.387345308738464"><ele>93.0</ele><time>2026-04-12T14:52:57.999Z</time></trkpt><trkpt lat="45.40465527679445" lon="9.387323957901721"><ele>93.0</ele><time>2026-04-12T14:52:58.999Z</time></trkpt><trkpt lat="45.40478686813385" lon="9.38729467038971"><ele>93.0</ele><time>2026-04-12T14:53:12Z</time></trkpt><trkpt lat="45.404868438521014" lon="9.387278617802483"><ele>93.0</ele><time>2026-04-12T14:53:13Z</time></trkpt><trkpt lat="45.404967018632405" lon="9.38725536086372"><ele>93.0</ele><time>2026-04-12T14:53:14Z</time></trkpt><trkpt lat="45.4050715910811" lon="9.387242804405592"><ele>92.75</ele><time>2026-04-12T14:53:15Z</time></trkpt><trkpt lat="45.40517482503719" lon="9.387230196049426"><ele>92.5</ele><time>2026-04-12T14:53:16Z</time></trkpt><trkpt lat="45.40528650265507" lon="9.387208597686849"><ele>92.25</ele><time>2026-04-12T14:53:17Z</time></trkpt><trkpt lat="45.40540143220865" lon="9.387185397154747"><ele>92.0</ele><time>2026-04-12T14:53:18Z</time></trkpt><trkpt lat="45.40552933086403" lon="9.387167915695922"><ele>93.0</ele><time>2026-04-12T14:53:19Z</time></trkpt><trkpt lat="45.405657628796945" lon="9.387148814881872"><ele>94.0</ele><time>2026-04-12T14:53:20Z</time></trkpt><trkpt lat="45.40577975830873" lon="9.387124689696456"><ele>95.0</ele><time>2026-04-12T14:53:21Z</time></trkpt><trkpt lat="45.40590530024395" lon="9.387106007227546"><ele>96.0</ele><time>2026-04-12T14:53:22Z</time></trkpt><trkpt lat="45.406037042171405" lon="9.387086709016899"><ele>96.0</ele><time>2026-04-12T14:53:23Z</time></trkpt><trkpt lat="45.40616917841742" lon="9.387064672989405"><ele>96.0</ele><time>2026-04-12T14:53:24Z</time></trkpt><trkpt lat="45.406295778905125" lon="9.387045494984589"><ele>96.0</ele><time>2026-04-12T14:53:25Z</time></trkpt><trkpt lat="45.406408808950914" lon="9.387028278732677"><ele>96.0</ele><time>2026-04-12T14:53:26Z</time></trkpt><trkpt lat="45.40651677746106" lon="9.387014118006384"><ele>95.66666666666667</ele><time>2026-04-12T14:53:27Z</time></trkpt><trkpt lat="45.40662432385117" lon="9.386995268047105"><ele>95.33333333333333</ele><time>2026-04-12T14:53:28Z</time></trkpt><trkpt lat="45.406719422051424" lon="9.386977139926993"><ele>95.0</ele><time>2026-04-12T14:53:29Z</time></trkpt><trkpt lat="45.406800335770534" lon="9.386957506289345"><ele>94.66666666666666</ele><time>2026-04-12T14:53:30Z</time></trkpt><trkpt lat="45.40687139174736" lon="9.386949216387412"><ele>94.33333333333333</ele><time>2026-04-12T14:53:31Z</time></trkpt><trkpt lat="45.406939301300675" lon="9.38699919471585"><ele>94.0</ele><time>2026-04-12T14:53:33Z</time></trkpt><trkpt lat="45.40696031239227" lon="9.387166010436971"><ele>94.4</ele><time>2026-04-12T14:53:35Z</time></trkpt><trkpt lat="45.406968851063716" lon="9.387316570248444"><ele>94.80000000000001</ele><time>2026-04-12T14:53:36Z</time></trkpt><trkpt lat="45.406988521757214" lon="9.38748779137533"><ele>95.19999999999999</ele><time>2026-04-12T14:53:37Z</time></trkpt><trkpt lat="45.40702120644062" lon="9.387659652061405"><ele>95.6</ele><time>2026-04-12T14:53:38Z</time></trkpt><trkpt lat="45.40703919618592" lon="9.38778894505708"><ele>96.0</ele><time>2026-04-12T14:53:39Z</time></trkpt><trkpt lat="45.40705431089366" lon="9.387888436463237"><ele>96.0</ele><time>2026-04-12T14:53:40Z</time></trkpt><trkpt lat="45.40712759617161" lon="9.387886503698201"><ele>96.0</ele><time>2026-04-12T14:53:43Z</time></trkpt><trkpt lat="45.40712487190804" lon="9.387780115053104"><ele>96.0</ele><time>2026-04-12T14:53:45Z</time></trkpt><trkpt lat="45.40710385782679" lon="9.38768512278525"><ele>96.0</ele><time>2026-04-12T14:53:46Z</time></trkpt><trkpt lat="45.407073814893245" lon="9.387567232611639"><ele>96.0</ele><time>2026-04-12T14:53:47Z</time></trkpt><trkpt lat="45.40704610103046" lon="9.387419972277646"><ele>96.0</ele><time>2026-04-12T14:53:48Z</time></trkpt><trkpt lat="45.40701429612356" lon="9.387249748661365"><ele>95.5</ele><time>2026-04-12T14:53:49Z</time></trkpt><trkpt lat="45.40701231674612" lon="9.38706639120069"><ele>95.0</ele><time>2026-04-12T14:53:50Z</time></trkpt><trkpt lat="45.406988551890734" lon="9.386883837485746"><ele>94.5</ele><time>2026-04-12T14:53:51Z</time></trkpt><trkpt lat="45.40695722187892" lon="9.386684004804717"><ele>94.0</ele><time>2026-04-12T14:53:52Z</time></trkpt><trkpt lat="45.40693365820591" lon="9.3864842709338"><ele>94.25</ele><time>2026-04-12T14:53:53Z</time></trkpt><trkpt lat="45.406912381928976" lon="9.38628511990064"><ele>94.5</ele><time>2026-04-12T14:53:54Z</time></trkpt><trkpt lat="45.40688704547519" lon="9.386084323550604"><ele>94.75</ele><time>2026-04-12T14:53:55Z</time></trkpt><trkpt lat="45.406873450191064" lon="9.385877212282203"><ele>95.0</ele><time>2026-04-12T14:53:56Z</time></trkpt><trkpt lat="45.406879777683216" lon="9.385660557068384"><ele>95.66666666666667</ele><time>2026-04-12T14:53:57Z</time></trkpt><trkpt lat="45.40686726010982" lon="9.38542655477028"><ele>96.33333333333334</ele><time>2026-04-12T14:53:58Z</time></trkpt><trkpt lat="45.406828892958416" lon="9.385178620810814"><ele>97.0</ele><time>2026-04-12T14:53:59Z</time></trkpt><trkpt lat="45.40678870283842" lon="9.384950338209498"><ele>97.0</ele><time>2026-04-12T14:54:00Z</time></trkpt><trkpt lat="45.406756423715315" lon="9.384753320662135"><ele>97.0</ele><time>2026-04-12T14:54:01Z</time></trkpt><trkpt lat="45.40673204687254" lon="9.384568913880033"><ele>97.0</ele><time>2026-04-12T14:54:02Z</time></trkpt><trkpt lat="45.40670234512911" lon="9.384375767559732"><ele>97.0</ele><time>2026-04-12T14:54:03Z</time></trkpt><trkpt lat="45.40667248136182" lon="9.384201370698227"><ele>97.0</ele><time>2026-04-12T14:54:04Z</time></trkpt><trkpt lat="45.40664993658947" lon="9.384043587149577"><ele>97.0</ele><time>2026-04-12T14:54:05Z</time></trkpt><trkpt lat="45.40662102192038" lon="9.38389054732315"><ele>97.0</ele><time>2026-04-12T14:54:06Z</time></trkpt><trkpt lat="45.40660199698076" lon="9.383738497150606"><ele>97.0</ele><time>2026-04-12T14:54:07Z</time></trkpt><trkpt lat="45.4065873996722" lon="9.383595769915965"><ele>97.0</ele><time>2026-04-12T14:54:08Z</time></trkpt><trkpt lat="45.40657007199232" lon="9.383479918402871"><ele>97.00000000000001</ele><time>2026-04-12T14:54:09Z</time></trkpt><trkpt lat="45.40655167648243" lon="9.383371828194566"><ele>97.0</ele><time>2026-04-12T14:54:10Z</time></trkpt><trkpt lat="45.40653725192115" lon="9.383273976005167"><ele>97.0</ele><time>2026-04-12T14:54:11Z</time></trkpt><trkpt lat="45.406520784446734" lon="9.383179556732424"><ele>97.0</ele><time>2026-04-12T14:54:12Z</time></trkpt><trkpt lat="45.40650042338839" lon="9.383018404839506"><ele>97.00000000000001</ele><time>2026-04-12T14:54:14Z</time></trkpt><trkpt lat="45.40651173939435" lon="9.382903868226496"><ele>97.0</ele><time>2026-04-12T14:54:16Z</time></trkpt><trkpt lat="45.40661731479807" lon="9.382851516982235"><ele>97.0</ele><time>2026-04-12T14:54:18Z</time></trkpt><trkpt lat="45.40669563690028" lon="9.382837281941752"><ele>97.0</ele><time>2026-04-12T14:54:19Z</time></trkpt><trkpt lat="45.40678020176657" lon="9.382816923847123"><ele>97.0</ele><time>2026-04-12T14:54:20Z</time></trkpt><trkpt lat="45.40686684544937" lon="9.382803113356132"><ele>97.0</ele><time>2026-04-12T14:54:21Z</time></trkpt><trkpt lat="45.40696053372278" lon="9.382756551660751"><ele>97.0</ele><time>2026-04-12T14:54:22Z</time></trkpt><trkpt lat="45.40705461726718" lon="9.382713152876022"><ele>96.75</ele><time>2026-04-12T14:54:23Z</time></trkpt><trkpt lat="45.40716102611421" lon="9.382676582450307"><ele>96.5</ele><time>2026-04-12T14:54:24Z</time></trkpt><trkpt lat="45.4072704324125" lon="9.382636301255793"><ele>96.25</ele><time>2026-04-12T14:54:25Z</time></trkpt><trkpt lat="45.40737910248373" lon="9.38259360040427"><ele>96.0</ele><time>2026-04-12T14:54:26Z</time></trkpt><trkpt lat="45.407498362161014" lon="9.382544498440776"><ele>96.0</ele><time>2026-04-12T14:54:26.999Z</time></trkpt><trkpt lat="45.40762022898027" lon="9.382492066396262"><ele>96.0</ele><time>2026-04-12T14:54:27.999Z</time></trkpt><trkpt lat="45.40774457481339" lon="9.382439503827548"><ele>96.0</ele><time>2026-04-12T14:54:28.999Z</time></trkpt><trkpt lat="45.40787458980137" lon="9.382390209345864"><ele>96.0</ele><time>2026-04-12T14:54:29.999Z</time></trkpt><trkpt lat="45.40800727153923" lon="9.382348333585902"><ele>96.0</ele><time>2026-04-12T14:54:30.999Z</time></trkpt><trkpt lat="45.408142582394" lon="9.382301179587762"><ele>96.0</ele><time>2026-04-12T14:54:31.999Z</time></trkpt><trkpt lat="45.40827208164457" lon="9.38224323088585"><ele>96.0</ele><time>2026-04-12T14:54:32.999Z</time></trkpt><trkpt lat="45.40839705485977" lon="9.382187175526079"><ele>96.0</ele><time>2026-04-12T14:54:33.999Z</time></trkpt><trkpt lat="45.40851721529466" lon="9.382138550730486"><ele>95.75</ele><time>2026-04-12T14:54:34.999Z</time></trkpt><trkpt lat="45.40863667190354" lon="9.382091163979322"><ele>95.5</ele><time>2026-04-12T14:54:35.999Z</time></trkpt><trkpt lat="45.40875033697272" lon="9.382045467408982"><ele>95.25</ele><time>2026-04-12T14:54:36.999Z</time></trkpt><trkpt lat="45.408866256552194" lon="9.382003579686014"><ele>95.0</ele><time>2026-04-12T14:54:37.999Z</time></trkpt><trkpt lat="45.40896289805858" lon="9.3819755418274"><ele>95.4</ele><time>2026-04-12T14:54:38.999Z</time></trkpt><trkpt lat="45.409078511782" lon="9.38192799099824"><ele>95.8</ele><time>2026-04-12T14:54:39.999Z</time></trkpt><trkpt lat="45.40917245466927" lon="9.381893686218328"><ele>96.19999999999999</ele><time>2026-04-12T14:54:40.999Z</time></trkpt><trkpt lat="45.40925975874945" lon="9.381856123500947"><ele>96.6</ele><time>2026-04-12T14:54:41.999Z</time></trkpt><trkpt lat="45.40934900156505" lon="9.381821404330882"><ele>97.0</ele><time>2026-04-12T14:54:42.999Z</time></trkpt><trkpt lat="45.40942221825803" lon="9.381784798380341"><ele>97.00000000000001</ele><time>2026-04-12T14:54:43.999Z</time></trkpt><trkpt lat="45.40950242376651" lon="9.381753948859838"><ele>97.0</ele><time>2026-04-12T14:54:44.999Z</time></trkpt><trkpt lat="45.40959563388333" lon="9.38172338426871"><ele>97.0</ele><time>2026-04-12T14:54:45.999Z</time></trkpt><trkpt lat="45.40966977150281" lon="9.381700191139691"><ele>97.0</ele><time>2026-04-12T14:54:46.999Z</time></trkpt><trkpt lat="45.40974122755541" lon="9.381678217141914"><ele>97.00000000000001</ele><time>2026-04-12T14:54:47.999Z</time></trkpt><trkpt lat="45.40980750108494" lon="9.38167973784193"><ele>97.0</ele><time>2026-04-12T14:54:48.999Z</time></trkpt><trkpt lat="45.40986971058892" lon="9.381720052907696"><ele>97.00000000000001</ele><time>2026-04-12T14:54:49.999Z</time></trkpt><trkpt lat="45.40992430677651" lon="9.381780254730725"><ele>97.0</ele><time>2026-04-12T14:54:50.999Z</time></trkpt><trkpt lat="45.41000749286527" lon="9.381728063801956"><ele>97.0</ele><time>2026-04-12T14:54:52.999Z</time></trkpt><trkpt lat="45.41004478132625" lon="9.381651634371584"><ele>97.0</ele><time>2026-04-12T14:54:53.999Z</time></trkpt><trkpt lat="45.41006473894921" lon="9.381561658687302"><ele>97.00000000000001</ele><time>2026-04-12T14:54:54.999Z</time></trkpt><trkpt lat="45.41006012388746" lon="9.381461517066763"><ele>97.0</ele><time>2026-04-12T14:54:55.999Z</time></trkpt><trkpt lat="45.41001695003724" lon="9.381351188523958"><ele>97.0</ele><time>2026-04-12T14:54:56.999Z</time></trkpt><trkpt lat="45.409948067659215" lon="9.381282177438829"><ele>97.0</ele><time>2026-04-12T14:54:57.999Z</time></trkpt><trkpt lat="45.409863076973714" lon="9.381226308570945"><ele>97.0</ele><time>2026-04-12T14:54:58.999Z</time></trkpt><trkpt lat="45.40980165783459" lon="9.381160616180455"><ele>97.0</ele><time>2026-04-12T14:54:59.999Z</time></trkpt><trkpt lat="45.409729502854674" lon="9.380979501098976"><ele>97.0</ele><time>2026-04-12T14:55:01.999Z</time></trkpt><trkpt lat="45.40970119415402" lon="9.380868965893107"><ele>97.0</ele><time>2026-04-12T14:55:02.999Z</time></trkpt><trkpt lat="45.40967336534147" lon="9.380737452952145"><ele>97.0</ele><time>2026-04-12T14:55:03.999Z</time></trkpt><trkpt lat="45.409646138422566" lon="9.380594617759304"><ele>97.0</ele><time>2026-04-12T14:55:04.999Z</time></trkpt><trkpt lat="45.409604454388294" lon="9.380443456061151"><ele>97.0</ele><time>2026-04-12T14:55:05.999Z</time></trkpt><trkpt lat="45.40955923426097" lon="9.3802828478511"><ele>97.0</ele><time>2026-04-12T14:55:06.999Z</time></trkpt><trkpt lat="45.4095142723191" lon="9.380108732493111"><ele>96.8</ele><time>2026-04-12T14:55:07.999Z</time></trkpt><trkpt lat="45.40947572914194" lon="9.379952869264761"><ele>96.6</ele><time>2026-04-12T14:55:08.999Z</time></trkpt><trkpt lat="45.409441497483485" lon="9.379811505414835"><ele>96.39999999999999</ele><time>2026-04-12T14:55:09.999Z</time></trkpt><trkpt lat="45.40940444244039" lon="9.379664978662907"><ele>96.19999999999999</ele><time>2026-04-12T14:55:10.999Z</time></trkpt><trkpt lat="45.409359195990426" lon="9.37951695210445"><ele>96.0</ele><time>2026-04-12T14:55:11.999Z</time></trkpt><trkpt lat="45.40931542907012" lon="9.379380130390237"><ele>95.6</ele><time>2026-04-12T14:55:13Z</time></trkpt><trkpt lat="45.40927885086434" lon="9.379264530475073"><ele>95.19999999999999</ele><time>2026-04-12T14:55:14Z</time></trkpt><trkpt lat="45.40923976452369" lon="9.379144319621332"><ele>94.80000000000001</ele><time>2026-04-12T14:55:15Z</time></trkpt><trkpt lat="45.409199453919165" lon="9.379012752417474"><ele>94.4</ele><time>2026-04-12T14:55:16Z</time></trkpt><trkpt lat="45.409161631078206" lon="9.378884209973783"><ele>94.0</ele><time>2026-04-12T14:55:17Z</time></trkpt><trkpt lat="45.409118443638484" lon="9.378744636962306"><ele>93.80000000000001</ele><time>2026-04-12T14:55:18Z</time></trkpt><trkpt lat="45.4090754859539" lon="9.378606689524192"><ele>93.60000000000001</ele><time>2026-04-12T14:55:19Z</time></trkpt><trkpt lat="45.409037559412724" lon="9.378459098157384"><ele>93.4</ele><time>2026-04-12T14:55:20Z</time></trkpt><trkpt lat="45.40899933651713" lon="9.378321337878951"><ele>93.2</ele><time>2026-04-12T14:55:21Z</time></trkpt><trkpt lat="45.40895451577281" lon="9.378175342878063"><ele>93.0</ele><time>2026-04-12T14:55:22Z</time></trkpt><trkpt lat="45.408912834313895" lon="9.378027383619838"><ele>93.25</ele><time>2026-04-12T14:55:23Z</time></trkpt><trkpt lat="45.40887492112137" lon="9.377871813573252"><ele>93.5</ele><time>2026-04-12T14:55:24Z</time></trkpt><trkpt lat="45.40882630509382" lon="9.377716535700415"><ele>93.75</ele><time>2026-04-12T14:55:25Z</time></trkpt><trkpt lat="45.40877759800425" lon="9.377540436246958"><ele>94.0</ele><time>2026-04-12T14:55:26Z</time></trkpt><trkpt lat="45.40872344725844" lon="9.377375550821414"><ele>94.0</ele><time>2026-04-12T14:55:27Z</time></trkpt><trkpt lat="45.40867748246" lon="9.37720675690903"><ele>94.0</ele><time>2026-04-12T14:55:28Z</time></trkpt><trkpt lat="45.40863729728652" lon="9.37703624582254"><ele>94.0</ele><time>2026-04-12T14:55:29Z</time></trkpt><trkpt lat="45.408586040870105" lon="9.376873372565472"><ele>94.0</ele><time>2026-04-12T14:55:30Z</time></trkpt><trkpt lat="45.40854014691652" lon="9.376713587269565"><ele>94.2</ele><time>2026-04-12T14:55:31Z</time></trkpt><trkpt lat="45.408546745460775" lon="9.37655349654454"><ele>94.4</ele><time>2026-04-12T14:55:32Z</time></trkpt><trkpt lat="45.40854595258962" lon="9.376398930066317"><ele>94.6</ele><time>2026-04-12T14:55:33Z</time></trkpt><trkpt lat="45.40859453009569" lon="9.3762586328298"><ele>94.8</ele><time>2026-04-12T14:55:34Z</time></trkpt><trkpt lat="45.40863533296373" lon="9.37612007866207"><ele>95.0</ele><time>2026-04-12T14:55:35Z</time></trkpt><trkpt lat="45.40867286895699" lon="9.37597540595734"><ele>95.0</ele><time>2026-04-12T14:55:36Z</time></trkpt><trkpt lat="45.40872609365889" lon="9.375838644432221"><ele>95.0</ele><time>2026-04-12T14:55:37Z</time></trkpt><trkpt lat="45.408763328109394" lon="9.375703582010845"><ele>95.0</ele><time>2026-04-12T14:55:38Z</time></trkpt><trkpt lat="45.40879878949089" lon="9.375564155562682"><ele>95.0</ele><time>2026-04-12T14:55:39Z</time></trkpt><trkpt lat="45.40883738808783" lon="9.375428316189003"><ele>95.0</ele><time>2026-04-12T14:55:40Z</time></trkpt><trkpt lat="45.4088814255737" lon="9.375303298435554"><ele>95.0</ele><time>2026-04-12T14:55:41Z</time></trkpt><trkpt lat="45.40892183232218" lon="9.375180055308856"><ele>95.0</ele><time>2026-04-12T14:55:42Z</time></trkpt><trkpt lat="45.40895468861266" lon="9.375050674281072"><ele>95.0</ele><time>2026-04-12T14:55:43Z</time></trkpt><trkpt lat="45.4089851676041" lon="9.374936141337862"><ele>95.0</ele><time>2026-04-12T14:55:44Z</time></trkpt><trkpt lat="45.4090156638168" lon="9.374821172629112"><ele>95.0</ele><time>2026-04-12T14:55:45Z</time></trkpt><trkpt lat="45.40905078244118" lon="9.374715875821424"><ele>95.0</ele><time>2026-04-12T14:55:46Z</time></trkpt><trkpt lat="45.40908991044335" lon="9.374622006954542"><ele>94.33333333333334</ele><time>2026-04-12T14:55:47Z</time></trkpt><trkpt lat="45.409123717315424" lon="9.374526938735977"><ele>93.66666666666667</ele><time>2026-04-12T14:55:48Z</time></trkpt><trkpt lat="45.40917262643794" lon="9.374452942362824"><ele>93.0</ele><time>2026-04-12T14:55:49Z</time></trkpt><trkpt lat="45.409243693708156" lon="9.374427887806574"><ele>92.33333333333333</ele><time>2026-04-12T14:55:50Z</time></trkpt><trkpt lat="45.40931810169359" lon="9.374465387923216"><ele>91.66666666666666</ele><time>2026-04-12T14:55:51Z</time></trkpt><trkpt lat="45.40938603470074" lon="9.374554853942831"><ele>91.0</ele><time>2026-04-12T14:55:52Z</time></trkpt><trkpt lat="45.409435385228015" lon="9.374680070223992"><ele>91.8</ele><time>2026-04-12T14:55:53Z</time></trkpt><trkpt lat="45.40947860413772" lon="9.374825529712323"><ele>92.6</ele><time>2026-04-12T14:55:54Z</time></trkpt><trkpt lat="45.40952234163617" lon="9.374954251569205"><ele>93.4</ele><time>2026-04-12T14:55:55Z</time></trkpt><trkpt lat="45.40957699058391" lon="9.375085227225753"><ele>94.2</ele><time>2026-04-12T14:55:56Z</time></trkpt><trkpt lat="45.40963655693325" lon="9.375217668540841"><ele>95.0</ele><time>2026-04-12T14:55:57Z</time></trkpt><trkpt lat="45.4096933527339" lon="9.375345662360848"><ele>95.25</ele><time>2026-04-12T14:55:58Z</time></trkpt><trkpt lat="45.40975926749623" lon="9.375464748481699"><ele>95.5</ele><time>2026-04-12T14:55:59Z</time></trkpt><trkpt lat="45.409836247669375" lon="9.37559431852411"><ele>95.75</ele><time>2026-04-12T14:56:00Z</time></trkpt><trkpt lat="45.40992869821738" lon="9.375715114876174"><ele>96.0</ele><time>2026-04-12T14:56:01Z</time></trkpt><trkpt lat="45.41002385048118" lon="9.37583092250194"><ele>96.75</ele><time>2026-04-12T14:56:02Z</time></trkpt><trkpt lat="45.410118824931125" lon="9.375941877908144"><ele>97.5</ele><time>2026-04-12T14:56:03Z</time></trkpt><trkpt lat="45.41021038141131" lon="9.376061957053535"><ele>98.25</ele><time>2026-04-12T14:56:04Z</time></trkpt><trkpt lat="45.410296275952795" lon="9.376178777630575"><ele>99.0</ele><time>2026-04-12T14:56:05Z</time></trkpt><trkpt lat="45.410389200678416" lon="9.376294369790688"><ele>98.5</ele><time>2026-04-12T14:56:06Z</time></trkpt><trkpt lat="45.41048396977571" lon="9.37641031291206"><ele>98.0</ele><time>2026-04-12T14:56:07Z</time></trkpt><trkpt lat="45.41058357437034" lon="9.376531586709584"><ele>97.5</ele><time>2026-04-12T14:56:08Z</time></trkpt><trkpt lat="45.410697019160125" lon="9.37665241557223"><ele>97.0</ele><time>2026-04-12T14:56:09Z</time></trkpt><trkpt lat="45.410798522099746" lon="9.37676674353644"><ele>96.5</ele><time>2026-04-12T14:56:10Z</time></trkpt><trkpt lat="45.4109113108918" lon="9.376879037259238"><ele>96.0</ele><time>2026-04-12T14:56:11Z</time></trkpt><trkpt lat="45.41098622179723" lon="9.376976440961261"><ele>95.5</ele><time>2026-04-12T14:56:12Z</time></trkpt><trkpt lat="45.41108081192699" lon="9.377067125238138"><ele>95.0</ele><time>2026-04-12T14:56:13Z</time></trkpt><trkpt lat="45.41115907333423" lon="9.377178770651755"><ele>95.0</ele><time>2026-04-12T14:56:14Z</time></trkpt><trkpt lat="45.4112428772114" lon="9.377277382487176"><ele>95.0</ele><time>2026-04-12T14:56:15Z</time></trkpt><trkpt lat="45.41132004850251" lon="9.377359781551641"><ele>95.0</ele><time>2026-04-12T14:56:16Z</time></trkpt><trkpt lat="45.41140145252531" lon="9.377458266609286"><ele>95.0</ele><time>2026-04-12T14:56:17Z</time></trkpt><trkpt lat="45.411486018369345" lon="9.377556503510409"><ele>95.0</ele><time>2026-04-12T14:56:18Z</time></trkpt><trkpt lat="45.411568990381404" lon="9.37765228907098"><ele>95.25</ele><time>2026-04-12T14:56:19Z</time></trkpt><trkpt lat="45.41165309973623" lon="9.377749651101901"><ele>95.5</ele><time>2026-04-12T14:56:20Z</time></trkpt><trkpt lat="45.41174484935625" lon="9.377845903338807"><ele>95.75</ele><time>2026-04-12T14:56:21Z</time></trkpt><trkpt lat="45.411832840622466" lon="9.377952017609926"><ele>96.0</ele><time>2026-04-12T14:56:22Z</time></trkpt><trkpt lat="45.41192237240718" lon="9.378054947461617"><ele>96.0</ele><time>2026-04-12T14:56:23Z</time></trkpt><trkpt lat="45.412006552045" lon="9.378166562378794"><ele>96.0</ele><time>2026-04-12T14:56:24Z</time></trkpt><trkpt lat="45.412081008327554" lon="9.378270000922974"><ele>96.0</ele><time>2026-04-12T14:56:25Z</time></trkpt><trkpt lat="45.412164762523155" lon="9.378374414957927"><ele>96.0</ele><time>2026-04-12T14:56:26Z</time></trkpt><trkpt lat="45.41225146070772" lon="9.378485754489372"><ele>96.0</ele><time>2026-04-12T14:56:27Z</time></trkpt><trkpt lat="45.41234660821674" lon="9.37861018137305"><ele>96.0</ele><time>2026-04-12T14:56:28Z</time></trkpt><trkpt lat="45.412424010828886" lon="9.378728274871143"><ele>96.0</ele><time>2026-04-12T14:56:29Z</time></trkpt><trkpt lat="45.412499325359875" lon="9.378853074396256"><ele>96.0</ele><time>2026-04-12T14:56:30Z</time></trkpt><trkpt lat="45.41255850664053" lon="9.37898717079522"><ele>96.0</ele><time>2026-04-12T14:56:31Z</time></trkpt><trkpt lat="45.41261943139328" lon="9.379113944425217"><ele>96.0</ele><time>2026-04-12T14:56:32Z</time></trkpt><trkpt lat="45.41266319728159" lon="9.379230574141388"><ele>96.25</ele><time>2026-04-12T14:56:33Z</time></trkpt><trkpt lat="45.41269835447651" lon="9.379346927525122"><ele>96.5</ele><time>2026-04-12T14:56:34Z</time></trkpt><trkpt lat="45.41273074089612" lon="9.3794347083309"><ele>96.75</ele><time>2026-04-12T14:56:35Z</time></trkpt><trkpt lat="45.412933917901164" lon="9.379373021822994"><ele>97.0</ele><time>2026-04-12T14:56:37.999Z</time></trkpt><trkpt lat="45.413001986541616" lon="9.379267757089009"><ele>96.6</ele><time>2026-04-12T14:56:38.999Z</time></trkpt><trkpt lat="45.413089070835206" lon="9.379175358222414"><ele>96.19999999999999</ele><time>2026-04-12T14:56:39.999Z</time></trkpt><trkpt lat="45.41317796476527" lon="9.379093281964114"><ele>95.8</ele><time>2026-04-12T14:56:40.999Z</time></trkpt><trkpt lat="45.413256319662736" lon="9.378985586300276"><ele>95.4</ele><time>2026-04-12T14:56:41.999Z</time></trkpt><trkpt lat="45.413328879163195" lon="9.378927510153355"><ele>95.0</ele><time>2026-04-12T14:56:42.999Z</time></trkpt><trkpt lat="45.41326957796004" lon="9.378674643889461"><ele>95.0</ele><time>2026-04-12T14:56:43.999Z</time></trkpt><trkpt lat="45.413238108519764" lon="9.378519801305439"><ele>95.0</ele><time>2026-04-12T14:56:44.999Z</time></trkpt><trkpt lat="45.41325661101242" lon="9.378384921468538"><ele>95.0</ele><time>2026-04-12T14:56:45.999Z</time></trkpt><trkpt lat="45.413289705629616" lon="9.378242663961547"><ele>95.0</ele><time>2026-04-12T14:56:46.999Z</time></trkpt><trkpt lat="45.41332915934478" lon="9.378113165819872"><ele>95.0</ele><time>2026-04-12T14:56:47.999Z</time></trkpt><trkpt lat="45.41336685663374" lon="9.377979368401181"><ele>95.4</ele><time>2026-04-12T14:56:48.999Z</time></trkpt><trkpt lat="45.41338789954324" lon="9.37785892556636"><ele>95.8</ele><time>2026-04-12T14:56:49.999Z</time></trkpt><trkpt lat="45.4134197750725" lon="9.377720577035685"><ele>96.19999999999999</ele><time>2026-04-12T14:56:50.999Z</time></trkpt><trkpt lat="45.41342168958661" lon="9.37756933738421"><ele>96.6</ele><time>2026-04-12T14:56:51.999Z</time></trkpt><trkpt lat="45.41337819033781" lon="9.377417673210456"><ele>97.0</ele><time>2026-04-12T14:56:52.999Z</time></trkpt><trkpt lat="45.41335038634084" lon="9.37725923896573"><ele>96.83333333333334</ele><time>2026-04-12T14:56:53.999Z</time></trkpt><trkpt lat="45.41336400539689" lon="9.377115387736769"><ele>96.66666666666667</ele><time>2026-04-12T14:56:54.999Z</time></trkpt><trkpt lat="45.41338220695855" lon="9.376984619845308"><ele>96.5</ele><time>2026-04-12T14:56:55.999Z</time></trkpt><trkpt lat="45.413395489459226" lon="9.376867956924674"><ele>96.33333333333334</ele><time>2026-04-12T14:56:56.999Z</time></trkpt><trkpt lat="45.41338960178968" lon="9.376760357865477"><ele>96.16666666666667</ele><time>2026-04-12T14:56:57.999Z</time></trkpt><trkpt lat="45.413374252151904" lon="9.376667225988106"><ele>96.0</ele><time>2026-04-12T14:56:58.999Z</time></trkpt><trkpt lat="45.413311484886556" lon="9.376538478390259"><ele>96.0</ele><time>2026-04-12T14:57:00.999Z</time></trkpt><trkpt lat="45.41321767126559" lon="9.376392526020354"><ele>96.0</ele><time>2026-04-12T14:57:02.999Z</time></trkpt><trkpt lat="45.413174813760236" lon="9.37628068729506"><ele>96.0</ele><time>2026-04-12T14:57:03.999Z</time></trkpt><trkpt lat="45.413176356887405" lon="9.376090157693607"><ele>96.0</ele><time>2026-04-12T14:57:04.999Z</time></trkpt><trkpt lat="45.413205682849274" lon="9.375872725686685"><ele>95.75</ele><time>2026-04-12T14:57:05.999Z</time></trkpt><trkpt lat="45.413254718924954" lon="9.375661809203509"><ele>95.5</ele><time>2026-04-12T14:57:06.999Z</time></trkpt><trkpt lat="45.41327652373317" lon="9.375465082959936"><ele>95.25</ele><time>2026-04-12T14:57:07.999Z</time></trkpt><trkpt lat="45.413273412930934" lon="9.37533008472009"><ele>95.0</ele><time>2026-04-12T14:57:08.999Z</time></trkpt><trkpt lat="45.41327903055793" lon="9.375205552469287"><ele>95.0</ele><time>2026-04-12T14:57:09.999Z</time></trkpt><trkpt lat="45.4133208448262" lon="9.375099585078894"><ele>95.0</ele><time>2026-04-12T14:57:10.999Z</time></trkpt><trkpt lat="45.41332748588637" lon="9.37496653237511"><ele>95.0</ele><time>2026-04-12T14:57:11.999Z</time></trkpt><trkpt lat="45.41332322616141" lon="9.374828856571296"><ele>95.0</ele><time>2026-04-12T14:57:12.999Z</time></trkpt><trkpt lat="45.41331933634097" lon="9.37471934057372"><ele>95.0</ele><time>2026-04-12T14:57:13.999Z</time></trkpt><trkpt lat="45.41330023523269" lon="9.374572498115551"><ele>95.2</ele><time>2026-04-12T14:57:15.999Z</time></trkpt><trkpt lat="45.413313844960456" lon="9.374457993018334"><ele>95.4</ele><time>2026-04-12T14:57:17.999Z</time></trkpt><trkpt lat="45.41341436760523" lon="9.37432521870671"><ele>95.6</ele><time>2026-04-12T14:57:20Z</time></trkpt><trkpt lat="45.41351086983879" lon="9.37429451624736"><ele>95.8</ele><time>2026-04-12T14:57:21Z</time></trkpt><trkpt lat="45.41362015248602" lon="9.374300235346533"><ele>96.0</ele><time>2026-04-12T14:57:22Z</time></trkpt><trkpt lat="45.41372807977334" lon="9.37429023131376"><ele>95.99999999999999</ele><time>2026-04-12T14:57:23Z</time></trkpt><trkpt lat="45.4138130547376" lon="9.374265912662162"><ele>96.0</ele><time>2026-04-12T14:57:24Z</time></trkpt><trkpt lat="45.4138894035931" lon="9.374252868836578"><ele>96.0</ele><time>2026-04-12T14:57:25Z</time></trkpt><trkpt lat="45.413957107520915" lon="9.37424873941083"><ele>96.0</ele><time>2026-04-12T14:57:26Z</time></trkpt><trkpt lat="45.41402558690025" lon="9.374237904537123"><ele>96.0</ele><time>2026-04-12T14:57:27Z</time></trkpt><trkpt lat="45.414093245307875" lon="9.374222547513208"><ele>95.99999999999999</ele><time>2026-04-12T14:57:28Z</time></trkpt><trkpt lat="45.414152100161544" lon="9.374187737579511"><ele>96.0</ele><time>2026-04-12T14:57:29Z</time></trkpt><trkpt lat="45.41417744826375" lon="9.374101822898579"><ele>96.25</ele><time>2026-04-12T14:57:30Z</time></trkpt><trkpt lat="45.414196454970366" lon="9.373967298203022"><ele>96.5</ele><time>2026-04-12T14:57:31Z</time></trkpt><trkpt lat="45.41417841411761" lon="9.373839179828812"><ele>96.75</ele><time>2026-04-12T14:57:32Z</time></trkpt><trkpt lat="45.414156750326406" lon="9.373710915738927"><ele>97.0</ele><time>2026-04-12T14:57:33Z</time></trkpt><trkpt lat="45.414336289927036" lon="9.373607746355018"><ele>96.5</ele><time>2026-04-12T14:57:34Z</time></trkpt><trkpt lat="45.41436665813678" lon="9.373434083705504"><ele>96.0</ele><time>2026-04-12T14:57:35Z</time></trkpt><trkpt lat="45.41440690678639" lon="9.37324704635337"><ele>95.5</ele><time>2026-04-12T14:57:36Z</time></trkpt><trkpt lat="45.4144588004162" lon="9.373053378342133"><ele>95.0</ele><time>2026-04-12T14:57:37Z</time></trkpt><trkpt lat="45.414521519072686" lon="9.372861277574382"><ele>95.0</ele><time>2026-04-12T14:57:38Z</time></trkpt><trkpt lat="45.41457682056343" lon="9.372713784916632"><ele>95.0</ele><time>2026-04-12T14:57:39Z</time></trkpt><trkpt lat="45.414625108390304" lon="9.372597332801941"><ele>95.0</ele><time>2026-04-12T14:57:40Z</time></trkpt><trkpt lat="45.41467371803033" lon="9.372487798073815"><ele>95.0</ele><time>2026-04-12T14:57:41Z</time></trkpt><trkpt lat="45.41471834765897" lon="9.372394234609766"><ele>95.0</ele><time>2026-04-12T14:57:42Z</time></trkpt><trkpt lat="45.41476518368058" lon="9.372302242473662"><ele>95.2</ele><time>2026-04-12T14:57:43Z</time></trkpt><trkpt lat="45.41480949680697" lon="9.372220024973887"><ele>95.4</ele><time>2026-04-12T14:57:44Z</time></trkpt><trkpt lat="45.414856280500686" lon="9.372139144495922"><ele>95.6</ele><time>2026-04-12T14:57:45Z</time></trkpt><trkpt lat="45.41491375662568" lon="9.372042148426083"><ele>95.8</ele><time>2026-04-12T14:57:46Z</time></trkpt><trkpt lat="45.414984783699246" lon="9.371922283953491"><ele>96.0</ele><time>2026-04-12T14:57:47Z</time></trkpt><trkpt lat="45.41506182004163" lon="9.371792278295738"><ele>96.0</ele><time>2026-04-12T14:57:48Z</time></trkpt><trkpt lat="45.415138834971444" lon="9.371662308738191"><ele>96.0</ele><time>2026-04-12T14:57:49Z</time></trkpt><trkpt lat="45.415204854166134" lon="9.371517666165545"><ele>96.0</ele><time>2026-04-12T14:57:50Z</time></trkpt><trkpt lat="45.41528382660817" lon="9.371420748808914"><ele>96.0</ele><time>2026-04-12T14:57:51Z</time></trkpt><trkpt lat="45.415346157560634" lon="9.371297614366247"><ele>96.0</ele><time>2026-04-12T14:57:52Z</time></trkpt><trkpt lat="45.415383998869345" lon="9.371183064582853"><ele>96.0</ele><time>2026-04-12T14:57:53Z</time></trkpt><trkpt lat="45.415447629939436" lon="9.371111889553807"><ele>96.0</ele><time>2026-04-12T14:57:54Z</time></trkpt><trkpt lat="45.4155356683323" lon="9.371086857790088"><ele>96.0</ele><time>2026-04-12T14:57:55Z</time></trkpt><trkpt lat="45.41562549430358" lon="9.371126287931242"><ele>96.0</ele><time>2026-04-12T14:57:56Z</time></trkpt><trkpt lat="45.41570601411982" lon="9.371226016272567"><ele>96.25</ele><time>2026-04-12T14:57:57Z</time></trkpt><trkpt lat="45.41578631434834" lon="9.37134898020327"><ele>96.5</ele><time>2026-04-12T14:57:58Z</time></trkpt><trkpt lat="45.4158650483927" lon="9.371486240168016"><ele>96.75</ele><time>2026-04-12T14:57:59Z</time></trkpt><trkpt lat="45.415974158904575" lon="9.371612193272764"><ele>97.0</ele><time>2026-04-12T14:58:00Z</time></trkpt><trkpt lat="45.41607590149171" lon="9.371692610350385"><ele>97.0</ele><time>2026-04-12T14:58:01Z</time></trkpt><trkpt lat="45.416128460021525" lon="9.371812348238532"><ele>97.0</ele><time>2026-04-12T14:58:02Z</time></trkpt><trkpt lat="45.416220396819064" lon="9.37190343686379"><ele>97.0</ele><time>2026-04-12T14:58:03Z</time></trkpt><trkpt lat="45.4162864699542" lon="9.371991375881928"><ele>97.0</ele><time>2026-04-12T14:58:04Z</time></trkpt><trkpt lat="45.416341843625396" lon="9.372065106953634"><ele>97.0</ele><time>2026-04-12T14:58:05Z</time></trkpt><trkpt lat="45.41641847073127" lon="9.37211756689628"><ele>97.19999999999999</ele><time>2026-04-12T14:58:06Z</time></trkpt><trkpt lat="45.41645174443941" lon="9.372207673987829"><ele>97.4</ele><time>2026-04-12T14:58:07Z</time></trkpt><trkpt lat="45.416441824403286" lon="9.372304728435596"><ele>97.6</ele><time>2026-04-12T14:58:08Z</time></trkpt><trkpt lat="45.416386716005334" lon="9.37241739878855"><ele>97.80000000000001</ele><time>2026-04-12T14:58:09Z</time></trkpt><trkpt lat="45.41630329457393" lon="9.372516165091907"><ele>98.0</ele><time>2026-04-12T14:58:10Z</time></trkpt><trkpt lat="45.416210601399825" lon="9.37265299904552"><ele>98.0</ele><time>2026-04-12T14:58:11Z</time></trkpt><trkpt lat="45.41610159784134" lon="9.372852904512994"><ele>98.0</ele><time>2026-04-12T14:58:12Z</time></trkpt><trkpt lat="45.41598218482396" lon="9.373091756641637"><ele>98.0</ele><time>2026-04-12T14:58:13Z</time></trkpt><trkpt lat="45.41587785245897" lon="9.373347806390793"><ele>97.75</ele><time>2026-04-12T14:58:14Z</time></trkpt><trkpt lat="45.41580846937146" lon="9.373566516939322"><ele>97.5</ele><time>2026-04-12T14:58:15Z</time></trkpt><trkpt lat="45.41576172699839" lon="9.373752795887032"><ele>97.25</ele><time>2026-04-12T14:58:16Z</time></trkpt><trkpt lat="45.415720813459465" lon="9.373929259260754"><ele>97.0</ele><time>2026-04-12T14:58:17Z</time></trkpt><trkpt lat="45.41568393374115" lon="9.374107663848534"><ele>97.0</ele><time>2026-04-12T14:58:18Z</time></trkpt><trkpt lat="45.41565841374207" lon="9.374266191723626"><ele>97.0</ele><time>2026-04-12T14:58:19Z</time></trkpt><trkpt lat="45.415641195329954" lon="9.374432690823884"><ele>97.0</ele><time>2026-04-12T14:58:20Z</time></trkpt><trkpt lat="45.415629361941285" lon="9.374595931900492"><ele>97.0</ele><time>2026-04-12T14:58:21Z</time></trkpt><trkpt lat="45.41562118273279" lon="9.374757964586012"><ele>97.0</ele><time>2026-04-12T14:58:22Z</time></trkpt><trkpt lat="45.41561593688463" lon="9.374899109122971"><ele>97.0</ele><time>2026-04-12T14:58:23Z</time></trkpt><trkpt lat="45.41561639165325" lon="9.375059565178672"><ele>97.0</ele><time>2026-04-12T14:58:24Z</time></trkpt><trkpt lat="45.41562405262158" lon="9.375215261586842"><ele>97.0</ele><time>2026-04-12T14:58:25Z</time></trkpt><trkpt lat="45.41562585583883" lon="9.37536309164778"><ele>97.0</ele><time>2026-04-12T14:58:26Z</time></trkpt><trkpt lat="45.41563951681812" lon="9.375499605600016"><ele>97.16666666666667</ele><time>2026-04-12T14:58:27Z</time></trkpt><trkpt lat="45.415658514573366" lon="9.375643899352465"><ele>97.33333333333334</ele><time>2026-04-12T14:58:28Z</time></trkpt><trkpt lat="45.41567719747351" lon="9.375781480560427"><ele>97.5</ele><time>2026-04-12T14:58:29Z</time></trkpt><trkpt lat="45.415695159914016" lon="9.375916154294172"><ele>97.66666666666666</ele><time>2026-04-12T14:58:30Z</time></trkpt><trkpt lat="45.41570274906816" lon="9.376029165863693"><ele>97.83333333333333</ele><time>2026-04-12T14:58:31Z</time></trkpt><trkpt lat="45.415677958783355" lon="9.376113714382733"><ele>98.0</ele><time>2026-04-12T14:58:32Z</time></trkpt><trkpt lat="45.415632885390785" lon="9.376208032549338"><ele>98.0</ele><time>2026-04-12T14:58:33Z</time></trkpt><trkpt lat="45.41558684056829" lon="9.37626956540816"><ele>98.0</ele><time>2026-04-12T14:58:34Z</time></trkpt><trkpt lat="45.4154738906339" lon="9.376274629353198"><ele>98.0</ele><time>2026-04-12T14:58:36Z</time></trkpt><trkpt lat="45.41544662052815" lon="9.376108478924472"><ele>98.0</ele><time>2026-04-12T14:58:37.999Z</time></trkpt><trkpt lat="45.41542067344791" lon="9.37601977344065"><ele>98.0</ele><time>2026-04-12T14:58:38.999Z</time></trkpt><trkpt lat="45.41542311063726" lon="9.375896699478776"><ele>96.0</ele><time>2026-04-12T14:58:39.999Z</time></trkpt><trkpt lat="45.415407577335046" lon="9.375800436811552"><ele>96.0</ele><time>2026-04-12T14:58:40.999Z</time></trkpt><trkpt lat="45.41538787451894" lon="9.375637864863965"><ele>96.0</ele><time>2026-04-12T14:58:42.999Z</time></trkpt><trkpt lat="45.41537943744206" lon="9.375493629268403"><ele>98.0</ele><time>2026-04-12T14:58:44.999Z</time></trkpt><trkpt lat="45.41537792550727" lon="9.375369685139693"><ele>98.0</ele><time>2026-04-12T14:58:46.999Z</time></trkpt></trkseg></trk></gpx>